<?xml version='1.0' encoding='UTF-8'?><gpx version="1.1" creator="JPX - https://github.com/jenetics/jpx" xmlns="http://www.topografix.com/GPX/1/1"><trk><trkseg><trkpt lat="40.8820567" lon="16.646175"><ele>458.79999999999995</ele><time>2026-04-12T09:49:07.657Z</time></trkpt><trkpt lat="40.88215" lon="16.646055"><ele>458.59999999999997</ele><time>2026-04-12T09:49:09.657Z</time></trkpt><trkpt lat="40.8822067" lon="16.6459633"><ele>458.4</ele><time>2026-04-12T09:49:10.658Z</time></trkpt><trkpt lat="40.8822583" lon="16.6458767"><ele>458.2</ele><time>2026-04-12T09:49:11.657Z</time></trkpt><trkpt lat="40.88231" lon="16.645775"><ele>458.0</ele><time>2026-04-12T09:49:12.657Z</time></trkpt><trkpt lat="40.8823717" lon="16.645685"><ele>457.99999999999994</ele><time>2026-04-12T09:49:13.657Z</time></trkpt><trkpt lat="40.8824367" lon="16.6455967"><ele>458.0</ele><time>2026-04-12T09:49:14.657Z</time></trkpt><trkpt lat="40.882485" lon="16.6455167"><ele>458.0</ele><time>2026-04-12T09:49:15.658Z</time></trkpt><trkpt lat="40.8825467" lon="16.6454383"><ele>458.0</ele><time>2026-04-12T09:49:16.657Z</time></trkpt><trkpt lat="40.8826083" lon="16.64538"><ele>457.99999999999994</ele><time>2026-04-12T09:49:17.657Z</time></trkpt><trkpt lat="40.882665" lon="16.6453183"><ele>458.0</ele><time>2026-04-12T09:49:18.658Z</time></trkpt><trkpt lat="40.8827433" lon="16.6452117"><ele>458.0</ele><time>2026-04-12T09:49:20.658Z</time></trkpt><trkpt lat="40.8828317" lon="16.6451117"><ele>457.99999999999994</ele><time>2026-04-12T09:50:53.658Z</time></trkpt><trkpt lat="40.8828933" lon="16.6450167"><ele>457.99999999999994</ele><time>2026-04-12T09:50:56.658Z</time></trkpt><trkpt lat="40.8829367" lon="16.6449517"><ele>458.0</ele><time>2026-04-12T09:50:58.659Z</time></trkpt><trkpt lat="40.8829833" lon="16.6448783"><ele>458.0</ele><time>2026-04-12T09:51:00.658Z</time></trkpt><trkpt lat="40.883045" lon="16.6447717"><ele>458.0</ele><time>2026-04-12T09:51:02.659Z</time></trkpt><trkpt lat="40.88309" lon="16.6447017"><ele>457.99999999999994</ele><time>2026-04-12T09:51:03.658Z</time></trkpt><trkpt lat="40.8831567" lon="16.6446033"><ele>457.99999999999994</ele><time>2026-04-12T09:51:04.658Z</time></trkpt><trkpt lat="40.8832167" lon="16.644515"><ele>458.0</ele><time>2026-04-12T09:51:05.658Z</time></trkpt><trkpt lat="40.8832883" lon="16.6444217"><ele>458.0</ele><time>2026-04-12T09:51:06.659Z</time></trkpt><trkpt lat="40.8833617" lon="16.64433"><ele>459.49999999999994</ele><time>2026-04-12T09:51:07.658Z</time></trkpt><trkpt lat="40.8834317" lon="16.6442517"><ele>461.0</ele><time>2026-04-12T09:51:08.659Z</time></trkpt><trkpt lat="40.8834867" lon="16.6441833"><ele>462.5</ele><time>2026-04-12T09:51:09.658Z</time></trkpt><trkpt lat="40.883535" lon="16.6441217"><ele>464.0</ele><time>2026-04-12T09:51:10.658Z</time></trkpt><trkpt lat="40.8835767" lon="16.644045"><ele>465.49999999999994</ele><time>2026-04-12T09:51:11.658Z</time></trkpt><trkpt lat="40.8836533" lon="16.6439317"><ele>467.0</ele><time>2026-04-12T09:51:13.659Z</time></trkpt><trkpt lat="40.8837183" lon="16.6438183"><ele>466.99999999999994</ele><time>2026-04-12T09:51:15.658Z</time></trkpt><trkpt lat="40.8837633" lon="16.6437483"><ele>467.0</ele><time>2026-04-12T09:51:16.658Z</time></trkpt><trkpt lat="40.88381" lon="16.6436783"><ele>467.0</ele><time>2026-04-12T09:51:17.659Z</time></trkpt><trkpt lat="40.8838633" lon="16.64359"><ele>467.0</ele><time>2026-04-12T09:51:18.658Z</time></trkpt><trkpt lat="40.8839233" lon="16.6434833"><ele>466.99999999999994</ele><time>2026-04-12T09:51:19.659Z</time></trkpt><trkpt lat="40.8839883" lon="16.6433783"><ele>467.0</ele><time>2026-04-12T09:51:20.658Z</time></trkpt><trkpt lat="40.884055" lon="16.6432683"><ele>466.8</ele><time>2026-04-12T09:51:21.658Z</time></trkpt><trkpt lat="40.8841217" lon="16.643145"><ele>466.6</ele><time>2026-04-12T09:51:22.658Z</time></trkpt><trkpt lat="40.8841783" lon="16.64303"><ele>466.40000000000003</ele><time>2026-04-12T09:51:23.658Z</time></trkpt><trkpt lat="40.88424" lon="16.6429233"><ele>466.20000000000005</ele><time>2026-04-12T09:51:24.658Z</time></trkpt><trkpt lat="40.8842983" lon="16.6428133"><ele>466.0</ele><time>2026-04-12T09:51:25.658Z</time></trkpt><trkpt lat="40.8843583" lon="16.64269"><ele>466.0</ele><time>2026-04-12T09:51:26.658Z</time></trkpt><trkpt lat="40.8844167" lon="16.6425633"><ele>466.0</ele><time>2026-04-12T09:51:27.658Z</time></trkpt><trkpt lat="40.8844733" lon="16.6424367"><ele>466.0</ele><time>2026-04-12T09:51:28.658Z</time></trkpt><trkpt lat="40.8845333" lon="16.6423217"><ele>466.0</ele><time>2026-04-12T09:51:29.658Z</time></trkpt><trkpt lat="40.8845867" lon="16.6422083"><ele>466.0</ele><time>2026-04-12T09:51:30.658Z</time></trkpt><trkpt lat="40.8846417" lon="16.6421"><ele>466.0</ele><time>2026-04-12T09:51:31.658Z</time></trkpt><trkpt lat="40.88469" lon="16.641985"><ele>466.0</ele><time>2026-04-12T09:51:32.659Z</time></trkpt><trkpt lat="40.884735" lon="16.64188"><ele>466.0</ele><time>2026-04-12T09:51:33.658Z</time></trkpt><trkpt lat="40.884785" lon="16.6417717"><ele>466.0</ele><time>2026-04-12T09:51:34.658Z</time></trkpt><trkpt lat="40.8848483" lon="16.6416667"><ele>466.0</ele><time>2026-04-12T09:51:35.658Z</time></trkpt><trkpt lat="40.8849167" lon="16.6415617"><ele>465.25</ele><time>2026-04-12T09:51:36.658Z</time></trkpt><trkpt lat="40.88499" lon="16.641455"><ele>464.5</ele><time>2026-04-12T09:51:37.659Z</time></trkpt><trkpt lat="40.8850667" lon="16.6413333"><ele>463.75</ele><time>2026-04-12T09:51:38.658Z</time></trkpt><trkpt lat="40.885145" lon="16.6412083"><ele>463.0</ele><time>2026-04-12T09:51:39.658Z</time></trkpt><trkpt lat="40.8852217" lon="16.6410783"><ele>462.25</ele><time>2026-04-12T09:51:40.659Z</time></trkpt><trkpt lat="40.8852983" lon="16.6409583"><ele>461.5</ele><time>2026-04-12T09:51:41.659Z</time></trkpt><trkpt lat="40.8853883" lon="16.6408583"><ele>460.75</ele><time>2026-04-12T09:51:42.659Z</time></trkpt><trkpt lat="40.8854867" lon="16.6407617"><ele>460.0</ele><time>2026-04-12T09:51:43.659Z</time></trkpt><trkpt lat="40.8855783" lon="16.6406583"><ele>460.0</ele><time>2026-04-12T09:51:44.659Z</time></trkpt><trkpt lat="40.885665" lon="16.64057"><ele>460.0</ele><time>2026-04-12T09:51:45.658Z</time></trkpt><trkpt lat="40.8857467" lon="16.64048"><ele>460.0</ele><time>2026-04-12T09:51:46.659Z</time></trkpt><trkpt lat="40.8858083" lon="16.640395"><ele>460.0</ele><time>2026-04-12T09:51:47.658Z</time></trkpt><trkpt lat="40.8858583" lon="16.640295"><ele>460.0</ele><time>2026-04-12T09:51:48.658Z</time></trkpt><trkpt lat="40.8859083" lon="16.64019"><ele>458.8</ele><time>2026-04-12T09:51:49.658Z</time></trkpt><trkpt lat="40.88597" lon="16.6400733"><ele>457.6</ele><time>2026-04-12T09:51:50.658Z</time></trkpt><trkpt lat="40.8860317" lon="16.639945"><ele>456.4</ele><time>2026-04-12T09:51:51.658Z</time></trkpt><trkpt lat="40.8860933" lon="16.6398217"><ele>455.2</ele><time>2026-04-12T09:51:52.658Z</time></trkpt><trkpt lat="40.8861433" lon="16.639705"><ele>454.0</ele><time>2026-04-12T09:51:53.658Z</time></trkpt><trkpt lat="40.8862" lon="16.639605"><ele>454.0</ele><time>2026-04-12T09:51:54.659Z</time></trkpt><trkpt lat="40.8862633" lon="16.6395133"><ele>454.0</ele><time>2026-04-12T09:51:55.658Z</time></trkpt><trkpt lat="40.8863317" lon="16.639405"><ele>454.0</ele><time>2026-04-12T09:51:56.658Z</time></trkpt><trkpt lat="40.8863933" lon="16.6393067"><ele>454.0</ele><time>2026-04-12T09:51:57.659Z</time></trkpt><trkpt lat="40.8864567" lon="16.6392133"><ele>454.0</ele><time>2026-04-12T09:51:58.659Z</time></trkpt><trkpt lat="40.886525" lon="16.6391267"><ele>454.1666666666667</ele><time>2026-04-12T09:51:59.659Z</time></trkpt><trkpt lat="40.8865833" lon="16.6390417"><ele>454.33333333333337</ele><time>2026-04-12T09:52:00.659Z</time></trkpt><trkpt lat="40.8866467" lon="16.63896"><ele>454.5</ele><time>2026-04-12T09:52:01.658Z</time></trkpt><trkpt lat="40.8866983" lon="16.6388817"><ele>454.66666666666663</ele><time>2026-04-12T09:52:02.658Z</time></trkpt><trkpt lat="40.8867483" lon="16.6388183"><ele>454.8333333333333</ele><time>2026-04-12T09:52:03.659Z</time></trkpt><trkpt lat="40.8867933" lon="16.63875"><ele>455.0</ele><time>2026-04-12T09:52:04.658Z</time></trkpt><trkpt lat="40.88684" lon="16.638685"><ele>454.8</ele><time>2026-04-12T09:52:05.658Z</time></trkpt><trkpt lat="40.8869567" lon="16.6386267"><ele>454.6</ele><time>2026-04-12T09:52:07.658Z</time></trkpt><trkpt lat="40.887035" lon="16.6386217"><ele>454.4</ele><time>2026-04-12T09:52:08.658Z</time></trkpt><trkpt lat="40.8871233" lon="16.6386217"><ele>454.2</ele><time>2026-04-12T09:52:09.659Z</time></trkpt><trkpt lat="40.887215" lon="16.6386233"><ele>454.0</ele><time>2026-04-12T09:52:10.658Z</time></trkpt><trkpt lat="40.887315" lon="16.6386167"><ele>454.0</ele><time>2026-04-12T09:52:11.659Z</time></trkpt><trkpt lat="40.8874133" lon="16.6386033"><ele>454.0</ele><time>2026-04-12T09:52:12.658Z</time></trkpt><trkpt lat="40.887515" lon="16.6385667"><ele>454.0</ele><time>2026-04-12T09:52:13.659Z</time></trkpt><trkpt lat="40.887605" lon="16.638535"><ele>454.0</ele><time>2026-04-12T09:52:14.659Z</time></trkpt><trkpt lat="40.8877033" lon="16.6385033"><ele>454.0</ele><time>2026-04-12T09:52:15.659Z</time></trkpt><trkpt lat="40.8877967" lon="16.6384733"><ele>454.0</ele><time>2026-04-12T09:52:16.659Z</time></trkpt><trkpt lat="40.8878883" lon="16.63843"><ele>454.0</ele><time>2026-04-12T09:52:17.658Z</time></trkpt><trkpt lat="40.8879783" lon="16.6383867"><ele>454.0</ele><time>2026-04-12T09:52:18.659Z</time></trkpt><trkpt lat="40.8880783" lon="16.638355"><ele>454.0</ele><time>2026-04-12T09:52:19.658Z</time></trkpt><trkpt lat="40.8881817" lon="16.638315"><ele>454.0</ele><time>2026-04-12T09:52:20.658Z</time></trkpt><trkpt lat="40.8882883" lon="16.6382717"><ele>454.0</ele><time>2026-04-12T09:52:21.658Z</time></trkpt><trkpt lat="40.8883917" lon="16.6382217"><ele>454.0</ele><time>2026-04-12T09:52:22.658Z</time></trkpt><trkpt lat="40.8884983" lon="16.6381683"><ele>454.0</ele><time>2026-04-12T09:52:23.659Z</time></trkpt><trkpt lat="40.8886017" lon="16.638125"><ele>454.0</ele><time>2026-04-12T09:52:24.658Z</time></trkpt><trkpt lat="40.8886933" lon="16.638105"><ele>454.0</ele><time>2026-04-12T09:52:25.658Z</time></trkpt><trkpt lat="40.88878" lon="16.6380783"><ele>454.33333333333337</ele><time>2026-04-12T09:52:26.658Z</time></trkpt><trkpt lat="40.88885" lon="16.63806"><ele>454.6666666666667</ele><time>2026-04-12T09:52:27.659Z</time></trkpt><trkpt lat="40.8889217" lon="16.6380517"><ele>455.0</ele><time>2026-04-12T09:52:28.658Z</time></trkpt><trkpt lat="40.8890083" lon="16.6380517"><ele>455.33333333333337</ele><time>2026-04-12T09:52:29.658Z</time></trkpt><trkpt lat="40.889095" lon="16.6380667"><ele>455.6666666666667</ele><time>2026-04-12T09:52:30.659Z</time></trkpt><trkpt lat="40.8891717" lon="16.6380817"><ele>456.0</ele><time>2026-04-12T09:52:31.658Z</time></trkpt><trkpt lat="40.88924" lon="16.6381017"><ele>456.0</ele><time>2026-04-12T09:52:32.659Z</time></trkpt><trkpt lat="40.8893383" lon="16.6381083"><ele>456.0</ele><time>2026-04-12T09:52:34.659Z</time></trkpt><trkpt lat="40.88942" lon="16.6381617"><ele>456.0</ele><time>2026-04-12T09:52:36.658Z</time></trkpt><trkpt lat="40.889465" lon="16.6382433"><ele>456.0</ele><time>2026-04-12T09:52:38.659Z</time></trkpt><trkpt lat="40.8895483" lon="16.6383633"><ele>456.0</ele><time>2026-04-12T09:52:40.658Z</time></trkpt><trkpt lat="40.8895983" lon="16.6384267"><ele>456.0</ele><time>2026-04-12T09:52:41.658Z</time></trkpt><trkpt lat="40.8896467" lon="16.638495"><ele>456.0</ele><time>2026-04-12T09:52:42.659Z</time></trkpt><trkpt lat="40.8897167" lon="16.63856"><ele>456.0</ele><time>2026-04-12T09:52:43.658Z</time></trkpt><trkpt lat="40.8897867" lon="16.6386517"><ele>456.0</ele><time>2026-04-12T09:52:44.658Z</time></trkpt><trkpt lat="40.8898483" lon="16.63876"><ele>456.0</ele><time>2026-04-12T09:52:45.659Z</time></trkpt><trkpt lat="40.889915" lon="16.6388783"><ele>455.5</ele><time>2026-04-12T09:52:46.658Z</time></trkpt><trkpt lat="40.88997" lon="16.6390167"><ele>455.0</ele><time>2026-04-12T09:52:47.659Z</time></trkpt><trkpt lat="40.890025" lon="16.6391617"><ele>454.5</ele><time>2026-04-12T09:52:48.658Z</time></trkpt><trkpt lat="40.890085" lon="16.6393167"><ele>454.0</ele><time>2026-04-12T09:52:49.658Z</time></trkpt><trkpt lat="40.89015" lon="16.63947"><ele>453.0</ele><time>2026-04-12T09:52:50.658Z</time></trkpt><trkpt lat="40.890215" lon="16.6396183"><ele>452.0</ele><time>2026-04-12T09:52:51.658Z</time></trkpt><trkpt lat="40.890275" lon="16.6397467"><ele>451.0</ele><time>2026-04-12T09:52:52.658Z</time></trkpt><trkpt lat="40.8903317" lon="16.63986"><ele>450.0</ele><time>2026-04-12T09:52:53.659Z</time></trkpt><trkpt lat="40.8903817" lon="16.639965"><ele>449.0</ele><time>2026-04-12T09:52:54.659Z</time></trkpt><trkpt lat="40.89042" lon="16.64007"><ele>448.99999999999994</ele><time>2026-04-12T09:52:55.658Z</time></trkpt><trkpt lat="40.890465" lon="16.64017"><ele>449.0</ele><time>2026-04-12T09:52:56.658Z</time></trkpt><trkpt lat="40.8905117" lon="16.64027"><ele>449.0</ele><time>2026-04-12T09:52:57.659Z</time></trkpt><trkpt lat="40.8905533" lon="16.6403617"><ele>449.0</ele><time>2026-04-12T09:52:58.658Z</time></trkpt><trkpt lat="40.8905883" lon="16.6404383"><ele>448.99999999999994</ele><time>2026-04-12T09:52:59.658Z</time></trkpt><trkpt lat="40.8906383" lon="16.640505"><ele>449.0</ele><time>2026-04-12T09:53:00.658Z</time></trkpt><trkpt lat="40.8907317" lon="16.6405883"><ele>448.66666666666663</ele><time>2026-04-12T09:53:02.659Z</time></trkpt><trkpt lat="40.89084" lon="16.6406017"><ele>448.3333333333333</ele><time>2026-04-12T09:53:04.659Z</time></trkpt><trkpt lat="40.8909033" lon="16.6406"><ele>448.0</ele><time>2026-04-12T09:53:05.659Z</time></trkpt><trkpt lat="40.890995" lon="16.640585"><ele>447.66666666666663</ele><time>2026-04-12T09:53:07.658Z</time></trkpt><trkpt lat="40.8910633" lon="16.640535"><ele>447.3333333333333</ele><time>2026-04-12T09:53:09.659Z</time></trkpt><trkpt lat="40.8911183" lon="16.6404167"><ele>447.0</ele><time>2026-04-12T09:53:11.658Z</time></trkpt><trkpt lat="40.8911217" lon="16.640325"><ele>446.8</ele><time>2026-04-12T09:53:12.659Z</time></trkpt><trkpt lat="40.8911117" lon="16.6402033"><ele>446.6</ele><time>2026-04-12T09:53:13.659Z</time></trkpt><trkpt lat="40.8911017" lon="16.64007"><ele>446.40000000000003</ele><time>2026-04-12T09:53:14.659Z</time></trkpt><trkpt lat="40.8911" lon="16.6399283"><ele>446.20000000000005</ele><time>2026-04-12T09:53:15.658Z</time></trkpt><trkpt lat="40.8910967" lon="16.6397767"><ele>446.0</ele><time>2026-04-12T09:53:16.659Z</time></trkpt><trkpt lat="40.8910933" lon="16.6396133"><ele>446.0</ele><time>2026-04-12T09:53:17.658Z</time></trkpt><trkpt lat="40.8910883" lon="16.6394333"><ele>446.0</ele><time>2026-04-12T09:53:18.658Z</time></trkpt><trkpt lat="40.8910817" lon="16.639255"><ele>446.0</ele><time>2026-04-12T09:53:19.658Z</time></trkpt><trkpt lat="40.8910817" lon="16.639055"><ele>446.0</ele><time>2026-04-12T09:53:20.659Z</time></trkpt><trkpt lat="40.8910917" lon="16.6388533"><ele>446.0</ele><time>2026-04-12T09:53:21.658Z</time></trkpt><trkpt lat="40.8910983" lon="16.6386517"><ele>446.0</ele><time>2026-04-12T09:53:22.658Z</time></trkpt><trkpt lat="40.89109" lon="16.6384733"><ele>446.0</ele><time>2026-04-12T09:53:23.658Z</time></trkpt><trkpt lat="40.89109" lon="16.6383133"><ele>446.0</ele><time>2026-04-12T09:53:24.658Z</time></trkpt><trkpt lat="40.8910967" lon="16.63814"><ele>446.0</ele><time>2026-04-12T09:53:25.658Z</time></trkpt><trkpt lat="40.8911017" lon="16.6379683"><ele>446.0</ele><time>2026-04-12T09:53:26.658Z</time></trkpt><trkpt lat="40.8911067" lon="16.6377867"><ele>446.0</ele><time>2026-04-12T09:53:27.658Z</time></trkpt><trkpt lat="40.8910967" lon="16.6376067"><ele>446.0</ele><time>2026-04-12T09:53:28.658Z</time></trkpt><trkpt lat="40.89108" lon="16.637425"><ele>446.66666666666663</ele><time>2026-04-12T09:53:29.659Z</time></trkpt><trkpt lat="40.8910517" lon="16.637225"><ele>447.33333333333337</ele><time>2026-04-12T09:53:30.658Z</time></trkpt><trkpt lat="40.8910267" lon="16.637025"><ele>448.0</ele><time>2026-04-12T09:53:31.658Z</time></trkpt><trkpt lat="40.8910017" lon="16.636815"><ele>448.0</ele><time>2026-04-12T09:53:32.658Z</time></trkpt><trkpt lat="40.890965" lon="16.63661"><ele>448.0</ele><time>2026-04-12T09:53:33.658Z</time></trkpt><trkpt lat="40.8909317" lon="16.6364017"><ele>448.0</ele><time>2026-04-12T09:53:34.658Z</time></trkpt><trkpt lat="40.8908967" lon="16.6361883"><ele>449.0</ele><time>2026-04-12T09:53:35.658Z</time></trkpt><trkpt lat="40.89086" lon="16.63597"><ele>450.0</ele><time>2026-04-12T09:53:36.659Z</time></trkpt><trkpt lat="40.8908283" lon="16.635755"><ele>451.0</ele><time>2026-04-12T09:53:37.658Z</time></trkpt><trkpt lat="40.8907917" lon="16.6355333"><ele>451.0</ele><time>2026-04-12T09:53:38.658Z</time></trkpt><trkpt lat="40.8907517" lon="16.6353083"><ele>451.0</ele><time>2026-04-12T09:53:39.658Z</time></trkpt><trkpt lat="40.8907183" lon="16.6350783"><ele>451.0</ele><time>2026-04-12T09:53:40.658Z</time></trkpt><trkpt lat="40.8906867" lon="16.634855"><ele>450.33333333333337</ele><time>2026-04-12T09:53:41.658Z</time></trkpt><trkpt lat="40.89065" lon="16.6346383"><ele>449.66666666666663</ele><time>2026-04-12T09:53:42.658Z</time></trkpt><trkpt lat="40.8906133" lon="16.634415"><ele>449.0</ele><time>2026-04-12T09:53:43.658Z</time></trkpt><trkpt lat="40.8905733" lon="16.63419"><ele>449.0</ele><time>2026-04-12T09:53:44.658Z</time></trkpt><trkpt lat="40.890525" lon="16.6339683"><ele>449.0</ele><time>2026-04-12T09:53:45.658Z</time></trkpt><trkpt lat="40.8904733" lon="16.6337433"><ele>449.0</ele><time>2026-04-12T09:53:46.658Z</time></trkpt><trkpt lat="40.89042" lon="16.6335217"><ele>449.3333333333333</ele><time>2026-04-12T09:53:47.659Z</time></trkpt><trkpt lat="40.890365" lon="16.63329"><ele>449.66666666666663</ele><time>2026-04-12T09:53:48.658Z</time></trkpt><trkpt lat="40.890315" lon="16.63305"><ele>450.0</ele><time>2026-04-12T09:53:49.659Z</time></trkpt><trkpt lat="40.8902683" lon="16.632815"><ele>450.33333333333337</ele><time>2026-04-12T09:53:50.658Z</time></trkpt><trkpt lat="40.8902117" lon="16.632585"><ele>450.6666666666667</ele><time>2026-04-12T09:53:51.658Z</time></trkpt><trkpt lat="40.8901433" lon="16.6323533"><ele>451.0</ele><time>2026-04-12T09:53:52.658Z</time></trkpt><trkpt lat="40.8900767" lon="16.6321267"><ele>452.0</ele><time>2026-04-12T09:53:53.658Z</time></trkpt><trkpt lat="40.8900183" lon="16.6318983"><ele>453.0</ele><time>2026-04-12T09:53:54.658Z</time></trkpt><trkpt lat="40.8899617" lon="16.6316667"><ele>454.0</ele><time>2026-04-12T09:53:55.658Z</time></trkpt><trkpt lat="40.8899067" lon="16.63144"><ele>454.0</ele><time>2026-04-12T09:53:56.658Z</time></trkpt><trkpt lat="40.8898567" lon="16.6312083"><ele>454.0</ele><time>2026-04-12T09:53:57.658Z</time></trkpt><trkpt lat="40.8898133" lon="16.630975"><ele>454.0</ele><time>2026-04-12T09:53:58.658Z</time></trkpt><trkpt lat="40.8897733" lon="16.6307467"><ele>454.0</ele><time>2026-04-12T09:53:59.658Z</time></trkpt><trkpt lat="40.8897383" lon="16.6305133"><ele>454.0</ele><time>2026-04-12T09:54:00.658Z</time></trkpt><trkpt lat="40.8897017" lon="16.6302733"><ele>454.0</ele><time>2026-04-12T09:54:01.658Z</time></trkpt><trkpt lat="40.8896683" lon="16.630035"><ele>454.0</ele><time>2026-04-12T09:54:02.659Z</time></trkpt><trkpt lat="40.8896483" lon="16.6297983"><ele>454.0</ele><time>2026-04-12T09:54:03.659Z</time></trkpt><trkpt lat="40.889625" lon="16.629555"><ele>454.0</ele><time>2026-04-12T09:54:04.659Z</time></trkpt><trkpt lat="40.889605" lon="16.629305"><ele>454.0</ele><time>2026-04-12T09:54:05.658Z</time></trkpt><trkpt lat="40.8895867" lon="16.6290633"><ele>454.0</ele><time>2026-04-12T09:54:06.658Z</time></trkpt><trkpt lat="40.8895683" lon="16.6288367"><ele>454.0</ele><time>2026-04-12T09:54:07.659Z</time></trkpt><trkpt lat="40.88955" lon="16.6286317"><ele>454.33333333333337</ele><time>2026-04-12T09:54:08.658Z</time></trkpt><trkpt lat="40.8895267" lon="16.6284283"><ele>454.66666666666663</ele><time>2026-04-12T09:54:09.658Z</time></trkpt><trkpt lat="40.889495" lon="16.6282283"><ele>455.0</ele><time>2026-04-12T09:54:10.658Z</time></trkpt><trkpt lat="40.8894517" lon="16.6280083"><ele>455.0</ele><time>2026-04-12T09:54:11.659Z</time></trkpt><trkpt lat="40.8894033" lon="16.6277933"><ele>455.0</ele><time>2026-04-12T09:54:12.659Z</time></trkpt><trkpt lat="40.8893433" lon="16.6275633"><ele>455.0</ele><time>2026-04-12T09:54:13.658Z</time></trkpt><trkpt lat="40.88929" lon="16.6273267"><ele>455.0</ele><time>2026-04-12T09:54:14.658Z</time></trkpt><trkpt lat="40.88923" lon="16.627085"><ele>455.0</ele><time>2026-04-12T09:54:15.658Z</time></trkpt><trkpt lat="40.889175" lon="16.626855"><ele>455.0</ele><time>2026-04-12T09:54:16.658Z</time></trkpt><trkpt lat="40.8891333" lon="16.6266333"><ele>454.66666666666663</ele><time>2026-04-12T09:54:17.658Z</time></trkpt><trkpt lat="40.8891017" lon="16.6264233"><ele>454.33333333333337</ele><time>2026-04-12T09:54:18.659Z</time></trkpt><trkpt lat="40.8890383" lon="16.626215"><ele>454.0</ele><time>2026-04-12T09:54:19.658Z</time></trkpt><trkpt lat="40.8889733" lon="16.6259917"><ele>454.0</ele><time>2026-04-12T09:54:20.658Z</time></trkpt><trkpt lat="40.8888817" lon="16.62578"><ele>454.0</ele><time>2026-04-12T09:54:21.659Z</time></trkpt><trkpt lat="40.888795" lon="16.6255733"><ele>454.0</ele><time>2026-04-12T09:54:22.659Z</time></trkpt><trkpt lat="40.8887217" lon="16.6253617"><ele>454.0</ele><time>2026-04-12T09:54:23.658Z</time></trkpt><trkpt lat="40.88865" lon="16.625165"><ele>454.0</ele><time>2026-04-12T09:54:24.658Z</time></trkpt><trkpt lat="40.888585" lon="16.6249817"><ele>454.0</ele><time>2026-04-12T09:54:25.658Z</time></trkpt><trkpt lat="40.8885117" lon="16.6248"><ele>454.0</ele><time>2026-04-12T09:54:26.658Z</time></trkpt><trkpt lat="40.888435" lon="16.624635"><ele>454.0</ele><time>2026-04-12T09:54:27.658Z</time></trkpt><trkpt lat="40.8883367" lon="16.624455"><ele>454.0</ele><time>2026-04-12T09:54:28.659Z</time></trkpt><trkpt lat="40.88824" lon="16.624265"><ele>454.0</ele><time>2026-04-12T09:54:29.659Z</time></trkpt><trkpt lat="40.8881483" lon="16.6240633"><ele>454.0</ele><time>2026-04-12T09:54:30.658Z</time></trkpt><trkpt lat="40.88807" lon="16.6238533"><ele>454.0</ele><time>2026-04-12T09:54:31.658Z</time></trkpt><trkpt lat="40.8879983" lon="16.6236433"><ele>454.0</ele><time>2026-04-12T09:54:32.659Z</time></trkpt><trkpt lat="40.887925" lon="16.623415"><ele>454.0</ele><time>2026-04-12T09:54:33.658Z</time></trkpt><trkpt lat="40.887855" lon="16.6231967"><ele>454.0</ele><time>2026-04-12T09:54:34.658Z</time></trkpt><trkpt lat="40.887785" lon="16.6229733"><ele>454.33333333333337</ele><time>2026-04-12T09:54:35.658Z</time></trkpt><trkpt lat="40.8877233" lon="16.6227517"><ele>454.66666666666663</ele><time>2026-04-12T09:54:36.659Z</time></trkpt><trkpt lat="40.8876617" lon="16.622515"><ele>455.0</ele><time>2026-04-12T09:54:37.659Z</time></trkpt><trkpt lat="40.8876017" lon="16.6222883"><ele>454.66666666666663</ele><time>2026-04-12T09:54:38.658Z</time></trkpt><trkpt lat="40.88754" lon="16.622065"><ele>454.33333333333337</ele><time>2026-04-12T09:54:39.659Z</time></trkpt><trkpt lat="40.8874767" lon="16.6218367"><ele>454.0</ele><time>2026-04-12T09:54:40.658Z</time></trkpt><trkpt lat="40.8874083" lon="16.621635"><ele>454.0</ele><time>2026-04-12T09:54:41.658Z</time></trkpt><trkpt lat="40.887345" lon="16.6214367"><ele>454.0</ele><time>2026-04-12T09:54:42.659Z</time></trkpt><trkpt lat="40.8872783" lon="16.6212367"><ele>454.0</ele><time>2026-04-12T09:54:43.658Z</time></trkpt><trkpt lat="40.8872" lon="16.62104"><ele>454.0</ele><time>2026-04-12T09:54:44.658Z</time></trkpt><trkpt lat="40.8871117" lon="16.62085"><ele>454.0</ele><time>2026-04-12T09:54:45.658Z</time></trkpt><trkpt lat="40.887025" lon="16.62066"><ele>454.0</ele><time>2026-04-12T09:54:46.658Z</time></trkpt><trkpt lat="40.8869333" lon="16.6204867"><ele>454.0</ele><time>2026-04-12T09:54:47.659Z</time></trkpt><trkpt lat="40.8868333" lon="16.6203183"><ele>454.0</ele><time>2026-04-12T09:54:48.658Z</time></trkpt><trkpt lat="40.8867117" lon="16.6201617"><ele>454.0</ele><time>2026-04-12T09:54:49.658Z</time></trkpt><trkpt lat="40.8865717" lon="16.6200217"><ele>453.6666666666667</ele><time>2026-04-12T09:54:50.658Z</time></trkpt><trkpt lat="40.886425" lon="16.6199017"><ele>453.33333333333337</ele><time>2026-04-12T09:54:51.658Z</time></trkpt><trkpt lat="40.8862717" lon="16.61981"><ele>453.0</ele><time>2026-04-12T09:54:52.658Z</time></trkpt><trkpt lat="40.88611" lon="16.6197533"><ele>453.0</ele><time>2026-04-12T09:54:53.658Z</time></trkpt><trkpt lat="40.885945" lon="16.6197167"><ele>453.0</ele><time>2026-04-12T09:54:54.658Z</time></trkpt><trkpt lat="40.885795" lon="16.6196917"><ele>453.0</ele><time>2026-04-12T09:54:55.658Z</time></trkpt><trkpt lat="40.8856583" lon="16.61967"><ele>453.4</ele><time>2026-04-12T09:54:56.658Z</time></trkpt><trkpt lat="40.885535" lon="16.619645"><ele>453.79999999999995</ele><time>2026-04-12T09:54:57.659Z</time></trkpt><trkpt lat="40.8854233" lon="16.6196133"><ele>454.2</ele><time>2026-04-12T09:54:58.659Z</time></trkpt><trkpt lat="40.8853333" lon="16.6195683"><ele>454.6</ele><time>2026-04-12T09:54:59.659Z</time></trkpt><trkpt lat="40.885255" lon="16.6195017"><ele>455.0</ele><time>2026-04-12T09:55:00.658Z</time></trkpt><trkpt lat="40.88518" lon="16.61944"><ele>455.25</ele><time>2026-04-12T09:55:01.658Z</time></trkpt><trkpt lat="40.88508" lon="16.6194117"><ele>455.5</ele><time>2026-04-12T09:55:02.658Z</time></trkpt><trkpt lat="40.8849717" lon="16.6193833"><ele>455.75</ele><time>2026-04-12T09:55:03.658Z</time></trkpt><trkpt lat="40.8848433" lon="16.6193217"><ele>456.0</ele><time>2026-04-12T09:55:04.659Z</time></trkpt><trkpt lat="40.884715" lon="16.6192417"><ele>456.0</ele><time>2026-04-12T09:55:05.658Z</time></trkpt><trkpt lat="40.8845967" lon="16.6191467"><ele>456.0</ele><time>2026-04-12T09:55:06.658Z</time></trkpt><trkpt lat="40.8844917" lon="16.6190433"><ele>456.0</ele><time>2026-04-12T09:55:07.658Z</time></trkpt><trkpt lat="40.884405" lon="16.618945"><ele>456.0</ele><time>2026-04-12T09:55:08.658Z</time></trkpt><trkpt lat="40.88434" lon="16.6188417"><ele>456.0</ele><time>2026-04-12T09:55:09.658Z</time></trkpt><trkpt lat="40.88429" lon="16.6187367"><ele>456.0</ele><time>2026-04-12T09:55:10.658Z</time></trkpt><trkpt lat="40.884255" lon="16.6186183"><ele>456.0</ele><time>2026-04-12T09:55:11.658Z</time></trkpt><trkpt lat="40.8842467" lon="16.6184883"><ele>456.0</ele><time>2026-04-12T09:55:12.658Z</time></trkpt><trkpt lat="40.8842717" lon="16.6183483"><ele>456.0</ele><time>2026-04-12T09:55:13.658Z</time></trkpt><trkpt lat="40.8843317" lon="16.6182267"><ele>456.0</ele><time>2026-04-12T09:55:14.658Z</time></trkpt><trkpt lat="40.8844017" lon="16.6181133"><ele>456.0</ele><time>2026-04-12T09:55:15.658Z</time></trkpt><trkpt lat="40.884495" lon="16.6179917"><ele>456.0</ele><time>2026-04-12T09:55:16.658Z</time></trkpt><trkpt lat="40.8846017" lon="16.617855"><ele>456.0</ele><time>2026-04-12T09:55:17.658Z</time></trkpt><trkpt lat="40.884715" lon="16.6177117"><ele>456.0</ele><time>2026-04-12T09:55:18.658Z</time></trkpt><trkpt lat="40.8848267" lon="16.617555"><ele>456.0</ele><time>2026-04-12T09:55:19.659Z</time></trkpt><trkpt lat="40.884945" lon="16.6174033"><ele>456.0</ele><time>2026-04-12T09:55:20.659Z</time></trkpt><trkpt lat="40.8850567" lon="16.6172417"><ele>456.0</ele><time>2026-04-12T09:55:21.659Z</time></trkpt><trkpt lat="40.885165" lon="16.617095"><ele>456.0</ele><time>2026-04-12T09:55:22.658Z</time></trkpt><trkpt lat="40.88527" lon="16.6169583"><ele>456.0</ele><time>2026-04-12T09:55:23.658Z</time></trkpt><trkpt lat="40.8853717" lon="16.616825"><ele>456.0</ele><time>2026-04-12T09:55:24.658Z</time></trkpt><trkpt lat="40.8854683" lon="16.6166983"><ele>456.0</ele><time>2026-04-12T09:55:25.658Z</time></trkpt><trkpt lat="40.88556" lon="16.6165733"><ele>456.0</ele><time>2026-04-12T09:55:26.658Z</time></trkpt><trkpt lat="40.885645" lon="16.616455"><ele>456.0</ele><time>2026-04-12T09:55:27.658Z</time></trkpt><trkpt lat="40.885735" lon="16.61636"><ele>456.0</ele><time>2026-04-12T09:55:28.659Z</time></trkpt><trkpt lat="40.8858267" lon="16.6162883"><ele>456.0</ele><time>2026-04-12T09:55:29.658Z</time></trkpt><trkpt lat="40.8859017" lon="16.6162367"><ele>456.0</ele><time>2026-04-12T09:55:30.658Z</time></trkpt><trkpt lat="40.8859533" lon="16.616175"><ele>456.0</ele><time>2026-04-12T09:55:31.658Z</time></trkpt><trkpt lat="40.8859917" lon="16.6160367"><ele>456.0</ele><time>2026-04-12T09:55:33.658Z</time></trkpt><trkpt lat="40.8859317" lon="16.6159133"><ele>456.0</ele><time>2026-04-12T09:55:35.659Z</time></trkpt><trkpt lat="40.885885" lon="16.6158333"><ele>456.20000000000005</ele><time>2026-04-12T09:55:36.659Z</time></trkpt><trkpt lat="40.8858283" lon="16.61574"><ele>456.40000000000003</ele><time>2026-04-12T09:55:37.658Z</time></trkpt><trkpt lat="40.8857717" lon="16.615625"><ele>456.6</ele><time>2026-04-12T09:55:38.658Z</time></trkpt><trkpt lat="40.8857267" lon="16.6154783"><ele>456.8</ele><time>2026-04-12T09:55:39.659Z</time></trkpt><trkpt lat="40.8856833" lon="16.6153183"><ele>457.0</ele><time>2026-04-12T09:55:40.658Z</time></trkpt><trkpt lat="40.88563" lon="16.6151483"><ele>456.33333333333337</ele><time>2026-04-12T09:55:41.659Z</time></trkpt><trkpt lat="40.885565" lon="16.6149633"><ele>455.66666666666663</ele><time>2026-04-12T09:55:42.659Z</time></trkpt><trkpt lat="40.885495" lon="16.6147717"><ele>455.0</ele><time>2026-04-12T09:55:43.658Z</time></trkpt><trkpt lat="40.88542" lon="16.6145733"><ele>454.66666666666663</ele><time>2026-04-12T09:55:44.659Z</time></trkpt><trkpt lat="40.885345" lon="16.6143583"><ele>454.33333333333337</ele><time>2026-04-12T09:55:45.659Z</time></trkpt><trkpt lat="40.88528" lon="16.6141317"><ele>454.0</ele><time>2026-04-12T09:55:46.659Z</time></trkpt><trkpt lat="40.8852267" lon="16.6138933"><ele>454.0</ele><time>2026-04-12T09:55:47.658Z</time></trkpt><trkpt lat="40.8851883" lon="16.6136417"><ele>454.0</ele><time>2026-04-12T09:55:48.658Z</time></trkpt><trkpt lat="40.88515" lon="16.6133833"><ele>454.0</ele><time>2026-04-12T09:55:49.658Z</time></trkpt><trkpt lat="40.88511" lon="16.61313"><ele>454.0</ele><time>2026-04-12T09:55:50.659Z</time></trkpt><trkpt lat="40.885065" lon="16.612875"><ele>454.0</ele><time>2026-04-12T09:55:51.658Z</time></trkpt><trkpt lat="40.8850233" lon="16.6126183"><ele>454.0</ele><time>2026-04-12T09:55:52.658Z</time></trkpt><trkpt lat="40.8849867" lon="16.6123567"><ele>454.0</ele><time>2026-04-12T09:55:53.66Z</time></trkpt><trkpt lat="40.8849467" lon="16.6120933"><ele>454.0</ele><time>2026-04-12T09:55:54.659Z</time></trkpt><trkpt lat="40.8849067" lon="16.6118267"><ele>454.0</ele><time>2026-04-12T09:55:55.659Z</time></trkpt><trkpt lat="40.8848717" lon="16.611555"><ele>454.0</ele><time>2026-04-12T09:55:56.66Z</time></trkpt><trkpt lat="40.8848333" lon="16.6112817"><ele>454.0</ele><time>2026-04-12T09:55:57.659Z</time></trkpt><trkpt lat="40.88479" lon="16.6110217"><ele>454.0</ele><time>2026-04-12T09:55:58.659Z</time></trkpt><trkpt lat="40.8847417" lon="16.6107733"><ele>454.0</ele><time>2026-04-12T09:55:59.659Z</time></trkpt><trkpt lat="40.8846717" lon="16.6105317"><ele>454.0</ele><time>2026-04-12T09:56:00.659Z</time></trkpt><trkpt lat="40.8845867" lon="16.6103017"><ele>454.0</ele><time>2026-04-12T09:56:01.66Z</time></trkpt><trkpt lat="40.8844917" lon="16.610065"><ele>454.0</ele><time>2026-04-12T09:56:02.659Z</time></trkpt><trkpt lat="40.8843967" lon="16.6098267"><ele>454.0</ele><time>2026-04-12T09:56:03.66Z</time></trkpt><trkpt lat="40.884295" lon="16.60959"><ele>454.0</ele><time>2026-04-12T09:56:04.659Z</time></trkpt><trkpt lat="40.8841983" lon="16.609355"><ele>454.0</ele><time>2026-04-12T09:56:05.659Z</time></trkpt><trkpt lat="40.8841" lon="16.609115"><ele>454.0</ele><time>2026-04-12T09:56:06.66Z</time></trkpt><trkpt lat="40.8840033" lon="16.608875"><ele>454.0</ele><time>2026-04-12T09:56:07.659Z</time></trkpt><trkpt lat="40.8839067" lon="16.6086367"><ele>454.0</ele><time>2026-04-12T09:56:08.659Z</time></trkpt><trkpt lat="40.8838133" lon="16.608405"><ele>454.0</ele><time>2026-04-12T09:56:09.659Z</time></trkpt><trkpt lat="40.8837167" lon="16.6081783"><ele>454.0</ele><time>2026-04-12T09:56:10.66Z</time></trkpt><trkpt lat="40.8836183" lon="16.6079533"><ele>454.0</ele><time>2026-04-12T09:56:11.659Z</time></trkpt><trkpt lat="40.8835133" lon="16.607735"><ele>454.0</ele><time>2026-04-12T09:56:12.659Z</time></trkpt><trkpt lat="40.8834067" lon="16.6075183"><ele>454.0</ele><time>2026-04-12T09:56:13.659Z</time></trkpt><trkpt lat="40.8833017" lon="16.6073033"><ele>453.33333333333337</ele><time>2026-04-12T09:56:14.659Z</time></trkpt><trkpt lat="40.8831917" lon="16.6070967"><ele>452.66666666666663</ele><time>2026-04-12T09:56:15.66Z</time></trkpt><trkpt lat="40.8830833" lon="16.606885"><ele>452.0</ele><time>2026-04-12T09:56:16.659Z</time></trkpt><trkpt lat="40.8829717" lon="16.6066717"><ele>452.0</ele><time>2026-04-12T09:56:17.659Z</time></trkpt><trkpt lat="40.8828583" lon="16.6064617"><ele>452.0</ele><time>2026-04-12T09:56:18.659Z</time></trkpt><trkpt lat="40.8827467" lon="16.6062483"><ele>452.0</ele><time>2026-04-12T09:56:19.66Z</time></trkpt><trkpt lat="40.8826283" lon="16.60602"><ele>452.3333333333333</ele><time>2026-04-12T09:56:20.659Z</time></trkpt><trkpt lat="40.8825183" lon="16.6057883"><ele>452.66666666666663</ele><time>2026-04-12T09:56:21.659Z</time></trkpt><trkpt lat="40.882425" lon="16.6055583"><ele>453.0</ele><time>2026-04-12T09:56:22.659Z</time></trkpt><trkpt lat="40.88235" lon="16.6053183"><ele>453.0</ele><time>2026-04-12T09:56:23.659Z</time></trkpt><trkpt lat="40.882275" lon="16.60508"><ele>453.0</ele><time>2026-04-12T09:56:24.659Z</time></trkpt><trkpt lat="40.8822017" lon="16.60484"><ele>453.0</ele><time>2026-04-12T09:56:25.659Z</time></trkpt><trkpt lat="40.8821317" lon="16.6045983"><ele>453.0</ele><time>2026-04-12T09:56:26.66Z</time></trkpt><trkpt lat="40.8820617" lon="16.6043533"><ele>453.0</ele><time>2026-04-12T09:56:27.659Z</time></trkpt><trkpt lat="40.8819933" lon="16.6041133"><ele>453.0</ele><time>2026-04-12T09:56:28.659Z</time></trkpt><trkpt lat="40.8819217" lon="16.6038783"><ele>453.0</ele><time>2026-04-12T09:56:29.66Z</time></trkpt><trkpt lat="40.8818467" lon="16.6036583"><ele>453.0</ele><time>2026-04-12T09:56:30.66Z</time></trkpt><trkpt lat="40.881765" lon="16.6034483"><ele>453.0</ele><time>2026-04-12T09:56:31.659Z</time></trkpt><trkpt lat="40.8816633" lon="16.6032333"><ele>453.0</ele><time>2026-04-12T09:56:32.659Z</time></trkpt><trkpt lat="40.8815467" lon="16.6030233"><ele>453.0</ele><time>2026-04-12T09:56:33.659Z</time></trkpt><trkpt lat="40.8814183" lon="16.6028233"><ele>453.0</ele><time>2026-04-12T09:56:34.659Z</time></trkpt><trkpt lat="40.8812983" lon="16.6026283"><ele>453.33333333333337</ele><time>2026-04-12T09:56:35.659Z</time></trkpt><trkpt lat="40.8812" lon="16.6024483"><ele>453.6666666666667</ele><time>2026-04-12T09:56:36.659Z</time></trkpt><trkpt lat="40.8811033" lon="16.60227"><ele>454.0</ele><time>2026-04-12T09:56:37.659Z</time></trkpt><trkpt lat="40.8810183" lon="16.6021"><ele>454.0</ele><time>2026-04-12T09:56:38.66Z</time></trkpt><trkpt lat="40.8809667" lon="16.6018967"><ele>454.0</ele><time>2026-04-12T09:56:39.659Z</time></trkpt><trkpt lat="40.88094" lon="16.6016633"><ele>454.0</ele><time>2026-04-12T09:56:40.659Z</time></trkpt><trkpt lat="40.88092" lon="16.6014267"><ele>454.0</ele><time>2026-04-12T09:56:41.66Z</time></trkpt><trkpt lat="40.8809233" lon="16.6011817"><ele>454.0</ele><time>2026-04-12T09:56:42.659Z</time></trkpt><trkpt lat="40.8809517" lon="16.6009317"><ele>454.0</ele><time>2026-04-12T09:56:43.66Z</time></trkpt><trkpt lat="40.8809983" lon="16.60068"><ele>454.33333333333337</ele><time>2026-04-12T09:56:44.66Z</time></trkpt><trkpt lat="40.8810583" lon="16.6004383"><ele>454.66666666666663</ele><time>2026-04-12T09:56:45.659Z</time></trkpt><trkpt lat="40.8811067" lon="16.6001783"><ele>455.0</ele><time>2026-04-12T09:56:46.66Z</time></trkpt><trkpt lat="40.8811267" lon="16.599925"><ele>455.0</ele><time>2026-04-12T09:56:47.659Z</time></trkpt><trkpt lat="40.8811333" lon="16.5996883"><ele>455.0</ele><time>2026-04-12T09:56:48.659Z</time></trkpt><trkpt lat="40.881125" lon="16.59946"><ele>455.0</ele><time>2026-04-12T09:56:49.659Z</time></trkpt><trkpt lat="40.8811" lon="16.5992383"><ele>454.3333333333333</ele><time>2026-04-12T09:56:50.659Z</time></trkpt><trkpt lat="40.8810567" lon="16.5990333"><ele>453.66666666666663</ele><time>2026-04-12T09:56:51.659Z</time></trkpt><trkpt lat="40.8809883" lon="16.5988383"><ele>453.0</ele><time>2026-04-12T09:56:52.659Z</time></trkpt><trkpt lat="40.8809367" lon="16.5986267"><ele>452.33333333333337</ele><time>2026-04-12T09:56:53.66Z</time></trkpt><trkpt lat="40.8809033" lon="16.59841"><ele>451.6666666666667</ele><time>2026-04-12T09:56:54.659Z</time></trkpt><trkpt lat="40.880895" lon="16.5982083"><ele>451.0</ele><time>2026-04-12T09:56:55.659Z</time></trkpt><trkpt lat="40.8809033" lon="16.59801"><ele>451.0</ele><time>2026-04-12T09:56:56.659Z</time></trkpt><trkpt lat="40.88093" lon="16.597805"><ele>451.0</ele><time>2026-04-12T09:56:57.659Z</time></trkpt><trkpt lat="40.8809333" lon="16.5975983"><ele>451.0</ele><time>2026-04-12T09:56:58.659Z</time></trkpt><trkpt lat="40.880915" lon="16.5973867"><ele>451.0</ele><time>2026-04-12T09:56:59.659Z</time></trkpt><trkpt lat="40.8808683" lon="16.5971817"><ele>451.0</ele><time>2026-04-12T09:57:00.659Z</time></trkpt><trkpt lat="40.880805" lon="16.5969633"><ele>451.0</ele><time>2026-04-12T09:57:01.659Z</time></trkpt><trkpt lat="40.88074" lon="16.59673"><ele>450.33333333333337</ele><time>2026-04-12T09:57:02.66Z</time></trkpt><trkpt lat="40.8806817" lon="16.5964967"><ele>449.66666666666663</ele><time>2026-04-12T09:57:03.659Z</time></trkpt><trkpt lat="40.8806133" lon="16.5962583"><ele>449.0</ele><time>2026-04-12T09:57:04.66Z</time></trkpt><trkpt lat="40.880545" lon="16.5960217"><ele>449.0</ele><time>2026-04-12T09:57:05.659Z</time></trkpt><trkpt lat="40.8804867" lon="16.595785"><ele>449.0</ele><time>2026-04-12T09:57:06.66Z</time></trkpt><trkpt lat="40.88043" lon="16.595545"><ele>449.0</ele><time>2026-04-12T09:57:07.659Z</time></trkpt><trkpt lat="40.8803767" lon="16.595315"><ele>449.3333333333333</ele><time>2026-04-12T09:57:08.659Z</time></trkpt><trkpt lat="40.8803083" lon="16.5951167"><ele>449.66666666666663</ele><time>2026-04-12T09:57:09.659Z</time></trkpt><trkpt lat="40.8802367" lon="16.5949267"><ele>450.0</ele><time>2026-04-12T09:57:10.659Z</time></trkpt><trkpt lat="40.8801667" lon="16.5947417"><ele>450.0</ele><time>2026-04-12T09:57:11.66Z</time></trkpt><trkpt lat="40.880125" lon="16.5945617"><ele>450.0</ele><time>2026-04-12T09:57:12.659Z</time></trkpt><trkpt lat="40.8800967" lon="16.5944017"><ele>450.0</ele><time>2026-04-12T09:57:13.659Z</time></trkpt><trkpt lat="40.8800717" lon="16.5942333"><ele>450.0</ele><time>2026-04-12T09:57:14.66Z</time></trkpt><trkpt lat="40.88005" lon="16.59407"><ele>450.2</ele><time>2026-04-12T09:57:15.66Z</time></trkpt><trkpt lat="40.880025" lon="16.5939267"><ele>450.4</ele><time>2026-04-12T09:57:16.66Z</time></trkpt><trkpt lat="40.8800083" lon="16.5938167"><ele>450.6</ele><time>2026-04-12T09:57:17.659Z</time></trkpt><trkpt lat="40.8799917" lon="16.59368"><ele>450.8</ele><time>2026-04-12T09:57:19.659Z</time></trkpt><trkpt lat="40.88001" lon="16.59357"><ele>451.0</ele><time>2026-04-12T09:57:22.659Z</time></trkpt><trkpt lat="40.8801217" lon="16.593555"><ele>451.0</ele><time>2026-04-12T09:57:24.659Z</time></trkpt><trkpt lat="40.8802033" lon="16.59356"><ele>451.0</ele><time>2026-04-12T09:57:25.66Z</time></trkpt><trkpt lat="40.880305" lon="16.5935383"><ele>451.0</ele><time>2026-04-12T09:57:26.659Z</time></trkpt><trkpt lat="40.880415" lon="16.59352"><ele>451.0</ele><time>2026-04-12T09:57:27.659Z</time></trkpt><trkpt lat="40.8805417" lon="16.5934867"><ele>451.0</ele><time>2026-04-12T09:57:28.66Z</time></trkpt><trkpt lat="40.88067" lon="16.5934517"><ele>451.0</ele><time>2026-04-12T09:57:29.659Z</time></trkpt><trkpt lat="40.880805" lon="16.5934117"><ele>451.0</ele><time>2026-04-12T09:57:30.659Z</time></trkpt><trkpt lat="40.880925" lon="16.5933767"><ele>451.0</ele><time>2026-04-12T09:57:31.66Z</time></trkpt><trkpt lat="40.8810533" lon="16.59334"><ele>451.0</ele><time>2026-04-12T09:57:32.659Z</time></trkpt><trkpt lat="40.8811883" lon="16.5932883"><ele>451.0</ele><time>2026-04-12T09:57:33.659Z</time></trkpt><trkpt lat="40.8813217" lon="16.593255"><ele>451.0</ele><time>2026-04-12T09:57:34.659Z</time></trkpt><trkpt lat="40.8814633" lon="16.5932083"><ele>451.0</ele><time>2026-04-12T09:57:35.659Z</time></trkpt><trkpt lat="40.8816033" lon="16.59316"><ele>451.0</ele><time>2026-04-12T09:57:36.659Z</time></trkpt><trkpt lat="40.88175" lon="16.593105"><ele>451.75</ele><time>2026-04-12T09:57:37.659Z</time></trkpt><trkpt lat="40.8818833" lon="16.593055"><ele>452.5</ele><time>2026-04-12T09:57:38.659Z</time></trkpt><trkpt lat="40.8820117" lon="16.5930017"><ele>453.25</ele><time>2026-04-12T09:57:39.66Z</time></trkpt><trkpt lat="40.8821283" lon="16.5929583"><ele>454.0</ele><time>2026-04-12T09:57:40.66Z</time></trkpt><trkpt lat="40.88224" lon="16.592905"><ele>454.0</ele><time>2026-04-12T09:57:41.66Z</time></trkpt><trkpt lat="40.88235" lon="16.592855"><ele>454.0</ele><time>2026-04-12T09:57:42.659Z</time></trkpt><trkpt lat="40.8824583" lon="16.5928067"><ele>454.0</ele><time>2026-04-12T09:57:43.659Z</time></trkpt><trkpt lat="40.8825667" lon="16.59276"><ele>454.0</ele><time>2026-04-12T09:57:44.659Z</time></trkpt><trkpt lat="40.8826783" lon="16.5927183"><ele>455.25</ele><time>2026-04-12T09:57:45.659Z</time></trkpt><trkpt lat="40.882795" lon="16.592675"><ele>456.5</ele><time>2026-04-12T09:57:46.659Z</time></trkpt><trkpt lat="40.8829117" lon="16.5926367"><ele>457.75</ele><time>2026-04-12T09:57:47.66Z</time></trkpt><trkpt lat="40.88303" lon="16.5925933"><ele>459.0</ele><time>2026-04-12T09:57:48.659Z</time></trkpt><trkpt lat="40.8831517" lon="16.5925567"><ele>459.0</ele><time>2026-04-12T09:57:49.659Z</time></trkpt><trkpt lat="40.8832733" lon="16.59252"><ele>459.0</ele><time>2026-04-12T09:57:50.659Z</time></trkpt><trkpt lat="40.8833917" lon="16.5924767"><ele>459.0</ele><time>2026-04-12T09:57:51.659Z</time></trkpt><trkpt lat="40.88352" lon="16.5924383"><ele>459.0</ele><time>2026-04-12T09:57:52.659Z</time></trkpt><trkpt lat="40.88365" lon="16.5924117"><ele>460.25</ele><time>2026-04-12T09:57:53.659Z</time></trkpt><trkpt lat="40.883775" lon="16.5923833"><ele>461.5</ele><time>2026-04-12T09:57:54.659Z</time></trkpt><trkpt lat="40.883885" lon="16.5923617"><ele>462.75</ele><time>2026-04-12T09:57:55.659Z</time></trkpt><trkpt lat="40.883995" lon="16.59233"><ele>464.0</ele><time>2026-04-12T09:57:56.659Z</time></trkpt><trkpt lat="40.884105" lon="16.5923"><ele>464.0</ele><time>2026-04-12T09:57:57.659Z</time></trkpt><trkpt lat="40.8842167" lon="16.59227"><ele>464.0</ele><time>2026-04-12T09:57:58.659Z</time></trkpt><trkpt lat="40.8843217" lon="16.5922483"><ele>464.0</ele><time>2026-04-12T09:57:59.659Z</time></trkpt><trkpt lat="40.8844367" lon="16.592235"><ele>464.0</ele><time>2026-04-12T09:58:00.659Z</time></trkpt><trkpt lat="40.884555" lon="16.59223"><ele>466.0</ele><time>2026-04-12T09:58:01.659Z</time></trkpt><trkpt lat="40.8846783" lon="16.592215"><ele>468.0</ele><time>2026-04-12T09:58:02.66Z</time></trkpt><trkpt lat="40.8848017" lon="16.5921967"><ele>470.0</ele><time>2026-04-12T09:58:03.66Z</time></trkpt><trkpt lat="40.884935" lon="16.592185"><ele>472.0</ele><time>2026-04-12T09:58:04.66Z</time></trkpt><trkpt lat="40.88506" lon="16.5921717"><ele>473.25</ele><time>2026-04-12T09:58:05.659Z</time></trkpt><trkpt lat="40.885195" lon="16.59216"><ele>474.5</ele><time>2026-04-12T09:58:06.659Z</time></trkpt><trkpt lat="40.8853283" lon="16.5921467"><ele>475.75</ele><time>2026-04-12T09:58:07.659Z</time></trkpt><trkpt lat="40.88546" lon="16.59213"><ele>477.0</ele><time>2026-04-12T09:58:08.659Z</time></trkpt><trkpt lat="40.8856017" lon="16.5921117"><ele>477.0</ele><time>2026-04-12T09:58:09.659Z</time></trkpt><trkpt lat="40.8857483" lon="16.59209"><ele>477.0</ele><time>2026-04-12T09:58:10.66Z</time></trkpt><trkpt lat="40.8858933" lon="16.5920667"><ele>477.0</ele><time>2026-04-12T09:58:11.659Z</time></trkpt><trkpt lat="40.8860333" lon="16.5920433"><ele>477.0</ele><time>2026-04-12T09:58:12.659Z</time></trkpt><trkpt lat="40.88618" lon="16.5920233"><ele>477.25</ele><time>2026-04-12T09:58:13.659Z</time></trkpt><trkpt lat="40.88632" lon="16.5920117"><ele>477.5</ele><time>2026-04-12T09:58:14.659Z</time></trkpt><trkpt lat="40.88646" lon="16.591985"><ele>477.75</ele><time>2026-04-12T09:58:15.659Z</time></trkpt><trkpt lat="40.8866017" lon="16.591955"><ele>478.0</ele><time>2026-04-12T09:58:16.66Z</time></trkpt><trkpt lat="40.8867467" lon="16.5919217"><ele>479.0</ele><time>2026-04-12T09:58:17.659Z</time></trkpt><trkpt lat="40.8868917" lon="16.591895"><ele>480.0</ele><time>2026-04-12T09:58:18.66Z</time></trkpt><trkpt lat="40.8870233" lon="16.5918817"><ele>481.0</ele><time>2026-04-12T09:58:19.66Z</time></trkpt><trkpt lat="40.8871383" lon="16.591865"><ele>482.0</ele><time>2026-04-12T09:58:20.659Z</time></trkpt><trkpt lat="40.8872467" lon="16.5918433"><ele>482.0</ele><time>2026-04-12T09:58:21.659Z</time></trkpt><trkpt lat="40.8873483" lon="16.5918183"><ele>482.00000000000006</ele><time>2026-04-12T09:58:22.659Z</time></trkpt><trkpt lat="40.8874467" lon="16.591775"><ele>482.00000000000006</ele><time>2026-04-12T09:58:23.66Z</time></trkpt><trkpt lat="40.8875333" lon="16.5917117"><ele>482.0</ele><time>2026-04-12T09:58:24.659Z</time></trkpt><trkpt lat="40.8876" lon="16.5916367"><ele>482.0</ele><time>2026-04-12T09:58:25.659Z</time></trkpt><trkpt lat="40.88765" lon="16.5915383"><ele>481.99999999999994</ele><time>2026-04-12T09:58:26.659Z</time></trkpt><trkpt lat="40.8876817" lon="16.5914567"><ele>482.0</ele><time>2026-04-12T09:58:27.659Z</time></trkpt><trkpt lat="40.8876917" lon="16.5913617"><ele>482.0</ele><time>2026-04-12T09:58:28.659Z</time></trkpt><trkpt lat="40.887685" lon="16.5912483"><ele>482.0</ele><time>2026-04-12T09:58:29.66Z</time></trkpt><trkpt lat="40.887665" lon="16.5911233"><ele>481.99999999999994</ele><time>2026-04-12T09:58:30.659Z</time></trkpt><trkpt lat="40.8876317" lon="16.590995"><ele>482.0</ele><time>2026-04-12T09:58:31.659Z</time></trkpt><trkpt lat="40.887605" lon="16.5908783"><ele>481.8</ele><time>2026-04-12T09:58:32.659Z</time></trkpt><trkpt lat="40.8875783" lon="16.59076"><ele>481.6</ele><time>2026-04-12T09:58:33.659Z</time></trkpt><trkpt lat="40.88757" lon="16.5906383"><ele>481.40000000000003</ele><time>2026-04-12T09:58:34.659Z</time></trkpt><trkpt lat="40.8875583" lon="16.5905267"><ele>481.20000000000005</ele><time>2026-04-12T09:58:35.659Z</time></trkpt><trkpt lat="40.887535" lon="16.5904133"><ele>481.0</ele><time>2026-04-12T09:58:36.659Z</time></trkpt><trkpt lat="40.887495" lon="16.5903017"><ele>481.0</ele><time>2026-04-12T09:58:37.66Z</time></trkpt><trkpt lat="40.88744" lon="16.5901833"><ele>481.0</ele><time>2026-04-12T09:58:38.66Z</time></trkpt><trkpt lat="40.8873767" lon="16.59006"><ele>481.0</ele><time>2026-04-12T09:58:39.659Z</time></trkpt><trkpt lat="40.887315" lon="16.5899317"><ele>481.0</ele><time>2026-04-12T09:58:40.66Z</time></trkpt><trkpt lat="40.887255" lon="16.5898083"><ele>481.0</ele><time>2026-04-12T09:58:41.659Z</time></trkpt><trkpt lat="40.8871983" lon="16.589695"><ele>481.0</ele><time>2026-04-12T09:58:42.659Z</time></trkpt><trkpt lat="40.887145" lon="16.5895783"><ele>481.0</ele><time>2026-04-12T09:58:43.659Z</time></trkpt><trkpt lat="40.8870933" lon="16.58947"><ele>481.0</ele><time>2026-04-12T09:58:44.659Z</time></trkpt><trkpt lat="40.8870467" lon="16.5893617"><ele>481.0</ele><time>2026-04-12T09:58:45.66Z</time></trkpt><trkpt lat="40.8869917" lon="16.5892467"><ele>481.0</ele><time>2026-04-12T09:58:46.659Z</time></trkpt><trkpt lat="40.8869383" lon="16.5891433"><ele>480.83333333333337</ele><time>2026-04-12T09:58:47.66Z</time></trkpt><trkpt lat="40.8868933" lon="16.5890367"><ele>480.6666666666667</ele><time>2026-04-12T09:58:48.659Z</time></trkpt><trkpt lat="40.8868667" lon="16.5889367"><ele>480.5</ele><time>2026-04-12T09:58:49.66Z</time></trkpt><trkpt lat="40.8868617" lon="16.5888283"><ele>480.33333333333337</ele><time>2026-04-12T09:58:50.66Z</time></trkpt><trkpt lat="40.8868683" lon="16.58871"><ele>480.1666666666667</ele><time>2026-04-12T09:58:51.66Z</time></trkpt><trkpt lat="40.8868883" lon="16.5885783"><ele>480.0</ele><time>2026-04-12T09:58:52.66Z</time></trkpt><trkpt lat="40.88691" lon="16.588435"><ele>480.0</ele><time>2026-04-12T09:58:53.66Z</time></trkpt><trkpt lat="40.8869283" lon="16.588285"><ele>480.0</ele><time>2026-04-12T09:58:54.66Z</time></trkpt><trkpt lat="40.8869483" lon="16.5881267"><ele>480.0</ele><time>2026-04-12T09:58:55.659Z</time></trkpt><trkpt lat="40.88697" lon="16.587965"><ele>480.0</ele><time>2026-04-12T09:58:56.659Z</time></trkpt><trkpt lat="40.886995" lon="16.5878"><ele>479.75</ele><time>2026-04-12T09:58:57.66Z</time></trkpt><trkpt lat="40.8870167" lon="16.5876417"><ele>479.5</ele><time>2026-04-12T09:58:58.659Z</time></trkpt><trkpt lat="40.88704" lon="16.5874833"><ele>479.25</ele><time>2026-04-12T09:58:59.659Z</time></trkpt><trkpt lat="40.88706" lon="16.587335"><ele>479.0</ele><time>2026-04-12T09:59:00.66Z</time></trkpt><trkpt lat="40.8870833" lon="16.5872017"><ele>478.99999999999994</ele><time>2026-04-12T09:59:01.66Z</time></trkpt><trkpt lat="40.8871" lon="16.5870833"><ele>479.0</ele><time>2026-04-12T09:59:02.659Z</time></trkpt><trkpt lat="40.887115" lon="16.58698"><ele>479.0</ele><time>2026-04-12T09:59:03.659Z</time></trkpt><trkpt lat="40.8871417" lon="16.5868783"><ele>479.0</ele><time>2026-04-12T09:59:04.659Z</time></trkpt><trkpt lat="40.8871917" lon="16.5867733"><ele>478.99999999999994</ele><time>2026-04-12T09:59:05.659Z</time></trkpt><trkpt lat="40.8872667" lon="16.586685"><ele>479.0</ele><time>2026-04-12T09:59:06.659Z</time></trkpt><trkpt lat="40.8873467" lon="16.5865933"><ele>479.0</ele><time>2026-04-12T09:59:07.659Z</time></trkpt><trkpt lat="40.8874233" lon="16.586505"><ele>479.0</ele><time>2026-04-12T09:59:08.66Z</time></trkpt><trkpt lat="40.8875" lon="16.5864217"><ele>479.0</ele><time>2026-04-12T09:59:09.659Z</time></trkpt><trkpt lat="40.8875767" lon="16.58634"><ele>479.0</ele><time>2026-04-12T09:59:10.659Z</time></trkpt><trkpt lat="40.88765" lon="16.586265"><ele>479.0</ele><time>2026-04-12T09:59:11.66Z</time></trkpt><trkpt lat="40.88771" lon="16.586205"><ele>479.4</ele><time>2026-04-12T09:59:12.659Z</time></trkpt><trkpt lat="40.887795" lon="16.5860967"><ele>479.79999999999995</ele><time>2026-04-12T09:59:14.659Z</time></trkpt><trkpt lat="40.8878483" lon="16.5859583"><ele>480.20000000000005</ele><time>2026-04-12T09:59:16.659Z</time></trkpt><trkpt lat="40.8878633" lon="16.58586"><ele>480.6</ele><time>2026-04-12T09:59:17.659Z</time></trkpt><trkpt lat="40.8878783" lon="16.5857383"><ele>481.0</ele><time>2026-04-12T09:59:18.659Z</time></trkpt><trkpt lat="40.8878983" lon="16.58561"><ele>481.0</ele><time>2026-04-12T09:59:19.659Z</time></trkpt><trkpt lat="40.8879233" lon="16.5854633"><ele>481.0</ele><time>2026-04-12T09:59:20.659Z</time></trkpt><trkpt lat="40.8879467" lon="16.5853117"><ele>481.0</ele><time>2026-04-12T09:59:21.659Z</time></trkpt><trkpt lat="40.887975" lon="16.58516"><ele>481.0</ele><time>2026-04-12T09:59:22.659Z</time></trkpt><trkpt lat="40.8880067" lon="16.5849983"><ele>481.25</ele><time>2026-04-12T09:59:23.66Z</time></trkpt><trkpt lat="40.888035" lon="16.584835"><ele>481.5</ele><time>2026-04-12T09:59:24.659Z</time></trkpt><trkpt lat="40.88806" lon="16.58467"><ele>481.75</ele><time>2026-04-12T09:59:25.66Z</time></trkpt><trkpt lat="40.888085" lon="16.5845167"><ele>482.0</ele><time>2026-04-12T09:59:26.659Z</time></trkpt><trkpt lat="40.8881083" lon="16.5843817"><ele>482.40000000000003</ele><time>2026-04-12T09:59:27.659Z</time></trkpt><trkpt lat="40.8881283" lon="16.5842583"><ele>482.80000000000007</ele><time>2026-04-12T09:59:28.659Z</time></trkpt><trkpt lat="40.888165" lon="16.5841333"><ele>483.2</ele><time>2026-04-12T09:59:29.659Z</time></trkpt><trkpt lat="40.8882267" lon="16.5840183"><ele>483.6</ele><time>2026-04-12T09:59:30.659Z</time></trkpt><trkpt lat="40.888295" lon="16.5839"><ele>484.0</ele><time>2026-04-12T09:59:31.66Z</time></trkpt><trkpt lat="40.888355" lon="16.5837933"><ele>484.0</ele><time>2026-04-12T09:59:32.659Z</time></trkpt><trkpt lat="40.8884" lon="16.58371"><ele>483.99999999999994</ele><time>2026-04-12T09:59:33.66Z</time></trkpt><trkpt lat="40.8884367" lon="16.5836383"><ele>484.0</ele><time>2026-04-12T09:59:34.659Z</time></trkpt><trkpt lat="40.8884633" lon="16.583555"><ele>484.0</ele><time>2026-04-12T09:59:35.659Z</time></trkpt><trkpt lat="40.8884733" lon="16.5834717"><ele>483.99999999999994</ele><time>2026-04-12T09:59:36.659Z</time></trkpt><trkpt lat="40.888445" lon="16.58338"><ele>484.0</ele><time>2026-04-12T09:59:37.659Z</time></trkpt><trkpt lat="40.8884083" lon="16.5832817"><ele>484.0</ele><time>2026-04-12T09:59:38.659Z</time></trkpt><trkpt lat="40.8883733" lon="16.5831967"><ele>484.00000000000006</ele><time>2026-04-12T09:59:39.659Z</time></trkpt><trkpt lat="40.8883533" lon="16.58311"><ele>484.0</ele><time>2026-04-12T09:59:40.66Z</time></trkpt><trkpt lat="40.8883517" lon="16.583015"><ele>484.0</ele><time>2026-04-12T09:59:41.659Z</time></trkpt><trkpt lat="40.8883717" lon="16.5829183"><ele>484.0</ele><time>2026-04-12T09:59:42.659Z</time></trkpt><trkpt lat="40.8884217" lon="16.582815"><ele>484.00000000000006</ele><time>2026-04-12T09:59:43.66Z</time></trkpt><trkpt lat="40.8884833" lon="16.5826967"><ele>484.0</ele><time>2026-04-12T09:59:44.66Z</time></trkpt><trkpt lat="40.8885367" lon="16.5825583"><ele>484.0</ele><time>2026-04-12T09:59:45.659Z</time></trkpt><trkpt lat="40.88858" lon="16.5824033"><ele>484.0</ele><time>2026-04-12T09:59:46.659Z</time></trkpt><trkpt lat="40.888625" lon="16.58227"><ele>484.0</ele><time>2026-04-12T09:59:47.66Z</time></trkpt><trkpt lat="40.8886617" lon="16.58216"><ele>484.0</ele><time>2026-04-12T09:59:48.659Z</time></trkpt><trkpt lat="40.8887" lon="16.5820567"><ele>484.0</ele><time>2026-04-12T09:59:49.659Z</time></trkpt><trkpt lat="40.8887583" lon="16.581955"><ele>483.75</ele><time>2026-04-12T09:59:50.659Z</time></trkpt><trkpt lat="40.8888283" lon="16.5818583"><ele>483.5</ele><time>2026-04-12T09:59:51.66Z</time></trkpt><trkpt lat="40.88891" lon="16.581755"><ele>483.25</ele><time>2026-04-12T09:59:52.659Z</time></trkpt><trkpt lat="40.888995" lon="16.58164"><ele>483.0</ele><time>2026-04-12T09:59:53.66Z</time></trkpt><trkpt lat="40.8890767" lon="16.5815283"><ele>483.0</ele><time>2026-04-12T09:59:54.659Z</time></trkpt><trkpt lat="40.88916" lon="16.5814083"><ele>483.0</ele><time>2026-04-12T09:59:55.659Z</time></trkpt><trkpt lat="40.8892333" lon="16.5813083"><ele>483.0</ele><time>2026-04-12T09:59:56.659Z</time></trkpt><trkpt lat="40.8893017" lon="16.5812033"><ele>483.0</ele><time>2026-04-12T09:59:57.659Z</time></trkpt><trkpt lat="40.8893733" lon="16.58108"><ele>482.79999999999995</ele><time>2026-04-12T09:59:58.659Z</time></trkpt><trkpt lat="40.8894417" lon="16.5809567"><ele>482.59999999999997</ele><time>2026-04-12T09:59:59.66Z</time></trkpt><trkpt lat="40.8895083" lon="16.58084"><ele>482.40000000000003</ele><time>2026-04-12T10:00:00.659Z</time></trkpt><trkpt lat="40.889565" lon="16.5807367"><ele>482.20000000000005</ele><time>2026-04-12T10:00:01.659Z</time></trkpt><trkpt lat="40.889625" lon="16.58064"><ele>482.0</ele><time>2026-04-12T10:00:02.659Z</time></trkpt><trkpt lat="40.8896767" lon="16.580545"><ele>482.0</ele><time>2026-04-12T10:00:03.659Z</time></trkpt><trkpt lat="40.8897233" lon="16.58046"><ele>482.00000000000006</ele><time>2026-04-12T10:00:04.659Z</time></trkpt><trkpt lat="40.88977" lon="16.5803867"><ele>482.00000000000006</ele><time>2026-04-12T10:00:05.659Z</time></trkpt><trkpt lat="40.8898367" lon="16.5802933"><ele>482.0</ele><time>2026-04-12T10:00:07.66Z</time></trkpt><trkpt lat="40.889915" lon="16.5802617"><ele>482.0</ele><time>2026-04-12T10:00:10.659Z</time></trkpt><trkpt lat="40.8900233" lon="16.5803733"><ele>482.25</ele><time>2026-04-12T10:00:12.659Z</time></trkpt><trkpt lat="40.8901033" lon="16.5804483"><ele>482.5</ele><time>2026-04-12T10:00:13.66Z</time></trkpt><trkpt lat="40.8901983" lon="16.5805333"><ele>482.75</ele><time>2026-04-12T10:00:14.66Z</time></trkpt><trkpt lat="40.8903017" lon="16.5806217"><ele>483.0</ele><time>2026-04-12T10:00:15.659Z</time></trkpt><trkpt lat="40.8904033" lon="16.5807133"><ele>483.0</ele><time>2026-04-12T10:00:16.659Z</time></trkpt><trkpt lat="40.8905167" lon="16.5807983"><ele>483.0</ele><time>2026-04-12T10:00:17.659Z</time></trkpt><trkpt lat="40.89064" lon="16.5808967"><ele>483.0</ele><time>2026-04-12T10:00:18.659Z</time></trkpt><trkpt lat="40.8907733" lon="16.5810067"><ele>483.0</ele><time>2026-04-12T10:00:19.659Z</time></trkpt><trkpt lat="40.890905" lon="16.581105"><ele>481.66666666666663</ele><time>2026-04-12T10:00:20.659Z</time></trkpt><trkpt lat="40.8910467" lon="16.5812167"><ele>480.3333333333333</ele><time>2026-04-12T10:00:21.66Z</time></trkpt><trkpt lat="40.8912" lon="16.5813267"><ele>479.0</ele><time>2026-04-12T10:00:22.659Z</time></trkpt><trkpt lat="40.891355" lon="16.5814467"><ele>479.0</ele><time>2026-04-12T10:00:23.659Z</time></trkpt><trkpt lat="40.8915133" lon="16.5815617"><ele>479.0</ele><time>2026-04-12T10:00:24.659Z</time></trkpt><trkpt lat="40.8916733" lon="16.5816783"><ele>479.0</ele><time>2026-04-12T10:00:25.659Z</time></trkpt><trkpt lat="40.8918133" lon="16.5817917"><ele>478.75</ele><time>2026-04-12T10:00:26.659Z</time></trkpt><trkpt lat="40.8919483" lon="16.5819017"><ele>478.5</ele><time>2026-04-12T10:00:27.659Z</time></trkpt><trkpt lat="40.8920733" lon="16.5819983"><ele>478.25</ele><time>2026-04-12T10:00:28.66Z</time></trkpt><trkpt lat="40.8921983" lon="16.5820967"><ele>478.0</ele><time>2026-04-12T10:00:29.66Z</time></trkpt><trkpt lat="40.892325" lon="16.5821933"><ele>477.6666666666667</ele><time>2026-04-12T10:00:30.659Z</time></trkpt><trkpt lat="40.892465" lon="16.5822833"><ele>477.33333333333337</ele><time>2026-04-12T10:00:31.659Z</time></trkpt><trkpt lat="40.89261" lon="16.58239"><ele>477.0</ele><time>2026-04-12T10:00:32.659Z</time></trkpt><trkpt lat="40.8927583" lon="16.58251"><ele>475.66666666666663</ele><time>2026-04-12T10:00:33.659Z</time></trkpt><trkpt lat="40.8928917" lon="16.58265"><ele>474.3333333333333</ele><time>2026-04-12T10:00:34.659Z</time></trkpt><trkpt lat="40.8930317" lon="16.582795"><ele>473.0</ele><time>2026-04-12T10:00:35.66Z</time></trkpt><trkpt lat="40.8931733" lon="16.5829417"><ele>473.0</ele><time>2026-04-12T10:00:36.659Z</time></trkpt><trkpt lat="40.89331" lon="16.583075"><ele>473.0</ele><time>2026-04-12T10:00:37.659Z</time></trkpt><trkpt lat="40.8934333" lon="16.5832067"><ele>473.0</ele><time>2026-04-12T10:00:38.659Z</time></trkpt><trkpt lat="40.8935433" lon="16.5833433"><ele>472.66666666666663</ele><time>2026-04-12T10:00:39.66Z</time></trkpt><trkpt lat="40.89364" lon="16.5835083"><ele>472.33333333333337</ele><time>2026-04-12T10:00:40.659Z</time></trkpt><trkpt lat="40.893735" lon="16.5836817"><ele>472.0</ele><time>2026-04-12T10:00:41.659Z</time></trkpt><trkpt lat="40.8938233" lon="16.583855"><ele>472.5</ele><time>2026-04-12T10:00:42.66Z</time></trkpt><trkpt lat="40.893915" lon="16.58401"><ele>473.0</ele><time>2026-04-12T10:00:43.659Z</time></trkpt><trkpt lat="40.8939967" lon="16.584145"><ele>473.5</ele><time>2026-04-12T10:00:44.659Z</time></trkpt><trkpt lat="40.8940717" lon="16.5842733"><ele>474.0</ele><time>2026-04-12T10:00:45.659Z</time></trkpt><trkpt lat="40.89414" lon="16.584395"><ele>474.0</ele><time>2026-04-12T10:00:46.659Z</time></trkpt><trkpt lat="40.8942117" lon="16.58452"><ele>474.0</ele><time>2026-04-12T10:00:47.659Z</time></trkpt><trkpt lat="40.8942867" lon="16.5846367"><ele>474.0</ele><time>2026-04-12T10:00:48.659Z</time></trkpt><trkpt lat="40.8943567" lon="16.584725"><ele>474.0</ele><time>2026-04-12T10:00:49.66Z</time></trkpt><trkpt lat="40.89444" lon="16.58478"><ele>474.0</ele><time>2026-04-12T10:00:50.659Z</time></trkpt><trkpt lat="40.8945367" lon="16.5848133"><ele>474.0</ele><time>2026-04-12T10:00:51.66Z</time></trkpt><trkpt lat="40.8946567" lon="16.5848333"><ele>474.0</ele><time>2026-04-12T10:00:52.659Z</time></trkpt><trkpt lat="40.8947917" lon="16.584855"><ele>474.0</ele><time>2026-04-12T10:00:53.659Z</time></trkpt><trkpt lat="40.8949367" lon="16.584875"><ele>474.0</ele><time>2026-04-12T10:00:54.659Z</time></trkpt><trkpt lat="40.895095" lon="16.5849033"><ele>474.0</ele><time>2026-04-12T10:00:55.66Z</time></trkpt><trkpt lat="40.8952533" lon="16.5849267"><ele>474.0</ele><time>2026-04-12T10:00:56.659Z</time></trkpt><trkpt lat="40.895405" lon="16.584955"><ele>474.0</ele><time>2026-04-12T10:00:57.659Z</time></trkpt><trkpt lat="40.8955583" lon="16.58498"><ele>474.0</ele><time>2026-04-12T10:00:58.659Z</time></trkpt><trkpt lat="40.8957183" lon="16.5850083"><ele>474.0</ele><time>2026-04-12T10:00:59.659Z</time></trkpt><trkpt lat="40.8958917" lon="16.58503"><ele>474.0</ele><time>2026-04-12T10:01:00.66Z</time></trkpt><trkpt lat="40.8960617" lon="16.5850583"><ele>474.33333333333337</ele><time>2026-04-12T10:01:01.66Z</time></trkpt><trkpt lat="40.8962233" lon="16.5850833"><ele>474.6666666666667</ele><time>2026-04-12T10:01:02.661Z</time></trkpt><trkpt lat="40.8963817" lon="16.5851133"><ele>475.0</ele><time>2026-04-12T10:01:03.66Z</time></trkpt><trkpt lat="40.8965367" lon="16.5851183"><ele>475.0</ele><time>2026-04-12T10:01:04.66Z</time></trkpt><trkpt lat="40.8966983" lon="16.5850967"><ele>475.0</ele><time>2026-04-12T10:01:05.66Z</time></trkpt><trkpt lat="40.896865" lon="16.585055"><ele>475.0</ele><time>2026-04-12T10:01:06.66Z</time></trkpt><trkpt lat="40.8970367" lon="16.5850083"><ele>475.6666666666667</ele><time>2026-04-12T10:01:07.661Z</time></trkpt><trkpt lat="40.8972133" lon="16.5849633"><ele>476.33333333333337</ele><time>2026-04-12T10:01:08.66Z</time></trkpt><trkpt lat="40.8973933" lon="16.5849283"><ele>477.0</ele><time>2026-04-12T10:01:09.661Z</time></trkpt><trkpt lat="40.8975683" lon="16.5848917"><ele>477.66666666666663</ele><time>2026-04-12T10:01:10.661Z</time></trkpt><trkpt lat="40.8977483" lon="16.58485"><ele>478.3333333333333</ele><time>2026-04-12T10:01:11.66Z</time></trkpt><trkpt lat="40.8979183" lon="16.5848067"><ele>479.0</ele><time>2026-04-12T10:01:12.66Z</time></trkpt><trkpt lat="40.8981" lon="16.584765"><ele>479.0</ele><time>2026-04-12T10:01:13.66Z</time></trkpt><trkpt lat="40.898275" lon="16.5847283"><ele>479.0</ele><time>2026-04-12T10:01:14.66Z</time></trkpt><trkpt lat="40.898455" lon="16.5846917"><ele>479.0</ele><time>2026-04-12T10:01:15.661Z</time></trkpt><trkpt lat="40.8986317" lon="16.5846517"><ele>479.0</ele><time>2026-04-12T10:01:16.66Z</time></trkpt><trkpt lat="40.898815" lon="16.5846083"><ele>479.0</ele><time>2026-04-12T10:01:17.66Z</time></trkpt><trkpt lat="40.8989883" lon="16.58457"><ele>479.0</ele><time>2026-04-12T10:01:18.66Z</time></trkpt><trkpt lat="40.8991567" lon="16.5845317"><ele>480.0</ele><time>2026-04-12T10:01:19.66Z</time></trkpt><trkpt lat="40.8993117" lon="16.5845033"><ele>481.0</ele><time>2026-04-12T10:01:20.66Z</time></trkpt><trkpt lat="40.8994583" lon="16.5844683"><ele>482.0</ele><time>2026-04-12T10:01:21.66Z</time></trkpt><trkpt lat="40.8996017" lon="16.5844417"><ele>482.0</ele><time>2026-04-12T10:01:22.66Z</time></trkpt><trkpt lat="40.8997467" lon="16.5844433"><ele>482.0</ele><time>2026-04-12T10:01:23.66Z</time></trkpt><trkpt lat="40.8998933" lon="16.5844667"><ele>482.0</ele><time>2026-04-12T10:01:24.66Z</time></trkpt><trkpt lat="40.9000367" lon="16.5845033"><ele>482.0</ele><time>2026-04-12T10:01:25.66Z</time></trkpt><trkpt lat="40.9001917" lon="16.584525"><ele>482.25</ele><time>2026-04-12T10:01:26.66Z</time></trkpt><trkpt lat="40.9003517" lon="16.5845467"><ele>482.5</ele><time>2026-04-12T10:01:27.66Z</time></trkpt><trkpt lat="40.900495" lon="16.5845783"><ele>482.75</ele><time>2026-04-12T10:01:28.66Z</time></trkpt><trkpt lat="40.9006333" lon="16.5846133"><ele>483.0</ele><time>2026-04-12T10:01:29.661Z</time></trkpt><trkpt lat="40.90077" lon="16.58463"><ele>483.0</ele><time>2026-04-12T10:01:30.66Z</time></trkpt><trkpt lat="40.90091" lon="16.5846383"><ele>483.0</ele><time>2026-04-12T10:01:31.66Z</time></trkpt><trkpt lat="40.9010483" lon="16.58463"><ele>483.0</ele><time>2026-04-12T10:01:32.66Z</time></trkpt><trkpt lat="40.9011917" lon="16.584615"><ele>483.0</ele><time>2026-04-12T10:01:33.661Z</time></trkpt><trkpt lat="40.90134" lon="16.5845917"><ele>483.66666666666663</ele><time>2026-04-12T10:01:34.66Z</time></trkpt><trkpt lat="40.901485" lon="16.584555"><ele>484.3333333333333</ele><time>2026-04-12T10:01:35.66Z</time></trkpt><trkpt lat="40.90164" lon="16.5845067"><ele>485.0</ele><time>2026-04-12T10:01:36.66Z</time></trkpt><trkpt lat="40.901795" lon="16.58445"><ele>486.0</ele><time>2026-04-12T10:01:37.661Z</time></trkpt><trkpt lat="40.9019517" lon="16.5843933"><ele>487.0</ele><time>2026-04-12T10:01:38.661Z</time></trkpt><trkpt lat="40.9021067" lon="16.5843483"><ele>488.0</ele><time>2026-04-12T10:01:39.66Z</time></trkpt><trkpt lat="40.9022617" lon="16.5843183"><ele>488.0</ele><time>2026-04-12T10:01:40.66Z</time></trkpt><trkpt lat="40.9024033" lon="16.584305"><ele>488.0</ele><time>2026-04-12T10:01:41.66Z</time></trkpt><trkpt lat="40.9025317" lon="16.58428"><ele>488.0</ele><time>2026-04-12T10:01:42.66Z</time></trkpt><trkpt lat="40.9026617" lon="16.5842617"><ele>488.0</ele><time>2026-04-12T10:01:43.66Z</time></trkpt><trkpt lat="40.90277" lon="16.58425"><ele>488.79999999999995</ele><time>2026-04-12T10:01:44.661Z</time></trkpt><trkpt lat="40.9028733" lon="16.5842617"><ele>489.59999999999997</ele><time>2026-04-12T10:01:45.66Z</time></trkpt><trkpt lat="40.90297" lon="16.5842917"><ele>490.40000000000003</ele><time>2026-04-12T10:01:46.66Z</time></trkpt><trkpt lat="40.9030767" lon="16.58434"><ele>491.20000000000005</ele><time>2026-04-12T10:01:47.66Z</time></trkpt><trkpt lat="40.9031883" lon="16.5843867"><ele>492.0</ele><time>2026-04-12T10:01:48.66Z</time></trkpt><trkpt lat="40.903305" lon="16.5844217"><ele>493.25</ele><time>2026-04-12T10:01:49.661Z</time></trkpt><trkpt lat="40.9034367" lon="16.58443"><ele>494.5</ele><time>2026-04-12T10:01:50.66Z</time></trkpt><trkpt lat="40.9035617" lon="16.5844117"><ele>495.75</ele><time>2026-04-12T10:01:51.66Z</time></trkpt><trkpt lat="40.9036867" lon="16.5843733"><ele>497.0</ele><time>2026-04-12T10:01:52.661Z</time></trkpt><trkpt lat="40.9038183" lon="16.5843267"><ele>497.0</ele><time>2026-04-12T10:01:53.661Z</time></trkpt><trkpt lat="40.90395" lon="16.5842767"><ele>497.0</ele><time>2026-04-12T10:01:54.66Z</time></trkpt><trkpt lat="40.9040733" lon="16.5842433"><ele>497.0</ele><time>2026-04-12T10:01:55.66Z</time></trkpt><trkpt lat="40.9041867" lon="16.58422"><ele>497.0</ele><time>2026-04-12T10:01:56.66Z</time></trkpt><trkpt lat="40.9042833" lon="16.5842017"><ele>498.0</ele><time>2026-04-12T10:01:57.66Z</time></trkpt><trkpt lat="40.90438" lon="16.5841933"><ele>499.00000000000006</ele><time>2026-04-12T10:01:58.66Z</time></trkpt><trkpt lat="40.9044717" lon="16.5841867"><ele>500.00000000000006</ele><time>2026-04-12T10:01:59.661Z</time></trkpt><trkpt lat="40.9045733" lon="16.584195"><ele>501.0</ele><time>2026-04-12T10:02:00.66Z</time></trkpt><trkpt lat="40.9046783" lon="16.5842033"><ele>502.0</ele><time>2026-04-12T10:02:01.66Z</time></trkpt><trkpt lat="40.9047717" lon="16.58421"><ele>502.0</ele><time>2026-04-12T10:02:02.661Z</time></trkpt><trkpt lat="40.90487" lon="16.5841883"><ele>502.00000000000006</ele><time>2026-04-12T10:02:03.661Z</time></trkpt><trkpt lat="40.9049733" lon="16.5841417"><ele>502.00000000000006</ele><time>2026-04-12T10:02:04.661Z</time></trkpt><trkpt lat="40.9050783" lon="16.5840933"><ele>502.0</ele><time>2026-04-12T10:02:05.66Z</time></trkpt><trkpt lat="40.9051817" lon="16.5840483"><ele>502.0</ele><time>2026-04-12T10:02:06.661Z</time></trkpt><trkpt lat="40.9052867" lon="16.584"><ele>502.33333333333337</ele><time>2026-04-12T10:02:07.661Z</time></trkpt><trkpt lat="40.90539" lon="16.5839717"><ele>502.6666666666667</ele><time>2026-04-12T10:02:08.66Z</time></trkpt><trkpt lat="40.9054817" lon="16.5839533"><ele>503.0</ele><time>2026-04-12T10:02:09.66Z</time></trkpt><trkpt lat="40.905555" lon="16.5839433"><ele>503.33333333333337</ele><time>2026-04-12T10:02:10.66Z</time></trkpt><trkpt lat="40.905625" lon="16.5839267"><ele>503.6666666666667</ele><time>2026-04-12T10:02:11.66Z</time></trkpt><trkpt lat="40.9056917" lon="16.5839117"><ele>504.0</ele><time>2026-04-12T10:02:12.66Z</time></trkpt><trkpt lat="40.9057567" lon="16.583905"><ele>504.0</ele><time>2026-04-12T10:02:13.66Z</time></trkpt><trkpt lat="40.9058717" lon="16.5838917"><ele>504.0</ele><time>2026-04-12T10:02:15.661Z</time></trkpt><trkpt lat="40.9059567" lon="16.583865"><ele>504.0</ele><time>2026-04-12T10:02:17.66Z</time></trkpt><trkpt lat="40.9060367" lon="16.5838467"><ele>504.0</ele><time>2026-04-12T10:02:19.66Z</time></trkpt><trkpt lat="40.9061217" lon="16.5838217"><ele>504.0</ele><time>2026-04-12T10:02:21.66Z</time></trkpt><trkpt lat="40.90617" lon="16.58375"><ele>504.0</ele><time>2026-04-12T10:02:23.66Z</time></trkpt><trkpt lat="40.906165" lon="16.58359"><ele>504.0</ele><time>2026-04-12T10:02:25.66Z</time></trkpt><trkpt lat="40.9061317" lon="16.5834867"><ele>504.0</ele><time>2026-04-12T10:02:26.66Z</time></trkpt><trkpt lat="40.9060883" lon="16.58337"><ele>504.0</ele><time>2026-04-12T10:02:27.661Z</time></trkpt><trkpt lat="40.90604" lon="16.5832333"><ele>504.0</ele><time>2026-04-12T10:02:28.66Z</time></trkpt><trkpt lat="40.90598" lon="16.5830833"><ele>504.0</ele><time>2026-04-12T10:02:29.66Z</time></trkpt><trkpt lat="40.90591" lon="16.58293"><ele>504.5</ele><time>2026-04-12T10:02:30.66Z</time></trkpt><trkpt lat="40.9058533" lon="16.582775"><ele>505.0</ele><time>2026-04-12T10:02:31.66Z</time></trkpt><trkpt lat="40.9057833" lon="16.5826183"><ele>505.5</ele><time>2026-04-12T10:02:32.66Z</time></trkpt><trkpt lat="40.9057167" lon="16.582455"><ele>506.0</ele><time>2026-04-12T10:02:33.66Z</time></trkpt><trkpt lat="40.9056567" lon="16.5822767"><ele>506.0</ele><time>2026-04-12T10:02:34.66Z</time></trkpt><trkpt lat="40.9055967" lon="16.582105"><ele>506.0</ele><time>2026-04-12T10:02:35.66Z</time></trkpt><trkpt lat="40.9055267" lon="16.5819267"><ele>506.0</ele><time>2026-04-12T10:02:36.66Z</time></trkpt><trkpt lat="40.9054633" lon="16.5817467"><ele>506.0</ele><time>2026-04-12T10:02:37.66Z</time></trkpt><trkpt lat="40.9053917" lon="16.5815617"><ele>506.0</ele><time>2026-04-12T10:02:38.66Z</time></trkpt><trkpt lat="40.9053267" lon="16.58138"><ele>506.0</ele><time>2026-04-12T10:02:39.66Z</time></trkpt><trkpt lat="40.9052617" lon="16.5812017"><ele>506.0</ele><time>2026-04-12T10:02:40.659Z</time></trkpt><trkpt lat="40.9052017" lon="16.581035"><ele>506.0</ele><time>2026-04-12T10:02:41.66Z</time></trkpt><trkpt lat="40.905145" lon="16.5808767"><ele>505.75</ele><time>2026-04-12T10:02:42.66Z</time></trkpt><trkpt lat="40.9050783" lon="16.5807233"><ele>505.5</ele><time>2026-04-12T10:02:43.66Z</time></trkpt><trkpt lat="40.90502" lon="16.580565"><ele>505.25</ele><time>2026-04-12T10:02:44.66Z</time></trkpt><trkpt lat="40.904965" lon="16.580425"><ele>505.0</ele><time>2026-04-12T10:02:45.661Z</time></trkpt><trkpt lat="40.9049183" lon="16.5802867"><ele>505.0</ele><time>2026-04-12T10:02:46.661Z</time></trkpt><trkpt lat="40.9048683" lon="16.5801333"><ele>505.0</ele><time>2026-04-12T10:02:47.66Z</time></trkpt><trkpt lat="40.90483" lon="16.5799933"><ele>505.0</ele><time>2026-04-12T10:02:48.661Z</time></trkpt><trkpt lat="40.904785" lon="16.5798433"><ele>505.0</ele><time>2026-04-12T10:02:49.66Z</time></trkpt><trkpt lat="40.90475" lon="16.5796883"><ele>505.75</ele><time>2026-04-12T10:02:50.66Z</time></trkpt><trkpt lat="40.9047183" lon="16.5795117"><ele>506.5</ele><time>2026-04-12T10:02:51.66Z</time></trkpt><trkpt lat="40.9046933" lon="16.5793483"><ele>507.25</ele><time>2026-04-12T10:02:52.66Z</time></trkpt><trkpt lat="40.90466" lon="16.5791983"><ele>508.0</ele><time>2026-04-12T10:02:53.66Z</time></trkpt><trkpt lat="40.9046183" lon="16.5790517"><ele>508.0</ele><time>2026-04-12T10:02:54.661Z</time></trkpt><trkpt lat="40.9045567" lon="16.5789167"><ele>508.0</ele><time>2026-04-12T10:02:55.66Z</time></trkpt><trkpt lat="40.9044833" lon="16.578775"><ele>508.0</ele><time>2026-04-12T10:02:56.66Z</time></trkpt><trkpt lat="40.9044133" lon="16.578645"><ele>508.0</ele><time>2026-04-12T10:02:57.66Z</time></trkpt><trkpt lat="40.9043517" lon="16.5785133"><ele>507.75</ele><time>2026-04-12T10:02:58.661Z</time></trkpt><trkpt lat="40.9042667" lon="16.57838"><ele>507.5</ele><time>2026-04-12T10:02:59.66Z</time></trkpt><trkpt lat="40.9041683" lon="16.5782467"><ele>507.25</ele><time>2026-04-12T10:03:00.66Z</time></trkpt><trkpt lat="40.9040633" lon="16.5781133"><ele>507.0</ele><time>2026-04-12T10:03:01.66Z</time></trkpt><trkpt lat="40.9039667" lon="16.577985"><ele>507.25</ele><time>2026-04-12T10:03:02.661Z</time></trkpt><trkpt lat="40.9038683" lon="16.5778433"><ele>507.5</ele><time>2026-04-12T10:03:03.66Z</time></trkpt><trkpt lat="40.9037783" lon="16.5777217"><ele>507.75</ele><time>2026-04-12T10:03:04.66Z</time></trkpt><trkpt lat="40.90371" lon="16.5776267"><ele>508.0</ele><time>2026-04-12T10:03:05.661Z</time></trkpt><trkpt lat="40.90365" lon="16.5775467"><ele>508.00000000000006</ele><time>2026-04-12T10:03:06.66Z</time></trkpt><trkpt lat="40.903605" lon="16.5774817"><ele>508.0</ele><time>2026-04-12T10:03:07.66Z</time></trkpt><trkpt lat="40.9035767" lon="16.577405"><ele>508.0</ele><time>2026-04-12T10:03:08.661Z</time></trkpt><trkpt lat="40.90363" lon="16.5772567"><ele>508.0</ele><time>2026-04-12T10:03:10.66Z</time></trkpt><trkpt lat="40.9036967" lon="16.5771817"><ele>508.00000000000006</ele><time>2026-04-12T10:03:11.66Z</time></trkpt><trkpt lat="40.9037683" lon="16.5770983"><ele>508.0</ele><time>2026-04-12T10:03:12.66Z</time></trkpt><trkpt lat="40.9038483" lon="16.5770067"><ele>508.25</ele><time>2026-04-12T10:03:13.66Z</time></trkpt><trkpt lat="40.9039317" lon="16.5769017"><ele>508.5</ele><time>2026-04-12T10:03:14.66Z</time></trkpt><trkpt lat="40.9040133" lon="16.5767917"><ele>508.75</ele><time>2026-04-12T10:03:15.66Z</time></trkpt><trkpt lat="40.904095" lon="16.5766783"><ele>509.0</ele><time>2026-04-12T10:03:16.66Z</time></trkpt><trkpt lat="40.904175" lon="16.5765533"><ele>509.5</ele><time>2026-04-12T10:03:17.66Z</time></trkpt><trkpt lat="40.9042633" lon="16.5764167"><ele>510.0</ele><time>2026-04-12T10:03:18.66Z</time></trkpt><trkpt lat="40.9043533" lon="16.5762767"><ele>510.5</ele><time>2026-04-12T10:03:19.661Z</time></trkpt><trkpt lat="40.9044467" lon="16.5761283"><ele>511.0</ele><time>2026-04-12T10:03:20.66Z</time></trkpt><trkpt lat="40.9045433" lon="16.5759833"><ele>511.0</ele><time>2026-04-12T10:03:21.661Z</time></trkpt><trkpt lat="40.9046333" lon="16.5758317"><ele>511.0</ele><time>2026-04-12T10:03:22.66Z</time></trkpt><trkpt lat="40.904715" lon="16.5756867"><ele>511.0</ele><time>2026-04-12T10:03:23.66Z</time></trkpt><trkpt lat="40.9047967" lon="16.575545"><ele>511.0</ele><time>2026-04-12T10:03:24.661Z</time></trkpt><trkpt lat="40.9048733" lon="16.5754233"><ele>510.5</ele><time>2026-04-12T10:03:25.661Z</time></trkpt><trkpt lat="40.9049467" lon="16.5753017"><ele>510.0</ele><time>2026-04-12T10:03:26.661Z</time></trkpt><trkpt lat="40.9050283" lon="16.5751833"><ele>509.5</ele><time>2026-04-12T10:03:27.66Z</time></trkpt><trkpt lat="40.9051033" lon="16.57506"><ele>509.0</ele><time>2026-04-12T10:03:28.661Z</time></trkpt><trkpt lat="40.9051817" lon="16.5749283"><ele>509.0</ele><time>2026-04-12T10:03:29.66Z</time></trkpt><trkpt lat="40.9052617" lon="16.5747783"><ele>509.0</ele><time>2026-04-12T10:03:30.66Z</time></trkpt><trkpt lat="40.9053533" lon="16.5746383"><ele>509.0</ele><time>2026-04-12T10:03:31.661Z</time></trkpt><trkpt lat="40.9054467" lon="16.57449"><ele>509.0</ele><time>2026-04-12T10:03:32.66Z</time></trkpt><trkpt lat="40.9055367" lon="16.5743483"><ele>508.6</ele><time>2026-04-12T10:03:33.66Z</time></trkpt><trkpt lat="40.9056217" lon="16.5742217"><ele>508.2</ele><time>2026-04-12T10:03:34.66Z</time></trkpt><trkpt lat="40.9056967" lon="16.5740933"><ele>507.80000000000007</ele><time>2026-04-12T10:03:35.661Z</time></trkpt><trkpt lat="40.9057483" lon="16.5739967"><ele>507.40000000000003</ele><time>2026-04-12T10:03:36.661Z</time></trkpt><trkpt lat="40.9058117" lon="16.5739033"><ele>507.0</ele><time>2026-04-12T10:03:37.66Z</time></trkpt><trkpt lat="40.90587" lon="16.573805"><ele>506.8</ele><time>2026-04-12T10:03:38.661Z</time></trkpt><trkpt lat="40.9059367" lon="16.57371"><ele>506.6</ele><time>2026-04-12T10:03:39.66Z</time></trkpt><trkpt lat="40.9060117" lon="16.5735967"><ele>506.40000000000003</ele><time>2026-04-12T10:03:40.66Z</time></trkpt><trkpt lat="40.9060833" lon="16.5734783"><ele>506.20000000000005</ele><time>2026-04-12T10:03:41.661Z</time></trkpt><trkpt lat="40.906155" lon="16.5733533"><ele>506.0</ele><time>2026-04-12T10:03:42.661Z</time></trkpt><trkpt lat="40.906225" lon="16.573245"><ele>506.0</ele><time>2026-04-12T10:03:43.66Z</time></trkpt><trkpt lat="40.9062883" lon="16.5731433"><ele>506.0</ele><time>2026-04-12T10:03:44.66Z</time></trkpt><trkpt lat="40.9063483" lon="16.5730367"><ele>506.0</ele><time>2026-04-12T10:03:45.661Z</time></trkpt><trkpt lat="40.9064067" lon="16.5729433"><ele>506.0</ele><time>2026-04-12T10:03:46.661Z</time></trkpt><trkpt lat="40.9064633" lon="16.5728583"><ele>506.0</ele><time>2026-04-12T10:03:47.661Z</time></trkpt><trkpt lat="40.9065217" lon="16.5727783"><ele>506.0</ele><time>2026-04-12T10:03:48.66Z</time></trkpt><trkpt lat="40.9065683" lon="16.5727"><ele>506.0</ele><time>2026-04-12T10:03:49.661Z</time></trkpt><trkpt lat="40.9066" lon="16.5726083"><ele>506.0</ele><time>2026-04-12T10:03:50.66Z</time></trkpt><trkpt lat="40.9066217" lon="16.57249"><ele>506.0</ele><time>2026-04-12T10:03:51.66Z</time></trkpt><trkpt lat="40.90664" lon="16.5723583"><ele>506.0</ele><time>2026-04-12T10:03:52.661Z</time></trkpt><trkpt lat="40.9066567" lon="16.5722067"><ele>506.0</ele><time>2026-04-12T10:03:53.66Z</time></trkpt><trkpt lat="40.9066767" lon="16.572065"><ele>506.0</ele><time>2026-04-12T10:03:54.661Z</time></trkpt><trkpt lat="40.9066983" lon="16.5719333"><ele>506.0</ele><time>2026-04-12T10:03:55.66Z</time></trkpt><trkpt lat="40.9067183" lon="16.5718117"><ele>506.0</ele><time>2026-04-12T10:03:56.661Z</time></trkpt><trkpt lat="40.9067333" lon="16.5717"><ele>506.0</ele><time>2026-04-12T10:03:57.66Z</time></trkpt><trkpt lat="40.9067433" lon="16.571605"><ele>505.66666666666663</ele><time>2026-04-12T10:03:58.66Z</time></trkpt><trkpt lat="40.906755" lon="16.57151"><ele>505.3333333333333</ele><time>2026-04-12T10:03:59.661Z</time></trkpt><trkpt lat="40.90677" lon="16.5714133"><ele>505.0</ele><time>2026-04-12T10:04:00.66Z</time></trkpt><trkpt lat="40.9067933" lon="16.5713133"><ele>504.66666666666663</ele><time>2026-04-12T10:04:01.66Z</time></trkpt><trkpt lat="40.9068183" lon="16.5711933"><ele>504.3333333333333</ele><time>2026-04-12T10:04:02.66Z</time></trkpt><trkpt lat="40.9068433" lon="16.5710667"><ele>504.0</ele><time>2026-04-12T10:04:03.66Z</time></trkpt><trkpt lat="40.9068667" lon="16.5709267"><ele>504.0</ele><time>2026-04-12T10:04:04.66Z</time></trkpt><trkpt lat="40.90689" lon="16.5707717"><ele>504.0</ele><time>2026-04-12T10:04:05.661Z</time></trkpt><trkpt lat="40.90691" lon="16.5706083"><ele>504.0</ele><time>2026-04-12T10:04:06.66Z</time></trkpt><trkpt lat="40.9069367" lon="16.5704433"><ele>504.0</ele><time>2026-04-12T10:04:07.66Z</time></trkpt><trkpt lat="40.9069583" lon="16.5702767"><ele>504.25</ele><time>2026-04-12T10:04:08.661Z</time></trkpt><trkpt lat="40.9069883" lon="16.5701067"><ele>504.5</ele><time>2026-04-12T10:04:09.66Z</time></trkpt><trkpt lat="40.9070167" lon="16.56994"><ele>504.75</ele><time>2026-04-12T10:04:10.66Z</time></trkpt><trkpt lat="40.907045" lon="16.5697767"><ele>505.0</ele><time>2026-04-12T10:04:11.66Z</time></trkpt><trkpt lat="40.9070733" lon="16.5696217"><ele>505.0</ele><time>2026-04-12T10:04:12.661Z</time></trkpt><trkpt lat="40.9070917" lon="16.5694633"><ele>505.0</ele><time>2026-04-12T10:04:13.661Z</time></trkpt><trkpt lat="40.9071083" lon="16.5693167"><ele>505.0</ele><time>2026-04-12T10:04:14.661Z</time></trkpt><trkpt lat="40.9071267" lon="16.5691633"><ele>505.0</ele><time>2026-04-12T10:04:15.661Z</time></trkpt><trkpt lat="40.9071517" lon="16.5690067"><ele>505.0</ele><time>2026-04-12T10:04:16.66Z</time></trkpt><trkpt lat="40.9071833" lon="16.5688483"><ele>505.0</ele><time>2026-04-12T10:04:17.66Z</time></trkpt><trkpt lat="40.90721" lon="16.5686967"><ele>505.0</ele><time>2026-04-12T10:04:18.66Z</time></trkpt><trkpt lat="40.90723" lon="16.5685467"><ele>505.0</ele><time>2026-04-12T10:04:19.661Z</time></trkpt><trkpt lat="40.9072533" lon="16.5684033"><ele>505.0</ele><time>2026-04-12T10:04:20.661Z</time></trkpt><trkpt lat="40.9072767" lon="16.5682683"><ele>505.0</ele><time>2026-04-12T10:04:21.66Z</time></trkpt><trkpt lat="40.907305" lon="16.5681217"><ele>505.0</ele><time>2026-04-12T10:04:22.66Z</time></trkpt><trkpt lat="40.9073317" lon="16.5679933"><ele>505.0</ele><time>2026-04-12T10:04:23.661Z</time></trkpt><trkpt lat="40.9073533" lon="16.5678733"><ele>505.0</ele><time>2026-04-12T10:04:24.66Z</time></trkpt><trkpt lat="40.90737" lon="16.5677733"><ele>505.1428571428571</ele><time>2026-04-12T10:04:25.66Z</time></trkpt><trkpt lat="40.9073833" lon="16.56768"><ele>505.2857142857142</ele><time>2026-04-12T10:04:26.66Z</time></trkpt><trkpt lat="40.9074117" lon="16.5676"><ele>505.42857142857144</ele><time>2026-04-12T10:04:27.66Z</time></trkpt><trkpt lat="40.9074433" lon="16.567525"><ele>505.57142857142856</ele><time>2026-04-12T10:04:28.66Z</time></trkpt><trkpt lat="40.9074883" lon="16.5674567"><ele>505.7142857142857</ele><time>2026-04-12T10:04:29.66Z</time></trkpt><trkpt lat="40.907555" lon="16.5673983"><ele>505.8571428571429</ele><time>2026-04-12T10:04:30.66Z</time></trkpt><trkpt lat="40.90762" lon="16.567345"><ele>506.00000000000006</ele><time>2026-04-12T10:04:31.66Z</time></trkpt><trkpt lat="40.9076867" lon="16.5672717"><ele>505.6</ele><time>2026-04-12T10:04:32.661Z</time></trkpt><trkpt lat="40.9077567" lon="16.5671967"><ele>505.20000000000005</ele><time>2026-04-12T10:04:33.66Z</time></trkpt><trkpt lat="40.9078183" lon="16.5671133"><ele>504.79999999999995</ele><time>2026-04-12T10:04:34.66Z</time></trkpt><trkpt lat="40.9078617" lon="16.5670183"><ele>504.4</ele><time>2026-04-12T10:04:35.66Z</time></trkpt><trkpt lat="40.9078917" lon="16.5669117"><ele>504.0</ele><time>2026-04-12T10:04:36.661Z</time></trkpt><trkpt lat="40.9079117" lon="16.5667733"><ele>504.0</ele><time>2026-04-12T10:04:37.66Z</time></trkpt><trkpt lat="40.907925" lon="16.5666317"><ele>504.0</ele><time>2026-04-12T10:04:38.66Z</time></trkpt><trkpt lat="40.90794" lon="16.5664683"><ele>504.0</ele><time>2026-04-12T10:04:39.66Z</time></trkpt><trkpt lat="40.9079667" lon="16.5663"><ele>504.0</ele><time>2026-04-12T10:04:40.66Z</time></trkpt><trkpt lat="40.9079967" lon="16.5661217"><ele>504.25</ele><time>2026-04-12T10:04:41.66Z</time></trkpt><trkpt lat="40.9080267" lon="16.5659367"><ele>504.5</ele><time>2026-04-12T10:04:42.66Z</time></trkpt><trkpt lat="40.9080533" lon="16.5657683"><ele>504.75</ele><time>2026-04-12T10:04:43.66Z</time></trkpt><trkpt lat="40.90808" lon="16.5656133"><ele>505.0</ele><time>2026-04-12T10:04:44.66Z</time></trkpt><trkpt lat="40.9081" lon="16.5654683"><ele>505.25</ele><time>2026-04-12T10:04:45.661Z</time></trkpt><trkpt lat="40.9081267" lon="16.56533"><ele>505.5</ele><time>2026-04-12T10:04:46.66Z</time></trkpt><trkpt lat="40.9081633" lon="16.565185"><ele>505.75</ele><time>2026-04-12T10:04:47.66Z</time></trkpt><trkpt lat="40.9082133" lon="16.565035"><ele>506.0</ele><time>2026-04-12T10:04:48.66Z</time></trkpt><trkpt lat="40.9082617" lon="16.5648683"><ele>506.0</ele><time>2026-04-12T10:04:49.661Z</time></trkpt><trkpt lat="40.908305" lon="16.5646967"><ele>506.0</ele><time>2026-04-12T10:04:50.66Z</time></trkpt><trkpt lat="40.9083417" lon="16.5645167"><ele>506.0</ele><time>2026-04-12T10:04:51.66Z</time></trkpt><trkpt lat="40.9083833" lon="16.5643367"><ele>506.0</ele><time>2026-04-12T10:04:52.66Z</time></trkpt><trkpt lat="40.9084317" lon="16.5641567"><ele>506.3333333333333</ele><time>2026-04-12T10:04:53.66Z</time></trkpt><trkpt lat="40.9084817" lon="16.563975"><ele>506.66666666666663</ele><time>2026-04-12T10:04:54.66Z</time></trkpt><trkpt lat="40.9085383" lon="16.5637883"><ele>507.0</ele><time>2026-04-12T10:04:55.66Z</time></trkpt><trkpt lat="40.9086" lon="16.5635967"><ele>507.5</ele><time>2026-04-12T10:04:56.66Z</time></trkpt><trkpt lat="40.9086617" lon="16.5634167"><ele>508.0</ele><time>2026-04-12T10:04:57.66Z</time></trkpt><trkpt lat="40.908715" lon="16.5632317"><ele>508.5</ele><time>2026-04-12T10:04:58.66Z</time></trkpt><trkpt lat="40.90877" lon="16.563065"><ele>509.0</ele><time>2026-04-12T10:04:59.661Z</time></trkpt><trkpt lat="40.908825" lon="16.5629017"><ele>509.0</ele><time>2026-04-12T10:05:00.66Z</time></trkpt><trkpt lat="40.9088783" lon="16.5627467"><ele>509.0</ele><time>2026-04-12T10:05:01.66Z</time></trkpt><trkpt lat="40.908925" lon="16.5625883"><ele>509.0</ele><time>2026-04-12T10:05:02.66Z</time></trkpt><trkpt lat="40.9089783" lon="16.5624217"><ele>509.0</ele><time>2026-04-12T10:05:03.661Z</time></trkpt><trkpt lat="40.9090267" lon="16.562255"><ele>509.0</ele><time>2026-04-12T10:05:04.66Z</time></trkpt><trkpt lat="40.9090733" lon="16.56208"><ele>509.0</ele><time>2026-04-12T10:05:05.66Z</time></trkpt><trkpt lat="40.9091217" lon="16.5619"><ele>509.0</ele><time>2026-04-12T10:05:06.661Z</time></trkpt><trkpt lat="40.9091633" lon="16.561735"><ele>509.0</ele><time>2026-04-12T10:05:07.66Z</time></trkpt><trkpt lat="40.9092117" lon="16.5615767"><ele>508.5</ele><time>2026-04-12T10:05:08.66Z</time></trkpt><trkpt lat="40.9092483" lon="16.5614083"><ele>508.0</ele><time>2026-04-12T10:05:09.66Z</time></trkpt><trkpt lat="40.90927" lon="16.5612233"><ele>507.5</ele><time>2026-04-12T10:05:10.66Z</time></trkpt><trkpt lat="40.9092983" lon="16.5610367"><ele>507.0</ele><time>2026-04-12T10:05:11.66Z</time></trkpt><trkpt lat="40.90933" lon="16.560845"><ele>507.0</ele><time>2026-04-12T10:05:12.66Z</time></trkpt><trkpt lat="40.9093617" lon="16.56065"><ele>507.0</ele><time>2026-04-12T10:05:13.66Z</time></trkpt><trkpt lat="40.90939" lon="16.5604583"><ele>507.0</ele><time>2026-04-12T10:05:14.66Z</time></trkpt><trkpt lat="40.9094133" lon="16.5602717"><ele>507.0</ele><time>2026-04-12T10:05:15.66Z</time></trkpt><trkpt lat="40.9094383" lon="16.5600833"><ele>507.0</ele><time>2026-04-12T10:05:16.66Z</time></trkpt><trkpt lat="40.909455" lon="16.5598967"><ele>507.0</ele><time>2026-04-12T10:05:17.661Z</time></trkpt><trkpt lat="40.9094817" lon="16.5597233"><ele>507.0</ele><time>2026-04-12T10:05:18.66Z</time></trkpt><trkpt lat="40.9095233" lon="16.5595667"><ele>507.0</ele><time>2026-04-12T10:05:19.66Z</time></trkpt><trkpt lat="40.9095733" lon="16.5594133"><ele>507.25</ele><time>2026-04-12T10:05:20.66Z</time></trkpt><trkpt lat="40.9096317" lon="16.5592717"><ele>507.5</ele><time>2026-04-12T10:05:21.66Z</time></trkpt><trkpt lat="40.9096817" lon="16.5591383"><ele>507.75</ele><time>2026-04-12T10:05:22.66Z</time></trkpt><trkpt lat="40.9097367" lon="16.5590067"><ele>508.0</ele><time>2026-04-12T10:05:23.66Z</time></trkpt><trkpt lat="40.9097933" lon="16.5588717"><ele>508.0</ele><time>2026-04-12T10:05:24.66Z</time></trkpt><trkpt lat="40.9098467" lon="16.5587333"><ele>508.0</ele><time>2026-04-12T10:05:25.661Z</time></trkpt><trkpt lat="40.9099083" lon="16.5585933"><ele>508.0</ele><time>2026-04-12T10:05:26.66Z</time></trkpt><trkpt lat="40.90997" lon="16.5584533"><ele>508.0</ele><time>2026-04-12T10:05:27.661Z</time></trkpt><trkpt lat="40.91003" lon="16.5583167"><ele>508.5</ele><time>2026-04-12T10:05:28.66Z</time></trkpt><trkpt lat="40.9100867" lon="16.5581767"><ele>509.0</ele><time>2026-04-12T10:05:29.66Z</time></trkpt><trkpt lat="40.9101267" lon="16.558015"><ele>509.5</ele><time>2026-04-12T10:05:30.66Z</time></trkpt><trkpt lat="40.91016" lon="16.557855"><ele>510.0</ele><time>2026-04-12T10:05:31.661Z</time></trkpt><trkpt lat="40.9101733" lon="16.557685"><ele>508.8</ele><time>2026-04-12T10:05:32.661Z</time></trkpt><trkpt lat="40.91018" lon="16.5575167"><ele>507.6</ele><time>2026-04-12T10:05:33.66Z</time></trkpt><trkpt lat="40.910195" lon="16.55737"><ele>506.4</ele><time>2026-04-12T10:05:34.66Z</time></trkpt><trkpt lat="40.9102017" lon="16.5572317"><ele>505.2</ele><time>2026-04-12T10:05:35.66Z</time></trkpt><trkpt lat="40.9102317" lon="16.5571033"><ele>504.0</ele><time>2026-04-12T10:05:36.661Z</time></trkpt><trkpt lat="40.91029" lon="16.556965"><ele>503.25</ele><time>2026-04-12T10:05:37.66Z</time></trkpt><trkpt lat="40.910365" lon="16.5568283"><ele>502.5</ele><time>2026-04-12T10:05:38.66Z</time></trkpt><trkpt lat="40.9104417" lon="16.5566983"><ele>501.75</ele><time>2026-04-12T10:05:39.66Z</time></trkpt><trkpt lat="40.9105217" lon="16.5566"><ele>501.0</ele><time>2026-04-12T10:05:40.661Z</time></trkpt><trkpt lat="40.9106" lon="16.55652"><ele>501.0</ele><time>2026-04-12T10:05:41.66Z</time></trkpt><trkpt lat="40.91068" lon="16.5564567"><ele>501.0</ele><time>2026-04-12T10:05:42.661Z</time></trkpt><trkpt lat="40.9107533" lon="16.5563967"><ele>501.0</ele><time>2026-04-12T10:05:43.66Z</time></trkpt><trkpt lat="40.9108317" lon="16.55634"><ele>501.0</ele><time>2026-04-12T10:05:44.66Z</time></trkpt><trkpt lat="40.9109017" lon="16.5562917"><ele>501.0</ele><time>2026-04-12T10:05:45.66Z</time></trkpt><trkpt lat="40.9109617" lon="16.5562267"><ele>501.0</ele><time>2026-04-12T10:05:46.66Z</time></trkpt><trkpt lat="40.9110233" lon="16.556135"><ele>500.0</ele><time>2026-04-12T10:05:47.66Z</time></trkpt><trkpt lat="40.9110833" lon="16.5560333"><ele>499.0</ele><time>2026-04-12T10:05:48.66Z</time></trkpt><trkpt lat="40.91113" lon="16.555915"><ele>498.0</ele><time>2026-04-12T10:05:49.66Z</time></trkpt><trkpt lat="40.9111717" lon="16.5558117"><ele>497.0</ele><time>2026-04-12T10:05:50.66Z</time></trkpt><trkpt lat="40.9112117" lon="16.55572"><ele>496.0</ele><time>2026-04-12T10:05:51.661Z</time></trkpt><trkpt lat="40.911255" lon="16.5556333"><ele>495.0</ele><time>2026-04-12T10:05:52.66Z</time></trkpt><trkpt lat="40.9113033" lon="16.5555617"><ele>495.0</ele><time>2026-04-12T10:05:53.66Z</time></trkpt><trkpt lat="40.9113717" lon="16.5554867"><ele>495.0</ele><time>2026-04-12T10:05:55.66Z</time></trkpt><trkpt lat="40.911465" lon="16.555495"><ele>495.0</ele><time>2026-04-12T10:05:57.66Z</time></trkpt><trkpt lat="40.91153" lon="16.555535"><ele>495.0</ele><time>2026-04-12T10:05:58.661Z</time></trkpt><trkpt lat="40.9116217" lon="16.5556067"><ele>495.0</ele><time>2026-04-12T10:05:59.661Z</time></trkpt><trkpt lat="40.9117117" lon="16.5557017"><ele>494.5</ele><time>2026-04-12T10:06:00.661Z</time></trkpt><trkpt lat="40.91182" lon="16.555805"><ele>494.0</ele><time>2026-04-12T10:06:01.661Z</time></trkpt><trkpt lat="40.9119233" lon="16.55593"><ele>493.5</ele><time>2026-04-12T10:06:02.661Z</time></trkpt><trkpt lat="40.9120333" lon="16.556065"><ele>493.0</ele><time>2026-04-12T10:06:03.661Z</time></trkpt><trkpt lat="40.9121467" lon="16.5562083"><ele>493.0</ele><time>2026-04-12T10:06:04.661Z</time></trkpt><trkpt lat="40.91227" lon="16.5563617"><ele>493.0</ele><time>2026-04-12T10:06:05.662Z</time></trkpt><trkpt lat="40.912395" lon="16.556515"><ele>493.0</ele><time>2026-04-12T10:06:06.661Z</time></trkpt><trkpt lat="40.9125233" lon="16.5566733"><ele>493.0</ele><time>2026-04-12T10:06:07.661Z</time></trkpt><trkpt lat="40.9126583" lon="16.5568333"><ele>493.0</ele><time>2026-04-12T10:06:08.661Z</time></trkpt><trkpt lat="40.9127933" lon="16.55699"><ele>493.0</ele><time>2026-04-12T10:06:09.661Z</time></trkpt><trkpt lat="40.912935" lon="16.5571617"><ele>493.0</ele><time>2026-04-12T10:06:10.661Z</time></trkpt><trkpt lat="40.9130667" lon="16.5573233"><ele>493.0</ele><time>2026-04-12T10:06:11.661Z</time></trkpt><trkpt lat="40.91319" lon="16.55747"><ele>493.0</ele><time>2026-04-12T10:06:12.661Z</time></trkpt><trkpt lat="40.91331" lon="16.5576083"><ele>492.33333333333337</ele><time>2026-04-12T10:06:13.661Z</time></trkpt><trkpt lat="40.913435" lon="16.5577367"><ele>491.66666666666663</ele><time>2026-04-12T10:06:14.661Z</time></trkpt><trkpt lat="40.9135733" lon="16.557855"><ele>491.0</ele><time>2026-04-12T10:06:15.661Z</time></trkpt><trkpt lat="40.91372" lon="16.5579733"><ele>491.0</ele><time>2026-04-12T10:06:16.661Z</time></trkpt><trkpt lat="40.9138733" lon="16.55809"><ele>491.0</ele><time>2026-04-12T10:06:17.661Z</time></trkpt><trkpt lat="40.9140233" lon="16.5582067"><ele>491.0</ele><time>2026-04-12T10:06:18.661Z</time></trkpt><trkpt lat="40.9141783" lon="16.5583333"><ele>490.66666666666663</ele><time>2026-04-12T10:06:19.661Z</time></trkpt><trkpt lat="40.91433" lon="16.5584733"><ele>490.33333333333337</ele><time>2026-04-12T10:06:20.661Z</time></trkpt><trkpt lat="40.914485" lon="16.5586183"><ele>490.0</ele><time>2026-04-12T10:06:21.661Z</time></trkpt><trkpt lat="40.91464" lon="16.5587583"><ele>490.0</ele><time>2026-04-12T10:06:22.661Z</time></trkpt><trkpt lat="40.9147867" lon="16.5588967"><ele>490.0</ele><time>2026-04-12T10:06:23.661Z</time></trkpt><trkpt lat="40.9149317" lon="16.5590217"><ele>490.0</ele><time>2026-04-12T10:06:24.662Z</time></trkpt><trkpt lat="40.9150783" lon="16.55915"><ele>489.6666666666667</ele><time>2026-04-12T10:06:25.661Z</time></trkpt><trkpt lat="40.9152267" lon="16.5592883"><ele>489.33333333333337</ele><time>2026-04-12T10:06:26.662Z</time></trkpt><trkpt lat="40.9153867" lon="16.559435"><ele>489.0</ele><time>2026-04-12T10:06:27.661Z</time></trkpt><trkpt lat="40.9155433" lon="16.5595933"><ele>489.0</ele><time>2026-04-12T10:06:28.661Z</time></trkpt><trkpt lat="40.9156967" lon="16.55976"><ele>489.0</ele><time>2026-04-12T10:06:29.661Z</time></trkpt><trkpt lat="40.915855" lon="16.559935"><ele>489.0</ele><time>2026-04-12T10:06:30.661Z</time></trkpt><trkpt lat="40.9160167" lon="16.56011"><ele>489.0</ele><time>2026-04-12T10:06:31.661Z</time></trkpt><trkpt lat="40.9161767" lon="16.5602817"><ele>489.0</ele><time>2026-04-12T10:06:32.662Z</time></trkpt><trkpt lat="40.916325" lon="16.56046"><ele>489.0</ele><time>2026-04-12T10:06:33.662Z</time></trkpt><trkpt lat="40.9164783" lon="16.5606417"><ele>488.66666666666663</ele><time>2026-04-12T10:06:34.662Z</time></trkpt><trkpt lat="40.9166333" lon="16.5608283"><ele>488.3333333333333</ele><time>2026-04-12T10:06:35.661Z</time></trkpt><trkpt lat="40.9167867" lon="16.5610017"><ele>488.0</ele><time>2026-04-12T10:06:36.661Z</time></trkpt><trkpt lat="40.9169483" lon="16.5611733"><ele>487.3333333333333</ele><time>2026-04-12T10:06:37.661Z</time></trkpt><trkpt lat="40.9171" lon="16.5613533"><ele>486.66666666666663</ele><time>2026-04-12T10:06:38.661Z</time></trkpt><trkpt lat="40.9172533" lon="16.561535"><ele>486.0</ele><time>2026-04-12T10:06:39.662Z</time></trkpt><trkpt lat="40.9174083" lon="16.5617083"><ele>486.0</ele><time>2026-04-12T10:06:40.661Z</time></trkpt><trkpt lat="40.9175583" lon="16.56188"><ele>486.0</ele><time>2026-04-12T10:06:41.662Z</time></trkpt><trkpt lat="40.917695" lon="16.5620467"><ele>486.0</ele><time>2026-04-12T10:06:42.661Z</time></trkpt><trkpt lat="40.9178333" lon="16.5622117"><ele>486.33333333333337</ele><time>2026-04-12T10:06:43.661Z</time></trkpt><trkpt lat="40.9179617" lon="16.56239"><ele>486.6666666666667</ele><time>2026-04-12T10:06:44.661Z</time></trkpt><trkpt lat="40.91809" lon="16.56257"><ele>487.0</ele><time>2026-04-12T10:06:45.661Z</time></trkpt><trkpt lat="40.9182117" lon="16.5627617"><ele>487.0</ele><time>2026-04-12T10:06:46.661Z</time></trkpt><trkpt lat="40.9183233" lon="16.5629583"><ele>487.0</ele><time>2026-04-12T10:06:47.661Z</time></trkpt><trkpt lat="40.9184333" lon="16.5631567"><ele>487.0</ele><time>2026-04-12T10:06:48.661Z</time></trkpt><trkpt lat="40.918535" lon="16.5633483"><ele>487.5</ele><time>2026-04-12T10:06:49.661Z</time></trkpt><trkpt lat="40.91862" lon="16.5635217"><ele>488.0</ele><time>2026-04-12T10:06:50.661Z</time></trkpt><trkpt lat="40.9187017" lon="16.5636917"><ele>488.5</ele><time>2026-04-12T10:06:51.661Z</time></trkpt><trkpt lat="40.9187817" lon="16.56384"><ele>489.0</ele><time>2026-04-12T10:06:52.662Z</time></trkpt><trkpt lat="40.9188483" lon="16.5639817"><ele>489.0</ele><time>2026-04-12T10:06:53.662Z</time></trkpt><trkpt lat="40.9189017" lon="16.56414"><ele>489.0</ele><time>2026-04-12T10:06:54.661Z</time></trkpt><trkpt lat="40.9189467" lon="16.5643217"><ele>489.0</ele><time>2026-04-12T10:06:55.661Z</time></trkpt><trkpt lat="40.9189867" lon="16.5645117"><ele>489.0</ele><time>2026-04-12T10:06:56.661Z</time></trkpt><trkpt lat="40.91903" lon="16.56471"><ele>489.33333333333337</ele><time>2026-04-12T10:06:57.662Z</time></trkpt><trkpt lat="40.919085" lon="16.5649"><ele>489.6666666666667</ele><time>2026-04-12T10:06:58.662Z</time></trkpt><trkpt lat="40.9191417" lon="16.565085"><ele>490.0</ele><time>2026-04-12T10:06:59.661Z</time></trkpt><trkpt lat="40.9192083" lon="16.5652783"><ele>492.6666666666667</ele><time>2026-04-12T10:07:00.661Z</time></trkpt><trkpt lat="40.91928" lon="16.5654667"><ele>495.33333333333337</ele><time>2026-04-12T10:07:01.662Z</time></trkpt><trkpt lat="40.9193583" lon="16.5656467"><ele>498.0</ele><time>2026-04-12T10:07:02.662Z</time></trkpt><trkpt lat="40.919435" lon="16.5658083"><ele>498.0</ele><time>2026-04-12T10:07:03.661Z</time></trkpt><trkpt lat="40.9194983" lon="16.5659533"><ele>497.99999999999994</ele><time>2026-04-12T10:07:04.661Z</time></trkpt><trkpt lat="40.9195517" lon="16.566085"><ele>497.99999999999994</ele><time>2026-04-12T10:07:05.661Z</time></trkpt><trkpt lat="40.9196" lon="16.5662033"><ele>498.0</ele><time>2026-04-12T10:07:06.661Z</time></trkpt><trkpt lat="40.9196333" lon="16.566295"><ele>498.0</ele><time>2026-04-12T10:07:07.662Z</time></trkpt><trkpt lat="40.9196733" lon="16.5663867"><ele>498.2</ele><time>2026-04-12T10:07:09.661Z</time></trkpt><trkpt lat="40.919735" lon="16.5664567"><ele>498.4</ele><time>2026-04-12T10:07:17.662Z</time></trkpt><trkpt lat="40.9198717" lon="16.5664717"><ele>498.59999999999997</ele><time>2026-04-12T10:07:19.661Z</time></trkpt><trkpt lat="40.919965" lon="16.5664733"><ele>498.79999999999995</ele><time>2026-04-12T10:07:20.661Z</time></trkpt><trkpt lat="40.920065" lon="16.5664883"><ele>499.0</ele><time>2026-04-12T10:07:21.661Z</time></trkpt><trkpt lat="40.9201733" lon="16.5665017"><ele>499.5</ele><time>2026-04-12T10:07:22.661Z</time></trkpt><trkpt lat="40.920295" lon="16.56651"><ele>500.0</ele><time>2026-04-12T10:07:23.662Z</time></trkpt><trkpt lat="40.920415" lon="16.5665183"><ele>500.5</ele><time>2026-04-12T10:07:24.662Z</time></trkpt><trkpt lat="40.9205367" lon="16.5665283"><ele>501.0</ele><time>2026-04-12T10:07:25.661Z</time></trkpt><trkpt lat="40.920655" lon="16.566525"><ele>501.0</ele><time>2026-04-12T10:07:26.661Z</time></trkpt><trkpt lat="40.9207717" lon="16.5665217"><ele>501.0</ele><time>2026-04-12T10:07:27.661Z</time></trkpt><trkpt lat="40.9208917" lon="16.5665117"><ele>501.0</ele><time>2026-04-12T10:07:28.661Z</time></trkpt><trkpt lat="40.921005" lon="16.5665067"><ele>501.0</ele><time>2026-04-12T10:07:29.661Z</time></trkpt><trkpt lat="40.921115" lon="16.5664967"><ele>500.6</ele><time>2026-04-12T10:07:30.661Z</time></trkpt><trkpt lat="40.9212217" lon="16.5664833"><ele>500.20000000000005</ele><time>2026-04-12T10:07:31.661Z</time></trkpt><trkpt lat="40.921325" lon="16.56647"><ele>499.79999999999995</ele><time>2026-04-12T10:07:32.661Z</time></trkpt><trkpt lat="40.9214183" lon="16.5664583"><ele>499.4</ele><time>2026-04-12T10:07:33.661Z</time></trkpt><trkpt lat="40.9215133" lon="16.5664483"><ele>499.0</ele><time>2026-04-12T10:07:34.661Z</time></trkpt><trkpt lat="40.921605" lon="16.5664367"><ele>499.00000000000006</ele><time>2026-04-12T10:07:35.661Z</time></trkpt><trkpt lat="40.921685" lon="16.5664267"><ele>499.0</ele><time>2026-04-12T10:07:36.662Z</time></trkpt><trkpt lat="40.9217533" lon="16.566425"><ele>499.0</ele><time>2026-04-12T10:07:37.661Z</time></trkpt><trkpt lat="40.9218217" lon="16.5664233"><ele>499.0</ele><time>2026-04-12T10:07:38.661Z</time></trkpt><trkpt lat="40.921935" lon="16.56642"><ele>499.00000000000006</ele><time>2026-04-12T10:07:40.662Z</time></trkpt><trkpt lat="40.9220233" lon="16.566325"><ele>499.0</ele><time>2026-04-12T10:07:42.661Z</time></trkpt><trkpt lat="40.9220567" lon="16.566235"><ele>498.6</ele><time>2026-04-12T10:07:43.661Z</time></trkpt><trkpt lat="40.922085" lon="16.5661217"><ele>498.2</ele><time>2026-04-12T10:07:44.661Z</time></trkpt><trkpt lat="40.9221167" lon="16.5659883"><ele>497.80000000000007</ele><time>2026-04-12T10:07:45.662Z</time></trkpt><trkpt lat="40.922145" lon="16.5658333"><ele>497.40000000000003</ele><time>2026-04-12T10:07:46.661Z</time></trkpt><trkpt lat="40.922175" lon="16.565665"><ele>497.0</ele><time>2026-04-12T10:07:47.661Z</time></trkpt><trkpt lat="40.9222083" lon="16.565475"><ele>497.66666666666663</ele><time>2026-04-12T10:07:48.662Z</time></trkpt><trkpt lat="40.922235" lon="16.56527"><ele>498.33333333333337</ele><time>2026-04-12T10:07:49.661Z</time></trkpt><trkpt lat="40.9222633" lon="16.5650583"><ele>499.0</ele><time>2026-04-12T10:07:50.661Z</time></trkpt><trkpt lat="40.9222917" lon="16.56484"><ele>499.0</ele><time>2026-04-12T10:07:51.661Z</time></trkpt><trkpt lat="40.922325" lon="16.56461"><ele>499.0</ele><time>2026-04-12T10:07:52.662Z</time></trkpt><trkpt lat="40.9223533" lon="16.56437"><ele>499.0</ele><time>2026-04-12T10:07:53.661Z</time></trkpt><trkpt lat="40.92238" lon="16.5641267"><ele>499.0</ele><time>2026-04-12T10:07:54.662Z</time></trkpt><trkpt lat="40.9224117" lon="16.5638867"><ele>499.0</ele><time>2026-04-12T10:07:55.662Z</time></trkpt><trkpt lat="40.9224383" lon="16.5636517"><ele>499.0</ele><time>2026-04-12T10:07:56.661Z</time></trkpt><trkpt lat="40.9224733" lon="16.5634183"><ele>499.6666666666667</ele><time>2026-04-12T10:07:57.661Z</time></trkpt><trkpt lat="40.9225017" lon="16.5631967"><ele>500.33333333333337</ele><time>2026-04-12T10:07:58.662Z</time></trkpt><trkpt lat="40.922525" lon="16.5629733"><ele>501.0</ele><time>2026-04-12T10:07:59.662Z</time></trkpt><trkpt lat="40.9225533" lon="16.562755"><ele>501.33333333333337</ele><time>2026-04-12T10:08:00.661Z</time></trkpt><trkpt lat="40.9225783" lon="16.5625383"><ele>501.6666666666667</ele><time>2026-04-12T10:08:01.661Z</time></trkpt><trkpt lat="40.9226067" lon="16.5623333"><ele>502.0</ele><time>2026-04-12T10:08:02.661Z</time></trkpt><trkpt lat="40.9226367" lon="16.5621283"><ele>502.33333333333337</ele><time>2026-04-12T10:08:03.661Z</time></trkpt><trkpt lat="40.92266" lon="16.5619233"><ele>502.66666666666663</ele><time>2026-04-12T10:08:04.661Z</time></trkpt><trkpt lat="40.922685" lon="16.5617183"><ele>503.0</ele><time>2026-04-12T10:08:05.661Z</time></trkpt><trkpt lat="40.9227217" lon="16.5615067"><ele>503.0</ele><time>2026-04-12T10:08:06.661Z</time></trkpt><trkpt lat="40.9227417" lon="16.561295"><ele>503.0</ele><time>2026-04-12T10:08:07.661Z</time></trkpt><trkpt lat="40.9227667" lon="16.5610833"><ele>503.0</ele><time>2026-04-12T10:08:08.661Z</time></trkpt><trkpt lat="40.92279" lon="16.5608767"><ele>503.0</ele><time>2026-04-12T10:08:09.661Z</time></trkpt><trkpt lat="40.9228067" lon="16.56068"><ele>503.0</ele><time>2026-04-12T10:08:10.661Z</time></trkpt><trkpt lat="40.9228317" lon="16.5604817"><ele>503.0</ele><time>2026-04-12T10:08:11.661Z</time></trkpt><trkpt lat="40.9228617" lon="16.5602883"><ele>503.25</ele><time>2026-04-12T10:08:12.661Z</time></trkpt><trkpt lat="40.9228883" lon="16.5600933"><ele>503.5</ele><time>2026-04-12T10:08:13.662Z</time></trkpt><trkpt lat="40.9229117" lon="16.5599"><ele>503.75</ele><time>2026-04-12T10:08:14.661Z</time></trkpt><trkpt lat="40.9229383" lon="16.5597083"><ele>504.0</ele><time>2026-04-12T10:08:15.661Z</time></trkpt><trkpt lat="40.9229633" lon="16.5595033"><ele>504.33333333333337</ele><time>2026-04-12T10:08:16.661Z</time></trkpt><trkpt lat="40.9229867" lon="16.5593067"><ele>504.6666666666667</ele><time>2026-04-12T10:08:17.662Z</time></trkpt><trkpt lat="40.9230117" lon="16.5591133"><ele>505.0</ele><time>2026-04-12T10:08:18.661Z</time></trkpt><trkpt lat="40.92304" lon="16.5589117"><ele>505.0</ele><time>2026-04-12T10:08:19.662Z</time></trkpt><trkpt lat="40.9230583" lon="16.5587033"><ele>505.0</ele><time>2026-04-12T10:08:20.661Z</time></trkpt><trkpt lat="40.92307" lon="16.5584917"><ele>505.0</ele><time>2026-04-12T10:08:21.661Z</time></trkpt><trkpt lat="40.9230883" lon="16.5582783"><ele>505.6666666666667</ele><time>2026-04-12T10:08:22.661Z</time></trkpt><trkpt lat="40.9230933" lon="16.558055"><ele>506.33333333333337</ele><time>2026-04-12T10:08:23.662Z</time></trkpt><trkpt lat="40.9230983" lon="16.5578433"><ele>507.0</ele><time>2026-04-12T10:08:24.661Z</time></trkpt><trkpt lat="40.9231083" lon="16.55762"><ele>507.33333333333337</ele><time>2026-04-12T10:08:25.661Z</time></trkpt><trkpt lat="40.9231183" lon="16.557395"><ele>507.6666666666667</ele><time>2026-04-12T10:08:26.661Z</time></trkpt><trkpt lat="40.9231333" lon="16.5571733"><ele>508.0</ele><time>2026-04-12T10:08:27.661Z</time></trkpt><trkpt lat="40.9231433" lon="16.5569517"><ele>508.0</ele><time>2026-04-12T10:08:28.661Z</time></trkpt><trkpt lat="40.9231517" lon="16.5567383"><ele>508.0</ele><time>2026-04-12T10:08:29.661Z</time></trkpt><trkpt lat="40.92316" lon="16.5565283"><ele>508.0</ele><time>2026-04-12T10:08:30.662Z</time></trkpt><trkpt lat="40.9231717" lon="16.5563483"><ele>508.0</ele><time>2026-04-12T10:08:31.661Z</time></trkpt><trkpt lat="40.9231817" lon="16.5561833"><ele>507.99999999999994</ele><time>2026-04-12T10:08:32.662Z</time></trkpt><trkpt lat="40.92319" lon="16.5560433"><ele>507.99999999999994</ele><time>2026-04-12T10:08:33.661Z</time></trkpt><trkpt lat="40.9231967" lon="16.555915"><ele>508.0</ele><time>2026-04-12T10:08:34.661Z</time></trkpt><trkpt lat="40.9232033" lon="16.555805"><ele>508.0</ele><time>2026-04-12T10:08:35.661Z</time></trkpt><trkpt lat="40.9232133" lon="16.555685"><ele>508.0</ele><time>2026-04-12T10:08:36.661Z</time></trkpt><trkpt lat="40.9232217" lon="16.5555567"><ele>507.99999999999994</ele><time>2026-04-12T10:08:37.661Z</time></trkpt><trkpt lat="40.923225" lon="16.5554267"><ele>507.99999999999994</ele><time>2026-04-12T10:08:38.661Z</time></trkpt><trkpt lat="40.9232367" lon="16.555285"><ele>508.0</ele><time>2026-04-12T10:08:39.661Z</time></trkpt><trkpt lat="40.9232483" lon="16.5551283"><ele>508.0</ele><time>2026-04-12T10:08:40.662Z</time></trkpt><trkpt lat="40.9232583" lon="16.554955"><ele>508.0</ele><time>2026-04-12T10:08:41.661Z</time></trkpt><trkpt lat="40.9232783" lon="16.55478"><ele>508.0</ele><time>2026-04-12T10:08:42.662Z</time></trkpt><trkpt lat="40.92331" lon="16.55459"><ele>508.0</ele><time>2026-04-12T10:08:43.662Z</time></trkpt><trkpt lat="40.92335" lon="16.5543967"><ele>508.0</ele><time>2026-04-12T10:08:44.661Z</time></trkpt><trkpt lat="40.923385" lon="16.5541933"><ele>507.6666666666667</ele><time>2026-04-12T10:08:45.662Z</time></trkpt><trkpt lat="40.9234267" lon="16.554"><ele>507.33333333333337</ele><time>2026-04-12T10:08:46.661Z</time></trkpt><trkpt lat="40.9234733" lon="16.5537817"><ele>507.0</ele><time>2026-04-12T10:08:47.661Z</time></trkpt><trkpt lat="40.9235267" lon="16.5535767"><ele>507.0</ele><time>2026-04-12T10:08:48.662Z</time></trkpt><trkpt lat="40.9235817" lon="16.5533683"><ele>507.0</ele><time>2026-04-12T10:08:49.661Z</time></trkpt><trkpt lat="40.923635" lon="16.5531583"><ele>507.0</ele><time>2026-04-12T10:08:50.661Z</time></trkpt><trkpt lat="40.923685" lon="16.552945"><ele>507.0</ele><time>2026-04-12T10:08:51.661Z</time></trkpt><trkpt lat="40.923735" lon="16.5527283"><ele>507.0</ele><time>2026-04-12T10:08:52.661Z</time></trkpt><trkpt lat="40.9237933" lon="16.552515"><ele>507.0</ele><time>2026-04-12T10:08:53.662Z</time></trkpt><trkpt lat="40.92384" lon="16.5523083"><ele>507.0</ele><time>2026-04-12T10:08:54.662Z</time></trkpt><trkpt lat="40.9238867" lon="16.5521067"><ele>507.0</ele><time>2026-04-12T10:08:55.661Z</time></trkpt><trkpt lat="40.9239267" lon="16.5519233"><ele>507.0</ele><time>2026-04-12T10:08:56.662Z</time></trkpt><trkpt lat="40.92397" lon="16.5517317"><ele>506.66666666666663</ele><time>2026-04-12T10:08:57.661Z</time></trkpt><trkpt lat="40.92401" lon="16.55154"><ele>506.3333333333333</ele><time>2026-04-12T10:08:58.661Z</time></trkpt><trkpt lat="40.9240283" lon="16.55134"><ele>506.0</ele><time>2026-04-12T10:08:59.661Z</time></trkpt><trkpt lat="40.9240333" lon="16.5511217"><ele>505.3333333333333</ele><time>2026-04-12T10:09:00.661Z</time></trkpt><trkpt lat="40.92405" lon="16.550895"><ele>504.66666666666663</ele><time>2026-04-12T10:09:01.662Z</time></trkpt><trkpt lat="40.9240667" lon="16.5506633"><ele>504.0</ele><time>2026-04-12T10:09:02.662Z</time></trkpt><trkpt lat="40.924075" lon="16.5504283"><ele>504.0</ele><time>2026-04-12T10:09:03.661Z</time></trkpt><trkpt lat="40.9240883" lon="16.5502033"><ele>504.0</ele><time>2026-04-12T10:09:04.662Z</time></trkpt><trkpt lat="40.9240983" lon="16.5499933"><ele>504.0</ele><time>2026-04-12T10:09:05.661Z</time></trkpt><trkpt lat="40.9241033" lon="16.5497883"><ele>504.0</ele><time>2026-04-12T10:09:06.662Z</time></trkpt><trkpt lat="40.9241117" lon="16.54959"><ele>504.0</ele><time>2026-04-12T10:09:07.661Z</time></trkpt><trkpt lat="40.9241217" lon="16.5494083"><ele>504.0</ele><time>2026-04-12T10:09:08.661Z</time></trkpt><trkpt lat="40.9241383" lon="16.54924"><ele>504.0</ele><time>2026-04-12T10:09:09.662Z</time></trkpt><trkpt lat="40.9241667" lon="16.5490867"><ele>503.75</ele><time>2026-04-12T10:09:10.661Z</time></trkpt><trkpt lat="40.9241967" lon="16.548925"><ele>503.5</ele><time>2026-04-12T10:09:11.661Z</time></trkpt><trkpt lat="40.924245" lon="16.54876"><ele>503.25</ele><time>2026-04-12T10:09:12.661Z</time></trkpt><trkpt lat="40.9243033" lon="16.5485867"><ele>503.0</ele><time>2026-04-12T10:09:13.661Z</time></trkpt><trkpt lat="40.9243633" lon="16.5484017"><ele>502.0</ele><time>2026-04-12T10:09:14.661Z</time></trkpt><trkpt lat="40.9244217" lon="16.5482133"><ele>501.0</ele><time>2026-04-12T10:09:15.662Z</time></trkpt><trkpt lat="40.92448" lon="16.5480217"><ele>500.0</ele><time>2026-04-12T10:09:16.662Z</time></trkpt><trkpt lat="40.9245317" lon="16.547835"><ele>499.25</ele><time>2026-04-12T10:09:17.662Z</time></trkpt><trkpt lat="40.924585" lon="16.54767"><ele>498.5</ele><time>2026-04-12T10:09:18.661Z</time></trkpt><trkpt lat="40.9246417" lon="16.547515"><ele>497.75</ele><time>2026-04-12T10:09:19.661Z</time></trkpt><trkpt lat="40.9246983" lon="16.5473583"><ele>497.0</ele><time>2026-04-12T10:09:20.662Z</time></trkpt><trkpt lat="40.9247583" lon="16.5472133"><ele>497.0</ele><time>2026-04-12T10:09:21.661Z</time></trkpt><trkpt lat="40.9248167" lon="16.547075"><ele>497.00000000000006</ele><time>2026-04-12T10:09:22.661Z</time></trkpt><trkpt lat="40.924875" lon="16.5469533"><ele>497.00000000000006</ele><time>2026-04-12T10:09:23.661Z</time></trkpt><trkpt lat="40.9249317" lon="16.546835"><ele>497.0</ele><time>2026-04-12T10:09:24.662Z</time></trkpt><trkpt lat="40.9249867" lon="16.54673"><ele>497.0</ele><time>2026-04-12T10:09:25.661Z</time></trkpt><trkpt lat="40.9250567" lon="16.5466283"><ele>496.0</ele><time>2026-04-12T10:09:26.661Z</time></trkpt><trkpt lat="40.9251333" lon="16.54651"><ele>495.0</ele><time>2026-04-12T10:09:27.661Z</time></trkpt><trkpt lat="40.925205" lon="16.5463767"><ele>494.0</ele><time>2026-04-12T10:09:28.661Z</time></trkpt><trkpt lat="40.92527" lon="16.5462367"><ele>493.0</ele><time>2026-04-12T10:09:29.661Z</time></trkpt><trkpt lat="40.925325" lon="16.5460817"><ele>493.0</ele><time>2026-04-12T10:09:30.661Z</time></trkpt><trkpt lat="40.9253717" lon="16.5459383"><ele>492.99999999999994</ele><time>2026-04-12T10:09:31.661Z</time></trkpt><trkpt lat="40.925415" lon="16.545805"><ele>492.99999999999994</ele><time>2026-04-12T10:09:32.661Z</time></trkpt><trkpt lat="40.9254583" lon="16.5456783"><ele>493.0</ele><time>2026-04-12T10:09:33.661Z</time></trkpt><trkpt lat="40.92551" lon="16.5455533"><ele>493.0</ele><time>2026-04-12T10:09:34.661Z</time></trkpt><trkpt lat="40.92557" lon="16.54545"><ele>493.0</ele><time>2026-04-12T10:09:35.661Z</time></trkpt><trkpt lat="40.925645" lon="16.545365"><ele>493.0</ele><time>2026-04-12T10:09:36.661Z</time></trkpt><trkpt lat="40.9257383" lon="16.5452917"><ele>493.0</ele><time>2026-04-12T10:09:37.662Z</time></trkpt><trkpt lat="40.9258483" lon="16.5452117"><ele>493.0</ele><time>2026-04-12T10:09:38.661Z</time></trkpt><trkpt lat="40.92596" lon="16.5451133"><ele>493.25</ele><time>2026-04-12T10:09:39.661Z</time></trkpt><trkpt lat="40.9260617" lon="16.54499"><ele>493.5</ele><time>2026-04-12T10:09:40.661Z</time></trkpt><trkpt lat="40.9261667" lon="16.5448767"><ele>493.75</ele><time>2026-04-12T10:09:41.661Z</time></trkpt><trkpt lat="40.92629" lon="16.5447767"><ele>494.0</ele><time>2026-04-12T10:09:42.662Z</time></trkpt><trkpt lat="40.926415" lon="16.5446883"><ele>494.0</ele><time>2026-04-12T10:09:43.661Z</time></trkpt><trkpt lat="40.92653" lon="16.54461"><ele>494.0</ele><time>2026-04-12T10:09:44.661Z</time></trkpt><trkpt lat="40.926635" lon="16.5445483"><ele>494.0</ele><time>2026-04-12T10:09:45.661Z</time></trkpt><trkpt lat="40.92675" lon="16.54452"><ele>494.0</ele><time>2026-04-12T10:09:46.662Z</time></trkpt><trkpt lat="40.9268833" lon="16.54451"><ele>494.5</ele><time>2026-04-12T10:09:47.662Z</time></trkpt><trkpt lat="40.9270233" lon="16.5444883"><ele>495.0</ele><time>2026-04-12T10:09:48.662Z</time></trkpt><trkpt lat="40.9271667" lon="16.544445"><ele>495.5</ele><time>2026-04-12T10:09:49.661Z</time></trkpt><trkpt lat="40.927315" lon="16.5444067"><ele>496.0</ele><time>2026-04-12T10:09:50.661Z</time></trkpt><trkpt lat="40.9274533" lon="16.54437"><ele>496.0</ele><time>2026-04-12T10:09:51.661Z</time></trkpt><trkpt lat="40.927595" lon="16.5443283"><ele>496.0</ele><time>2026-04-12T10:09:52.661Z</time></trkpt><trkpt lat="40.92774" lon="16.544295"><ele>496.0</ele><time>2026-04-12T10:09:53.662Z</time></trkpt><trkpt lat="40.9278917" lon="16.5442867"><ele>496.0</ele><time>2026-04-12T10:09:54.661Z</time></trkpt><trkpt lat="40.928045" lon="16.5442783"><ele>496.0</ele><time>2026-04-12T10:09:55.661Z</time></trkpt><trkpt lat="40.9281733" lon="16.5442633"><ele>496.0</ele><time>2026-04-12T10:09:56.661Z</time></trkpt><trkpt lat="40.9282883" lon="16.5442533"><ele>496.0</ele><time>2026-04-12T10:09:57.661Z</time></trkpt><trkpt lat="40.9283833" lon="16.5442333"><ele>496.0</ele><time>2026-04-12T10:09:58.662Z</time></trkpt><trkpt lat="40.9284717" lon="16.54419"><ele>496.0</ele><time>2026-04-12T10:09:59.661Z</time></trkpt><trkpt lat="40.9285517" lon="16.5441083"><ele>496.0</ele><time>2026-04-12T10:10:00.662Z</time></trkpt><trkpt lat="40.928635" lon="16.5440217"><ele>496.0</ele><time>2026-04-12T10:10:01.662Z</time></trkpt><trkpt lat="40.9287183" lon="16.54395"><ele>496.0</ele><time>2026-04-12T10:10:02.662Z</time></trkpt><trkpt lat="40.9288283" lon="16.5439017"><ele>496.0</ele><time>2026-04-12T10:10:03.661Z</time></trkpt><trkpt lat="40.9289317" lon="16.543845"><ele>496.0</ele><time>2026-04-12T10:10:04.661Z</time></trkpt><trkpt lat="40.9290117" lon="16.5437583"><ele>496.0</ele><time>2026-04-12T10:10:05.661Z</time></trkpt><trkpt lat="40.9290933" lon="16.54366"><ele>496.0</ele><time>2026-04-12T10:10:06.661Z</time></trkpt><trkpt lat="40.92919" lon="16.5435883"><ele>496.0</ele><time>2026-04-12T10:10:07.661Z</time></trkpt><trkpt lat="40.9292933" lon="16.54353"><ele>496.0</ele><time>2026-04-12T10:10:08.662Z</time></trkpt><trkpt lat="40.9293883" lon="16.54345"><ele>496.0</ele><time>2026-04-12T10:10:09.662Z</time></trkpt><trkpt lat="40.9294717" lon="16.5433417"><ele>496.0</ele><time>2026-04-12T10:10:10.662Z</time></trkpt><trkpt lat="40.9295467" lon="16.5432133"><ele>496.0</ele><time>2026-04-12T10:10:11.661Z</time></trkpt><trkpt lat="40.9296067" lon="16.5430733"><ele>496.0</ele><time>2026-04-12T10:10:12.661Z</time></trkpt><trkpt lat="40.9296583" lon="16.5429417"><ele>496.0</ele><time>2026-04-12T10:10:13.661Z</time></trkpt><trkpt lat="40.9296917" lon="16.542815"><ele>496.25</ele><time>2026-04-12T10:10:14.662Z</time></trkpt><trkpt lat="40.92971" lon="16.542685"><ele>496.5</ele><time>2026-04-12T10:10:15.661Z</time></trkpt><trkpt lat="40.9297167" lon="16.542535"><ele>496.75</ele><time>2026-04-12T10:10:16.662Z</time></trkpt><trkpt lat="40.92973" lon="16.542375"><ele>497.0</ele><time>2026-04-12T10:10:17.661Z</time></trkpt><trkpt lat="40.92975" lon="16.542205"><ele>497.3333333333333</ele><time>2026-04-12T10:10:18.661Z</time></trkpt><trkpt lat="40.9297867" lon="16.5420283"><ele>497.66666666666663</ele><time>2026-04-12T10:10:19.661Z</time></trkpt><trkpt lat="40.9298433" lon="16.54184"><ele>498.0</ele><time>2026-04-12T10:10:20.662Z</time></trkpt><trkpt lat="40.9299083" lon="16.5416467"><ele>498.0</ele><time>2026-04-12T10:10:21.662Z</time></trkpt><trkpt lat="40.9299683" lon="16.5414617"><ele>498.0</ele><time>2026-04-12T10:10:22.661Z</time></trkpt><trkpt lat="40.9300233" lon="16.5412917"><ele>498.0</ele><time>2026-04-12T10:10:23.661Z</time></trkpt><trkpt lat="40.9300717" lon="16.5411433"><ele>498.0</ele><time>2026-04-12T10:10:24.662Z</time></trkpt><trkpt lat="40.930125" lon="16.5410033"><ele>497.5</ele><time>2026-04-12T10:10:25.662Z</time></trkpt><trkpt lat="40.9301767" lon="16.540855"><ele>497.0</ele><time>2026-04-12T10:10:26.661Z</time></trkpt><trkpt lat="40.930225" lon="16.5406917"><ele>496.5</ele><time>2026-04-12T10:10:27.661Z</time></trkpt><trkpt lat="40.930265" lon="16.5405233"><ele>496.0</ele><time>2026-04-12T10:10:28.662Z</time></trkpt><trkpt lat="40.9303133" lon="16.5403517"><ele>496.0</ele><time>2026-04-12T10:10:29.661Z</time></trkpt><trkpt lat="40.9303733" lon="16.5401817"><ele>496.0</ele><time>2026-04-12T10:10:30.662Z</time></trkpt><trkpt lat="40.9304267" lon="16.5400067"><ele>496.0</ele><time>2026-04-12T10:10:31.661Z</time></trkpt><trkpt lat="40.930465" lon="16.5398517"><ele>496.0</ele><time>2026-04-12T10:10:32.661Z</time></trkpt><trkpt lat="40.9304933" lon="16.5397167"><ele>496.0</ele><time>2026-04-12T10:10:33.662Z</time></trkpt><trkpt lat="40.9305417" lon="16.539605"><ele>496.0</ele><time>2026-04-12T10:10:34.662Z</time></trkpt><trkpt lat="40.9305983" lon="16.5395133"><ele>496.0</ele><time>2026-04-12T10:10:35.661Z</time></trkpt><trkpt lat="40.9306467" lon="16.5394167"><ele>496.0</ele><time>2026-04-12T10:10:36.661Z</time></trkpt><trkpt lat="40.9306667" lon="16.5393033"><ele>496.0</ele><time>2026-04-12T10:10:37.661Z</time></trkpt><trkpt lat="40.930685" lon="16.5391517"><ele>496.5</ele><time>2026-04-12T10:10:38.661Z</time></trkpt><trkpt lat="40.9307117" lon="16.5389983"><ele>497.0</ele><time>2026-04-12T10:10:39.661Z</time></trkpt><trkpt lat="40.93075" lon="16.538835"><ele>497.5</ele><time>2026-04-12T10:10:40.661Z</time></trkpt><trkpt lat="40.9307933" lon="16.5386767"><ele>498.0</ele><time>2026-04-12T10:10:41.661Z</time></trkpt><trkpt lat="40.930835" lon="16.5385417"><ele>498.2</ele><time>2026-04-12T10:10:42.661Z</time></trkpt><trkpt lat="40.9308767" lon="16.5384333"><ele>498.4</ele><time>2026-04-12T10:10:43.661Z</time></trkpt><trkpt lat="40.930935" lon="16.538345"><ele>498.59999999999997</ele><time>2026-04-12T10:10:44.661Z</time></trkpt><trkpt lat="40.931015" lon="16.538265"><ele>498.79999999999995</ele><time>2026-04-12T10:10:45.663Z</time></trkpt><trkpt lat="40.9311083" lon="16.538185"><ele>499.0</ele><time>2026-04-12T10:10:46.662Z</time></trkpt><trkpt lat="40.9312017" lon="16.538075"><ele>499.25</ele><time>2026-04-12T10:10:47.662Z</time></trkpt><trkpt lat="40.9313033" lon="16.537955"><ele>499.5</ele><time>2026-04-12T10:10:48.662Z</time></trkpt><trkpt lat="40.9314133" lon="16.5378433"><ele>499.75</ele><time>2026-04-12T10:10:49.662Z</time></trkpt><trkpt lat="40.931535" lon="16.5377417"><ele>500.0</ele><time>2026-04-12T10:10:50.662Z</time></trkpt><trkpt lat="40.931655" lon="16.5376383"><ele>499.75</ele><time>2026-04-12T10:10:51.662Z</time></trkpt><trkpt lat="40.93177" lon="16.5375283"><ele>499.5</ele><time>2026-04-12T10:10:52.663Z</time></trkpt><trkpt lat="40.931885" lon="16.5374367"><ele>499.25</ele><time>2026-04-12T10:10:53.662Z</time></trkpt><trkpt lat="40.9320183" lon="16.5373467"><ele>499.0</ele><time>2026-04-12T10:10:54.662Z</time></trkpt><trkpt lat="40.9321467" lon="16.5372533"><ele>499.0</ele><time>2026-04-12T10:10:55.663Z</time></trkpt><trkpt lat="40.9322617" lon="16.53716"><ele>499.0</ele><time>2026-04-12T10:10:56.662Z</time></trkpt><trkpt lat="40.9323717" lon="16.537065"><ele>499.0</ele><time>2026-04-12T10:10:57.662Z</time></trkpt><trkpt lat="40.9324683" lon="16.53696"><ele>499.0</ele><time>2026-04-12T10:10:58.662Z</time></trkpt><trkpt lat="40.9325767" lon="16.5368417"><ele>499.0</ele><time>2026-04-12T10:10:59.662Z</time></trkpt><trkpt lat="40.9326933" lon="16.5367333"><ele>499.0</ele><time>2026-04-12T10:11:00.662Z</time></trkpt><trkpt lat="40.9328133" lon="16.5366267"><ele>499.0</ele><time>2026-04-12T10:11:01.662Z</time></trkpt><trkpt lat="40.93293" lon="16.5365133"><ele>499.0</ele><time>2026-04-12T10:11:02.663Z</time></trkpt><trkpt lat="40.9330433" lon="16.536415"><ele>499.0</ele><time>2026-04-12T10:11:03.662Z</time></trkpt><trkpt lat="40.9331467" lon="16.53632"><ele>499.0</ele><time>2026-04-12T10:11:04.662Z</time></trkpt><trkpt lat="40.9332333" lon="16.5362433"><ele>499.0</ele><time>2026-04-12T10:11:05.662Z</time></trkpt><trkpt lat="40.9333117" lon="16.536175"><ele>499.0</ele><time>2026-04-12T10:11:06.663Z</time></trkpt><trkpt lat="40.93337" lon="16.5361133"><ele>499.0</ele><time>2026-04-12T10:11:07.662Z</time></trkpt><trkpt lat="40.9334267" lon="16.5360467"><ele>499.4</ele><time>2026-04-12T10:11:08.663Z</time></trkpt><trkpt lat="40.933505" lon="16.536"><ele>499.79999999999995</ele><time>2026-04-12T10:11:10.663Z</time></trkpt><trkpt lat="40.9336483" lon="16.5360217"><ele>500.20000000000005</ele><time>2026-04-12T10:11:12.663Z</time></trkpt><trkpt lat="40.93373" lon="16.536025"><ele>500.6</ele><time>2026-04-12T10:11:13.662Z</time></trkpt><trkpt lat="40.9338133" lon="16.53603"><ele>501.0</ele><time>2026-04-12T10:11:14.662Z</time></trkpt><trkpt lat="40.93388" lon="16.5360317"><ele>501.0</ele><time>2026-04-12T10:11:15.662Z</time></trkpt><trkpt lat="40.933945" lon="16.5360233"><ele>501.0</ele><time>2026-04-12T10:11:16.662Z</time></trkpt><trkpt lat="40.934015" lon="16.5360283"><ele>501.0</ele><time>2026-04-12T10:11:18.662Z</time></trkpt><trkpt lat="40.93392" lon="16.5360183"><ele>501.0</ele><time>2026-04-12T10:11:25.662Z</time></trkpt><trkpt lat="40.933805" lon="16.5360267"><ele>501.0</ele><time>2026-04-12T10:11:27.662Z</time></trkpt><trkpt lat="40.9337317" lon="16.536025"><ele>501.0</ele><time>2026-04-12T10:11:28.662Z</time></trkpt><trkpt lat="40.93366" lon="16.53603"><ele>501.0</ele><time>2026-04-12T10:11:29.662Z</time></trkpt><trkpt lat="40.933595" lon="16.53603"><ele>501.0</ele><time>2026-04-12T10:11:30.662Z</time></trkpt><trkpt lat="40.933495" lon="16.5360283"><ele>501.0</ele><time>2026-04-12T10:11:32.662Z</time></trkpt><trkpt lat="40.9334183" lon="16.536055"><ele>501.0</ele><time>2026-04-12T10:11:34.662Z</time></trkpt><trkpt lat="40.933345" lon="16.5361517"><ele>501.0</ele><time>2026-04-12T10:11:36.662Z</time></trkpt><trkpt lat="40.93325" lon="16.5362333"><ele>500.6</ele><time>2026-04-12T10:11:38.662Z</time></trkpt><trkpt lat="40.9331417" lon="16.5363283"><ele>500.20000000000005</ele><time>2026-04-12T10:11:40.662Z</time></trkpt><trkpt lat="40.9330517" lon="16.5363967"><ele>499.79999999999995</ele><time>2026-04-12T10:11:42.662Z</time></trkpt><trkpt lat="40.933" lon="16.53646"><ele>499.4</ele><time>2026-04-12T10:11:44.663Z</time></trkpt><trkpt lat="40.9329417" lon="16.5365167"><ele>499.0</ele><time>2026-04-12T10:11:46.663Z</time></trkpt><trkpt lat="40.93287" lon="16.5365867"><ele>499.00000000000006</ele><time>2026-04-12T10:11:48.662Z</time></trkpt><trkpt lat="40.932795" lon="16.5366467"><ele>499.0</ele><time>2026-04-12T10:11:50.662Z</time></trkpt><trkpt lat="40.932735" lon="16.5367"><ele>499.0</ele><time>2026-04-12T10:11:52.663Z</time></trkpt><trkpt lat="40.9326683" lon="16.5367467"><ele>499.0</ele><time>2026-04-12T10:11:54.663Z</time></trkpt><trkpt lat="40.9326083" lon="16.536805"><ele>499.00000000000006</ele><time>2026-04-12T10:11:56.662Z</time></trkpt><trkpt lat="40.9325433" lon="16.5368783"><ele>499.0</ele><time>2026-04-12T10:11:58.663Z</time></trkpt><trkpt lat="40.93248" lon="16.5369283"><ele>499.33333333333337</ele><time>2026-04-12T10:12:00.663Z</time></trkpt><trkpt lat="40.9323967" lon="16.5369517"><ele>499.6666666666667</ele><time>2026-04-12T10:12:03.663Z</time></trkpt><trkpt lat="40.9323183" lon="16.536975"><ele>500.0</ele><time>2026-04-12T10:12:34.662Z</time></trkpt><trkpt lat="40.9322083" lon="16.537"><ele>500.33333333333337</ele><time>2026-04-12T10:12:36.663Z</time></trkpt><trkpt lat="40.9321333" lon="16.5369617"><ele>500.6666666666667</ele><time>2026-04-12T10:12:38.663Z</time></trkpt><trkpt lat="40.9320883" lon="16.536885"><ele>501.0</ele><time>2026-04-12T10:12:40.662Z</time></trkpt><trkpt lat="40.9320383" lon="16.5367667"><ele>501.0</ele><time>2026-04-12T10:12:42.663Z</time></trkpt><trkpt lat="40.9319883" lon="16.53663"><ele>501.0</ele><time>2026-04-12T10:12:44.662Z</time></trkpt><trkpt lat="40.931895" lon="16.5365217"><ele>501.0</ele><time>2026-04-12T10:12:46.662Z</time></trkpt><trkpt lat="40.93183" lon="16.536465"><ele>501.0</ele><time>2026-04-12T10:12:47.662Z</time></trkpt><trkpt lat="40.9317733" lon="16.53642"><ele>501.0</ele><time>2026-04-12T10:12:48.662Z</time></trkpt><trkpt lat="40.9317083" lon="16.5363717"><ele>501.0</ele><time>2026-04-12T10:12:49.662Z</time></trkpt><trkpt lat="40.9316433" lon="16.536325"><ele>501.0</ele><time>2026-04-12T10:12:50.662Z</time></trkpt><trkpt lat="40.9315683" lon="16.5362717"><ele>501.0</ele><time>2026-04-12T10:12:51.663Z</time></trkpt><trkpt lat="40.9314983" lon="16.5362267"><ele>501.0</ele><time>2026-04-12T10:12:52.662Z</time></trkpt><trkpt lat="40.9314367" lon="16.53618"><ele>501.0</ele><time>2026-04-12T10:12:53.662Z</time></trkpt><trkpt lat="40.9313817" lon="16.5361367"><ele>501.0</ele><time>2026-04-12T10:12:54.663Z</time></trkpt><trkpt lat="40.9313267" lon="16.5360717"><ele>501.0</ele><time>2026-04-12T10:12:55.662Z</time></trkpt><trkpt lat="40.931265" lon="16.5360117"><ele>501.1666666666667</ele><time>2026-04-12T10:12:56.663Z</time></trkpt><trkpt lat="40.9311917" lon="16.53595"><ele>501.33333333333337</ele><time>2026-04-12T10:12:57.663Z</time></trkpt><trkpt lat="40.9311083" lon="16.535885"><ele>501.5</ele><time>2026-04-12T10:12:58.662Z</time></trkpt><trkpt lat="40.93103" lon="16.5358267"><ele>501.6666666666667</ele><time>2026-04-12T10:12:59.662Z</time></trkpt><trkpt lat="40.9309533" lon="16.535765"><ele>501.83333333333337</ele><time>2026-04-12T10:13:00.662Z</time></trkpt><trkpt lat="40.9308867" lon="16.5357"><ele>502.0</ele><time>2026-04-12T10:13:01.663Z</time></trkpt><trkpt lat="40.9308183" lon="16.5356283"><ele>502.0</ele><time>2026-04-12T10:13:02.663Z</time></trkpt><trkpt lat="40.9307583" lon="16.5355517"><ele>502.00000000000006</ele><time>2026-04-12T10:13:03.662Z</time></trkpt><trkpt lat="40.9306833" lon="16.5354933"><ele>502.00000000000006</ele><time>2026-04-12T10:13:04.662Z</time></trkpt><trkpt lat="40.9306017" lon="16.5354383"><ele>502.0</ele><time>2026-04-12T10:13:05.662Z</time></trkpt><trkpt lat="40.9305217" lon="16.53536"><ele>502.0</ele><time>2026-04-12T10:13:06.662Z</time></trkpt><trkpt lat="40.930445" lon="16.5352733"><ele>502.20000000000005</ele><time>2026-04-12T10:13:07.662Z</time></trkpt><trkpt lat="40.93037" lon="16.5351817"><ele>502.40000000000003</ele><time>2026-04-12T10:13:08.662Z</time></trkpt><trkpt lat="40.9302983" lon="16.5350917"><ele>502.59999999999997</ele><time>2026-04-12T10:13:09.663Z</time></trkpt><trkpt lat="40.93023" lon="16.5349917"><ele>502.79999999999995</ele><time>2026-04-12T10:13:10.662Z</time></trkpt><trkpt lat="40.9301717" lon="16.53488"><ele>503.0</ele><time>2026-04-12T10:13:11.662Z</time></trkpt><trkpt lat="40.930115" lon="16.5347683"><ele>503.0</ele><time>2026-04-12T10:13:12.662Z</time></trkpt><trkpt lat="40.9300667" lon="16.5346633"><ele>502.99999999999994</ele><time>2026-04-12T10:13:13.662Z</time></trkpt><trkpt lat="40.930015" lon="16.5345633"><ele>502.99999999999994</ele><time>2026-04-12T10:13:14.662Z</time></trkpt><trkpt lat="40.9299683" lon="16.53446"><ele>503.0</ele><time>2026-04-12T10:13:15.662Z</time></trkpt><trkpt lat="40.9299217" lon="16.5343483"><ele>503.0</ele><time>2026-04-12T10:13:16.662Z</time></trkpt><trkpt lat="40.9298817" lon="16.5342367"><ele>503.0</ele><time>2026-04-12T10:13:17.662Z</time></trkpt><trkpt lat="40.929835" lon="16.534125"><ele>502.99999999999994</ele><time>2026-04-12T10:13:18.662Z</time></trkpt><trkpt lat="40.9297783" lon="16.534"><ele>502.99999999999994</ele><time>2026-04-12T10:13:19.662Z</time></trkpt><trkpt lat="40.9297233" lon="16.53387"><ele>503.0</ele><time>2026-04-12T10:13:20.663Z</time></trkpt><trkpt lat="40.9296667" lon="16.5337383"><ele>503.0</ele><time>2026-04-12T10:13:21.662Z</time></trkpt><trkpt lat="40.92962" lon="16.533615"><ele>503.0</ele><time>2026-04-12T10:13:22.662Z</time></trkpt><trkpt lat="40.9295667" lon="16.5334833"><ele>502.99999999999994</ele><time>2026-04-12T10:13:23.662Z</time></trkpt><trkpt lat="40.929515" lon="16.533345"><ele>502.99999999999994</ele><time>2026-04-12T10:13:24.662Z</time></trkpt><trkpt lat="40.929465" lon="16.5332267"><ele>503.0</ele><time>2026-04-12T10:13:25.662Z</time></trkpt><trkpt lat="40.9294083" lon="16.5331117"><ele>503.0</ele><time>2026-04-12T10:13:26.663Z</time></trkpt><trkpt lat="40.929365" lon="16.5330067"><ele>503.0</ele><time>2026-04-12T10:13:27.662Z</time></trkpt><trkpt lat="40.9293183" lon="16.5328933"><ele>502.99999999999994</ele><time>2026-04-12T10:13:28.662Z</time></trkpt><trkpt lat="40.9292767" lon="16.5327833"><ele>502.99999999999994</ele><time>2026-04-12T10:13:29.662Z</time></trkpt><trkpt lat="40.9292367" lon="16.5326767"><ele>503.0</ele><time>2026-04-12T10:13:30.662Z</time></trkpt><trkpt lat="40.9291983" lon="16.5325733"><ele>503.0</ele><time>2026-04-12T10:13:31.663Z</time></trkpt><trkpt lat="40.9291533" lon="16.5324783"><ele>502.49999999999994</ele><time>2026-04-12T10:13:32.662Z</time></trkpt><trkpt lat="40.92909" lon="16.5324083"><ele>502.0</ele><time>2026-04-12T10:13:33.663Z</time></trkpt><trkpt lat="40.9290133" lon="16.53234"><ele>501.5</ele><time>2026-04-12T10:13:34.662Z</time></trkpt><trkpt lat="40.9289283" lon="16.5322783"><ele>501.0</ele><time>2026-04-12T10:13:35.663Z</time></trkpt><trkpt lat="40.9288533" lon="16.5322217"><ele>500.49999999999994</ele><time>2026-04-12T10:13:36.662Z</time></trkpt><trkpt lat="40.9287883" lon="16.532165"><ele>500.0</ele><time>2026-04-12T10:13:37.662Z</time></trkpt><trkpt lat="40.9287217" lon="16.5320867"><ele>499.8333333333333</ele><time>2026-04-12T10:13:38.663Z</time></trkpt><trkpt lat="40.9286483" lon="16.532015"><ele>499.66666666666663</ele><time>2026-04-12T10:13:39.663Z</time></trkpt><trkpt lat="40.928585" lon="16.531955"><ele>499.5</ele><time>2026-04-12T10:13:40.662Z</time></trkpt><trkpt lat="40.9285183" lon="16.531895"><ele>499.33333333333337</ele><time>2026-04-12T10:13:41.663Z</time></trkpt><trkpt lat="40.9284467" lon="16.5318433"><ele>499.1666666666667</ele><time>2026-04-12T10:13:42.663Z</time></trkpt><trkpt lat="40.9283817" lon="16.531785"><ele>499.0</ele><time>2026-04-12T10:13:43.663Z</time></trkpt><trkpt lat="40.9283283" lon="16.53173"><ele>498.57142857142867</ele><time>2026-04-12T10:13:44.662Z</time></trkpt><trkpt lat="40.9282733" lon="16.5316783"><ele>498.14285714285717</ele><time>2026-04-12T10:13:45.663Z</time></trkpt><trkpt lat="40.9282183" lon="16.531625"><ele>497.7142857142858</ele><time>2026-04-12T10:13:46.662Z</time></trkpt><trkpt lat="40.9281617" lon="16.5315733"><ele>497.28571428571433</ele><time>2026-04-12T10:13:47.662Z</time></trkpt><trkpt lat="40.9281067" lon="16.53153"><ele>496.8571428571429</ele><time>2026-04-12T10:13:48.662Z</time></trkpt><trkpt lat="40.9280417" lon="16.5314767"><ele>496.42857142857144</ele><time>2026-04-12T10:13:49.663Z</time></trkpt><trkpt lat="40.92797" lon="16.5314167"><ele>496.0</ele><time>2026-04-12T10:13:50.662Z</time></trkpt><trkpt lat="40.9278967" lon="16.5313517"><ele>496.00000000000006</ele><time>2026-04-12T10:13:51.662Z</time></trkpt><trkpt lat="40.9278283" lon="16.5312933"><ele>496.0</ele><time>2026-04-12T10:13:52.663Z</time></trkpt><trkpt lat="40.92777" lon="16.5312383"><ele>496.0</ele><time>2026-04-12T10:13:53.663Z</time></trkpt><trkpt lat="40.9277133" lon="16.5311917"><ele>496.0</ele><time>2026-04-12T10:13:54.662Z</time></trkpt><trkpt lat="40.9276417" lon="16.5311167"><ele>496.00000000000006</ele><time>2026-04-12T10:13:56.662Z</time></trkpt><trkpt lat="40.9275217" lon="16.5310767"><ele>496.0</ele><time>2026-04-12T10:22:29.654Z</time></trkpt><trkpt lat="40.92743" lon="16.5310283"><ele>494.75</ele><time>2026-04-12T10:22:31.654Z</time></trkpt><trkpt lat="40.927325" lon="16.5309633"><ele>493.5</ele><time>2026-04-12T10:22:33.654Z</time></trkpt><trkpt lat="40.9272167" lon="16.5308967"><ele>492.25</ele><time>2026-04-12T10:22:35.655Z</time></trkpt><trkpt lat="40.9271183" lon="16.5308433"><ele>491.0</ele><time>2026-04-12T10:22:37.654Z</time></trkpt><trkpt lat="40.9270083" lon="16.5307683"><ele>490.99999999999994</ele><time>2026-04-12T10:22:39.655Z</time></trkpt><trkpt lat="40.9269483" lon="16.5307283"><ele>491.0</ele><time>2026-04-12T10:22:40.654Z</time></trkpt><trkpt lat="40.926885" lon="16.53068"><ele>491.0</ele><time>2026-04-12T10:22:41.654Z</time></trkpt><trkpt lat="40.9268233" lon="16.5306317"><ele>491.0</ele><time>2026-04-12T10:22:42.654Z</time></trkpt><trkpt lat="40.9267617" lon="16.5305867"><ele>490.99999999999994</ele><time>2026-04-12T10:22:43.655Z</time></trkpt><trkpt lat="40.9267067" lon="16.5305433"><ele>491.0</ele><time>2026-04-12T10:22:44.655Z</time></trkpt><trkpt lat="40.9265933" lon="16.5304933"><ele>490.8333333333333</ele><time>2026-04-12T10:22:46.655Z</time></trkpt><trkpt lat="40.9264667" lon="16.5304833"><ele>490.66666666666663</ele><time>2026-04-12T10:22:48.654Z</time></trkpt><trkpt lat="40.9263883" lon="16.53048"><ele>490.5</ele><time>2026-04-12T10:22:49.655Z</time></trkpt><trkpt lat="40.9263183" lon="16.53048"><ele>490.33333333333337</ele><time>2026-04-12T10:22:50.654Z</time></trkpt><trkpt lat="40.92624" lon="16.5304817"><ele>490.1666666666667</ele><time>2026-04-12T10:22:51.654Z</time></trkpt><trkpt lat="40.9261633" lon="16.5304783"><ele>490.0</ele><time>2026-04-12T10:22:52.655Z</time></trkpt><trkpt lat="40.9260767" lon="16.53048"><ele>490.00000000000006</ele><time>2026-04-12T10:22:53.654Z</time></trkpt><trkpt lat="40.92599" lon="16.5304767"><ele>490.0</ele><time>2026-04-12T10:22:54.655Z</time></trkpt><trkpt lat="40.9259033" lon="16.5304733"><ele>490.0</ele><time>2026-04-12T10:22:55.654Z</time></trkpt><trkpt lat="40.925815" lon="16.5304633"><ele>490.0</ele><time>2026-04-12T10:22:56.654Z</time></trkpt><trkpt lat="40.9257317" lon="16.530455"><ele>490.00000000000006</ele><time>2026-04-12T10:22:57.654Z</time></trkpt><trkpt lat="40.925645" lon="16.5304433"><ele>490.0</ele><time>2026-04-12T10:22:58.654Z</time></trkpt><trkpt lat="40.9255583" lon="16.5304467"><ele>490.1666666666667</ele><time>2026-04-12T10:22:59.654Z</time></trkpt><trkpt lat="40.92548" lon="16.5304517"><ele>490.33333333333337</ele><time>2026-04-12T10:23:00.654Z</time></trkpt><trkpt lat="40.9253967" lon="16.5304433"><ele>490.5</ele><time>2026-04-12T10:23:01.654Z</time></trkpt><trkpt lat="40.92532" lon="16.5304433"><ele>490.66666666666663</ele><time>2026-04-12T10:23:02.654Z</time></trkpt><trkpt lat="40.9252233" lon="16.530425"><ele>490.8333333333333</ele><time>2026-04-12T10:23:03.654Z</time></trkpt><trkpt lat="40.9251467" lon="16.5304183"><ele>491.0</ele><time>2026-04-12T10:23:04.654Z</time></trkpt><trkpt lat="40.9250633" lon="16.5304133"><ele>490.16666666666663</ele><time>2026-04-12T10:23:05.654Z</time></trkpt><trkpt lat="40.9249833" lon="16.5304167"><ele>489.3333333333333</ele><time>2026-04-12T10:23:06.654Z</time></trkpt><trkpt lat="40.9249083" lon="16.530415"><ele>488.5</ele><time>2026-04-12T10:23:07.654Z</time></trkpt><trkpt lat="40.9248217" lon="16.5304183"><ele>487.66666666666663</ele><time>2026-04-12T10:23:08.655Z</time></trkpt><trkpt lat="40.9247383" lon="16.530425"><ele>486.8333333333333</ele><time>2026-04-12T10:23:09.654Z</time></trkpt><trkpt lat="40.92466" lon="16.530435"><ele>486.0</ele><time>2026-04-12T10:23:10.655Z</time></trkpt><trkpt lat="40.9245783" lon="16.5304467"><ele>486.0</ele><time>2026-04-12T10:23:11.655Z</time></trkpt><trkpt lat="40.9245033" lon="16.5304633"><ele>486.0</ele><time>2026-04-12T10:23:12.655Z</time></trkpt><trkpt lat="40.924425" lon="16.5304817"><ele>486.0</ele><time>2026-04-12T10:23:13.654Z</time></trkpt><trkpt lat="40.9243467" lon="16.5305033"><ele>486.0</ele><time>2026-04-12T10:23:14.654Z</time></trkpt><trkpt lat="40.92427" lon="16.5305267"><ele>486.0</ele><time>2026-04-12T10:23:15.654Z</time></trkpt><trkpt lat="40.92419" lon="16.5305483"><ele>486.0</ele><time>2026-04-12T10:23:16.654Z</time></trkpt><trkpt lat="40.9241083" lon="16.53056"><ele>485.1666666666667</ele><time>2026-04-12T10:23:17.654Z</time></trkpt><trkpt lat="40.9240317" lon="16.5305583"><ele>484.33333333333337</ele><time>2026-04-12T10:23:18.655Z</time></trkpt><trkpt lat="40.9239583" lon="16.530575"><ele>483.5</ele><time>2026-04-12T10:23:19.654Z</time></trkpt><trkpt lat="40.92387" lon="16.5305967"><ele>482.6666666666667</ele><time>2026-04-12T10:23:20.654Z</time></trkpt><trkpt lat="40.9237883" lon="16.5306217"><ele>481.83333333333337</ele><time>2026-04-12T10:23:21.654Z</time></trkpt><trkpt lat="40.9237167" lon="16.53063"><ele>481.0</ele><time>2026-04-12T10:23:22.655Z</time></trkpt><trkpt lat="40.9236367" lon="16.5306517"><ele>481.00000000000006</ele><time>2026-04-12T10:23:23.654Z</time></trkpt><trkpt lat="40.9235633" lon="16.53067"><ele>481.0</ele><time>2026-04-12T10:23:24.654Z</time></trkpt><trkpt lat="40.923485" lon="16.5306917"><ele>481.0</ele><time>2026-04-12T10:23:25.655Z</time></trkpt><trkpt lat="40.9234067" lon="16.5307183"><ele>481.0</ele><time>2026-04-12T10:23:26.655Z</time></trkpt><trkpt lat="40.9233183" lon="16.5307317"><ele>481.00000000000006</ele><time>2026-04-12T10:23:27.655Z</time></trkpt><trkpt lat="40.923225" lon="16.530745"><ele>481.0</ele><time>2026-04-12T10:23:28.654Z</time></trkpt><trkpt lat="40.9231367" lon="16.5307433"><ele>480.1666666666667</ele><time>2026-04-12T10:23:29.655Z</time></trkpt><trkpt lat="40.9230483" lon="16.530745"><ele>479.33333333333337</ele><time>2026-04-12T10:23:30.655Z</time></trkpt><trkpt lat="40.9229667" lon="16.5307383"><ele>478.5</ele><time>2026-04-12T10:23:31.654Z</time></trkpt><trkpt lat="40.92289" lon="16.5307417"><ele>477.66666666666663</ele><time>2026-04-12T10:23:32.654Z</time></trkpt><trkpt lat="40.9228117" lon="16.53073"><ele>476.8333333333333</ele><time>2026-04-12T10:23:33.655Z</time></trkpt><trkpt lat="40.9227317" lon="16.530725"><ele>476.0</ele><time>2026-04-12T10:23:34.654Z</time></trkpt><trkpt lat="40.9226583" lon="16.5307233"><ele>475.99999999999994</ele><time>2026-04-12T10:23:35.654Z</time></trkpt><trkpt lat="40.9225783" lon="16.5307167"><ele>476.0</ele><time>2026-04-12T10:23:36.654Z</time></trkpt><trkpt lat="40.92249" lon="16.5307083"><ele>476.0</ele><time>2026-04-12T10:23:37.655Z</time></trkpt><trkpt lat="40.9224" lon="16.5307133"><ele>476.0</ele><time>2026-04-12T10:23:38.654Z</time></trkpt><trkpt lat="40.922315" lon="16.530715"><ele>475.99999999999994</ele><time>2026-04-12T10:23:39.654Z</time></trkpt><trkpt lat="40.922235" lon="16.5307117"><ele>476.0</ele><time>2026-04-12T10:23:40.655Z</time></trkpt><trkpt lat="40.9221617" lon="16.5307017"><ele>475.0</ele><time>2026-04-12T10:23:41.655Z</time></trkpt><trkpt lat="40.92204" lon="16.5307083"><ele>474.0</ele><time>2026-04-12T10:23:43.654Z</time></trkpt><trkpt lat="40.9219633" lon="16.5306917"><ele>473.0</ele><time>2026-04-12T10:23:44.655Z</time></trkpt><trkpt lat="40.9218817" lon="16.5306817"><ele>472.0</ele><time>2026-04-12T10:23:45.654Z</time></trkpt><trkpt lat="40.92427" lon="16.5305267"><ele>473.50000000000006</ele><time>2026-04-12T10:23:15.654Z</time></trkpt><trkpt lat="40.92419" lon="16.5305483"><ele>475.0</ele><time>2026-04-12T10:23:16.654Z</time></trkpt><trkpt lat="40.9241083" lon="16.53056"><ele>476.5</ele><time>2026-04-12T10:23:17.654Z</time></trkpt><trkpt lat="40.9240317" lon="16.5305583"><ele>478.0</ele><time>2026-04-12T10:23:18.655Z</time></trkpt><trkpt lat="40.9239583" lon="16.530575"><ele>479.50000000000006</ele><time>2026-04-12T10:23:19.654Z</time></trkpt><trkpt lat="40.92387" lon="16.5305967"><ele>481.0</ele><time>2026-04-12T10:23:20.654Z</time></trkpt><trkpt lat="40.9237883" lon="16.5306217"><ele>481.00000000000006</ele><time>2026-04-12T10:23:21.654Z</time></trkpt><trkpt lat="40.9237167" lon="16.53063"><ele>481.0</ele><time>2026-04-12T10:23:22.655Z</time></trkpt><trkpt lat="40.9236367" lon="16.5306517"><ele>481.0</ele><time>2026-04-12T10:23:23.654Z</time></trkpt><trkpt lat="40.9235633" lon="16.53067"><ele>481.0</ele><time>2026-04-12T10:23:24.654Z</time></trkpt><trkpt lat="40.923485" lon="16.5306917"><ele>481.00000000000006</ele><time>2026-04-12T10:23:25.655Z</time></trkpt><trkpt lat="40.9234067" lon="16.5307183"><ele>481.0</ele><time>2026-04-12T10:23:26.655Z</time></trkpt><trkpt lat="40.9233183" lon="16.5307317"><ele>480.1666666666667</ele><time>2026-04-12T10:23:27.655Z</time></trkpt><trkpt lat="40.923225" lon="16.530745"><ele>479.33333333333337</ele><time>2026-04-12T10:23:28.654Z</time></trkpt><trkpt lat="40.9231367" lon="16.5307433"><ele>478.5</ele><time>2026-04-12T10:23:29.655Z</time></trkpt><trkpt lat="40.9230483" lon="16.530745"><ele>477.66666666666663</ele><time>2026-04-12T10:23:30.655Z</time></trkpt><trkpt lat="40.9229667" lon="16.5307383"><ele>476.8333333333333</ele><time>2026-04-12T10:23:31.654Z</time></trkpt><trkpt lat="40.92289" lon="16.5307417"><ele>476.0</ele><time>2026-04-12T10:23:32.654Z</time></trkpt><trkpt lat="40.9228117" lon="16.53073"><ele>475.99999999999994</ele><time>2026-04-12T10:23:33.655Z</time></trkpt><trkpt lat="40.9227317" lon="16.530725"><ele>476.0</ele><time>2026-04-12T10:23:34.654Z</time></trkpt><trkpt lat="40.9226583" lon="16.5307233"><ele>476.0</ele><time>2026-04-12T10:23:35.654Z</time></trkpt><trkpt lat="40.9225783" lon="16.5307167"><ele>476.0</ele><time>2026-04-12T10:23:36.654Z</time></trkpt><trkpt lat="40.92249" lon="16.5307083"><ele>475.99999999999994</ele><time>2026-04-12T10:23:37.655Z</time></trkpt><trkpt lat="40.9224" lon="16.5307133"><ele>476.0</ele><time>2026-04-12T10:23:38.654Z</time></trkpt><trkpt lat="40.922315" lon="16.530715"><ele>475.3333333333333</ele><time>2026-04-12T10:23:39.654Z</time></trkpt><trkpt lat="40.922235" lon="16.5307117"><ele>474.66666666666663</ele><time>2026-04-12T10:23:40.655Z</time></trkpt><trkpt lat="40.9221617" lon="16.5307017"><ele>474.0</ele><time>2026-04-12T10:23:41.655Z</time></trkpt><trkpt lat="40.92204" lon="16.5307083"><ele>473.33333333333337</ele><time>2026-04-12T10:23:43.654Z</time></trkpt><trkpt lat="40.9219633" lon="16.5306917"><ele>472.6666666666667</ele><time>2026-04-12T10:23:44.655Z</time></trkpt><trkpt lat="40.9218817" lon="16.5306817"><ele>472.0</ele><time>2026-04-12T10:23:45.654Z</time></trkpt><trkpt lat="40.921795" lon="16.5306767"><ele>471.2857142857143</ele><time>2026-04-12T10:23:46.654Z</time></trkpt><trkpt lat="40.9217067" lon="16.5306817"><ele>470.57142857142856</ele><time>2026-04-12T10:23:47.654Z</time></trkpt><trkpt lat="40.9216217" lon="16.5306817"><ele>469.85714285714283</ele><time>2026-04-12T10:23:48.654Z</time></trkpt><trkpt lat="40.9215483" lon="16.530685"><ele>469.1428571428571</ele><time>2026-04-12T10:23:49.654Z</time></trkpt><trkpt lat="40.921485" lon="16.5306817"><ele>468.42857142857144</ele><time>2026-04-12T10:23:50.654Z</time></trkpt><trkpt lat="40.9214167" lon="16.530675"><ele>467.71428571428567</ele><time>2026-04-12T10:23:51.654Z</time></trkpt><trkpt lat="40.9213533" lon="16.53067"><ele>466.99999999999994</ele><time>2026-04-12T10:23:52.654Z</time></trkpt><trkpt lat="40.9212383" lon="16.5306567"><ele>467.0</ele><time>2026-04-12T10:23:54.655Z</time></trkpt><trkpt lat="40.921135" lon="16.5306367"><ele>467.00000000000006</ele><time>2026-04-12T10:23:56.655Z</time></trkpt><trkpt lat="40.92101" lon="16.5305917"><ele>467.00000000000006</ele><time>2026-04-12T10:23:58.654Z</time></trkpt><trkpt lat="40.9209383" lon="16.530565"><ele>467.0</ele><time>2026-04-12T10:23:59.654Z</time></trkpt><trkpt lat="40.92086" lon="16.5305317"><ele>467.0</ele><time>2026-04-12T10:24:00.655Z</time></trkpt><trkpt lat="40.9207883" lon="16.530495"><ele>466.66666666666663</ele><time>2026-04-12T10:24:01.654Z</time></trkpt><trkpt lat="40.920715" lon="16.53046"><ele>466.3333333333333</ele><time>2026-04-12T10:24:02.654Z</time></trkpt><trkpt lat="40.9206517" lon="16.5304283"><ele>466.0</ele><time>2026-04-12T10:24:03.654Z</time></trkpt><trkpt lat="40.9205917" lon="16.5303983"><ele>465.66666666666663</ele><time>2026-04-12T10:24:04.654Z</time></trkpt><trkpt lat="40.9205283" lon="16.53036"><ele>465.3333333333333</ele><time>2026-04-12T10:24:05.654Z</time></trkpt><trkpt lat="40.9204683" lon="16.5303167"><ele>465.0</ele><time>2026-04-12T10:24:06.654Z</time></trkpt><trkpt lat="40.920365" lon="16.5302183"><ele>464.71428571428567</ele><time>2026-04-12T10:24:08.654Z</time></trkpt><trkpt lat="40.9203083" lon="16.5301633"><ele>464.42857142857144</ele><time>2026-04-12T10:24:09.654Z</time></trkpt><trkpt lat="40.920255" lon="16.5301117"><ele>464.1428571428571</ele><time>2026-04-12T10:24:10.654Z</time></trkpt><trkpt lat="40.9202" lon="16.530065"><ele>463.85714285714283</ele><time>2026-04-12T10:24:11.654Z</time></trkpt><trkpt lat="40.9201383" lon="16.53001"><ele>463.57142857142856</ele><time>2026-04-12T10:24:12.655Z</time></trkpt><trkpt lat="40.92008" lon="16.52996"><ele>463.2857142857143</ele><time>2026-04-12T10:24:13.655Z</time></trkpt><trkpt lat="40.9200233" lon="16.52991"><ele>463.0</ele><time>2026-04-12T10:24:14.654Z</time></trkpt><trkpt lat="40.919965" lon="16.5298633"><ele>462.6666666666667</ele><time>2026-04-12T10:24:15.654Z</time></trkpt><trkpt lat="40.9199067" lon="16.5298167"><ele>462.33333333333337</ele><time>2026-04-12T10:24:16.654Z</time></trkpt><trkpt lat="40.9198383" lon="16.529775"><ele>462.0</ele><time>2026-04-12T10:24:17.655Z</time></trkpt><trkpt lat="40.91977" lon="16.529735"><ele>461.66666666666663</ele><time>2026-04-12T10:24:18.654Z</time></trkpt><trkpt lat="40.9196983" lon="16.5296983"><ele>461.3333333333333</ele><time>2026-04-12T10:24:19.654Z</time></trkpt><trkpt lat="40.919625" lon="16.52965"><ele>461.0</ele><time>2026-04-12T10:24:20.654Z</time></trkpt><trkpt lat="40.9195583" lon="16.5296067"><ele>461.0</ele><time>2026-04-12T10:24:21.655Z</time></trkpt><trkpt lat="40.919495" lon="16.5295683"><ele>461.00000000000006</ele><time>2026-04-12T10:24:22.654Z</time></trkpt><trkpt lat="40.9194333" lon="16.5295283"><ele>461.0</ele><time>2026-04-12T10:24:23.654Z</time></trkpt><trkpt lat="40.9193717" lon="16.52948"><ele>461.0</ele><time>2026-04-12T10:24:24.654Z</time></trkpt><trkpt lat="40.9193167" lon="16.5294333"><ele>461.00000000000006</ele><time>2026-04-12T10:24:25.654Z</time></trkpt><trkpt lat="40.919255" lon="16.529395"><ele>461.0</ele><time>2026-04-12T10:24:26.655Z</time></trkpt><trkpt lat="40.919195" lon="16.52936"><ele>461.0</ele><time>2026-04-12T10:24:27.654Z</time></trkpt><trkpt lat="40.919135" lon="16.5293233"><ele>460.42857142857144</ele><time>2026-04-12T10:24:28.654Z</time></trkpt><trkpt lat="40.91907" lon="16.5292783"><ele>459.8571428571429</ele><time>2026-04-12T10:24:29.654Z</time></trkpt><trkpt lat="40.9190067" lon="16.52922"><ele>459.28571428571433</ele><time>2026-04-12T10:24:30.655Z</time></trkpt><trkpt lat="40.9189467" lon="16.5291633"><ele>458.7142857142858</ele><time>2026-04-12T10:24:31.655Z</time></trkpt><trkpt lat="40.9188867" lon="16.5291"><ele>458.14285714285717</ele><time>2026-04-12T10:24:32.655Z</time></trkpt><trkpt lat="40.9188333" lon="16.5290367"><ele>457.57142857142867</ele><time>2026-04-12T10:24:33.654Z</time></trkpt><trkpt lat="40.918785" lon="16.5289717"><ele>457.00000000000006</ele><time>2026-04-12T10:24:34.654Z</time></trkpt><trkpt lat="40.9187333" lon="16.528915"><ele>457.00000000000006</ele><time>2026-04-12T10:24:35.654Z</time></trkpt><trkpt lat="40.9186817" lon="16.5288533"><ele>457.0</ele><time>2026-04-12T10:24:36.654Z</time></trkpt><trkpt lat="40.918625" lon="16.5287883"><ele>457.0</ele><time>2026-04-12T10:24:37.654Z</time></trkpt><trkpt lat="40.9185633" lon="16.5287217"><ele>457.0</ele><time>2026-04-12T10:24:38.654Z</time></trkpt><trkpt lat="40.9185" lon="16.5286567"><ele>457.00000000000006</ele><time>2026-04-12T10:24:39.655Z</time></trkpt><trkpt lat="40.91845" lon="16.5286017"><ele>457.0</ele><time>2026-04-12T10:24:40.655Z</time></trkpt><trkpt lat="40.9183517" lon="16.5284983"><ele>457.00000000000006</ele><time>2026-04-12T10:24:42.654Z</time></trkpt><trkpt lat="40.9183017" lon="16.52844"><ele>457.0</ele><time>2026-04-12T10:24:43.654Z</time></trkpt><trkpt lat="40.918255" lon="16.5283617"><ele>457.0</ele><time>2026-04-12T10:24:44.654Z</time></trkpt><trkpt lat="40.91821" lon="16.52828"><ele>457.0</ele><time>2026-04-12T10:24:45.655Z</time></trkpt><trkpt lat="40.9181633" lon="16.528195"><ele>457.00000000000006</ele><time>2026-04-12T10:24:46.654Z</time></trkpt><trkpt lat="40.9181133" lon="16.528105"><ele>457.0</ele><time>2026-04-12T10:24:47.654Z</time></trkpt><trkpt lat="40.9180567" lon="16.52801"><ele>457.0</ele><time>2026-04-12T10:24:48.655Z</time></trkpt><trkpt lat="40.917995" lon="16.5279383"><ele>457.00000000000006</ele><time>2026-04-12T10:24:49.654Z</time></trkpt><trkpt lat="40.9179233" lon="16.5278783"><ele>457.00000000000006</ele><time>2026-04-12T10:24:50.654Z</time></trkpt><trkpt lat="40.9178367" lon="16.5278367"><ele>457.0</ele><time>2026-04-12T10:24:51.654Z</time></trkpt><trkpt lat="40.9177333" lon="16.52781"><ele>457.0</ele><time>2026-04-12T10:24:52.654Z</time></trkpt><trkpt lat="40.9176167" lon="16.5277867"><ele>456.0</ele><time>2026-04-12T10:24:53.655Z</time></trkpt><trkpt lat="40.9174967" lon="16.5277667"><ele>455.0</ele><time>2026-04-12T10:24:54.655Z</time></trkpt><trkpt lat="40.9173783" lon="16.5277367"><ele>454.0</ele><time>2026-04-12T10:24:55.654Z</time></trkpt><trkpt lat="40.917255" lon="16.5277083"><ele>453.0</ele><time>2026-04-12T10:24:56.654Z</time></trkpt><trkpt lat="40.9171267" lon="16.52768"><ele>453.0</ele><time>2026-04-12T10:24:57.654Z</time></trkpt><trkpt lat="40.9169967" lon="16.5276583"><ele>453.0</ele><time>2026-04-12T10:24:58.654Z</time></trkpt><trkpt lat="40.9168633" lon="16.5276367"><ele>453.0</ele><time>2026-04-12T10:24:59.654Z</time></trkpt><trkpt lat="40.9167283" lon="16.5276117"><ele>453.0</ele><time>2026-04-12T10:25:00.655Z</time></trkpt><trkpt lat="40.9165933" lon="16.5276"><ele>453.0</ele><time>2026-04-12T10:25:01.654Z</time></trkpt><trkpt lat="40.91645" lon="16.5275733"><ele>453.0</ele><time>2026-04-12T10:25:02.655Z</time></trkpt><trkpt lat="40.9163117" lon="16.527555"><ele>453.0</ele><time>2026-04-12T10:25:03.654Z</time></trkpt><trkpt lat="40.9161817" lon="16.5275567"><ele>453.0</ele><time>2026-04-12T10:25:04.654Z</time></trkpt><trkpt lat="40.9160617" lon="16.5275517"><ele>453.0</ele><time>2026-04-12T10:25:05.654Z</time></trkpt><trkpt lat="40.9159533" lon="16.5275483"><ele>452.99999999999994</ele><time>2026-04-12T10:25:06.655Z</time></trkpt><trkpt lat="40.91585" lon="16.527535"><ele>452.99999999999994</ele><time>2026-04-12T10:25:07.654Z</time></trkpt><trkpt lat="40.9157633" lon="16.527525"><ele>453.0</ele><time>2026-04-12T10:25:08.654Z</time></trkpt><trkpt lat="40.915675" lon="16.52751"><ele>453.0</ele><time>2026-04-12T10:25:09.655Z</time></trkpt><trkpt lat="40.9155783" lon="16.5274783"><ele>452.25</ele><time>2026-04-12T10:25:10.654Z</time></trkpt><trkpt lat="40.9154817" lon="16.5274333"><ele>451.5</ele><time>2026-04-12T10:25:11.654Z</time></trkpt><trkpt lat="40.915375" lon="16.5273817"><ele>450.75</ele><time>2026-04-12T10:25:12.655Z</time></trkpt><trkpt lat="40.9152583" lon="16.527305"><ele>450.0</ele><time>2026-04-12T10:25:13.654Z</time></trkpt><trkpt lat="40.9151367" lon="16.5272267"><ele>450.5</ele><time>2026-04-12T10:25:14.655Z</time></trkpt><trkpt lat="40.9150133" lon="16.5271433"><ele>451.0</ele><time>2026-04-12T10:25:15.654Z</time></trkpt><trkpt lat="40.9148733" lon="16.5270767"><ele>451.5</ele><time>2026-04-12T10:25:16.654Z</time></trkpt><trkpt lat="40.9147333" lon="16.527005"><ele>452.0</ele><time>2026-04-12T10:25:17.654Z</time></trkpt><trkpt lat="40.9145917" lon="16.5269433"><ele>450.66666666666663</ele><time>2026-04-12T10:25:18.655Z</time></trkpt><trkpt lat="40.914445" lon="16.5268833"><ele>449.33333333333337</ele><time>2026-04-12T10:25:19.654Z</time></trkpt><trkpt lat="40.914295" lon="16.52682"><ele>448.0</ele><time>2026-04-12T10:25:20.655Z</time></trkpt><trkpt lat="40.91415" lon="16.52676"><ele>447.33333333333337</ele><time>2026-04-12T10:25:21.654Z</time></trkpt><trkpt lat="40.9140067" lon="16.526685"><ele>446.66666666666663</ele><time>2026-04-12T10:25:22.654Z</time></trkpt><trkpt lat="40.91385" lon="16.5266217"><ele>446.0</ele><time>2026-04-12T10:25:23.654Z</time></trkpt><trkpt lat="40.9136983" lon="16.526575"><ele>446.0</ele><time>2026-04-12T10:25:24.654Z</time></trkpt><trkpt lat="40.9135433" lon="16.5265267"><ele>446.0</ele><time>2026-04-12T10:25:25.655Z</time></trkpt><trkpt lat="40.9133867" lon="16.526485"><ele>446.0</ele><time>2026-04-12T10:25:26.655Z</time></trkpt><trkpt lat="40.9132267" lon="16.5264583"><ele>445.66666666666663</ele><time>2026-04-12T10:25:27.654Z</time></trkpt><trkpt lat="40.91307" lon="16.5264417"><ele>445.33333333333337</ele><time>2026-04-12T10:25:28.654Z</time></trkpt><trkpt lat="40.9129033" lon="16.5264233"><ele>445.0</ele><time>2026-04-12T10:25:29.654Z</time></trkpt><trkpt lat="40.912745" lon="16.5264083"><ele>445.0</ele><time>2026-04-12T10:25:30.654Z</time></trkpt><trkpt lat="40.9125833" lon="16.5264017"><ele>445.0</ele><time>2026-04-12T10:25:31.654Z</time></trkpt><trkpt lat="40.912425" lon="16.52639"><ele>445.0</ele><time>2026-04-12T10:25:32.654Z</time></trkpt><trkpt lat="40.9122767" lon="16.5263733"><ele>444.5</ele><time>2026-04-12T10:25:33.655Z</time></trkpt><trkpt lat="40.9121317" lon="16.5263683"><ele>444.0</ele><time>2026-04-12T10:25:34.654Z</time></trkpt><trkpt lat="40.911985" lon="16.52637"><ele>443.5</ele><time>2026-04-12T10:25:35.654Z</time></trkpt><trkpt lat="40.911835" lon="16.5263733"><ele>443.0</ele><time>2026-04-12T10:25:36.655Z</time></trkpt><trkpt lat="40.91169" lon="16.526385"><ele>442.5</ele><time>2026-04-12T10:25:37.655Z</time></trkpt><trkpt lat="40.9115467" lon="16.526395"><ele>442.0</ele><time>2026-04-12T10:25:38.654Z</time></trkpt><trkpt lat="40.9114167" lon="16.52642"><ele>441.5</ele><time>2026-04-12T10:25:39.654Z</time></trkpt><trkpt lat="40.9112917" lon="16.5264317"><ele>441.0</ele><time>2026-04-12T10:25:40.654Z</time></trkpt><trkpt lat="40.9111717" lon="16.526415"><ele>441.0</ele><time>2026-04-12T10:25:41.654Z</time></trkpt><trkpt lat="40.91107" lon="16.5263917"><ele>441.0</ele><time>2026-04-12T10:25:42.654Z</time></trkpt><trkpt lat="40.9109717" lon="16.5263383"><ele>441.0</ele><time>2026-04-12T10:25:43.654Z</time></trkpt><trkpt lat="40.9108783" lon="16.5262483"><ele>441.0</ele><time>2026-04-12T10:25:44.655Z</time></trkpt><trkpt lat="40.910785" lon="16.526145"><ele>441.0</ele><time>2026-04-12T10:25:45.654Z</time></trkpt><trkpt lat="40.9106867" lon="16.5260217"><ele>440.75</ele><time>2026-04-12T10:25:46.654Z</time></trkpt><trkpt lat="40.9105867" lon="16.5258967"><ele>440.5</ele><time>2026-04-12T10:25:47.654Z</time></trkpt><trkpt lat="40.9104783" lon="16.5257683"><ele>440.25</ele><time>2026-04-12T10:25:48.654Z</time></trkpt><trkpt lat="40.9103633" lon="16.525635"><ele>440.0</ele><time>2026-04-12T10:25:49.655Z</time></trkpt><trkpt lat="40.9102417" lon="16.5254917"><ele>439.75</ele><time>2026-04-12T10:25:50.654Z</time></trkpt><trkpt lat="40.9101133" lon="16.5253633"><ele>439.5</ele><time>2026-04-12T10:25:51.654Z</time></trkpt><trkpt lat="40.9099967" lon="16.5252533"><ele>439.25</ele><time>2026-04-12T10:25:52.654Z</time></trkpt><trkpt lat="40.9098817" lon="16.5251633"><ele>439.0</ele><time>2026-04-12T10:25:53.655Z</time></trkpt><trkpt lat="40.9097617" lon="16.5250817"><ele>439.0</ele><time>2026-04-12T10:25:54.655Z</time></trkpt><trkpt lat="40.9096333" lon="16.5250167"><ele>439.0</ele><time>2026-04-12T10:25:55.654Z</time></trkpt><trkpt lat="40.9094967" lon="16.5249733"><ele>439.0</ele><time>2026-04-12T10:25:56.654Z</time></trkpt><trkpt lat="40.90936" lon="16.52493"><ele>439.0</ele><time>2026-04-12T10:25:57.654Z</time></trkpt><trkpt lat="40.9092217" lon="16.5248967"><ele>438.75</ele><time>2026-04-12T10:25:58.655Z</time></trkpt><trkpt lat="40.90909" lon="16.524875"><ele>438.5</ele><time>2026-04-12T10:25:59.654Z</time></trkpt><trkpt lat="40.9089667" lon="16.5248467"><ele>438.25</ele><time>2026-04-12T10:26:00.654Z</time></trkpt><trkpt lat="40.9088517" lon="16.5248"><ele>438.0</ele><time>2026-04-12T10:26:01.655Z</time></trkpt><trkpt lat="40.9087383" lon="16.52474"><ele>438.0</ele><time>2026-04-12T10:26:02.655Z</time></trkpt><trkpt lat="40.908635" lon="16.52465"><ele>438.0</ele><time>2026-04-12T10:26:03.655Z</time></trkpt><trkpt lat="40.9085283" lon="16.5245483"><ele>438.0</ele><time>2026-04-12T10:26:04.654Z</time></trkpt><trkpt lat="40.908415" lon="16.5244483"><ele>438.0</ele><time>2026-04-12T10:26:05.654Z</time></trkpt><trkpt lat="40.9083" lon="16.52435"><ele>438.0</ele><time>2026-04-12T10:26:06.654Z</time></trkpt><trkpt lat="40.9081883" lon="16.5242517"><ele>438.0</ele><time>2026-04-12T10:26:07.654Z</time></trkpt><trkpt lat="40.9080783" lon="16.5241617"><ele>438.0</ele><time>2026-04-12T10:26:08.655Z</time></trkpt><trkpt lat="40.9079767" lon="16.5240667"><ele>438.0</ele><time>2026-04-12T10:26:09.654Z</time></trkpt><trkpt lat="40.90788" lon="16.523985"><ele>438.0</ele><time>2026-04-12T10:26:10.654Z</time></trkpt><trkpt lat="40.907805" lon="16.5239117"><ele>438.0</ele><time>2026-04-12T10:26:11.654Z</time></trkpt><trkpt lat="40.90774" lon="16.52386"><ele>438.0</ele><time>2026-04-12T10:26:12.654Z</time></trkpt><trkpt lat="40.907685" lon="16.5238033"><ele>438.0</ele><time>2026-04-12T10:26:13.655Z</time></trkpt><trkpt lat="40.90759" lon="16.5237183"><ele>438.0</ele><time>2026-04-12T10:26:15.654Z</time></trkpt><trkpt lat="40.907535" lon="16.5236733"><ele>438.0</ele><time>2026-04-12T10:26:17.654Z</time></trkpt><trkpt lat="40.907445" lon="16.5236"><ele>437.79999999999995</ele><time>2026-04-12T10:26:20.654Z</time></trkpt><trkpt lat="40.9073317" lon="16.5235"><ele>437.59999999999997</ele><time>2026-04-12T10:26:22.654Z</time></trkpt><trkpt lat="40.9072517" lon="16.5234317"><ele>437.40000000000003</ele><time>2026-04-12T10:26:23.654Z</time></trkpt><trkpt lat="40.9071717" lon="16.5233567"><ele>437.20000000000005</ele><time>2026-04-12T10:26:24.655Z</time></trkpt><trkpt lat="40.9070883" lon="16.5232833"><ele>437.0</ele><time>2026-04-12T10:26:25.655Z</time></trkpt><trkpt lat="40.9069983" lon="16.5232"><ele>437.0</ele><time>2026-04-12T10:26:26.654Z</time></trkpt><trkpt lat="40.9069017" lon="16.5231133"><ele>437.0</ele><time>2026-04-12T10:26:27.654Z</time></trkpt><trkpt lat="40.906795" lon="16.523025"><ele>437.0</ele><time>2026-04-12T10:26:28.654Z</time></trkpt><trkpt lat="40.9066933" lon="16.5229467"><ele>437.0</ele><time>2026-04-12T10:26:29.655Z</time></trkpt><trkpt lat="40.906595" lon="16.5228717"><ele>436.20000000000005</ele><time>2026-04-12T10:26:30.654Z</time></trkpt><trkpt lat="40.90651" lon="16.52279"><ele>435.40000000000003</ele><time>2026-04-12T10:26:31.654Z</time></trkpt><trkpt lat="40.90642" lon="16.5227083"><ele>434.59999999999997</ele><time>2026-04-12T10:26:32.654Z</time></trkpt><trkpt lat="40.9063317" lon="16.522625"><ele>433.79999999999995</ele><time>2026-04-12T10:26:33.654Z</time></trkpt><trkpt lat="40.9062383" lon="16.5225533"><ele>433.0</ele><time>2026-04-12T10:26:34.654Z</time></trkpt><trkpt lat="40.9061467" lon="16.5224867"><ele>433.0</ele><time>2026-04-12T10:26:35.654Z</time></trkpt><trkpt lat="40.90606" lon="16.5224283"><ele>432.99999999999994</ele><time>2026-04-12T10:26:36.654Z</time></trkpt><trkpt lat="40.9059717" lon="16.5223633"><ele>432.99999999999994</ele><time>2026-04-12T10:26:37.654Z</time></trkpt><trkpt lat="40.90588" lon="16.5223033"><ele>433.0</ele><time>2026-04-12T10:26:38.654Z</time></trkpt><trkpt lat="40.9057983" lon="16.5222483"><ele>433.0</ele><time>2026-04-12T10:26:39.655Z</time></trkpt><trkpt lat="40.9057233" lon="16.5222033"><ele>433.00000000000006</ele><time>2026-04-12T10:26:40.654Z</time></trkpt><trkpt lat="40.9056567" lon="16.52216"><ele>433.0</ele><time>2026-04-12T10:26:41.654Z</time></trkpt><trkpt lat="40.9055883" lon="16.5221167"><ele>433.0</ele><time>2026-04-12T10:26:42.655Z</time></trkpt><trkpt lat="40.905515" lon="16.5220733"><ele>433.0</ele><time>2026-04-12T10:26:43.655Z</time></trkpt><trkpt lat="40.905445" lon="16.5220333"><ele>433.00000000000006</ele><time>2026-04-12T10:26:44.655Z</time></trkpt><trkpt lat="40.9053767" lon="16.5219883"><ele>433.0</ele><time>2026-04-12T10:26:45.654Z</time></trkpt><trkpt lat="40.9053033" lon="16.521935"><ele>433.0</ele><time>2026-04-12T10:26:46.654Z</time></trkpt><trkpt lat="40.90522" lon="16.5218667"><ele>433.0</ele><time>2026-04-12T10:26:47.655Z</time></trkpt><trkpt lat="40.905125" lon="16.5217967"><ele>433.0</ele><time>2026-04-12T10:26:48.655Z</time></trkpt><trkpt lat="40.90502" lon="16.5217217"><ele>433.0</ele><time>2026-04-12T10:26:49.654Z</time></trkpt><trkpt lat="40.9049117" lon="16.521635"><ele>432.75</ele><time>2026-04-12T10:26:50.654Z</time></trkpt><trkpt lat="40.9047933" lon="16.5215433"><ele>432.5</ele><time>2026-04-12T10:26:51.654Z</time></trkpt><trkpt lat="40.9046733" lon="16.5214533"><ele>432.25</ele><time>2026-04-12T10:26:52.654Z</time></trkpt><trkpt lat="40.9045517" lon="16.5213633"><ele>432.0</ele><time>2026-04-12T10:26:53.655Z</time></trkpt><trkpt lat="40.9044283" lon="16.52127"><ele>432.25</ele><time>2026-04-12T10:26:54.655Z</time></trkpt><trkpt lat="40.9042983" lon="16.5211783"><ele>432.5</ele><time>2026-04-12T10:26:55.654Z</time></trkpt><trkpt lat="40.9041683" lon="16.5210883"><ele>432.75</ele><time>2026-04-12T10:26:56.654Z</time></trkpt><trkpt lat="40.90403" lon="16.521"><ele>433.0</ele><time>2026-04-12T10:26:57.654Z</time></trkpt><trkpt lat="40.9039067" lon="16.5209033"><ele>433.0</ele><time>2026-04-12T10:26:58.655Z</time></trkpt><trkpt lat="40.9037767" lon="16.5208133"><ele>433.0</ele><time>2026-04-12T10:26:59.654Z</time></trkpt><trkpt lat="40.9036483" lon="16.5207267"><ele>433.0</ele><time>2026-04-12T10:27:00.654Z</time></trkpt><trkpt lat="40.903535" lon="16.520645"><ele>433.0</ele><time>2026-04-12T10:27:01.654Z</time></trkpt><trkpt lat="40.903425" lon="16.5205717"><ele>433.25</ele><time>2026-04-12T10:27:02.654Z</time></trkpt><trkpt lat="40.9033133" lon="16.5205017"><ele>433.5</ele><time>2026-04-12T10:27:03.655Z</time></trkpt><trkpt lat="40.9031983" lon="16.520445"><ele>433.75</ele><time>2026-04-12T10:27:04.655Z</time></trkpt><trkpt lat="40.9030783" lon="16.5204"><ele>434.0</ele><time>2026-04-12T10:27:05.654Z</time></trkpt><trkpt lat="40.90295" lon="16.5203633"><ele>434.5</ele><time>2026-04-12T10:27:06.654Z</time></trkpt><trkpt lat="40.90281" lon="16.5203283"><ele>435.0</ele><time>2026-04-12T10:27:07.654Z</time></trkpt><trkpt lat="40.90267" lon="16.5202983"><ele>435.5</ele><time>2026-04-12T10:27:08.654Z</time></trkpt><trkpt lat="40.9025417" lon="16.5202767"><ele>436.0</ele><time>2026-04-12T10:27:09.655Z</time></trkpt><trkpt lat="40.90241" lon="16.5202633"><ele>435.0</ele><time>2026-04-12T10:27:10.654Z</time></trkpt><trkpt lat="40.9022733" lon="16.5202667"><ele>434.0</ele><time>2026-04-12T10:27:11.654Z</time></trkpt><trkpt lat="40.902135" lon="16.520285"><ele>433.0</ele><time>2026-04-12T10:27:12.654Z</time></trkpt><trkpt lat="40.9020017" lon="16.5203133"><ele>432.0</ele><time>2026-04-12T10:27:13.655Z</time></trkpt><trkpt lat="40.9018867" lon="16.52034"><ele>432.0</ele><time>2026-04-12T10:27:14.654Z</time></trkpt><trkpt lat="40.9017783" lon="16.5203633"><ele>432.00000000000006</ele><time>2026-04-12T10:27:15.654Z</time></trkpt><trkpt lat="40.9016683" lon="16.5203817"><ele>432.00000000000006</ele><time>2026-04-12T10:27:16.654Z</time></trkpt><trkpt lat="40.9015617" lon="16.5203783"><ele>432.0</ele><time>2026-04-12T10:27:17.655Z</time></trkpt><trkpt lat="40.901445" lon="16.5203617"><ele>432.0</ele><time>2026-04-12T10:27:18.655Z</time></trkpt><trkpt lat="40.9013217" lon="16.520335"><ele>432.0</ele><time>2026-04-12T10:27:19.654Z</time></trkpt><trkpt lat="40.9011933" lon="16.5203067"><ele>432.0</ele><time>2026-04-12T10:27:20.654Z</time></trkpt><trkpt lat="40.901065" lon="16.5202733"><ele>432.0</ele><time>2026-04-12T10:27:21.654Z</time></trkpt><trkpt lat="40.9009333" lon="16.52024"><ele>432.0</ele><time>2026-04-12T10:27:22.654Z</time></trkpt><trkpt lat="40.9007983" lon="16.5202083"><ele>431.0</ele><time>2026-04-12T10:27:23.655Z</time></trkpt><trkpt lat="40.90065" lon="16.5201833"><ele>430.0</ele><time>2026-04-12T10:27:24.655Z</time></trkpt><trkpt lat="40.9005033" lon="16.52017"><ele>429.0</ele><time>2026-04-12T10:27:25.654Z</time></trkpt><trkpt lat="40.90035" lon="16.52017"><ele>429.0</ele><time>2026-04-12T10:27:26.654Z</time></trkpt><trkpt lat="40.9002" lon="16.520175"><ele>429.0</ele><time>2026-04-12T10:27:27.655Z</time></trkpt><trkpt lat="40.9000467" lon="16.52018"><ele>429.0</ele><time>2026-04-12T10:27:28.654Z</time></trkpt><trkpt lat="40.8998967" lon="16.520175"><ele>429.0</ele><time>2026-04-12T10:27:29.654Z</time></trkpt><trkpt lat="40.89975" lon="16.5201467"><ele>429.0</ele><time>2026-04-12T10:27:30.654Z</time></trkpt><trkpt lat="40.8996017" lon="16.5201183"><ele>429.0</ele><time>2026-04-12T10:27:31.655Z</time></trkpt><trkpt lat="40.8994517" lon="16.5200817"><ele>429.0</ele><time>2026-04-12T10:27:32.654Z</time></trkpt><trkpt lat="40.8992983" lon="16.52005"><ele>429.0</ele><time>2026-04-12T10:27:33.654Z</time></trkpt><trkpt lat="40.8991483" lon="16.5200117"><ele>429.0</ele><time>2026-04-12T10:27:34.654Z</time></trkpt><trkpt lat="40.8989967" lon="16.5199833"><ele>428.66666666666663</ele><time>2026-04-12T10:27:35.655Z</time></trkpt><trkpt lat="40.8988467" lon="16.5199517"><ele>428.3333333333333</ele><time>2026-04-12T10:27:36.655Z</time></trkpt><trkpt lat="40.8986967" lon="16.51992"><ele>428.0</ele><time>2026-04-12T10:27:37.656Z</time></trkpt><trkpt lat="40.8985517" lon="16.5198817"><ele>428.0</ele><time>2026-04-12T10:27:38.655Z</time></trkpt><trkpt lat="40.8984067" lon="16.5198517"><ele>428.0</ele><time>2026-04-12T10:27:39.656Z</time></trkpt><trkpt lat="40.8982583" lon="16.5198167"><ele>428.0</ele><time>2026-04-12T10:27:40.655Z</time></trkpt><trkpt lat="40.89811" lon="16.5197733"><ele>428.0</ele><time>2026-04-12T10:27:41.655Z</time></trkpt><trkpt lat="40.89797" lon="16.5197433"><ele>428.0</ele><time>2026-04-12T10:27:42.655Z</time></trkpt><trkpt lat="40.8978167" lon="16.51971"><ele>428.0</ele><time>2026-04-12T10:27:43.655Z</time></trkpt><trkpt lat="40.8976617" lon="16.5196783"><ele>428.0</ele><time>2026-04-12T10:27:44.656Z</time></trkpt><trkpt lat="40.8975083" lon="16.51965"><ele>427.5</ele><time>2026-04-12T10:27:45.655Z</time></trkpt><trkpt lat="40.8973683" lon="16.519625"><ele>427.0</ele><time>2026-04-12T10:27:46.655Z</time></trkpt><trkpt lat="40.8972367" lon="16.5196033"><ele>426.5</ele><time>2026-04-12T10:27:47.655Z</time></trkpt><trkpt lat="40.8971167" lon="16.5195833"><ele>426.0</ele><time>2026-04-12T10:27:48.655Z</time></trkpt><trkpt lat="40.89699" lon="16.519555"><ele>425.5</ele><time>2026-04-12T10:27:49.655Z</time></trkpt><trkpt lat="40.89686" lon="16.5195167"><ele>425.0</ele><time>2026-04-12T10:27:50.655Z</time></trkpt><trkpt lat="40.8967217" lon="16.519465"><ele>424.5</ele><time>2026-04-12T10:27:51.655Z</time></trkpt><trkpt lat="40.8965783" lon="16.5194183"><ele>424.0</ele><time>2026-04-12T10:27:52.655Z</time></trkpt><trkpt lat="40.8964417" lon="16.5193717"><ele>423.0</ele><time>2026-04-12T10:27:53.655Z</time></trkpt><trkpt lat="40.896315" lon="16.5193233"><ele>422.0</ele><time>2026-04-12T10:27:54.655Z</time></trkpt><trkpt lat="40.896195" lon="16.5192717"><ele>421.0</ele><time>2026-04-12T10:27:55.655Z</time></trkpt><trkpt lat="40.8960733" lon="16.519215"><ele>420.0</ele><time>2026-04-12T10:27:56.655Z</time></trkpt><trkpt lat="40.89595" lon="16.51916"><ele>420.0</ele><time>2026-04-12T10:27:57.655Z</time></trkpt><trkpt lat="40.8958217" lon="16.519115"><ele>420.0</ele><time>2026-04-12T10:27:58.656Z</time></trkpt><trkpt lat="40.895695" lon="16.519065"><ele>420.0</ele><time>2026-04-12T10:27:59.655Z</time></trkpt><trkpt lat="40.8955717" lon="16.5190133"><ele>420.0</ele><time>2026-04-12T10:28:00.655Z</time></trkpt><trkpt lat="40.895445" lon="16.5189617"><ele>420.0</ele><time>2026-04-12T10:28:01.655Z</time></trkpt><trkpt lat="40.8953283" lon="16.5189183"><ele>420.0</ele><time>2026-04-12T10:28:02.655Z</time></trkpt><trkpt lat="40.8952083" lon="16.5188717"><ele>420.0</ele><time>2026-04-12T10:28:03.655Z</time></trkpt><trkpt lat="40.895095" lon="16.5188217"><ele>420.0</ele><time>2026-04-12T10:28:04.655Z</time></trkpt><trkpt lat="40.8949933" lon="16.5187733"><ele>420.0</ele><time>2026-04-12T10:28:05.655Z</time></trkpt><trkpt lat="40.8949033" lon="16.5187283"><ele>420.0</ele><time>2026-04-12T10:28:06.655Z</time></trkpt><trkpt lat="40.8948167" lon="16.5186883"><ele>420.0</ele><time>2026-04-12T10:28:07.656Z</time></trkpt><trkpt lat="40.8947417" lon="16.5186517"><ele>420.0</ele><time>2026-04-12T10:28:08.656Z</time></trkpt><trkpt lat="40.8946617" lon="16.5186217"><ele>420.0</ele><time>2026-04-12T10:28:09.656Z</time></trkpt><trkpt lat="40.8945783" lon="16.5185983"><ele>420.0</ele><time>2026-04-12T10:28:10.656Z</time></trkpt><trkpt lat="40.89449" lon="16.518595"><ele>420.0</ele><time>2026-04-12T10:28:11.656Z</time></trkpt><trkpt lat="40.8943967" lon="16.5186017"><ele>420.0</ele><time>2026-04-12T10:28:12.655Z</time></trkpt><trkpt lat="40.8942983" lon="16.51861"><ele>420.0</ele><time>2026-04-12T10:28:13.656Z</time></trkpt><trkpt lat="40.8941933" lon="16.518605"><ele>420.0</ele><time>2026-04-12T10:28:14.655Z</time></trkpt><trkpt lat="40.89407" lon="16.51859"><ele>420.0</ele><time>2026-04-12T10:28:15.655Z</time></trkpt><trkpt lat="40.893935" lon="16.5185667"><ele>419.66666666666663</ele><time>2026-04-12T10:28:16.655Z</time></trkpt><trkpt lat="40.893785" lon="16.5185333"><ele>419.3333333333333</ele><time>2026-04-12T10:28:17.655Z</time></trkpt><trkpt lat="40.8936317" lon="16.5185033"><ele>419.0</ele><time>2026-04-12T10:28:18.656Z</time></trkpt><trkpt lat="40.8934717" lon="16.5184717"><ele>419.3333333333333</ele><time>2026-04-12T10:28:19.655Z</time></trkpt><trkpt lat="40.89331" lon="16.5184433"><ele>419.66666666666663</ele><time>2026-04-12T10:28:20.655Z</time></trkpt><trkpt lat="40.89314" lon="16.5184133"><ele>420.0</ele><time>2026-04-12T10:28:21.655Z</time></trkpt><trkpt lat="40.89296" lon="16.5183867"><ele>420.0</ele><time>2026-04-12T10:28:22.655Z</time></trkpt><trkpt lat="40.892775" lon="16.518365"><ele>420.0</ele><time>2026-04-12T10:28:23.655Z</time></trkpt><trkpt lat="40.8925933" lon="16.51835"><ele>420.0</ele><time>2026-04-12T10:28:24.655Z</time></trkpt><trkpt lat="40.89241" lon="16.518325"><ele>420.0</ele><time>2026-04-12T10:28:25.656Z</time></trkpt><trkpt lat="40.8922417" lon="16.5183083"><ele>420.0</ele><time>2026-04-12T10:28:26.655Z</time></trkpt><trkpt lat="40.8920783" lon="16.5182983"><ele>420.0</ele><time>2026-04-12T10:28:27.655Z</time></trkpt><trkpt lat="40.8919233" lon="16.5182883"><ele>420.0</ele><time>2026-04-12T10:28:28.655Z</time></trkpt><trkpt lat="40.8917717" lon="16.5182817"><ele>420.0</ele><time>2026-04-12T10:28:29.656Z</time></trkpt><trkpt lat="40.8916217" lon="16.5182867"><ele>420.0</ele><time>2026-04-12T10:28:30.655Z</time></trkpt><trkpt lat="40.8914767" lon="16.518295"><ele>420.0</ele><time>2026-04-12T10:28:31.655Z</time></trkpt><trkpt lat="40.8913283" lon="16.5183117"><ele>419.75</ele><time>2026-04-12T10:28:32.656Z</time></trkpt><trkpt lat="40.8911833" lon="16.5183217"><ele>419.5</ele><time>2026-04-12T10:28:33.655Z</time></trkpt><trkpt lat="40.89105" lon="16.518315"><ele>419.25</ele><time>2026-04-12T10:28:34.655Z</time></trkpt><trkpt lat="40.89091" lon="16.5182967"><ele>419.0</ele><time>2026-04-12T10:28:35.655Z</time></trkpt><trkpt lat="40.8907733" lon="16.5182817"><ele>417.75</ele><time>2026-04-12T10:28:36.656Z</time></trkpt><trkpt lat="40.89064" lon="16.5182683"><ele>416.5</ele><time>2026-04-12T10:28:37.655Z</time></trkpt><trkpt lat="40.8905167" lon="16.5182517"><ele>415.25</ele><time>2026-04-12T10:28:38.655Z</time></trkpt><trkpt lat="40.890395" lon="16.5182317"><ele>414.0</ele><time>2026-04-12T10:28:39.656Z</time></trkpt><trkpt lat="40.8902767" lon="16.518205"><ele>414.0</ele><time>2026-04-12T10:28:40.656Z</time></trkpt><trkpt lat="40.8901483" lon="16.5181883"><ele>414.0</ele><time>2026-04-12T10:28:41.656Z</time></trkpt><trkpt lat="40.8900233" lon="16.5181833"><ele>414.0</ele><time>2026-04-12T10:28:42.656Z</time></trkpt><trkpt lat="40.88989" lon="16.5181783"><ele>414.0</ele><time>2026-04-12T10:28:43.655Z</time></trkpt><trkpt lat="40.8897533" lon="16.51817"><ele>413.75</ele><time>2026-04-12T10:28:44.655Z</time></trkpt><trkpt lat="40.8896183" lon="16.5181567"><ele>413.5</ele><time>2026-04-12T10:28:45.655Z</time></trkpt><trkpt lat="40.889485" lon="16.5181467"><ele>413.25</ele><time>2026-04-12T10:28:46.655Z</time></trkpt><trkpt lat="40.8893633" lon="16.5181333"><ele>413.0</ele><time>2026-04-12T10:28:47.655Z</time></trkpt><trkpt lat="40.889245" lon="16.5181233"><ele>412.25</ele><time>2026-04-12T10:28:48.655Z</time></trkpt><trkpt lat="40.8891217" lon="16.5181067"><ele>411.5</ele><time>2026-04-12T10:28:49.655Z</time></trkpt><trkpt lat="40.8890067" lon="16.5181017"><ele>410.75</ele><time>2026-04-12T10:28:50.655Z</time></trkpt><trkpt lat="40.8888933" lon="16.51811"><ele>410.0</ele><time>2026-04-12T10:28:51.655Z</time></trkpt><trkpt lat="40.88878" lon="16.5181383"><ele>410.0</ele><time>2026-04-12T10:28:52.655Z</time></trkpt><trkpt lat="40.8886667" lon="16.518175"><ele>410.0</ele><time>2026-04-12T10:28:53.655Z</time></trkpt><trkpt lat="40.8885533" lon="16.5182283"><ele>410.0</ele><time>2026-04-12T10:28:54.655Z</time></trkpt><trkpt lat="40.888445" lon="16.5182883"><ele>410.0</ele><time>2026-04-12T10:28:55.655Z</time></trkpt><trkpt lat="40.8883383" lon="16.5183533"><ele>409.66666666666663</ele><time>2026-04-12T10:28:56.655Z</time></trkpt><trkpt lat="40.8882533" lon="16.5184183"><ele>409.3333333333333</ele><time>2026-04-12T10:28:57.655Z</time></trkpt><trkpt lat="40.8881783" lon="16.5184917"><ele>409.0</ele><time>2026-04-12T10:28:58.656Z</time></trkpt><trkpt lat="40.8881183" lon="16.51855"><ele>408.66666666666663</ele><time>2026-04-12T10:28:59.656Z</time></trkpt><trkpt lat="40.888055" lon="16.5185883"><ele>408.3333333333333</ele><time>2026-04-12T10:29:00.655Z</time></trkpt><trkpt lat="40.8879717" lon="16.5186083"><ele>408.0</ele><time>2026-04-12T10:29:01.655Z</time></trkpt><trkpt lat="40.8878733" lon="16.5186267"><ele>408.0</ele><time>2026-04-12T10:29:02.655Z</time></trkpt><trkpt lat="40.8877767" lon="16.518655"><ele>408.0</ele><time>2026-04-12T10:29:03.655Z</time></trkpt><trkpt lat="40.8876917" lon="16.5186933"><ele>408.0</ele><time>2026-04-12T10:29:04.655Z</time></trkpt><trkpt lat="40.8876167" lon="16.518725"><ele>408.0</ele><time>2026-04-12T10:29:05.655Z</time></trkpt><trkpt lat="40.8875483" lon="16.5187633"><ele>408.0</ele><time>2026-04-12T10:29:06.656Z</time></trkpt><trkpt lat="40.8874867" lon="16.518785"><ele>408.0</ele><time>2026-04-12T10:29:07.655Z</time></trkpt><trkpt lat="40.8873683" lon="16.5188283"><ele>407.6666666666667</ele><time>2026-04-12T10:29:09.656Z</time></trkpt><trkpt lat="40.88727" lon="16.518875"><ele>407.33333333333337</ele><time>2026-04-12T10:29:11.655Z</time></trkpt><trkpt lat="40.8871983" lon="16.5189133"><ele>407.0</ele><time>2026-04-12T10:29:13.655Z</time></trkpt><trkpt lat="40.8871417" lon="16.518955"><ele>406.6666666666667</ele><time>2026-04-12T10:29:16.655Z</time></trkpt><trkpt lat="40.8872517" lon="16.5189"><ele>406.33333333333337</ele><time>2026-04-12T10:29:34.656Z</time></trkpt><trkpt lat="40.8873183" lon="16.5188667"><ele>406.0</ele><time>2026-04-12T10:29:35.656Z</time></trkpt><trkpt lat="40.8873967" lon="16.51883"><ele>406.0</ele><time>2026-04-12T10:29:36.655Z</time></trkpt><trkpt lat="40.8874867" lon="16.5187967"><ele>406.0</ele><time>2026-04-12T10:29:37.655Z</time></trkpt><trkpt lat="40.8875833" lon="16.5187533"><ele>406.0</ele><time>2026-04-12T10:29:38.655Z</time></trkpt><trkpt lat="40.8876783" lon="16.518705"><ele>406.0</ele><time>2026-04-12T10:29:39.656Z</time></trkpt><trkpt lat="40.887765" lon="16.5186617"><ele>406.0</ele><time>2026-04-12T10:29:40.655Z</time></trkpt><trkpt lat="40.8878433" lon="16.518625"><ele>406.4</ele><time>2026-04-12T10:29:41.655Z</time></trkpt><trkpt lat="40.8879217" lon="16.5185967"><ele>406.8</ele><time>2026-04-12T10:29:42.655Z</time></trkpt><trkpt lat="40.887995" lon="16.5185883"><ele>407.2</ele><time>2026-04-12T10:29:43.655Z</time></trkpt><trkpt lat="40.8880633" lon="16.51859"><ele>407.59999999999997</ele><time>2026-04-12T10:29:44.655Z</time></trkpt><trkpt lat="40.88817" lon="16.5185283"><ele>408.0</ele><time>2026-04-12T10:29:46.655Z</time></trkpt><trkpt lat="40.88827" lon="16.5184183"><ele>408.0</ele><time>2026-04-12T10:29:48.655Z</time></trkpt><trkpt lat="40.8883383" lon="16.5183633"><ele>408.0</ele><time>2026-04-12T10:29:50.656Z</time></trkpt><trkpt lat="40.8883217" lon="16.5182583"><ele>408.0</ele><time>2026-04-12T10:29:53.655Z</time></trkpt><trkpt lat="40.8882033" lon="16.518185"><ele>408.0</ele><time>2026-04-12T10:29:55.655Z</time></trkpt><trkpt lat="40.8881217" lon="16.5181533"><ele>408.0</ele><time>2026-04-12T10:29:56.655Z</time></trkpt><trkpt lat="40.8880267" lon="16.5181317"><ele>408.0</ele><time>2026-04-12T10:29:57.656Z</time></trkpt><trkpt lat="40.8879283" lon="16.5181217"><ele>408.0</ele><time>2026-04-12T10:29:58.655Z</time></trkpt><trkpt lat="40.8878133" lon="16.5181217"><ele>408.0</ele><time>2026-04-12T10:29:59.655Z</time></trkpt><trkpt lat="40.88769" lon="16.5181183"><ele>408.0</ele><time>2026-04-12T10:30:00.656Z</time></trkpt><trkpt lat="40.88757" lon="16.5181167"><ele>407.75</ele><time>2026-04-12T10:30:01.656Z</time></trkpt><trkpt lat="40.8874533" lon="16.5181183"><ele>407.5</ele><time>2026-04-12T10:30:02.655Z</time></trkpt><trkpt lat="40.8873367" lon="16.5181183"><ele>407.25</ele><time>2026-04-12T10:30:03.655Z</time></trkpt><trkpt lat="40.8872217" lon="16.518125"><ele>407.0</ele><time>2026-04-12T10:30:04.655Z</time></trkpt><trkpt lat="40.8870983" lon="16.5181117"><ele>407.0</ele><time>2026-04-12T10:30:05.656Z</time></trkpt><trkpt lat="40.8869783" lon="16.5180917"><ele>407.0</ele><time>2026-04-12T10:30:06.655Z</time></trkpt><trkpt lat="40.8868717" lon="16.5180767"><ele>407.0</ele><time>2026-04-12T10:30:07.655Z</time></trkpt><trkpt lat="40.8867567" lon="16.5180517"><ele>407.0</ele><time>2026-04-12T10:30:08.655Z</time></trkpt><trkpt lat="40.88664" lon="16.51802"><ele>406.5</ele><time>2026-04-12T10:30:09.655Z</time></trkpt><trkpt lat="40.8865233" lon="16.5180033"><ele>406.0</ele><time>2026-04-12T10:30:10.655Z</time></trkpt><trkpt lat="40.8863983" lon="16.518"><ele>405.5</ele><time>2026-04-12T10:30:11.655Z</time></trkpt><trkpt lat="40.8862733" lon="16.5180017"><ele>405.0</ele><time>2026-04-12T10:30:12.655Z</time></trkpt><trkpt lat="40.8861467" lon="16.5179933"><ele>405.0</ele><time>2026-04-12T10:30:13.655Z</time></trkpt><trkpt lat="40.88602" lon="16.5179733"><ele>405.0</ele><time>2026-04-12T10:30:14.655Z</time></trkpt><trkpt lat="40.8858983" lon="16.5179517"><ele>405.0</ele><time>2026-04-12T10:30:15.655Z</time></trkpt><trkpt lat="40.88578" lon="16.5179417"><ele>405.0</ele><time>2026-04-12T10:30:16.655Z</time></trkpt><trkpt lat="40.8856633" lon="16.517915"><ele>405.0</ele><time>2026-04-12T10:30:17.656Z</time></trkpt><trkpt lat="40.8855583" lon="16.5178767"><ele>405.0</ele><time>2026-04-12T10:30:18.655Z</time></trkpt><trkpt lat="40.885455" lon="16.517825"><ele>405.0</ele><time>2026-04-12T10:30:19.655Z</time></trkpt><trkpt lat="40.8853583" lon="16.5177633"><ele>405.0</ele><time>2026-04-12T10:30:20.655Z</time></trkpt><trkpt lat="40.8852667" lon="16.51768"><ele>405.0</ele><time>2026-04-12T10:30:21.655Z</time></trkpt><trkpt lat="40.88518" lon="16.5175733"><ele>404.5</ele><time>2026-04-12T10:30:22.655Z</time></trkpt><trkpt lat="40.885095" lon="16.5174467"><ele>404.0</ele><time>2026-04-12T10:30:23.655Z</time></trkpt><trkpt lat="40.885015" lon="16.5173283"><ele>403.5</ele><time>2026-04-12T10:30:24.655Z</time></trkpt><trkpt lat="40.884945" lon="16.5172233"><ele>403.0</ele><time>2026-04-12T10:30:25.655Z</time></trkpt><trkpt lat="40.8848583" lon="16.5171467"><ele>403.0</ele><time>2026-04-12T10:30:26.656Z</time></trkpt><trkpt lat="40.88476" lon="16.5170717"><ele>403.0</ele><time>2026-04-12T10:30:27.655Z</time></trkpt><trkpt lat="40.8846583" lon="16.5169867"><ele>403.0</ele><time>2026-04-12T10:30:28.656Z</time></trkpt><trkpt lat="40.8845533" lon="16.5168967"><ele>403.0</ele><time>2026-04-12T10:30:29.656Z</time></trkpt><trkpt lat="40.884445" lon="16.5167983"><ele>403.0</ele><time>2026-04-12T10:30:30.655Z</time></trkpt><trkpt lat="40.8843367" lon="16.5167017"><ele>403.0</ele><time>2026-04-12T10:30:31.655Z</time></trkpt><trkpt lat="40.8842167" lon="16.5166083"><ele>403.0</ele><time>2026-04-12T10:30:32.656Z</time></trkpt><trkpt lat="40.8841" lon="16.5165117"><ele>403.0</ele><time>2026-04-12T10:30:33.656Z</time></trkpt><trkpt lat="40.8839833" lon="16.5164117"><ele>403.0</ele><time>2026-04-12T10:30:34.655Z</time></trkpt><trkpt lat="40.8838683" lon="16.5163233"><ele>403.0</ele><time>2026-04-12T10:30:35.655Z</time></trkpt><trkpt lat="40.883755" lon="16.5162367"><ele>403.0</ele><time>2026-04-12T10:30:36.655Z</time></trkpt><trkpt lat="40.8836483" lon="16.51615"><ele>403.0</ele><time>2026-04-12T10:30:37.655Z</time></trkpt><trkpt lat="40.88354" lon="16.5160533"><ele>403.0</ele><time>2026-04-12T10:30:38.655Z</time></trkpt><trkpt lat="40.8834267" lon="16.5159617"><ele>403.0</ele><time>2026-04-12T10:30:39.655Z</time></trkpt><trkpt lat="40.88331" lon="16.515875"><ele>403.0</ele><time>2026-04-12T10:30:40.655Z</time></trkpt><trkpt lat="40.8831917" lon="16.515785"><ele>403.0</ele><time>2026-04-12T10:30:41.655Z</time></trkpt><trkpt lat="40.8830767" lon="16.515695"><ele>403.0</ele><time>2026-04-12T10:30:42.655Z</time></trkpt><trkpt lat="40.8829767" lon="16.51561"><ele>403.0</ele><time>2026-04-12T10:30:43.655Z</time></trkpt><trkpt lat="40.8828883" lon="16.5155167"><ele>403.0</ele><time>2026-04-12T10:30:44.656Z</time></trkpt><trkpt lat="40.8828" lon="16.5154117"><ele>403.0</ele><time>2026-04-12T10:30:45.656Z</time></trkpt><trkpt lat="40.88271" lon="16.5153"><ele>403.0</ele><time>2026-04-12T10:30:46.656Z</time></trkpt><trkpt lat="40.8826183" lon="16.5151783"><ele>403.0</ele><time>2026-04-12T10:30:47.655Z</time></trkpt><trkpt lat="40.8825267" lon="16.5150533"><ele>403.0</ele><time>2026-04-12T10:30:48.655Z</time></trkpt><trkpt lat="40.88243" lon="16.51492"><ele>403.0</ele><time>2026-04-12T10:30:49.656Z</time></trkpt><trkpt lat="40.8823233" lon="16.51478"><ele>403.0</ele><time>2026-04-12T10:30:50.655Z</time></trkpt><trkpt lat="40.8822183" lon="16.5146417"><ele>403.0</ele><time>2026-04-12T10:30:51.655Z</time></trkpt><trkpt lat="40.8821167" lon="16.514515"><ele>403.0</ele><time>2026-04-12T10:30:52.655Z</time></trkpt><trkpt lat="40.8820267" lon="16.5143883"><ele>403.0</ele><time>2026-04-12T10:30:53.656Z</time></trkpt><trkpt lat="40.881935" lon="16.51426"><ele>403.0</ele><time>2026-04-12T10:30:54.655Z</time></trkpt><trkpt lat="40.8818333" lon="16.5141367"><ele>403.0</ele><time>2026-04-12T10:30:55.655Z</time></trkpt><trkpt lat="40.8817267" lon="16.51402"><ele>403.0</ele><time>2026-04-12T10:30:56.655Z</time></trkpt><trkpt lat="40.8816267" lon="16.51392"><ele>403.0</ele><time>2026-04-12T10:30:57.655Z</time></trkpt><trkpt lat="40.8815367" lon="16.5138217"><ele>403.0</ele><time>2026-04-12T10:30:58.655Z</time></trkpt><trkpt lat="40.881455" lon="16.513725"><ele>403.0</ele><time>2026-04-12T10:30:59.655Z</time></trkpt><trkpt lat="40.881375" lon="16.5136133"><ele>403.0</ele><time>2026-04-12T10:31:00.655Z</time></trkpt><trkpt lat="40.8813017" lon="16.5134967"><ele>403.0</ele><time>2026-04-12T10:31:01.656Z</time></trkpt><trkpt lat="40.8812333" lon="16.513385"><ele>403.0</ele><time>2026-04-12T10:31:02.655Z</time></trkpt><trkpt lat="40.8811617" lon="16.5132867"><ele>403.0</ele><time>2026-04-12T10:31:03.655Z</time></trkpt><trkpt lat="40.8810783" lon="16.5131933"><ele>403.0</ele><time>2026-04-12T10:31:04.655Z</time></trkpt><trkpt lat="40.880985" lon="16.5131083"><ele>403.0</ele><time>2026-04-12T10:31:05.656Z</time></trkpt><trkpt lat="40.88088" lon="16.513035"><ele>403.0</ele><time>2026-04-12T10:31:06.656Z</time></trkpt><trkpt lat="40.8807617" lon="16.5129733"><ele>403.0</ele><time>2026-04-12T10:31:07.656Z</time></trkpt><trkpt lat="40.880625" lon="16.5129217"><ele>403.0</ele><time>2026-04-12T10:31:08.655Z</time></trkpt><trkpt lat="40.880495" lon="16.5128683"><ele>403.0</ele><time>2026-04-12T10:31:09.655Z</time></trkpt><trkpt lat="40.8803783" lon="16.51281"><ele>403.0</ele><time>2026-04-12T10:31:10.655Z</time></trkpt><trkpt lat="40.8802617" lon="16.5127433"><ele>402.59999999999997</ele><time>2026-04-12T10:31:11.655Z</time></trkpt><trkpt lat="40.8801533" lon="16.5126633"><ele>402.2</ele><time>2026-04-12T10:31:12.655Z</time></trkpt><trkpt lat="40.8800583" lon="16.5125767"><ele>401.8</ele><time>2026-04-12T10:31:13.656Z</time></trkpt><trkpt lat="40.87999" lon="16.5125033"><ele>401.4</ele><time>2026-04-12T10:31:14.655Z</time></trkpt><trkpt lat="40.8799383" lon="16.51245"><ele>401.0</ele><time>2026-04-12T10:31:15.656Z</time></trkpt><trkpt lat="40.8798817" lon="16.5123867"><ele>400.8</ele><time>2026-04-12T10:31:17.655Z</time></trkpt><trkpt lat="40.8798267" lon="16.5123417"><ele>400.6</ele><time>2026-04-12T10:31:22.656Z</time></trkpt><trkpt lat="40.8796983" lon="16.5122767"><ele>400.4</ele><time>2026-04-12T10:31:24.655Z</time></trkpt><trkpt lat="40.87962" lon="16.5122017"><ele>400.2</ele><time>2026-04-12T10:31:25.655Z</time></trkpt><trkpt lat="40.8795433" lon="16.5121167"><ele>400.0</ele><time>2026-04-12T10:31:26.655Z</time></trkpt><trkpt lat="40.8794467" lon="16.5120317"><ele>400.0</ele><time>2026-04-12T10:31:27.656Z</time></trkpt><trkpt lat="40.8793467" lon="16.5119417"><ele>400.0</ele><time>2026-04-12T10:31:28.656Z</time></trkpt><trkpt lat="40.8792383" lon="16.5118533"><ele>400.0</ele><time>2026-04-12T10:31:29.655Z</time></trkpt><trkpt lat="40.8791233" lon="16.5117567"><ele>400.0</ele><time>2026-04-12T10:31:30.655Z</time></trkpt><trkpt lat="40.8790067" lon="16.5116633"><ele>400.0</ele><time>2026-04-12T10:31:31.655Z</time></trkpt><trkpt lat="40.8788917" lon="16.5115733"><ele>400.0</ele><time>2026-04-12T10:31:32.655Z</time></trkpt><trkpt lat="40.8787867" lon="16.5114833"><ele>400.0</ele><time>2026-04-12T10:31:33.655Z</time></trkpt><trkpt lat="40.8786867" lon="16.511405"><ele>400.0</ele><time>2026-04-12T10:31:34.655Z</time></trkpt><trkpt lat="40.8785983" lon="16.5113267"><ele>400.0</ele><time>2026-04-12T10:31:35.655Z</time></trkpt><trkpt lat="40.8785033" lon="16.51125"><ele>400.0</ele><time>2026-04-12T10:31:36.656Z</time></trkpt><trkpt lat="40.878405" lon="16.511175"><ele>400.0</ele><time>2026-04-12T10:31:37.656Z</time></trkpt><trkpt lat="40.8783117" lon="16.5111033"><ele>400.0</ele><time>2026-04-12T10:31:38.656Z</time></trkpt><trkpt lat="40.8782283" lon="16.51103"><ele>400.0</ele><time>2026-04-12T10:31:39.656Z</time></trkpt><trkpt lat="40.87814" lon="16.5109517"><ele>399.75</ele><time>2026-04-12T10:31:40.655Z</time></trkpt><trkpt lat="40.878045" lon="16.51087"><ele>399.5</ele><time>2026-04-12T10:31:41.655Z</time></trkpt><trkpt lat="40.8779483" lon="16.5107917"><ele>399.25</ele><time>2026-04-12T10:31:42.656Z</time></trkpt><trkpt lat="40.8778433" lon="16.5107133"><ele>399.0</ele><time>2026-04-12T10:31:43.655Z</time></trkpt><trkpt lat="40.877735" lon="16.5106233"><ele>399.0</ele><time>2026-04-12T10:31:44.655Z</time></trkpt><trkpt lat="40.877635" lon="16.5105417"><ele>399.0</ele><time>2026-04-12T10:31:45.656Z</time></trkpt><trkpt lat="40.8775383" lon="16.510475"><ele>399.0</ele><time>2026-04-12T10:31:46.656Z</time></trkpt><trkpt lat="40.8774533" lon="16.5104133"><ele>399.0</ele><time>2026-04-12T10:31:47.655Z</time></trkpt><trkpt lat="40.877375" lon="16.51034"><ele>399.0</ele><time>2026-04-12T10:31:48.656Z</time></trkpt><trkpt lat="40.8772967" lon="16.51026"><ele>398.79999999999995</ele><time>2026-04-12T10:31:49.655Z</time></trkpt><trkpt lat="40.8772183" lon="16.5101733"><ele>398.59999999999997</ele><time>2026-04-12T10:31:50.655Z</time></trkpt><trkpt lat="40.8771283" lon="16.5100917"><ele>398.4</ele><time>2026-04-12T10:31:51.656Z</time></trkpt><trkpt lat="40.87704" lon="16.510005"><ele>398.2</ele><time>2026-04-12T10:31:52.656Z</time></trkpt><trkpt lat="40.876955" lon="16.5099283"><ele>398.0</ele><time>2026-04-12T10:31:53.655Z</time></trkpt><trkpt lat="40.876885" lon="16.50986"><ele>397.99999999999994</ele><time>2026-04-12T10:31:54.656Z</time></trkpt><trkpt lat="40.87682" lon="16.5098017"><ele>398.0</ele><time>2026-04-12T10:31:55.656Z</time></trkpt><trkpt lat="40.876765" lon="16.5097517"><ele>398.0</ele><time>2026-04-12T10:31:56.655Z</time></trkpt><trkpt lat="40.8766817" lon="16.509675"><ele>398.0</ele><time>2026-04-12T10:31:58.656Z</time></trkpt><trkpt lat="40.87662" lon="16.509615"><ele>397.99999999999994</ele><time>2026-04-12T10:32:00.655Z</time></trkpt><trkpt lat="40.8765567" lon="16.50956"><ele>398.0</ele><time>2026-04-12T10:32:02.656Z</time></trkpt><trkpt lat="40.876455" lon="16.5095383"><ele>398.79999999999995</ele><time>2026-04-12T10:32:04.655Z</time></trkpt><trkpt lat="40.8763383" lon="16.5095283"><ele>399.6</ele><time>2026-04-12T10:32:06.656Z</time></trkpt><trkpt lat="40.8762467" lon="16.5095033"><ele>400.4</ele><time>2026-04-12T10:32:08.655Z</time></trkpt><trkpt lat="40.8761767" lon="16.509415"><ele>401.20000000000005</ele><time>2026-04-12T10:32:10.655Z</time></trkpt><trkpt lat="40.876145" lon="16.5093333"><ele>402.0</ele><time>2026-04-12T10:32:11.655Z</time></trkpt><trkpt lat="40.8761067" lon="16.50923"><ele>402.0</ele><time>2026-04-12T10:32:12.655Z</time></trkpt><trkpt lat="40.876055" lon="16.5091117"><ele>402.0</ele><time>2026-04-12T10:32:13.656Z</time></trkpt><trkpt lat="40.8759933" lon="16.508985"><ele>402.0</ele><time>2026-04-12T10:32:14.655Z</time></trkpt><trkpt lat="40.8759233" lon="16.5088383"><ele>402.0</ele><time>2026-04-12T10:32:15.655Z</time></trkpt><trkpt lat="40.8758483" lon="16.5086883"><ele>402.0</ele><time>2026-04-12T10:32:16.656Z</time></trkpt><trkpt lat="40.8757667" lon="16.5085333"><ele>402.0</ele><time>2026-04-12T10:32:17.655Z</time></trkpt><trkpt lat="40.8756867" lon="16.5083583"><ele>402.0</ele><time>2026-04-12T10:32:18.656Z</time></trkpt><trkpt lat="40.8756117" lon="16.5081917"><ele>402.0</ele><time>2026-04-12T10:32:19.655Z</time></trkpt><trkpt lat="40.8755317" lon="16.5080133"><ele>402.0</ele><time>2026-04-12T10:32:20.655Z</time></trkpt><trkpt lat="40.8754433" lon="16.507835"><ele>402.0</ele><time>2026-04-12T10:32:21.655Z</time></trkpt><trkpt lat="40.8753517" lon="16.5076417"><ele>402.0</ele><time>2026-04-12T10:32:22.655Z</time></trkpt><trkpt lat="40.8752583" lon="16.5074483"><ele>402.0</ele><time>2026-04-12T10:32:23.655Z</time></trkpt><trkpt lat="40.875165" lon="16.507275"><ele>402.0</ele><time>2026-04-12T10:32:24.655Z</time></trkpt><trkpt lat="40.8750867" lon="16.5071117"><ele>402.0</ele><time>2026-04-12T10:32:25.655Z</time></trkpt><trkpt lat="40.8750083" lon="16.50695"><ele>401.66666666666663</ele><time>2026-04-12T10:32:26.655Z</time></trkpt><trkpt lat="40.87493" lon="16.5067817"><ele>401.3333333333333</ele><time>2026-04-12T10:32:27.655Z</time></trkpt><trkpt lat="40.8748483" lon="16.5065967"><ele>401.0</ele><time>2026-04-12T10:32:28.656Z</time></trkpt><trkpt lat="40.87476" lon="16.5064"><ele>401.3333333333333</ele><time>2026-04-12T10:32:29.656Z</time></trkpt><trkpt lat="40.874665" lon="16.5061983"><ele>401.66666666666663</ele><time>2026-04-12T10:32:30.656Z</time></trkpt><trkpt lat="40.874565" lon="16.5059867"><ele>402.0</ele><time>2026-04-12T10:32:31.655Z</time></trkpt><trkpt lat="40.874475" lon="16.505765"><ele>402.0</ele><time>2026-04-12T10:32:32.655Z</time></trkpt><trkpt lat="40.8743933" lon="16.5055283"><ele>402.0</ele><time>2026-04-12T10:32:33.655Z</time></trkpt><trkpt lat="40.87432" lon="16.5052883"><ele>402.0</ele><time>2026-04-12T10:32:34.656Z</time></trkpt><trkpt lat="40.8742367" lon="16.5050483"><ele>401.33333333333337</ele><time>2026-04-12T10:32:35.655Z</time></trkpt><trkpt lat="40.8741533" lon="16.50481"><ele>400.6666666666667</ele><time>2026-04-12T10:32:36.656Z</time></trkpt><trkpt lat="40.874065" lon="16.5045717"><ele>400.0</ele><time>2026-04-12T10:32:37.655Z</time></trkpt><trkpt lat="40.8739833" lon="16.5043467"><ele>400.0</ele><time>2026-04-12T10:32:38.655Z</time></trkpt><trkpt lat="40.8738983" lon="16.5041267"><ele>400.0</ele><time>2026-04-12T10:32:39.656Z</time></trkpt><trkpt lat="40.87382" lon="16.503925"><ele>400.0</ele><time>2026-04-12T10:32:40.655Z</time></trkpt><trkpt lat="40.8737483" lon="16.5037333"><ele>399.6666666666667</ele><time>2026-04-12T10:32:41.655Z</time></trkpt><trkpt lat="40.87368" lon="16.5035383"><ele>399.33333333333337</ele><time>2026-04-12T10:32:42.655Z</time></trkpt><trkpt lat="40.8736117" lon="16.503355"><ele>399.0</ele><time>2026-04-12T10:32:43.655Z</time></trkpt><trkpt lat="40.87355" lon="16.5031633"><ele>399.0</ele><time>2026-04-12T10:32:44.655Z</time></trkpt><trkpt lat="40.873495" lon="16.502965"><ele>399.0</ele><time>2026-04-12T10:32:45.655Z</time></trkpt><trkpt lat="40.8734433" lon="16.502765"><ele>399.0</ele><time>2026-04-12T10:32:46.655Z</time></trkpt><trkpt lat="40.873395" lon="16.5025617"><ele>399.0</ele><time>2026-04-12T10:32:47.655Z</time></trkpt><trkpt lat="40.8733433" lon="16.502345"><ele>399.0</ele><time>2026-04-12T10:32:48.656Z</time></trkpt><trkpt lat="40.873285" lon="16.5021183"><ele>399.0</ele><time>2026-04-12T10:32:49.656Z</time></trkpt><trkpt lat="40.87323" lon="16.50189"><ele>398.66666666666663</ele><time>2026-04-12T10:32:50.656Z</time></trkpt><trkpt lat="40.8731817" lon="16.5016583"><ele>398.3333333333333</ele><time>2026-04-12T10:32:51.656Z</time></trkpt><trkpt lat="40.8731267" lon="16.5014283"><ele>398.0</ele><time>2026-04-12T10:32:52.656Z</time></trkpt><trkpt lat="40.873055" lon="16.5012"><ele>397.66666666666663</ele><time>2026-04-12T10:32:53.656Z</time></trkpt><trkpt lat="40.8729833" lon="16.5009733"><ele>397.33333333333337</ele><time>2026-04-12T10:32:54.656Z</time></trkpt><trkpt lat="40.8729033" lon="16.50075"><ele>397.0</ele><time>2026-04-12T10:32:55.656Z</time></trkpt><trkpt lat="40.8728183" lon="16.5005233"><ele>396.6666666666667</ele><time>2026-04-12T10:32:56.656Z</time></trkpt><trkpt lat="40.8727417" lon="16.5003017"><ele>396.33333333333337</ele><time>2026-04-12T10:32:57.656Z</time></trkpt><trkpt lat="40.8726567" lon="16.5000783"><ele>396.0</ele><time>2026-04-12T10:32:58.656Z</time></trkpt><trkpt lat="40.8725767" lon="16.499855"><ele>396.0</ele><time>2026-04-12T10:32:59.656Z</time></trkpt><trkpt lat="40.8724933" lon="16.4996383"><ele>396.0</ele><time>2026-04-12T10:33:00.656Z</time></trkpt><trkpt lat="40.872405" lon="16.4994217"><ele>396.0</ele><time>2026-04-12T10:33:01.656Z</time></trkpt><trkpt lat="40.8723317" lon="16.499225"><ele>396.0</ele><time>2026-04-12T10:33:02.657Z</time></trkpt><trkpt lat="40.8722683" lon="16.4990417"><ele>396.0</ele><time>2026-04-12T10:33:03.656Z</time></trkpt><trkpt lat="40.872215" lon="16.498885"><ele>396.0</ele><time>2026-04-12T10:33:04.657Z</time></trkpt><trkpt lat="40.872165" lon="16.49873"><ele>396.0</ele><time>2026-04-12T10:33:05.657Z</time></trkpt><trkpt lat="40.87211" lon="16.498575"><ele>395.8</ele><time>2026-04-12T10:33:06.656Z</time></trkpt><trkpt lat="40.872055" lon="16.498425"><ele>395.6</ele><time>2026-04-12T10:33:07.656Z</time></trkpt><trkpt lat="40.8720033" lon="16.4982933"><ele>395.4</ele><time>2026-04-12T10:33:08.657Z</time></trkpt><trkpt lat="40.8719667" lon="16.498185"><ele>395.2</ele><time>2026-04-12T10:33:09.656Z</time></trkpt><trkpt lat="40.871935" lon="16.4980983"><ele>395.0</ele><time>2026-04-12T10:33:10.656Z</time></trkpt><trkpt lat="40.8719183" lon="16.4979533"><ele>394.8</ele><time>2026-04-12T10:33:12.657Z</time></trkpt><trkpt lat="40.872" lon="16.497845"><ele>394.6</ele><time>2026-04-12T10:33:14.657Z</time></trkpt><trkpt lat="40.8720817" lon="16.4978133"><ele>394.4</ele><time>2026-04-12T10:33:15.656Z</time></trkpt><trkpt lat="40.872175" lon="16.49779"><ele>394.2</ele><time>2026-04-12T10:33:16.656Z</time></trkpt><trkpt lat="40.872275" lon="16.4977467"><ele>394.0</ele><time>2026-04-12T10:33:17.657Z</time></trkpt><trkpt lat="40.87237" lon="16.4976867"><ele>394.0</ele><time>2026-04-12T10:33:18.656Z</time></trkpt><trkpt lat="40.8724667" lon="16.4976033"><ele>394.0</ele><time>2026-04-12T10:33:19.657Z</time></trkpt><trkpt lat="40.87256" lon="16.4974967"><ele>394.0</ele><time>2026-04-12T10:33:20.657Z</time></trkpt><trkpt lat="40.872655" lon="16.49738"><ele>394.0</ele><time>2026-04-12T10:33:21.657Z</time></trkpt><trkpt lat="40.87276" lon="16.49727"><ele>394.0</ele><time>2026-04-12T10:33:22.656Z</time></trkpt><trkpt lat="40.8728817" lon="16.4971683"><ele>394.0</ele><time>2026-04-12T10:33:23.657Z</time></trkpt><trkpt lat="40.8730167" lon="16.4970817"><ele>394.0</ele><time>2026-04-12T10:33:24.657Z</time></trkpt><trkpt lat="40.8731517" lon="16.496995"><ele>394.0</ele><time>2026-04-12T10:33:25.656Z</time></trkpt><trkpt lat="40.8733067" lon="16.4969083"><ele>394.6666666666667</ele><time>2026-04-12T10:33:26.656Z</time></trkpt><trkpt lat="40.8734667" lon="16.4968167"><ele>395.33333333333337</ele><time>2026-04-12T10:33:27.656Z</time></trkpt><trkpt lat="40.8736417" lon="16.4967133"><ele>396.0</ele><time>2026-04-12T10:33:28.656Z</time></trkpt><trkpt lat="40.87381" lon="16.4966083"><ele>396.0</ele><time>2026-04-12T10:33:29.656Z</time></trkpt><trkpt lat="40.873985" lon="16.4965067"><ele>396.0</ele><time>2026-04-12T10:33:30.656Z</time></trkpt><trkpt lat="40.8741567" lon="16.4963967"><ele>396.0</ele><time>2026-04-12T10:33:31.656Z</time></trkpt><trkpt lat="40.87433" lon="16.4962933"><ele>396.33333333333337</ele><time>2026-04-12T10:33:32.657Z</time></trkpt><trkpt lat="40.8745033" lon="16.496185"><ele>396.6666666666667</ele><time>2026-04-12T10:33:33.656Z</time></trkpt><trkpt lat="40.874665" lon="16.4960917"><ele>397.0</ele><time>2026-04-12T10:33:34.656Z</time></trkpt><trkpt lat="40.8748117" lon="16.496005"><ele>397.0</ele><time>2026-04-12T10:33:35.656Z</time></trkpt><trkpt lat="40.8749467" lon="16.4959167"><ele>397.0</ele><time>2026-04-12T10:33:36.657Z</time></trkpt><trkpt lat="40.87508" lon="16.4958433"><ele>397.0</ele><time>2026-04-12T10:33:37.657Z</time></trkpt><trkpt lat="40.8752017" lon="16.49578"><ele>397.0</ele><time>2026-04-12T10:33:38.657Z</time></trkpt><trkpt lat="40.875325" lon="16.4957033"><ele>397.5</ele><time>2026-04-12T10:33:39.656Z</time></trkpt><trkpt lat="40.8754467" lon="16.495635"><ele>398.0</ele><time>2026-04-12T10:33:40.656Z</time></trkpt><trkpt lat="40.875565" lon="16.4955667"><ele>398.5</ele><time>2026-04-12T10:33:41.656Z</time></trkpt><trkpt lat="40.87568" lon="16.4955133"><ele>399.0</ele><time>2026-04-12T10:33:42.656Z</time></trkpt><trkpt lat="40.875785" lon="16.4954533"><ele>399.0</ele><time>2026-04-12T10:33:43.656Z</time></trkpt><trkpt lat="40.87588" lon="16.4953833"><ele>399.0</ele><time>2026-04-12T10:33:44.656Z</time></trkpt><trkpt lat="40.8759667" lon="16.4953283"><ele>399.0</ele><time>2026-04-12T10:33:45.656Z</time></trkpt><trkpt lat="40.8760483" lon="16.4952883"><ele>399.0</ele><time>2026-04-12T10:33:46.657Z</time></trkpt><trkpt lat="40.8761183" lon="16.4952767"><ele>399.0</ele><time>2026-04-12T10:33:47.656Z</time></trkpt><trkpt lat="40.876185" lon="16.4952933"><ele>399.0</ele><time>2026-04-12T10:33:48.656Z</time></trkpt><trkpt lat="40.8762483" lon="16.495335"><ele>399.0</ele><time>2026-04-12T10:33:49.657Z</time></trkpt><trkpt lat="40.8763033" lon="16.4954067"><ele>399.0</ele><time>2026-04-12T10:33:50.656Z</time></trkpt><trkpt lat="40.8763417" lon="16.495505"><ele>399.0</ele><time>2026-04-12T10:33:51.656Z</time></trkpt><trkpt lat="40.87636" lon="16.4956"><ele>399.0</ele><time>2026-04-12T10:33:52.656Z</time></trkpt><trkpt lat="40.87638" lon="16.4957067"><ele>399.0</ele><time>2026-04-12T10:33:53.656Z</time></trkpt><trkpt lat="40.87641" lon="16.49581"><ele>399.0</ele><time>2026-04-12T10:33:54.656Z</time></trkpt><trkpt lat="40.876445" lon="16.4958967"><ele>399.5</ele><time>2026-04-12T10:33:55.656Z</time></trkpt><trkpt lat="40.87648" lon="16.49597"><ele>400.0</ele><time>2026-04-12T10:33:56.656Z</time></trkpt><trkpt lat="40.8765233" lon="16.49607"><ele>400.5</ele><time>2026-04-12T10:33:58.657Z</time></trkpt><trkpt lat="40.8764783" lon="16.4959733"><ele>401.0</ele><time>2026-04-12T10:34:13.656Z</time></trkpt><trkpt lat="40.8764467" lon="16.4958833"><ele>401.5</ele><time>2026-04-12T10:34:15.656Z</time></trkpt><trkpt lat="40.8765117" lon="16.4958"><ele>402.0</ele><time>2026-04-12T10:34:18.657Z</time></trkpt><trkpt lat="40.8766017" lon="16.4957517"><ele>402.0</ele><time>2026-04-12T10:34:20.656Z</time></trkpt><trkpt lat="40.8767183" lon="16.4956917"><ele>402.0</ele><time>2026-04-12T10:34:22.657Z</time></trkpt><trkpt lat="40.8767917" lon="16.4956567"><ele>402.0</ele><time>2026-04-12T10:34:23.656Z</time></trkpt><trkpt lat="40.8768633" lon="16.4956117"><ele>402.0</ele><time>2026-04-12T10:34:24.656Z</time></trkpt><trkpt lat="40.87694" lon="16.495565"><ele>402.0</ele><time>2026-04-12T10:34:25.656Z</time></trkpt><trkpt lat="40.8770267" lon="16.49551"><ele>402.40000000000003</ele><time>2026-04-12T10:34:26.656Z</time></trkpt><trkpt lat="40.87711" lon="16.49546"><ele>402.8</ele><time>2026-04-12T10:34:27.656Z</time></trkpt><trkpt lat="40.8772017" lon="16.4954067"><ele>403.2</ele><time>2026-04-12T10:34:28.656Z</time></trkpt><trkpt lat="40.8772967" lon="16.4953483"><ele>403.6</ele><time>2026-04-12T10:34:29.657Z</time></trkpt><trkpt lat="40.8773917" lon="16.4952933"><ele>404.0</ele><time>2026-04-12T10:34:30.656Z</time></trkpt><trkpt lat="40.8774883" lon="16.495235"><ele>404.0</ele><time>2026-04-12T10:34:31.657Z</time></trkpt><trkpt lat="40.8775717" lon="16.4951933"><ele>404.0</ele><time>2026-04-12T10:34:32.657Z</time></trkpt><trkpt lat="40.8776517" lon="16.4951417"><ele>404.0</ele><time>2026-04-12T10:34:33.656Z</time></trkpt><trkpt lat="40.87774" lon="16.4950883"><ele>404.0</ele><time>2026-04-12T10:34:34.657Z</time></trkpt><trkpt lat="40.8778317" lon="16.495035"><ele>404.0</ele><time>2026-04-12T10:34:35.657Z</time></trkpt><trkpt lat="40.8779217" lon="16.4949867"><ele>404.4</ele><time>2026-04-12T10:34:36.656Z</time></trkpt><trkpt lat="40.8780017" lon="16.4949267"><ele>404.79999999999995</ele><time>2026-04-12T10:34:37.657Z</time></trkpt><trkpt lat="40.8780883" lon="16.4948733"><ele>405.20000000000005</ele><time>2026-04-12T10:34:38.656Z</time></trkpt><trkpt lat="40.8781767" lon="16.4948117"><ele>405.6</ele><time>2026-04-12T10:34:39.656Z</time></trkpt><trkpt lat="40.8782633" lon="16.4947367"><ele>406.0</ele><time>2026-04-12T10:34:40.657Z</time></trkpt><trkpt lat="40.8783417" lon="16.4946583"><ele>405.4</ele><time>2026-04-12T10:34:41.656Z</time></trkpt><trkpt lat="40.8784083" lon="16.4945617"><ele>404.8</ele><time>2026-04-12T10:34:42.656Z</time></trkpt><trkpt lat="40.878465" lon="16.494475"><ele>404.2</ele><time>2026-04-12T10:34:43.656Z</time></trkpt><trkpt lat="40.878535" lon="16.494395"><ele>403.59999999999997</ele><time>2026-04-12T10:34:44.656Z</time></trkpt><trkpt lat="40.87863" lon="16.4943167"><ele>403.0</ele><time>2026-04-12T10:34:45.656Z</time></trkpt><trkpt lat="40.87873" lon="16.49425"><ele>402.75</ele><time>2026-04-12T10:34:46.656Z</time></trkpt><trkpt lat="40.8788317" lon="16.4941917"><ele>402.5</ele><time>2026-04-12T10:34:47.657Z</time></trkpt><trkpt lat="40.8789483" lon="16.49413"><ele>402.25</ele><time>2026-04-12T10:34:48.656Z</time></trkpt><trkpt lat="40.8790683" lon="16.4940617"><ele>402.0</ele><time>2026-04-12T10:34:49.656Z</time></trkpt><trkpt lat="40.879185" lon="16.4939967"><ele>402.0</ele><time>2026-04-12T10:34:50.656Z</time></trkpt><trkpt lat="40.8792933" lon="16.4939333"><ele>402.0</ele><time>2026-04-12T10:34:51.656Z</time></trkpt><trkpt lat="40.8793967" lon="16.4938683"><ele>402.0</ele><time>2026-04-12T10:34:52.656Z</time></trkpt><trkpt lat="40.8794817" lon="16.4938083"><ele>402.0</ele><time>2026-04-12T10:34:53.656Z</time></trkpt><trkpt lat="40.87955" lon="16.49377"><ele>402.0</ele><time>2026-04-12T10:34:54.656Z</time></trkpt><trkpt lat="40.8796483" lon="16.493775"><ele>402.0</ele><time>2026-04-12T10:34:56.657Z</time></trkpt><trkpt lat="40.8797217" lon="16.49392"><ele>402.0</ele><time>2026-04-12T10:34:58.657Z</time></trkpt><trkpt lat="40.8797533" lon="16.4940383"><ele>402.0</ele><time>2026-04-12T10:34:59.656Z</time></trkpt><trkpt lat="40.8797867" lon="16.494175"><ele>402.0</ele><time>2026-04-12T10:35:00.656Z</time></trkpt><trkpt lat="40.8798183" lon="16.4943217"><ele>402.0</ele><time>2026-04-12T10:35:01.657Z</time></trkpt><trkpt lat="40.8798567" lon="16.49446"><ele>402.0</ele><time>2026-04-12T10:35:02.656Z</time></trkpt><trkpt lat="40.8798933" lon="16.494585"><ele>402.0</ele><time>2026-04-12T10:35:03.656Z</time></trkpt><trkpt lat="40.8799333" lon="16.4947067"><ele>402.0</ele><time>2026-04-12T10:35:04.656Z</time></trkpt><trkpt lat="40.8799733" lon="16.4948267"><ele>402.0</ele><time>2026-04-12T10:35:05.657Z</time></trkpt><trkpt lat="40.880005" lon="16.4949167"><ele>402.0</ele><time>2026-04-12T10:35:06.656Z</time></trkpt><trkpt lat="40.8800717" lon="16.49502"><ele>402.0</ele><time>2026-04-12T10:35:08.656Z</time></trkpt><trkpt lat="40.8801917" lon="16.4950117"><ele>402.0</ele><time>2026-04-12T10:35:10.656Z</time></trkpt><trkpt lat="40.8802633" lon="16.4949567"><ele>402.0</ele><time>2026-04-12T10:35:11.656Z</time></trkpt><trkpt lat="40.88035" lon="16.4948917"><ele>402.0</ele><time>2026-04-12T10:35:12.656Z</time></trkpt><trkpt lat="40.88045" lon="16.494825"><ele>402.0</ele><time>2026-04-12T10:35:13.657Z</time></trkpt><trkpt lat="40.8805567" lon="16.4947617"><ele>402.0</ele><time>2026-04-12T10:35:14.657Z</time></trkpt><trkpt lat="40.88067" lon="16.4946883"><ele>402.0</ele><time>2026-04-12T10:35:15.657Z</time></trkpt><trkpt lat="40.88078" lon="16.49461"><ele>402.0</ele><time>2026-04-12T10:35:16.657Z</time></trkpt><trkpt lat="40.8808967" lon="16.494535"><ele>402.25</ele><time>2026-04-12T10:35:17.657Z</time></trkpt><trkpt lat="40.88101" lon="16.494455"><ele>402.5</ele><time>2026-04-12T10:35:18.657Z</time></trkpt><trkpt lat="40.88113" lon="16.4943717"><ele>402.75</ele><time>2026-04-12T10:35:19.657Z</time></trkpt><trkpt lat="40.8812583" lon="16.4942883"><ele>403.0</ele><time>2026-04-12T10:35:20.657Z</time></trkpt><trkpt lat="40.8813833" lon="16.49421"><ele>403.0</ele><time>2026-04-12T10:35:21.656Z</time></trkpt><trkpt lat="40.881515" lon="16.4941283"><ele>403.0</ele><time>2026-04-12T10:35:22.656Z</time></trkpt><trkpt lat="40.88164" lon="16.4940433"><ele>403.0</ele><time>2026-04-12T10:35:23.656Z</time></trkpt><trkpt lat="40.8817533" lon="16.4939633"><ele>403.0</ele><time>2026-04-12T10:35:24.656Z</time></trkpt><trkpt lat="40.8818567" lon="16.49389"><ele>403.25</ele><time>2026-04-12T10:35:25.656Z</time></trkpt><trkpt lat="40.881955" lon="16.49382"><ele>403.5</ele><time>2026-04-12T10:35:26.657Z</time></trkpt><trkpt lat="40.8820667" lon="16.4937517"><ele>403.75</ele><time>2026-04-12T10:35:27.656Z</time></trkpt><trkpt lat="40.882185" lon="16.4936767"><ele>404.0</ele><time>2026-04-12T10:35:28.657Z</time></trkpt><trkpt lat="40.8822983" lon="16.4936"><ele>404.25</ele><time>2026-04-12T10:35:29.656Z</time></trkpt><trkpt lat="40.8824167" lon="16.4935217"><ele>404.5</ele><time>2026-04-12T10:35:30.656Z</time></trkpt><trkpt lat="40.8825283" lon="16.4934383"><ele>404.75</ele><time>2026-04-12T10:35:31.657Z</time></trkpt><trkpt lat="40.882645" lon="16.4933583"><ele>405.0</ele><time>2026-04-12T10:35:32.656Z</time></trkpt><trkpt lat="40.8827567" lon="16.4932817"><ele>405.2</ele><time>2026-04-12T10:35:33.656Z</time></trkpt><trkpt lat="40.88287" lon="16.49321"><ele>405.4</ele><time>2026-04-12T10:35:34.656Z</time></trkpt><trkpt lat="40.8829783" lon="16.49314"><ele>405.6</ele><time>2026-04-12T10:35:35.657Z</time></trkpt><trkpt lat="40.8830733" lon="16.4930867"><ele>405.8</ele><time>2026-04-12T10:35:36.656Z</time></trkpt><trkpt lat="40.8831567" lon="16.49304"><ele>406.0</ele><time>2026-04-12T10:35:37.657Z</time></trkpt><trkpt lat="40.8832283" lon="16.493"><ele>406.00000000000006</ele><time>2026-04-12T10:35:38.656Z</time></trkpt><trkpt lat="40.8832967" lon="16.4929583"><ele>406.0</ele><time>2026-04-12T10:35:39.656Z</time></trkpt><trkpt lat="40.883355" lon="16.49292"><ele>406.0</ele><time>2026-04-12T10:35:40.657Z</time></trkpt><trkpt lat="40.8834367" lon="16.492825"><ele>406.0</ele><time>2026-04-12T10:35:42.656Z</time></trkpt><trkpt lat="40.8834317" lon="16.4926867"><ele>406.00000000000006</ele><time>2026-04-12T10:35:44.656Z</time></trkpt><trkpt lat="40.8834017" lon="16.4926017"><ele>406.0</ele><time>2026-04-12T10:35:45.657Z</time></trkpt><trkpt lat="40.8833683" lon="16.492505"><ele>406.20000000000005</ele><time>2026-04-12T10:35:46.656Z</time></trkpt><trkpt lat="40.8833283" lon="16.4923983"><ele>406.40000000000003</ele><time>2026-04-12T10:35:47.656Z</time></trkpt><trkpt lat="40.8832883" lon="16.4922767"><ele>406.6</ele><time>2026-04-12T10:35:48.656Z</time></trkpt><trkpt lat="40.8832433" lon="16.4921433"><ele>406.8</ele><time>2026-04-12T10:35:49.656Z</time></trkpt><trkpt lat="40.8832017" lon="16.491995"><ele>407.0</ele><time>2026-04-12T10:35:50.657Z</time></trkpt><trkpt lat="40.8831517" lon="16.4918333"><ele>407.0</ele><time>2026-04-12T10:35:51.657Z</time></trkpt><trkpt lat="40.8830983" lon="16.4916567"><ele>407.0</ele><time>2026-04-12T10:35:52.656Z</time></trkpt><trkpt lat="40.8830433" lon="16.49148"><ele>407.0</ele><time>2026-04-12T10:35:53.656Z</time></trkpt><trkpt lat="40.8829817" lon="16.491305"><ele>407.0</ele><time>2026-04-12T10:35:54.656Z</time></trkpt><trkpt lat="40.8829217" lon="16.4911233"><ele>407.75</ele><time>2026-04-12T10:35:55.657Z</time></trkpt><trkpt lat="40.88287" lon="16.4909683"><ele>408.5</ele><time>2026-04-12T10:35:56.657Z</time></trkpt><trkpt lat="40.882815" lon="16.49082"><ele>409.25</ele><time>2026-04-12T10:35:57.657Z</time></trkpt><trkpt lat="40.88277" lon="16.490675"><ele>410.0</ele><time>2026-04-12T10:35:58.657Z</time></trkpt><trkpt lat="40.8827233" lon="16.49054"><ele>409.8</ele><time>2026-04-12T10:35:59.656Z</time></trkpt><trkpt lat="40.8826783" lon="16.4904117"><ele>409.6</ele><time>2026-04-12T10:36:00.656Z</time></trkpt><trkpt lat="40.8826317" lon="16.4902817"><ele>409.4</ele><time>2026-04-12T10:36:01.656Z</time></trkpt><trkpt lat="40.8825817" lon="16.49015"><ele>409.2</ele><time>2026-04-12T10:36:02.657Z</time></trkpt><trkpt lat="40.8825467" lon="16.49002"><ele>409.0</ele><time>2026-04-12T10:36:03.656Z</time></trkpt><trkpt lat="40.8825067" lon="16.4898867"><ele>409.0</ele><time>2026-04-12T10:36:04.656Z</time></trkpt><trkpt lat="40.8824717" lon="16.4897583"><ele>409.0</ele><time>2026-04-12T10:36:05.656Z</time></trkpt><trkpt lat="40.8824367" lon="16.4896467"><ele>409.0</ele><time>2026-04-12T10:36:06.657Z</time></trkpt><trkpt lat="40.8824" lon="16.4895367"><ele>409.0</ele><time>2026-04-12T10:36:07.656Z</time></trkpt><trkpt lat="40.8823683" lon="16.48943"><ele>409.0</ele><time>2026-04-12T10:36:08.656Z</time></trkpt><trkpt lat="40.8823367" lon="16.489325"><ele>409.1666666666667</ele><time>2026-04-12T10:36:09.657Z</time></trkpt><trkpt lat="40.8822967" lon="16.48923"><ele>409.33333333333337</ele><time>2026-04-12T10:36:10.656Z</time></trkpt><trkpt lat="40.88227" lon="16.4891367"><ele>409.5</ele><time>2026-04-12T10:36:11.656Z</time></trkpt><trkpt lat="40.8822417" lon="16.4890317"><ele>409.66666666666663</ele><time>2026-04-12T10:36:12.657Z</time></trkpt><trkpt lat="40.8822083" lon="16.488925"><ele>409.8333333333333</ele><time>2026-04-12T10:36:13.657Z</time></trkpt><trkpt lat="40.88217" lon="16.4888033"><ele>410.0</ele><time>2026-04-12T10:36:14.656Z</time></trkpt><trkpt lat="40.8821317" lon="16.488675"><ele>410.25</ele><time>2026-04-12T10:36:15.657Z</time></trkpt><trkpt lat="40.8820883" lon="16.4885283"><ele>410.5</ele><time>2026-04-12T10:36:16.656Z</time></trkpt><trkpt lat="40.8820383" lon="16.4883717"><ele>410.75</ele><time>2026-04-12T10:36:17.656Z</time></trkpt><trkpt lat="40.8819883" lon="16.4882217"><ele>411.0</ele><time>2026-04-12T10:36:18.656Z</time></trkpt><trkpt lat="40.88194" lon="16.488065"><ele>411.5</ele><time>2026-04-12T10:36:19.656Z</time></trkpt><trkpt lat="40.8818883" lon="16.4879033"><ele>412.0</ele><time>2026-04-12T10:36:20.656Z</time></trkpt><trkpt lat="40.88184" lon="16.487745"><ele>412.5</ele><time>2026-04-12T10:36:21.657Z</time></trkpt><trkpt lat="40.8817967" lon="16.4876017"><ele>413.0</ele><time>2026-04-12T10:36:22.656Z</time></trkpt><trkpt lat="40.8817517" lon="16.4874683"><ele>412.99999999999994</ele><time>2026-04-12T10:36:23.656Z</time></trkpt><trkpt lat="40.8817117" lon="16.48735"><ele>413.0</ele><time>2026-04-12T10:36:24.656Z</time></trkpt><trkpt lat="40.8816817" lon="16.4872567"><ele>413.0</ele><time>2026-04-12T10:36:25.656Z</time></trkpt><trkpt lat="40.8816517" lon="16.4871817"><ele>413.0</ele><time>2026-04-12T10:36:26.656Z</time></trkpt><trkpt lat="40.8815817" lon="16.487095"><ele>412.99999999999994</ele><time>2026-04-12T10:36:28.656Z</time></trkpt><trkpt lat="40.8814833" lon="16.4871067"><ele>413.0</ele><time>2026-04-12T10:36:30.656Z</time></trkpt><trkpt lat="40.8814033" lon="16.487145"><ele>413.0</ele><time>2026-04-12T10:36:31.656Z</time></trkpt><trkpt lat="40.881305" lon="16.487175"><ele>413.0</ele><time>2026-04-12T10:36:32.656Z</time></trkpt><trkpt lat="40.88119" lon="16.4872117"><ele>413.0</ele><time>2026-04-12T10:36:33.657Z</time></trkpt><trkpt lat="40.881065" lon="16.4872383"><ele>413.0</ele><time>2026-04-12T10:36:34.656Z</time></trkpt><trkpt lat="40.88093" lon="16.4872617"><ele>413.5</ele><time>2026-04-12T10:36:35.656Z</time></trkpt><trkpt lat="40.880795" lon="16.48729"><ele>414.0</ele><time>2026-04-12T10:36:36.656Z</time></trkpt><trkpt lat="40.88066" lon="16.487315"><ele>414.5</ele><time>2026-04-12T10:36:37.656Z</time></trkpt><trkpt lat="40.8805233" lon="16.48734"><ele>415.0</ele><time>2026-04-12T10:36:38.656Z</time></trkpt><trkpt lat="40.880385" lon="16.487375"><ele>415.0</ele><time>2026-04-12T10:36:39.657Z</time></trkpt><trkpt lat="40.8802333" lon="16.4874167"><ele>415.0</ele><time>2026-04-12T10:36:40.656Z</time></trkpt><trkpt lat="40.88009" lon="16.4874633"><ele>415.0</ele><time>2026-04-12T10:36:41.657Z</time></trkpt><trkpt lat="40.87993" lon="16.4875333"><ele>415.0</ele><time>2026-04-12T10:36:42.656Z</time></trkpt><trkpt lat="40.8797783" lon="16.487605"><ele>415.0</ele><time>2026-04-12T10:36:43.656Z</time></trkpt><trkpt lat="40.8796283" lon="16.487685"><ele>415.0</ele><time>2026-04-12T10:36:44.656Z</time></trkpt><trkpt lat="40.8794833" lon="16.487755"><ele>415.0</ele><time>2026-04-12T10:36:45.656Z</time></trkpt><trkpt lat="40.8793433" lon="16.4878217"><ele>415.0</ele><time>2026-04-12T10:36:46.657Z</time></trkpt><trkpt lat="40.879205" lon="16.487895"><ele>415.0</ele><time>2026-04-12T10:36:47.657Z</time></trkpt><trkpt lat="40.8790817" lon="16.48797"><ele>415.0</ele><time>2026-04-12T10:36:48.656Z</time></trkpt><trkpt lat="40.87896" lon="16.488055"><ele>415.0</ele><time>2026-04-12T10:36:49.656Z</time></trkpt><trkpt lat="40.8788333" lon="16.4881517"><ele>415.0</ele><time>2026-04-12T10:36:50.656Z</time></trkpt><trkpt lat="40.8787017" lon="16.48826"><ele>415.0</ele><time>2026-04-12T10:36:51.657Z</time></trkpt><trkpt lat="40.87857" lon="16.4883683"><ele>415.0</ele><time>2026-04-12T10:36:52.657Z</time></trkpt><trkpt lat="40.8784433" lon="16.48847"><ele>415.0</ele><time>2026-04-12T10:36:53.657Z</time></trkpt><trkpt lat="40.8783317" lon="16.4885683"><ele>415.0</ele><time>2026-04-12T10:36:54.656Z</time></trkpt><trkpt lat="40.8782283" lon="16.4886617"><ele>415.0</ele><time>2026-04-12T10:36:55.657Z</time></trkpt><trkpt lat="40.8781267" lon="16.4887417"><ele>414.6</ele><time>2026-04-12T10:36:56.656Z</time></trkpt><trkpt lat="40.878025" lon="16.4888183"><ele>414.2</ele><time>2026-04-12T10:36:57.657Z</time></trkpt><trkpt lat="40.877935" lon="16.488885"><ele>413.79999999999995</ele><time>2026-04-12T10:36:58.656Z</time></trkpt><trkpt lat="40.87785" lon="16.488945"><ele>413.4</ele><time>2026-04-12T10:36:59.656Z</time></trkpt><trkpt lat="40.877765" lon="16.4889917"><ele>413.0</ele><time>2026-04-12T10:37:00.656Z</time></trkpt><trkpt lat="40.8776783" lon="16.489035"><ele>412.75</ele><time>2026-04-12T10:37:01.656Z</time></trkpt><trkpt lat="40.8775817" lon="16.48905"><ele>412.5</ele><time>2026-04-12T10:37:02.656Z</time></trkpt><trkpt lat="40.8774717" lon="16.48905"><ele>412.25</ele><time>2026-04-12T10:37:03.656Z</time></trkpt><trkpt lat="40.8773517" lon="16.4890483"><ele>412.0</ele><time>2026-04-12T10:37:04.657Z</time></trkpt><trkpt lat="40.8772283" lon="16.4890317"><ele>412.0</ele><time>2026-04-12T10:37:05.656Z</time></trkpt><trkpt lat="40.877095" lon="16.489005"><ele>412.0</ele><time>2026-04-12T10:37:06.656Z</time></trkpt><trkpt lat="40.8769633" lon="16.48898"><ele>412.0</ele><time>2026-04-12T10:37:07.656Z</time></trkpt><trkpt lat="40.87683" lon="16.488945"><ele>412.0</ele><time>2026-04-12T10:37:08.656Z</time></trkpt><trkpt lat="40.876695" lon="16.4889067"><ele>412.0</ele><time>2026-04-12T10:37:09.657Z</time></trkpt><trkpt lat="40.8765633" lon="16.48887"><ele>412.0</ele><time>2026-04-12T10:37:10.657Z</time></trkpt><trkpt lat="40.8764383" lon="16.48883"><ele>412.0</ele><time>2026-04-12T10:37:11.657Z</time></trkpt><trkpt lat="40.8763233" lon="16.4888083"><ele>412.0</ele><time>2026-04-12T10:37:12.656Z</time></trkpt><trkpt lat="40.8762233" lon="16.48879"><ele>412.0</ele><time>2026-04-12T10:37:13.656Z</time></trkpt><trkpt lat="40.876125" lon="16.4887633"><ele>412.0</ele><time>2026-04-12T10:37:14.656Z</time></trkpt><trkpt lat="40.8760383" lon="16.4887317"><ele>412.0</ele><time>2026-04-12T10:37:15.657Z</time></trkpt><trkpt lat="40.875955" lon="16.4886933"><ele>412.0</ele><time>2026-04-12T10:37:16.656Z</time></trkpt><trkpt lat="40.8758683" lon="16.4886567"><ele>412.0</ele><time>2026-04-12T10:37:17.656Z</time></trkpt><trkpt lat="40.8757733" lon="16.48862"><ele>411.33333333333337</ele><time>2026-04-12T10:37:18.656Z</time></trkpt><trkpt lat="40.87568" lon="16.48859"><ele>410.6666666666667</ele><time>2026-04-12T10:37:19.657Z</time></trkpt><trkpt lat="40.8755983" lon="16.488565"><ele>410.0</ele><time>2026-04-12T10:37:20.656Z</time></trkpt><trkpt lat="40.8755217" lon="16.48853"><ele>409.33333333333337</ele><time>2026-04-12T10:37:21.656Z</time></trkpt><trkpt lat="40.8754417" lon="16.4884817"><ele>408.6666666666667</ele><time>2026-04-12T10:37:22.656Z</time></trkpt><trkpt lat="40.8753567" lon="16.4884167"><ele>408.0</ele><time>2026-04-12T10:37:23.656Z</time></trkpt><trkpt lat="40.8752617" lon="16.48835"><ele>408.0</ele><time>2026-04-12T10:37:24.656Z</time></trkpt><trkpt lat="40.87515" lon="16.48828"><ele>408.0</ele><time>2026-04-12T10:37:25.657Z</time></trkpt><trkpt lat="40.8750317" lon="16.488205"><ele>408.0</ele><time>2026-04-12T10:37:26.656Z</time></trkpt><trkpt lat="40.8749167" lon="16.4881317"><ele>408.0</ele><time>2026-04-12T10:37:27.656Z</time></trkpt><trkpt lat="40.8748067" lon="16.4880517"><ele>407.5</ele><time>2026-04-12T10:37:28.656Z</time></trkpt><trkpt lat="40.8747067" lon="16.48797"><ele>407.0</ele><time>2026-04-12T10:37:29.656Z</time></trkpt><trkpt lat="40.8746183" lon="16.4878817"><ele>406.5</ele><time>2026-04-12T10:37:30.656Z</time></trkpt><trkpt lat="40.874535" lon="16.48779"><ele>406.0</ele><time>2026-04-12T10:37:31.656Z</time></trkpt><trkpt lat="40.8744367" lon="16.48769"><ele>406.0</ele><time>2026-04-12T10:37:32.656Z</time></trkpt><trkpt lat="40.8743467" lon="16.4876"><ele>406.0</ele><time>2026-04-12T10:37:33.656Z</time></trkpt><trkpt lat="40.8742633" lon="16.4875267"><ele>406.0</ele><time>2026-04-12T10:37:34.656Z</time></trkpt><trkpt lat="40.874205" lon="16.487465"><ele>406.0</ele><time>2026-04-12T10:37:35.656Z</time></trkpt><trkpt lat="40.8741267" lon="16.48737"><ele>406.0</ele><time>2026-04-12T10:37:37.656Z</time></trkpt><trkpt lat="40.874125" lon="16.4872033"><ele>405.4</ele><time>2026-04-12T10:37:39.657Z</time></trkpt><trkpt lat="40.8741467" lon="16.487095"><ele>404.8</ele><time>2026-04-12T10:37:40.657Z</time></trkpt><trkpt lat="40.8741683" lon="16.4869483"><ele>404.2</ele><time>2026-04-12T10:37:41.657Z</time></trkpt><trkpt lat="40.8741883" lon="16.486795"><ele>403.59999999999997</ele><time>2026-04-12T10:37:42.656Z</time></trkpt><trkpt lat="40.8742067" lon="16.4866417"><ele>403.0</ele><time>2026-04-12T10:37:43.657Z</time></trkpt><trkpt lat="40.8742233" lon="16.4865"><ele>403.0</ele><time>2026-04-12T10:37:44.657Z</time></trkpt><trkpt lat="40.8742433" lon="16.4863683"><ele>403.0</ele><time>2026-04-12T10:37:45.656Z</time></trkpt><trkpt lat="40.8742767" lon="16.4862517"><ele>403.0</ele><time>2026-04-12T10:37:46.657Z</time></trkpt><trkpt lat="40.874325" lon="16.486135"><ele>403.0</ele><time>2026-04-12T10:37:47.657Z</time></trkpt><trkpt lat="40.874375" lon="16.4860133"><ele>403.0</ele><time>2026-04-12T10:37:48.657Z</time></trkpt><trkpt lat="40.874425" lon="16.4859067"><ele>403.6666666666667</ele><time>2026-04-12T10:37:49.656Z</time></trkpt><trkpt lat="40.8744767" lon="16.4858117"><ele>404.33333333333337</ele><time>2026-04-12T10:37:50.656Z</time></trkpt><trkpt lat="40.8745233" lon="16.4857183"><ele>405.0</ele><time>2026-04-12T10:37:51.657Z</time></trkpt><trkpt lat="40.874575" lon="16.485615"><ele>405.66666666666663</ele><time>2026-04-12T10:37:52.656Z</time></trkpt><trkpt lat="40.8746117" lon="16.4855133"><ele>406.3333333333333</ele><time>2026-04-12T10:37:53.656Z</time></trkpt><trkpt lat="40.87465" lon="16.4854183"><ele>407.0</ele><time>2026-04-12T10:37:54.656Z</time></trkpt><trkpt lat="40.8746933" lon="16.4853217"><ele>407.16666666666663</ele><time>2026-04-12T10:37:55.657Z</time></trkpt><trkpt lat="40.87474" lon="16.4852183"><ele>407.3333333333333</ele><time>2026-04-12T10:37:56.656Z</time></trkpt><trkpt lat="40.874785" lon="16.48512"><ele>407.5</ele><time>2026-04-12T10:37:57.656Z</time></trkpt><trkpt lat="40.8748167" lon="16.4850167"><ele>407.66666666666663</ele><time>2026-04-12T10:37:58.657Z</time></trkpt><trkpt lat="40.87485" lon="16.484925"><ele>407.8333333333333</ele><time>2026-04-12T10:37:59.657Z</time></trkpt><trkpt lat="40.8748833" lon="16.4848467"><ele>408.0</ele><time>2026-04-12T10:38:00.656Z</time></trkpt><trkpt lat="40.87492" lon="16.4847767"><ele>408.0</ele><time>2026-04-12T10:38:01.656Z</time></trkpt><trkpt lat="40.8749783" lon="16.4846483"><ele>408.0</ele><time>2026-04-12T10:38:03.656Z</time></trkpt><trkpt lat="40.8750367" lon="16.4845417"><ele>408.0</ele><time>2026-04-12T10:38:05.656Z</time></trkpt><trkpt lat="40.8750683" lon="16.484445"><ele>408.0</ele><time>2026-04-12T10:38:07.657Z</time></trkpt><trkpt lat="40.875095" lon="16.4843167"><ele>408.0</ele><time>2026-04-12T10:38:09.657Z</time></trkpt><trkpt lat="40.8751167" lon="16.4842017"><ele>408.0</ele><time>2026-04-12T10:38:11.657Z</time></trkpt><trkpt lat="40.8751183" lon="16.4840667"><ele>408.0</ele><time>2026-04-12T10:38:13.657Z</time></trkpt><trkpt lat="40.8751067" lon="16.4839717"><ele>408.0</ele><time>2026-04-12T10:38:14.657Z</time></trkpt><trkpt lat="40.8750867" lon="16.4838583"><ele>408.0</ele><time>2026-04-12T10:38:15.658Z</time></trkpt><trkpt lat="40.8750683" lon="16.48373"><ele>408.0</ele><time>2026-04-12T10:38:16.657Z</time></trkpt><trkpt lat="40.8750483" lon="16.4835967"><ele>407.75</ele><time>2026-04-12T10:38:17.657Z</time></trkpt><trkpt lat="40.8750167" lon="16.4834533"><ele>407.5</ele><time>2026-04-12T10:38:18.658Z</time></trkpt><trkpt lat="40.8749833" lon="16.4833117"><ele>407.25</ele><time>2026-04-12T10:38:19.657Z</time></trkpt><trkpt lat="40.87495" lon="16.4831633"><ele>407.0</ele><time>2026-04-12T10:38:20.658Z</time></trkpt><trkpt lat="40.874915" lon="16.4830217"><ele>406.75</ele><time>2026-04-12T10:38:21.657Z</time></trkpt><trkpt lat="40.87488" lon="16.4828717"><ele>406.5</ele><time>2026-04-12T10:38:22.657Z</time></trkpt><trkpt lat="40.8748433" lon="16.4827183"><ele>406.25</ele><time>2026-04-12T10:38:23.658Z</time></trkpt><trkpt lat="40.8748083" lon="16.4825567"><ele>406.0</ele><time>2026-04-12T10:38:24.657Z</time></trkpt><trkpt lat="40.8747817" lon="16.4823867"><ele>406.0</ele><time>2026-04-12T10:38:25.658Z</time></trkpt><trkpt lat="40.87476" lon="16.482215"><ele>406.0</ele><time>2026-04-12T10:38:26.658Z</time></trkpt><trkpt lat="40.8747367" lon="16.4820517"><ele>406.0</ele><time>2026-04-12T10:38:27.657Z</time></trkpt><trkpt lat="40.87472" lon="16.4818767"><ele>406.0</ele><time>2026-04-12T10:38:28.657Z</time></trkpt><trkpt lat="40.8747067" lon="16.4817067"><ele>406.25</ele><time>2026-04-12T10:38:29.658Z</time></trkpt><trkpt lat="40.874695" lon="16.48154"><ele>406.5</ele><time>2026-04-12T10:38:30.657Z</time></trkpt><trkpt lat="40.87468" lon="16.4813783"><ele>406.75</ele><time>2026-04-12T10:38:31.657Z</time></trkpt><trkpt lat="40.8746633" lon="16.4812383"><ele>407.0</ele><time>2026-04-12T10:38:32.657Z</time></trkpt><trkpt lat="40.8746433" lon="16.4811017"><ele>407.20000000000005</ele><time>2026-04-12T10:38:33.657Z</time></trkpt><trkpt lat="40.8746317" lon="16.4809833"><ele>407.4</ele><time>2026-04-12T10:38:34.657Z</time></trkpt><trkpt lat="40.87462" lon="16.4808683"><ele>407.6</ele><time>2026-04-12T10:38:35.657Z</time></trkpt><trkpt lat="40.8746217" lon="16.4807483"><ele>407.79999999999995</ele><time>2026-04-12T10:38:36.658Z</time></trkpt><trkpt lat="40.8746383" lon="16.4806183"><ele>408.0</ele><time>2026-04-12T10:38:37.658Z</time></trkpt><trkpt lat="40.87466" lon="16.4804817"><ele>408.5</ele><time>2026-04-12T10:38:38.657Z</time></trkpt><trkpt lat="40.874685" lon="16.4803383"><ele>409.0</ele><time>2026-04-12T10:38:39.658Z</time></trkpt><trkpt lat="40.8747067" lon="16.48019"><ele>409.5</ele><time>2026-04-12T10:38:40.658Z</time></trkpt><trkpt lat="40.8747333" lon="16.48004"><ele>410.0</ele><time>2026-04-12T10:38:41.657Z</time></trkpt><trkpt lat="40.87477" lon="16.4798867"><ele>410.0</ele><time>2026-04-12T10:38:42.657Z</time></trkpt><trkpt lat="40.8747933" lon="16.479745"><ele>410.0</ele><time>2026-04-12T10:38:43.657Z</time></trkpt><trkpt lat="40.874815" lon="16.4796133"><ele>410.0</ele><time>2026-04-12T10:38:44.657Z</time></trkpt><trkpt lat="40.8748333" lon="16.479465"><ele>410.0</ele><time>2026-04-12T10:38:45.658Z</time></trkpt><trkpt lat="40.87486" lon="16.4793217"><ele>410.0</ele><time>2026-04-12T10:38:46.658Z</time></trkpt><trkpt lat="40.8748867" lon="16.4791733"><ele>410.5</ele><time>2026-04-12T10:38:47.658Z</time></trkpt><trkpt lat="40.87491" lon="16.4790133"><ele>411.0</ele><time>2026-04-12T10:38:48.657Z</time></trkpt><trkpt lat="40.87493" lon="16.4788667"><ele>411.5</ele><time>2026-04-12T10:38:49.657Z</time></trkpt><trkpt lat="40.8749533" lon="16.4787233"><ele>412.0</ele><time>2026-04-12T10:38:50.657Z</time></trkpt><trkpt lat="40.87497" lon="16.4785867"><ele>412.25</ele><time>2026-04-12T10:38:51.658Z</time></trkpt><trkpt lat="40.8749917" lon="16.4784383"><ele>412.5</ele><time>2026-04-12T10:38:52.657Z</time></trkpt><trkpt lat="40.875015" lon="16.4782933"><ele>412.75</ele><time>2026-04-12T10:38:53.657Z</time></trkpt><trkpt lat="40.8750467" lon="16.4781417"><ele>413.0</ele><time>2026-04-12T10:38:54.658Z</time></trkpt><trkpt lat="40.8750783" lon="16.47799"><ele>413.0</ele><time>2026-04-12T10:38:55.657Z</time></trkpt><trkpt lat="40.875105" lon="16.477855"><ele>413.0</ele><time>2026-04-12T10:38:56.657Z</time></trkpt><trkpt lat="40.8751233" lon="16.4777333"><ele>413.0</ele><time>2026-04-12T10:38:57.657Z</time></trkpt><trkpt lat="40.875115" lon="16.477625"><ele>413.0</ele><time>2026-04-12T10:38:58.657Z</time></trkpt><trkpt lat="40.8750967" lon="16.4775"><ele>413.0</ele><time>2026-04-12T10:38:59.657Z</time></trkpt><trkpt lat="40.8750883" lon="16.4773583"><ele>413.0</ele><time>2026-04-12T10:39:00.657Z</time></trkpt><trkpt lat="40.8750633" lon="16.477205"><ele>413.0</ele><time>2026-04-12T10:39:01.657Z</time></trkpt><trkpt lat="40.875045" lon="16.4770467"><ele>413.0</ele><time>2026-04-12T10:39:02.657Z</time></trkpt><trkpt lat="40.8750283" lon="16.476885"><ele>413.0</ele><time>2026-04-12T10:39:03.658Z</time></trkpt><trkpt lat="40.87501" lon="16.4767133"><ele>412.75</ele><time>2026-04-12T10:39:04.657Z</time></trkpt><trkpt lat="40.8749967" lon="16.476545"><ele>412.5</ele><time>2026-04-12T10:39:05.657Z</time></trkpt><trkpt lat="40.8749733" lon="16.4763817"><ele>412.25</ele><time>2026-04-12T10:39:06.657Z</time></trkpt><trkpt lat="40.874955" lon="16.4762183"><ele>412.0</ele><time>2026-04-12T10:39:07.657Z</time></trkpt><trkpt lat="40.8749467" lon="16.4760633"><ele>412.40000000000003</ele><time>2026-04-12T10:39:08.657Z</time></trkpt><trkpt lat="40.874935" lon="16.4759233"><ele>412.8</ele><time>2026-04-12T10:39:09.657Z</time></trkpt><trkpt lat="40.8749217" lon="16.4758117"><ele>413.2</ele><time>2026-04-12T10:39:10.657Z</time></trkpt><trkpt lat="40.8749117" lon="16.4757217"><ele>413.6</ele><time>2026-04-12T10:39:11.657Z</time></trkpt><trkpt lat="40.87486" lon="16.475585"><ele>414.0</ele><time>2026-04-12T10:39:13.657Z</time></trkpt><trkpt lat="40.87475" lon="16.4754683"><ele>414.2</ele><time>2026-04-12T10:39:15.657Z</time></trkpt><trkpt lat="40.874685" lon="16.4753783"><ele>414.4</ele><time>2026-04-12T10:39:16.657Z</time></trkpt><trkpt lat="40.8746217" lon="16.4752667"><ele>414.6</ele><time>2026-04-12T10:39:17.657Z</time></trkpt><trkpt lat="40.8745583" lon="16.4751583"><ele>414.8</ele><time>2026-04-12T10:39:18.658Z</time></trkpt><trkpt lat="40.874495" lon="16.4750617"><ele>415.0</ele><time>2026-04-12T10:39:19.658Z</time></trkpt><trkpt lat="40.8744367" lon="16.474985"><ele>415.00000000000006</ele><time>2026-04-12T10:39:20.657Z</time></trkpt><trkpt lat="40.8743867" lon="16.4749217"><ele>415.0</ele><time>2026-04-12T10:39:21.657Z</time></trkpt><trkpt lat="40.874305" lon="16.4748383"><ele>415.0</ele><time>2026-04-12T10:39:23.657Z</time></trkpt><trkpt lat="40.8742583" lon="16.474725"><ele>415.0</ele><time>2026-04-12T10:39:43.657Z</time></trkpt><trkpt lat="40.8742567" lon="16.4746317"><ele>415.00000000000006</ele><time>2026-04-12T10:39:45.658Z</time></trkpt><trkpt lat="40.8742867" lon="16.4745317"><ele>415.0</ele><time>2026-04-12T10:39:47.657Z</time></trkpt><trkpt lat="40.8743283" lon="16.4743983"><ele>415.0</ele><time>2026-04-12T10:39:49.657Z</time></trkpt><trkpt lat="40.87432" lon="16.4742333"><ele>415.0</ele><time>2026-04-12T10:39:51.658Z</time></trkpt><trkpt lat="40.874275" lon="16.4741233"><ele>415.0</ele><time>2026-04-12T10:39:52.657Z</time></trkpt><trkpt lat="40.8742267" lon="16.474005"><ele>415.0</ele><time>2026-04-12T10:39:53.658Z</time></trkpt><trkpt lat="40.8741883" lon="16.4738817"><ele>415.0</ele><time>2026-04-12T10:39:54.658Z</time></trkpt><trkpt lat="40.87414" lon="16.4737567"><ele>414.5</ele><time>2026-04-12T10:39:55.657Z</time></trkpt><trkpt lat="40.8740917" lon="16.4736267"><ele>414.0</ele><time>2026-04-12T10:39:56.657Z</time></trkpt><trkpt lat="40.874035" lon="16.4734867"><ele>413.5</ele><time>2026-04-12T10:39:57.657Z</time></trkpt><trkpt lat="40.87398" lon="16.4733333"><ele>413.0</ele><time>2026-04-12T10:39:58.657Z</time></trkpt><trkpt lat="40.8739183" lon="16.47317"><ele>413.0</ele><time>2026-04-12T10:39:59.657Z</time></trkpt><trkpt lat="40.873855" lon="16.473"><ele>413.0</ele><time>2026-04-12T10:40:00.658Z</time></trkpt><trkpt lat="40.8737833" lon="16.4728367"><ele>413.0</ele><time>2026-04-12T10:40:01.657Z</time></trkpt><trkpt lat="40.8737117" lon="16.472665"><ele>413.0</ele><time>2026-04-12T10:40:02.657Z</time></trkpt><trkpt lat="40.873645" lon="16.4724833"><ele>414.0</ele><time>2026-04-12T10:40:03.657Z</time></trkpt><trkpt lat="40.87357" lon="16.4723017"><ele>415.0</ele><time>2026-04-12T10:40:04.658Z</time></trkpt><trkpt lat="40.87349" lon="16.4721183"><ele>416.0</ele><time>2026-04-12T10:40:05.658Z</time></trkpt><trkpt lat="40.8734083" lon="16.471935"><ele>416.3333333333333</ele><time>2026-04-12T10:40:06.657Z</time></trkpt><trkpt lat="40.8733333" lon="16.4717517"><ele>416.66666666666663</ele><time>2026-04-12T10:40:07.657Z</time></trkpt><trkpt lat="40.873255" lon="16.4715717"><ele>417.0</ele><time>2026-04-12T10:40:08.657Z</time></trkpt><trkpt lat="40.873185" lon="16.471405"><ele>417.75</ele><time>2026-04-12T10:40:09.657Z</time></trkpt><trkpt lat="40.87312" lon="16.47125"><ele>418.5</ele><time>2026-04-12T10:40:10.658Z</time></trkpt><trkpt lat="40.8730567" lon="16.4711083"><ele>419.25</ele><time>2026-04-12T10:40:11.658Z</time></trkpt><trkpt lat="40.87299" lon="16.470985"><ele>420.0</ele><time>2026-04-12T10:40:12.657Z</time></trkpt><trkpt lat="40.872925" lon="16.4708733"><ele>420.0</ele><time>2026-04-12T10:40:13.658Z</time></trkpt><trkpt lat="40.872865" lon="16.4707717"><ele>420.0</ele><time>2026-04-12T10:40:14.657Z</time></trkpt><trkpt lat="40.8728133" lon="16.4706767"><ele>420.0</ele><time>2026-04-12T10:40:15.657Z</time></trkpt><trkpt lat="40.872755" lon="16.470585"><ele>420.0</ele><time>2026-04-12T10:40:16.657Z</time></trkpt><trkpt lat="40.8726983" lon="16.47049"><ele>420.0</ele><time>2026-04-12T10:40:17.658Z</time></trkpt><trkpt lat="40.8726483" lon="16.4703883"><ele>419.8333333333333</ele><time>2026-04-12T10:40:18.657Z</time></trkpt><trkpt lat="40.8726017" lon="16.4702817"><ele>419.66666666666663</ele><time>2026-04-12T10:40:19.657Z</time></trkpt><trkpt lat="40.8725583" lon="16.4701667"><ele>419.5</ele><time>2026-04-12T10:40:20.657Z</time></trkpt><trkpt lat="40.872525" lon="16.4700517"><ele>419.3333333333333</ele><time>2026-04-12T10:40:21.657Z</time></trkpt><trkpt lat="40.8725017" lon="16.4699533"><ele>419.16666666666663</ele><time>2026-04-12T10:40:22.657Z</time></trkpt><trkpt lat="40.872475" lon="16.4698533"><ele>419.0</ele><time>2026-04-12T10:40:23.657Z</time></trkpt><trkpt lat="40.8724483" lon="16.4697667"><ele>419.0</ele><time>2026-04-12T10:40:24.657Z</time></trkpt><trkpt lat="40.8724067" lon="16.469675"><ele>419.0</ele><time>2026-04-12T10:40:25.658Z</time></trkpt><trkpt lat="40.8723483" lon="16.469585"><ele>419.0</ele><time>2026-04-12T10:40:26.657Z</time></trkpt><trkpt lat="40.87227" lon="16.469495"><ele>419.0</ele><time>2026-04-12T10:40:27.657Z</time></trkpt><trkpt lat="40.8721767" lon="16.4694233"><ele>419.0</ele><time>2026-04-12T10:40:28.658Z</time></trkpt><trkpt lat="40.8720583" lon="16.4693467"><ele>418.5</ele><time>2026-04-12T10:40:29.657Z</time></trkpt><trkpt lat="40.8719383" lon="16.4692817"><ele>418.0</ele><time>2026-04-12T10:40:30.657Z</time></trkpt><trkpt lat="40.8718067" lon="16.4692333"><ele>417.5</ele><time>2026-04-12T10:40:31.657Z</time></trkpt><trkpt lat="40.8716817" lon="16.4692117"><ele>417.0</ele><time>2026-04-12T10:40:32.657Z</time></trkpt><trkpt lat="40.8715717" lon="16.469205"><ele>416.40000000000003</ele><time>2026-04-12T10:40:33.657Z</time></trkpt><trkpt lat="40.8714683" lon="16.4691783"><ele>415.8</ele><time>2026-04-12T10:40:34.657Z</time></trkpt><trkpt lat="40.8713617" lon="16.469135"><ele>415.2</ele><time>2026-04-12T10:40:35.657Z</time></trkpt><trkpt lat="40.8712583" lon="16.4690783"><ele>414.6</ele><time>2026-04-12T10:40:36.657Z</time></trkpt><trkpt lat="40.8711617" lon="16.4690067"><ele>414.0</ele><time>2026-04-12T10:40:37.658Z</time></trkpt><trkpt lat="40.87108" lon="16.46893"><ele>414.0</ele><time>2026-04-12T10:40:38.657Z</time></trkpt><trkpt lat="40.8710117" lon="16.4688317"><ele>414.0</ele><time>2026-04-12T10:40:39.657Z</time></trkpt><trkpt lat="40.8709633" lon="16.4687067"><ele>414.0</ele><time>2026-04-12T10:40:40.657Z</time></trkpt><trkpt lat="40.8709217" lon="16.46856"><ele>414.0</ele><time>2026-04-12T10:40:41.657Z</time></trkpt><trkpt lat="40.870875" lon="16.46841"><ele>414.0</ele><time>2026-04-12T10:40:42.657Z</time></trkpt><trkpt lat="40.8708333" lon="16.4682567"><ele>414.0</ele><time>2026-04-12T10:40:43.657Z</time></trkpt><trkpt lat="40.870785" lon="16.4681"><ele>414.0</ele><time>2026-04-12T10:40:44.657Z</time></trkpt><trkpt lat="40.870735" lon="16.4679283"><ele>414.0</ele><time>2026-04-12T10:40:45.657Z</time></trkpt><trkpt lat="40.8706767" lon="16.4677517"><ele>414.0</ele><time>2026-04-12T10:40:46.657Z</time></trkpt><trkpt lat="40.8706283" lon="16.467575"><ele>414.0</ele><time>2026-04-12T10:40:47.658Z</time></trkpt><trkpt lat="40.8705817" lon="16.467405"><ele>414.0</ele><time>2026-04-12T10:40:48.657Z</time></trkpt><trkpt lat="40.8705333" lon="16.4672267"><ele>414.0</ele><time>2026-04-12T10:40:49.657Z</time></trkpt><trkpt lat="40.8704783" lon="16.467055"><ele>414.0</ele><time>2026-04-12T10:40:50.657Z</time></trkpt><trkpt lat="40.870425" lon="16.4668867"><ele>413.5</ele><time>2026-04-12T10:40:51.658Z</time></trkpt><trkpt lat="40.8703717" lon="16.4667317"><ele>413.0</ele><time>2026-04-12T10:40:52.657Z</time></trkpt><trkpt lat="40.8703033" lon="16.4665667"><ele>412.5</ele><time>2026-04-12T10:40:53.657Z</time></trkpt><trkpt lat="40.8702517" lon="16.4664083"><ele>412.0</ele><time>2026-04-12T10:40:54.657Z</time></trkpt><trkpt lat="40.8701833" lon="16.4662533"><ele>412.0</ele><time>2026-04-12T10:40:55.658Z</time></trkpt><trkpt lat="40.87013" lon="16.4661017"><ele>412.0</ele><time>2026-04-12T10:40:56.657Z</time></trkpt><trkpt lat="40.87009" lon="16.4659533"><ele>412.0</ele><time>2026-04-12T10:40:57.657Z</time></trkpt><trkpt lat="40.87007" lon="16.46581"><ele>412.0</ele><time>2026-04-12T10:40:58.657Z</time></trkpt><trkpt lat="40.8700683" lon="16.4656683"><ele>412.0</ele><time>2026-04-12T10:40:59.658Z</time></trkpt><trkpt lat="40.8700783" lon="16.4655067"><ele>412.0</ele><time>2026-04-12T10:41:00.657Z</time></trkpt><trkpt lat="40.8700983" lon="16.46534"><ele>412.0</ele><time>2026-04-12T10:41:01.657Z</time></trkpt><trkpt lat="40.87012" lon="16.4651717"><ele>412.0</ele><time>2026-04-12T10:41:02.657Z</time></trkpt><trkpt lat="40.8701483" lon="16.4649967"><ele>412.25</ele><time>2026-04-12T10:41:03.658Z</time></trkpt><trkpt lat="40.8701717" lon="16.4648217"><ele>412.5</ele><time>2026-04-12T10:41:04.658Z</time></trkpt><trkpt lat="40.8702033" lon="16.4646417"><ele>412.75</ele><time>2026-04-12T10:41:05.658Z</time></trkpt><trkpt lat="40.8702217" lon="16.4644583"><ele>413.0</ele><time>2026-04-12T10:41:06.657Z</time></trkpt><trkpt lat="40.8702383" lon="16.4642633"><ele>413.3333333333333</ele><time>2026-04-12T10:41:07.657Z</time></trkpt><trkpt lat="40.8702667" lon="16.4640717"><ele>413.66666666666663</ele><time>2026-04-12T10:41:08.658Z</time></trkpt><trkpt lat="40.8702817" lon="16.4638667"><ele>414.0</ele><time>2026-04-12T10:41:09.657Z</time></trkpt><trkpt lat="40.8703017" lon="16.4636633"><ele>414.66666666666663</ele><time>2026-04-12T10:41:10.657Z</time></trkpt><trkpt lat="40.8703017" lon="16.463455"><ele>415.3333333333333</ele><time>2026-04-12T10:41:11.658Z</time></trkpt><trkpt lat="40.870295" lon="16.46324"><ele>416.0</ele><time>2026-04-12T10:41:12.657Z</time></trkpt><trkpt lat="40.8702717" lon="16.4630333"><ele>417.0</ele><time>2026-04-12T10:41:13.657Z</time></trkpt><trkpt lat="40.8702583" lon="16.4628283"><ele>418.0</ele><time>2026-04-12T10:41:14.657Z</time></trkpt><trkpt lat="40.8702417" lon="16.4626317"><ele>419.0</ele><time>2026-04-12T10:41:15.657Z</time></trkpt><trkpt lat="40.8702217" lon="16.4624333"><ele>419.0</ele><time>2026-04-12T10:41:16.658Z</time></trkpt><trkpt lat="40.8702017" lon="16.4622417"><ele>419.0</ele><time>2026-04-12T10:41:17.657Z</time></trkpt><trkpt lat="40.8701983" lon="16.4620617"><ele>419.0</ele><time>2026-04-12T10:41:18.657Z</time></trkpt><trkpt lat="40.870195" lon="16.4619"><ele>419.0</ele><time>2026-04-12T10:41:19.657Z</time></trkpt><trkpt lat="40.8701867" lon="16.4617467"><ele>419.66666666666663</ele><time>2026-04-12T10:41:20.657Z</time></trkpt><trkpt lat="40.8701767" lon="16.461605"><ele>420.3333333333333</ele><time>2026-04-12T10:41:21.657Z</time></trkpt><trkpt lat="40.870165" lon="16.4614817"><ele>421.0</ele><time>2026-04-12T10:41:22.657Z</time></trkpt><trkpt lat="40.87015" lon="16.4613667"><ele>421.66666666666663</ele><time>2026-04-12T10:41:23.657Z</time></trkpt><trkpt lat="40.8701217" lon="16.4612583"><ele>422.3333333333333</ele><time>2026-04-12T10:41:24.657Z</time></trkpt><trkpt lat="40.8700817" lon="16.46118"><ele>423.0</ele><time>2026-04-12T10:41:25.658Z</time></trkpt><trkpt lat="40.8700283" lon="16.4611233"><ele>423.0</ele><time>2026-04-12T10:41:26.657Z</time></trkpt><trkpt lat="40.8699717" lon="16.4610817"><ele>423.0</ele><time>2026-04-12T10:41:27.657Z</time></trkpt><trkpt lat="40.8698933" lon="16.4610383"><ele>423.0</ele><time>2026-04-12T10:41:28.658Z</time></trkpt><trkpt lat="40.8698" lon="16.4610033"><ele>423.0</ele><time>2026-04-12T10:41:29.657Z</time></trkpt><trkpt lat="40.8696917" lon="16.4609867"><ele>423.0</ele><time>2026-04-12T10:41:30.658Z</time></trkpt><trkpt lat="40.8695717" lon="16.4609883"><ele>423.0</ele><time>2026-04-12T10:41:31.658Z</time></trkpt><trkpt lat="40.869455" lon="16.461005"><ele>423.0</ele><time>2026-04-12T10:41:32.658Z</time></trkpt><trkpt lat="40.8693317" lon="16.4610183"><ele>423.0</ele><time>2026-04-12T10:41:33.658Z</time></trkpt><trkpt lat="40.8692183" lon="16.461035"><ele>423.0</ele><time>2026-04-12T10:41:34.657Z</time></trkpt><trkpt lat="40.869105" lon="16.46106"><ele>422.25</ele><time>2026-04-12T10:41:35.657Z</time></trkpt><trkpt lat="40.8689733" lon="16.4611"><ele>421.5</ele><time>2026-04-12T10:41:36.657Z</time></trkpt><trkpt lat="40.86884" lon="16.4611517"><ele>420.75</ele><time>2026-04-12T10:41:37.657Z</time></trkpt><trkpt lat="40.8686967" lon="16.4612167"><ele>420.0</ele><time>2026-04-12T10:41:38.658Z</time></trkpt><trkpt lat="40.868555" lon="16.4612683"><ele>418.66666666666663</ele><time>2026-04-12T10:41:39.657Z</time></trkpt><trkpt lat="40.868405" lon="16.4613333"><ele>417.3333333333333</ele><time>2026-04-12T10:41:40.658Z</time></trkpt><trkpt lat="40.868255" lon="16.4613917"><ele>416.0</ele><time>2026-04-12T10:41:41.658Z</time></trkpt><trkpt lat="40.8681067" lon="16.461455"><ele>416.0</ele><time>2026-04-12T10:41:42.657Z</time></trkpt><trkpt lat="40.8679583" lon="16.4615183"><ele>416.0</ele><time>2026-04-12T10:41:43.657Z</time></trkpt><trkpt lat="40.8678083" lon="16.461585"><ele>416.0</ele><time>2026-04-12T10:41:44.657Z</time></trkpt><trkpt lat="40.8676533" lon="16.4616417"><ele>415.3333333333333</ele><time>2026-04-12T10:41:45.657Z</time></trkpt><trkpt lat="40.8674983" lon="16.4617083"><ele>414.66666666666663</ele><time>2026-04-12T10:41:46.657Z</time></trkpt><trkpt lat="40.8673317" lon="16.4617733"><ele>414.0</ele><time>2026-04-12T10:41:47.658Z</time></trkpt><trkpt lat="40.86717" lon="16.4618417"><ele>414.0</ele><time>2026-04-12T10:41:48.658Z</time></trkpt><trkpt lat="40.8670367" lon="16.46189"><ele>414.0</ele><time>2026-04-12T10:41:49.657Z</time></trkpt><trkpt lat="40.8669017" lon="16.4619433"><ele>414.0</ele><time>2026-04-12T10:41:50.658Z</time></trkpt><trkpt lat="40.866765" lon="16.4620033"><ele>414.0</ele><time>2026-04-12T10:41:51.658Z</time></trkpt><trkpt lat="40.8666333" lon="16.4620683"><ele>413.4</ele><time>2026-04-12T10:41:52.657Z</time></trkpt><trkpt lat="40.8665117" lon="16.4621233"><ele>412.79999999999995</ele><time>2026-04-12T10:41:53.658Z</time></trkpt><trkpt lat="40.8663917" lon="16.4621717"><ele>412.20000000000005</ele><time>2026-04-12T10:41:54.657Z</time></trkpt><trkpt lat="40.8662883" lon="16.4622083"><ele>411.6</ele><time>2026-04-12T10:41:55.657Z</time></trkpt><trkpt lat="40.8662083" lon="16.46225"><ele>411.0</ele><time>2026-04-12T10:41:56.657Z</time></trkpt><trkpt lat="40.866135" lon="16.462255"><ele>411.0</ele><time>2026-04-12T10:41:58.657Z</time></trkpt><trkpt lat="40.8661383" lon="16.4621483"><ele>411.0</ele><time>2026-04-12T10:42:01.657Z</time></trkpt><trkpt lat="40.8661817" lon="16.4620633"><ele>411.0</ele><time>2026-04-12T10:42:04.658Z</time></trkpt><trkpt lat="40.8662183" lon="16.461945"><ele>411.0</ele><time>2026-04-12T10:42:39.657Z</time></trkpt><trkpt lat="40.8662533" lon="16.4618583"><ele>411.0</ele><time>2026-04-12T10:42:40.657Z</time></trkpt><trkpt lat="40.86629" lon="16.4617483"><ele>411.0</ele><time>2026-04-12T10:42:41.657Z</time></trkpt><trkpt lat="40.8663383" lon="16.46164"><ele>411.25</ele><time>2026-04-12T10:42:42.658Z</time></trkpt><trkpt lat="40.8663867" lon="16.4615183"><ele>411.5</ele><time>2026-04-12T10:42:43.658Z</time></trkpt><trkpt lat="40.86643" lon="16.461385"><ele>411.75</ele><time>2026-04-12T10:42:44.658Z</time></trkpt><trkpt lat="40.866475" lon="16.4612467"><ele>412.0</ele><time>2026-04-12T10:42:45.657Z</time></trkpt><trkpt lat="40.866525" lon="16.4610933"><ele>412.5</ele><time>2026-04-12T10:42:46.658Z</time></trkpt><trkpt lat="40.8665767" lon="16.4609383"><ele>413.0</ele><time>2026-04-12T10:42:47.657Z</time></trkpt><trkpt lat="40.8666233" lon="16.46078"><ele>413.5</ele><time>2026-04-12T10:42:48.658Z</time></trkpt><trkpt lat="40.8666667" lon="16.4606167"><ele>414.0</ele><time>2026-04-12T10:42:49.657Z</time></trkpt><trkpt lat="40.8667133" lon="16.46044"><ele>414.66666666666663</ele><time>2026-04-12T10:42:50.658Z</time></trkpt><trkpt lat="40.8667567" lon="16.4602517"><ele>415.3333333333333</ele><time>2026-04-12T10:42:51.657Z</time></trkpt><trkpt lat="40.8668083" lon="16.460065"><ele>416.0</ele><time>2026-04-12T10:42:52.657Z</time></trkpt><trkpt lat="40.8668617" lon="16.459875"><ele>416.66666666666663</ele><time>2026-04-12T10:42:53.657Z</time></trkpt><trkpt lat="40.8669183" lon="16.4596867"><ele>417.33333333333337</ele><time>2026-04-12T10:42:54.657Z</time></trkpt><trkpt lat="40.866975" lon="16.4594917"><ele>418.0</ele><time>2026-04-12T10:42:55.657Z</time></trkpt><trkpt lat="40.86703" lon="16.4592933"><ele>418.33333333333337</ele><time>2026-04-12T10:42:56.657Z</time></trkpt><trkpt lat="40.8670883" lon="16.45909"><ele>418.66666666666663</ele><time>2026-04-12T10:42:57.658Z</time></trkpt><trkpt lat="40.8671467" lon="16.458875"><ele>419.0</ele><time>2026-04-12T10:42:58.657Z</time></trkpt><trkpt lat="40.8672033" lon="16.4586617"><ele>419.66666666666663</ele><time>2026-04-12T10:42:59.657Z</time></trkpt><trkpt lat="40.8672633" lon="16.458455"><ele>420.33333333333337</ele><time>2026-04-12T10:43:00.657Z</time></trkpt><trkpt lat="40.8673267" lon="16.4582433"><ele>421.0</ele><time>2026-04-12T10:43:01.657Z</time></trkpt><trkpt lat="40.8673833" lon="16.4580333"><ele>421.33333333333337</ele><time>2026-04-12T10:43:02.657Z</time></trkpt><trkpt lat="40.86745" lon="16.457825"><ele>421.66666666666663</ele><time>2026-04-12T10:43:03.658Z</time></trkpt><trkpt lat="40.867525" lon="16.4576283"><ele>422.0</ele><time>2026-04-12T10:43:04.657Z</time></trkpt><trkpt lat="40.86761" lon="16.4574283"><ele>422.3333333333333</ele><time>2026-04-12T10:43:05.657Z</time></trkpt><trkpt lat="40.8677017" lon="16.45722"><ele>422.66666666666663</ele><time>2026-04-12T10:43:06.657Z</time></trkpt><trkpt lat="40.8677917" lon="16.457015"><ele>423.0</ele><time>2026-04-12T10:43:07.658Z</time></trkpt><trkpt lat="40.867885" lon="16.45681"><ele>424.0</ele><time>2026-04-12T10:43:08.658Z</time></trkpt><trkpt lat="40.8679917" lon="16.4566083"><ele>425.0</ele><time>2026-04-12T10:43:09.658Z</time></trkpt><trkpt lat="40.8680967" lon="16.45641"><ele>426.0</ele><time>2026-04-12T10:43:10.658Z</time></trkpt><trkpt lat="40.8682133" lon="16.4562167"><ele>426.66666666666663</ele><time>2026-04-12T10:43:11.657Z</time></trkpt><trkpt lat="40.8683283" lon="16.4560233"><ele>427.3333333333333</ele><time>2026-04-12T10:43:12.657Z</time></trkpt><trkpt lat="40.86845" lon="16.455835"><ele>428.0</ele><time>2026-04-12T10:43:13.658Z</time></trkpt><trkpt lat="40.8685767" lon="16.455655"><ele>428.66666666666663</ele><time>2026-04-12T10:43:14.657Z</time></trkpt><trkpt lat="40.868705" lon="16.4554817"><ele>429.33333333333337</ele><time>2026-04-12T10:43:15.657Z</time></trkpt><trkpt lat="40.8688367" lon="16.4553167"><ele>430.0</ele><time>2026-04-12T10:43:16.657Z</time></trkpt><trkpt lat="40.86898" lon="16.4551633"><ele>430.0</ele><time>2026-04-12T10:43:17.657Z</time></trkpt><trkpt lat="40.8691233" lon="16.4550133"><ele>430.0</ele><time>2026-04-12T10:43:18.657Z</time></trkpt><trkpt lat="40.8692667" lon="16.4548617"><ele>430.0</ele><time>2026-04-12T10:43:19.658Z</time></trkpt><trkpt lat="40.8694183" lon="16.4547117"><ele>431.33333333333337</ele><time>2026-04-12T10:43:20.658Z</time></trkpt><trkpt lat="40.869575" lon="16.4545717"><ele>432.66666666666663</ele><time>2026-04-12T10:43:21.657Z</time></trkpt><trkpt lat="40.8697333" lon="16.45443"><ele>434.0</ele><time>2026-04-12T10:43:22.658Z</time></trkpt><trkpt lat="40.8698983" lon="16.4543033"><ele>434.0</ele><time>2026-04-12T10:43:23.657Z</time></trkpt><trkpt lat="40.8700633" lon="16.4541933"><ele>434.0</ele><time>2026-04-12T10:43:24.657Z</time></trkpt><trkpt lat="40.8702317" lon="16.454075"><ele>434.0</ele><time>2026-04-12T10:43:25.657Z</time></trkpt><trkpt lat="40.8704017" lon="16.4539583"><ele>434.66666666666663</ele><time>2026-04-12T10:43:26.657Z</time></trkpt><trkpt lat="40.8705717" lon="16.4538383"><ele>435.33333333333337</ele><time>2026-04-12T10:43:27.657Z</time></trkpt><trkpt lat="40.8707333" lon="16.4537233"><ele>436.0</ele><time>2026-04-12T10:43:28.657Z</time></trkpt><trkpt lat="40.8709" lon="16.453605"><ele>437.0</ele><time>2026-04-12T10:43:29.657Z</time></trkpt><trkpt lat="40.8710717" lon="16.4534883"><ele>438.0</ele><time>2026-04-12T10:43:30.657Z</time></trkpt><trkpt lat="40.871235" lon="16.4533767"><ele>439.0</ele><time>2026-04-12T10:43:31.657Z</time></trkpt><trkpt lat="40.8713933" lon="16.45327"><ele>439.0</ele><time>2026-04-12T10:43:32.658Z</time></trkpt><trkpt lat="40.8715433" lon="16.4531533"><ele>439.0</ele><time>2026-04-12T10:43:33.657Z</time></trkpt><trkpt lat="40.8716883" lon="16.4530183"><ele>439.0</ele><time>2026-04-12T10:43:34.657Z</time></trkpt><trkpt lat="40.8718217" lon="16.4528567"><ele>440.33333333333337</ele><time>2026-04-12T10:43:35.657Z</time></trkpt><trkpt lat="40.8719533" lon="16.4526817"><ele>441.66666666666663</ele><time>2026-04-12T10:43:36.658Z</time></trkpt><trkpt lat="40.8720883" lon="16.4525083"><ele>443.0</ele><time>2026-04-12T10:43:37.657Z</time></trkpt><trkpt lat="40.8722217" lon="16.4523267"><ele>443.0</ele><time>2026-04-12T10:43:38.658Z</time></trkpt><trkpt lat="40.8723583" lon="16.4521467"><ele>443.0</ele><time>2026-04-12T10:43:39.657Z</time></trkpt><trkpt lat="40.872495" lon="16.4519633"><ele>443.0</ele><time>2026-04-12T10:43:40.657Z</time></trkpt><trkpt lat="40.87263" lon="16.4517783"><ele>444.3333333333333</ele><time>2026-04-12T10:43:41.657Z</time></trkpt><trkpt lat="40.8727633" lon="16.4516"><ele>445.66666666666663</ele><time>2026-04-12T10:43:42.657Z</time></trkpt><trkpt lat="40.87291" lon="16.4514433"><ele>447.0</ele><time>2026-04-12T10:43:43.657Z</time></trkpt><trkpt lat="40.873075" lon="16.4513117"><ele>447.66666666666663</ele><time>2026-04-12T10:43:44.657Z</time></trkpt><trkpt lat="40.8732367" lon="16.4511917"><ele>448.3333333333333</ele><time>2026-04-12T10:43:45.657Z</time></trkpt><trkpt lat="40.8733983" lon="16.4510733"><ele>449.0</ele><time>2026-04-12T10:43:46.657Z</time></trkpt><trkpt lat="40.8735617" lon="16.4509517"><ele>449.66666666666663</ele><time>2026-04-12T10:43:47.657Z</time></trkpt><trkpt lat="40.8737267" lon="16.4508267"><ele>450.33333333333337</ele><time>2026-04-12T10:43:48.657Z</time></trkpt><trkpt lat="40.8738883" lon="16.4507"><ele>451.0</ele><time>2026-04-12T10:43:49.658Z</time></trkpt><trkpt lat="40.8740567" lon="16.4505717"><ele>451.6666666666667</ele><time>2026-04-12T10:43:50.658Z</time></trkpt><trkpt lat="40.8742233" lon="16.4504467"><ele>452.33333333333337</ele><time>2026-04-12T10:43:51.658Z</time></trkpt><trkpt lat="40.874385" lon="16.4503233"><ele>453.0</ele><time>2026-04-12T10:43:52.658Z</time></trkpt><trkpt lat="40.87455" lon="16.4501933"><ele>454.33333333333337</ele><time>2026-04-12T10:43:53.657Z</time></trkpt><trkpt lat="40.8747133" lon="16.45007"><ele>455.6666666666667</ele><time>2026-04-12T10:43:54.657Z</time></trkpt><trkpt lat="40.8748817" lon="16.4499483"><ele>457.0</ele><time>2026-04-12T10:43:55.657Z</time></trkpt><trkpt lat="40.87505" lon="16.4498233"><ele>458.33333333333337</ele><time>2026-04-12T10:43:56.657Z</time></trkpt><trkpt lat="40.8752133" lon="16.4496983"><ele>459.66666666666663</ele><time>2026-04-12T10:43:57.659Z</time></trkpt><trkpt lat="40.8753767" lon="16.4495717"><ele>461.0</ele><time>2026-04-12T10:43:58.659Z</time></trkpt><trkpt lat="40.8755317" lon="16.44943"><ele>461.0</ele><time>2026-04-12T10:43:59.658Z</time></trkpt><trkpt lat="40.8756783" lon="16.4492817"><ele>461.0</ele><time>2026-04-12T10:44:00.659Z</time></trkpt><trkpt lat="40.875825" lon="16.44913"><ele>461.0</ele><time>2026-04-12T10:44:01.658Z</time></trkpt><trkpt lat="40.8759683" lon="16.448975"><ele>462.3333333333333</ele><time>2026-04-12T10:44:02.658Z</time></trkpt><trkpt lat="40.8761117" lon="16.448825"><ele>463.66666666666663</ele><time>2026-04-12T10:44:03.658Z</time></trkpt><trkpt lat="40.8762633" lon="16.4486833"><ele>465.0</ele><time>2026-04-12T10:44:04.659Z</time></trkpt><trkpt lat="40.87642" lon="16.4485533"><ele>465.66666666666663</ele><time>2026-04-12T10:44:05.658Z</time></trkpt><trkpt lat="40.8765767" lon="16.4484283"><ele>466.3333333333333</ele><time>2026-04-12T10:44:06.658Z</time></trkpt><trkpt lat="40.87674" lon="16.4482967"><ele>467.0</ele><time>2026-04-12T10:44:07.659Z</time></trkpt><trkpt lat="40.8768967" lon="16.44816"><ele>467.0</ele><time>2026-04-12T10:44:08.659Z</time></trkpt><trkpt lat="40.8770683" lon="16.4480283"><ele>467.0</ele><time>2026-04-12T10:44:09.659Z</time></trkpt><trkpt lat="40.8772267" lon="16.447905"><ele>467.0</ele><time>2026-04-12T10:44:10.658Z</time></trkpt><trkpt lat="40.8773883" lon="16.4477833"><ele>468.66666666666663</ele><time>2026-04-12T10:44:11.659Z</time></trkpt><trkpt lat="40.877555" lon="16.4476517"><ele>470.33333333333337</ele><time>2026-04-12T10:44:12.658Z</time></trkpt><trkpt lat="40.87772" lon="16.4475217"><ele>472.0</ele><time>2026-04-12T10:44:13.658Z</time></trkpt><trkpt lat="40.8778733" lon="16.4474017"><ele>472.0</ele><time>2026-04-12T10:44:14.659Z</time></trkpt><trkpt lat="40.878025" lon="16.447265"><ele>472.0</ele><time>2026-04-12T10:44:15.658Z</time></trkpt><trkpt lat="40.8781667" lon="16.4471117"><ele>472.0</ele><time>2026-04-12T10:44:16.658Z</time></trkpt><trkpt lat="40.878305" lon="16.4469367"><ele>473.6666666666667</ele><time>2026-04-12T10:44:17.659Z</time></trkpt><trkpt lat="40.8784467" lon="16.4467517"><ele>475.33333333333337</ele><time>2026-04-12T10:44:18.659Z</time></trkpt><trkpt lat="40.87857" lon="16.4465617"><ele>477.0</ele><time>2026-04-12T10:44:19.658Z</time></trkpt><trkpt lat="40.878675" lon="16.4463517"><ele>476.66666666666663</ele><time>2026-04-12T10:44:20.659Z</time></trkpt><trkpt lat="40.878765" lon="16.44613"><ele>476.3333333333333</ele><time>2026-04-12T10:44:21.659Z</time></trkpt><trkpt lat="40.8788317" lon="16.4459033"><ele>476.0</ele><time>2026-04-12T10:44:22.658Z</time></trkpt><trkpt lat="40.8788983" lon="16.4456783"><ele>476.66666666666663</ele><time>2026-04-12T10:44:23.658Z</time></trkpt><trkpt lat="40.8789683" lon="16.4454567"><ele>477.33333333333337</ele><time>2026-04-12T10:44:24.658Z</time></trkpt><trkpt lat="40.8790433" lon="16.4452283"><ele>478.0</ele><time>2026-04-12T10:44:25.658Z</time></trkpt><trkpt lat="40.87912" lon="16.4450133"><ele>478.0</ele><time>2026-04-12T10:44:26.658Z</time></trkpt><trkpt lat="40.879195" lon="16.4448"><ele>478.0</ele><time>2026-04-12T10:44:27.658Z</time></trkpt><trkpt lat="40.8792717" lon="16.44459"><ele>478.0</ele><time>2026-04-12T10:44:28.658Z</time></trkpt><trkpt lat="40.8793483" lon="16.444385"><ele>480.0</ele><time>2026-04-12T10:44:29.658Z</time></trkpt><trkpt lat="40.8794367" lon="16.444185"><ele>482.0</ele><time>2026-04-12T10:44:30.658Z</time></trkpt><trkpt lat="40.87953" lon="16.4439817"><ele>484.0</ele><time>2026-04-12T10:44:31.658Z</time></trkpt><trkpt lat="40.879635" lon="16.4437833"><ele>484.0</ele><time>2026-04-12T10:44:32.658Z</time></trkpt><trkpt lat="40.8797517" lon="16.4435833"><ele>484.0</ele><time>2026-04-12T10:44:33.658Z</time></trkpt><trkpt lat="40.8798733" lon="16.4434"><ele>484.0</ele><time>2026-04-12T10:44:34.658Z</time></trkpt><trkpt lat="40.88" lon="16.4432217"><ele>485.6666666666667</ele><time>2026-04-12T10:44:35.659Z</time></trkpt><trkpt lat="40.8801283" lon="16.44305"><ele>487.33333333333337</ele><time>2026-04-12T10:44:36.659Z</time></trkpt><trkpt lat="40.8802617" lon="16.442885"><ele>489.0</ele><time>2026-04-12T10:44:37.658Z</time></trkpt><trkpt lat="40.8803983" lon="16.4427267"><ele>489.0</ele><time>2026-04-12T10:44:38.658Z</time></trkpt><trkpt lat="40.880525" lon="16.4425817"><ele>489.0</ele><time>2026-04-12T10:44:39.658Z</time></trkpt><trkpt lat="40.8806467" lon="16.4424633"><ele>489.0</ele><time>2026-04-12T10:44:40.658Z</time></trkpt><trkpt lat="40.88076" lon="16.442355"><ele>489.0</ele><time>2026-04-12T10:44:41.658Z</time></trkpt><trkpt lat="40.88087" lon="16.4422617"><ele>489.0</ele><time>2026-04-12T10:44:42.658Z</time></trkpt><trkpt lat="40.88098" lon="16.4421717"><ele>489.0</ele><time>2026-04-12T10:44:43.659Z</time></trkpt><trkpt lat="40.8810917" lon="16.4420917"><ele>489.0</ele><time>2026-04-12T10:44:44.658Z</time></trkpt><trkpt lat="40.881205" lon="16.4420217"><ele>490.1666666666667</ele><time>2026-04-12T10:44:45.658Z</time></trkpt><trkpt lat="40.8813017" lon="16.4419617"><ele>491.33333333333337</ele><time>2026-04-12T10:44:46.659Z</time></trkpt><trkpt lat="40.8813883" lon="16.441915"><ele>492.5</ele><time>2026-04-12T10:44:47.658Z</time></trkpt><trkpt lat="40.88146" lon="16.44187"><ele>493.6666666666667</ele><time>2026-04-12T10:44:48.658Z</time></trkpt><trkpt lat="40.8815333" lon="16.4418217"><ele>494.83333333333337</ele><time>2026-04-12T10:44:49.658Z</time></trkpt><trkpt lat="40.8815967" lon="16.4417883"><ele>496.0</ele><time>2026-04-12T10:44:50.658Z</time></trkpt><trkpt lat="40.881685" lon="16.4417467"><ele>496.0</ele><time>2026-04-12T10:44:52.658Z</time></trkpt><trkpt lat="40.8817533" lon="16.4417717"><ele>496.0</ele><time>2026-04-12T10:44:55.658Z</time></trkpt></trkseg><trkseg><trkpt lat="40.8819917" lon="16.4441783"><ele>527.0000000000001</ele><time>2026-04-12T11:03:51.658Z</time></trkpt><trkpt lat="40.8820283" lon="16.4441033"><ele>527.0</ele><time>2026-04-12T11:04:06.658Z</time></trkpt><trkpt lat="40.882045" lon="16.4439983"><ele>527.0</ele><time>2026-04-12T11:04:09.657Z</time></trkpt><trkpt lat="40.882015" lon="16.4439117"><ele>527.0</ele><time>2026-04-12T11:04:12.657Z</time></trkpt><trkpt lat="40.8820067" lon="16.4438167"><ele>527.0</ele><time>2026-04-12T11:04:16.657Z</time></trkpt><trkpt lat="40.8820067" lon="16.4437083"><ele>527.0000000000001</ele><time>2026-04-12T11:04:19.657Z</time></trkpt><trkpt lat="40.8820033" lon="16.443625"><ele>527.0</ele><time>2026-04-12T11:04:21.658Z</time></trkpt><trkpt lat="40.882005" lon="16.4434983"><ele>523.8000000000001</ele><time>2026-04-12T11:04:24.657Z</time></trkpt><trkpt lat="40.8819917" lon="16.44339"><ele>520.6</ele><time>2026-04-12T11:04:26.657Z</time></trkpt><trkpt lat="40.8819633" lon="16.4432867"><ele>517.4000000000001</ele><time>2026-04-12T11:04:28.658Z</time></trkpt><trkpt lat="40.881945" lon="16.4431667"><ele>514.2</ele><time>2026-04-12T11:04:30.658Z</time></trkpt><trkpt lat="40.8819283" lon="16.4430267"><ele>511.0</ele><time>2026-04-12T11:04:32.657Z</time></trkpt><trkpt lat="40.8819067" lon="16.442905"><ele>509.1666666666667</ele><time>2026-04-12T11:04:34.657Z</time></trkpt><trkpt lat="40.8818833" lon="16.4427967"><ele>507.33333333333337</ele><time>2026-04-12T11:04:36.657Z</time></trkpt><trkpt lat="40.8818667" lon="16.4426833"><ele>505.5</ele><time>2026-04-12T11:04:38.658Z</time></trkpt><trkpt lat="40.8818567" lon="16.4425933"><ele>503.66666666666663</ele><time>2026-04-12T11:04:40.657Z</time></trkpt><trkpt lat="40.881845" lon="16.442505"><ele>501.8333333333333</ele><time>2026-04-12T11:04:42.657Z</time></trkpt><trkpt lat="40.8818367" lon="16.4424017"><ele>500.0</ele><time>2026-04-12T11:04:45.657Z</time></trkpt><trkpt lat="40.8818183" lon="16.4423017"><ele>499.99999999999994</ele><time>2026-04-12T11:04:48.657Z</time></trkpt><trkpt lat="40.8817967" lon="16.44219"><ele>500.0</ele><time>2026-04-12T11:04:51.658Z</time></trkpt><trkpt lat="40.8817783" lon="16.4420967"><ele>500.0</ele><time>2026-04-12T11:04:53.658Z</time></trkpt><trkpt lat="40.8817683" lon="16.4420017"><ele>500.0</ele><time>2026-04-12T11:04:56.658Z</time></trkpt><trkpt lat="40.8817533" lon="16.44191"><ele>499.99999999999994</ele><time>2026-04-12T11:04:59.657Z</time></trkpt><trkpt lat="40.88175" lon="16.4418217"><ele>500.0</ele><time>2026-04-12T11:05:01.657Z</time></trkpt><trkpt lat="40.8818" lon="16.4417067"><ele>499.6</ele><time>2026-04-12T11:05:03.657Z</time></trkpt><trkpt lat="40.8819317" lon="16.4416417"><ele>499.2</ele><time>2026-04-12T11:05:05.658Z</time></trkpt><trkpt lat="40.8820083" lon="16.44161"><ele>498.79999999999995</ele><time>2026-04-12T11:05:06.657Z</time></trkpt><trkpt lat="40.88209" lon="16.4415717"><ele>498.4</ele><time>2026-04-12T11:05:07.657Z</time></trkpt><trkpt lat="40.882175" lon="16.4415417"><ele>498.0</ele><time>2026-04-12T11:05:08.657Z</time></trkpt><trkpt lat="40.88225" lon="16.4415183"><ele>498.0</ele><time>2026-04-12T11:05:09.657Z</time></trkpt><trkpt lat="40.8823433" lon="16.4414783"><ele>497.99999999999994</ele><time>2026-04-12T11:05:11.657Z</time></trkpt><trkpt lat="40.88241" lon="16.44148"><ele>497.99999999999994</ele><time>2026-04-12T11:05:13.657Z</time></trkpt><trkpt lat="40.882475" lon="16.4414617"><ele>498.0</ele><time>2026-04-12T11:05:35.657Z</time></trkpt><trkpt lat="40.882605" lon="16.4413933"><ele>498.0</ele><time>2026-04-12T11:05:37.658Z</time></trkpt><trkpt lat="40.8826833" lon="16.4413467"><ele>500.0</ele><time>2026-04-12T11:05:38.658Z</time></trkpt><trkpt lat="40.882775" lon="16.441295"><ele>501.99999999999994</ele><time>2026-04-12T11:05:39.657Z</time></trkpt><trkpt lat="40.882865" lon="16.4412267"><ele>503.99999999999994</ele><time>2026-04-12T11:05:40.657Z</time></trkpt><trkpt lat="40.88296" lon="16.4411433"><ele>506.0</ele><time>2026-04-12T11:05:41.657Z</time></trkpt><trkpt lat="40.8830583" lon="16.44105"><ele>508.0</ele><time>2026-04-12T11:05:42.657Z</time></trkpt><trkpt lat="40.88314" lon="16.4409517"><ele>508.0</ele><time>2026-04-12T11:05:43.657Z</time></trkpt><trkpt lat="40.8832217" lon="16.4408433"><ele>508.0</ele><time>2026-04-12T11:05:44.657Z</time></trkpt><trkpt lat="40.8833183" lon="16.440735"><ele>508.0</ele><time>2026-04-12T11:05:45.657Z</time></trkpt><trkpt lat="40.88341" lon="16.4406167"><ele>508.0</ele><time>2026-04-12T11:05:46.658Z</time></trkpt><trkpt lat="40.8835117" lon="16.4404967"><ele>510.25</ele><time>2026-04-12T11:05:47.657Z</time></trkpt><trkpt lat="40.88362" lon="16.4403717"><ele>512.5</ele><time>2026-04-12T11:05:48.657Z</time></trkpt><trkpt lat="40.8837267" lon="16.4402433"><ele>514.75</ele><time>2026-04-12T11:05:49.657Z</time></trkpt><trkpt lat="40.8838367" lon="16.44011"><ele>517.0</ele><time>2026-04-12T11:05:50.657Z</time></trkpt><trkpt lat="40.883955" lon="16.4399783"><ele>517.0</ele><time>2026-04-12T11:05:51.657Z</time></trkpt><trkpt lat="40.8840783" lon="16.4398567"><ele>517.0</ele><time>2026-04-12T11:05:52.657Z</time></trkpt><trkpt lat="40.884205" lon="16.43975"><ele>517.0</ele><time>2026-04-12T11:05:53.657Z</time></trkpt><trkpt lat="40.884335" lon="16.4396483"><ele>518.0</ele><time>2026-04-12T11:05:54.657Z</time></trkpt><trkpt lat="40.8844717" lon="16.4395733"><ele>519.0</ele><time>2026-04-12T11:05:55.658Z</time></trkpt><trkpt lat="40.8846067" lon="16.439505"><ele>520.0</ele><time>2026-04-12T11:05:56.658Z</time></trkpt><trkpt lat="40.8847417" lon="16.4394233"><ele>521.0</ele><time>2026-04-12T11:05:57.658Z</time></trkpt><trkpt lat="40.8848833" lon="16.439345"><ele>521.0</ele><time>2026-04-12T11:05:58.658Z</time></trkpt><trkpt lat="40.885025" lon="16.439265"><ele>521.0</ele><time>2026-04-12T11:05:59.657Z</time></trkpt><trkpt lat="40.8851717" lon="16.4392167"><ele>521.0</ele><time>2026-04-12T11:06:00.658Z</time></trkpt><trkpt lat="40.8853183" lon="16.4391817"><ele>522.25</ele><time>2026-04-12T11:06:01.658Z</time></trkpt><trkpt lat="40.88546" lon="16.4391533"><ele>523.5</ele><time>2026-04-12T11:06:02.657Z</time></trkpt><trkpt lat="40.885605" lon="16.4391133"><ele>524.75</ele><time>2026-04-12T11:06:03.657Z</time></trkpt><trkpt lat="40.8857467" lon="16.4390767"><ele>526.0</ele><time>2026-04-12T11:06:04.657Z</time></trkpt><trkpt lat="40.8858917" lon="16.4390367"><ele>525.75</ele><time>2026-04-12T11:06:05.657Z</time></trkpt><trkpt lat="40.8860333" lon="16.4389867"><ele>525.5</ele><time>2026-04-12T11:06:06.657Z</time></trkpt><trkpt lat="40.8861783" lon="16.43896"><ele>525.25</ele><time>2026-04-12T11:06:07.658Z</time></trkpt><trkpt lat="40.8863283" lon="16.4389667"><ele>525.0</ele><time>2026-04-12T11:06:08.657Z</time></trkpt><trkpt lat="40.8864633" lon="16.4389967"><ele>525.0</ele><time>2026-04-12T11:06:09.657Z</time></trkpt><trkpt lat="40.88661" lon="16.439095"><ele>525.0</ele><time>2026-04-12T11:06:10.657Z</time></trkpt><trkpt lat="40.8867383" lon="16.4392067"><ele>525.0</ele><time>2026-04-12T11:06:11.658Z</time></trkpt><trkpt lat="40.88687" lon="16.4393383"><ele>527.3333333333334</ele><time>2026-04-12T11:06:12.657Z</time></trkpt><trkpt lat="40.8870017" lon="16.4394683"><ele>529.6666666666667</ele><time>2026-04-12T11:06:13.657Z</time></trkpt><trkpt lat="40.8871333" lon="16.4395967"><ele>532.0</ele><time>2026-04-12T11:06:14.658Z</time></trkpt><trkpt lat="40.887275" lon="16.43972"><ele>532.0</ele><time>2026-04-12T11:06:15.657Z</time></trkpt><trkpt lat="40.8874183" lon="16.4398333"><ele>532.0</ele><time>2026-04-12T11:06:16.658Z</time></trkpt><trkpt lat="40.8875567" lon="16.4399467"><ele>532.0</ele><time>2026-04-12T11:06:17.657Z</time></trkpt><trkpt lat="40.8876967" lon="16.440075"><ele>532.3333333333334</ele><time>2026-04-12T11:06:18.658Z</time></trkpt><trkpt lat="40.8878183" lon="16.4402283"><ele>532.6666666666666</ele><time>2026-04-12T11:06:19.657Z</time></trkpt><trkpt lat="40.88794" lon="16.44038"><ele>533.0</ele><time>2026-04-12T11:06:20.658Z</time></trkpt><trkpt lat="40.8880683" lon="16.4405167"><ele>533.0</ele><time>2026-04-12T11:06:21.658Z</time></trkpt><trkpt lat="40.8882033" lon="16.4406433"><ele>533.0</ele><time>2026-04-12T11:06:22.658Z</time></trkpt><trkpt lat="40.88835" lon="16.4407683"><ele>533.0</ele><time>2026-04-12T11:06:23.657Z</time></trkpt><trkpt lat="40.8885067" lon="16.4408783"><ele>534.6666666666666</ele><time>2026-04-12T11:06:24.657Z</time></trkpt><trkpt lat="40.88867" lon="16.4409417"><ele>536.3333333333334</ele><time>2026-04-12T11:06:25.657Z</time></trkpt><trkpt lat="40.88884" lon="16.4409967"><ele>538.0</ele><time>2026-04-12T11:06:26.658Z</time></trkpt><trkpt lat="40.889005" lon="16.44105"><ele>538.0</ele><time>2026-04-12T11:06:27.658Z</time></trkpt><trkpt lat="40.88918" lon="16.44106"><ele>538.0</ele><time>2026-04-12T11:06:28.657Z</time></trkpt><trkpt lat="40.8893567" lon="16.4410533"><ele>538.0</ele><time>2026-04-12T11:06:29.657Z</time></trkpt><trkpt lat="40.8895233" lon="16.44106"><ele>539.0</ele><time>2026-04-12T11:06:30.658Z</time></trkpt><trkpt lat="40.889685" lon="16.4410917"><ele>540.0</ele><time>2026-04-12T11:06:31.657Z</time></trkpt><trkpt lat="40.8898333" lon="16.4411417"><ele>541.0</ele><time>2026-04-12T11:06:32.657Z</time></trkpt><trkpt lat="40.88999" lon="16.44121"><ele>543.0</ele><time>2026-04-12T11:06:33.657Z</time></trkpt><trkpt lat="40.89015" lon="16.4412767"><ele>545.0</ele><time>2026-04-12T11:06:34.658Z</time></trkpt><trkpt lat="40.890315" lon="16.4413283"><ele>547.0</ele><time>2026-04-12T11:06:35.657Z</time></trkpt><trkpt lat="40.890485" lon="16.44136"><ele>547.0</ele><time>2026-04-12T11:06:36.657Z</time></trkpt><trkpt lat="40.8906567" lon="16.4413883"><ele>547.0</ele><time>2026-04-12T11:06:37.658Z</time></trkpt><trkpt lat="40.890835" lon="16.44138"><ele>547.0</ele><time>2026-04-12T11:06:38.657Z</time></trkpt><trkpt lat="40.891005" lon="16.4413433"><ele>547.6666666666667</ele><time>2026-04-12T11:06:39.657Z</time></trkpt><trkpt lat="40.8911667" lon="16.4412817"><ele>548.3333333333334</ele><time>2026-04-12T11:06:40.658Z</time></trkpt><trkpt lat="40.89133" lon="16.4411867"><ele>549.0</ele><time>2026-04-12T11:06:41.657Z</time></trkpt><trkpt lat="40.8914883" lon="16.4410783"><ele>549.0</ele><time>2026-04-12T11:06:42.657Z</time></trkpt><trkpt lat="40.89165" lon="16.4409567"><ele>549.0</ele><time>2026-04-12T11:06:43.657Z</time></trkpt><trkpt lat="40.8918117" lon="16.44086"><ele>549.0</ele><time>2026-04-12T11:06:44.657Z</time></trkpt><trkpt lat="40.891975" lon="16.4407917"><ele>549.6666666666666</ele><time>2026-04-12T11:06:45.657Z</time></trkpt><trkpt lat="40.89215" lon="16.4407467"><ele>550.3333333333333</ele><time>2026-04-12T11:06:46.657Z</time></trkpt><trkpt lat="40.8923233" lon="16.4407383"><ele>551.0</ele><time>2026-04-12T11:06:47.657Z</time></trkpt><trkpt lat="40.8925067" lon="16.4407367"><ele>553.0</ele><time>2026-04-12T11:06:48.658Z</time></trkpt><trkpt lat="40.8926867" lon="16.440765"><ele>555.0</ele><time>2026-04-12T11:06:49.658Z</time></trkpt><trkpt lat="40.8928483" lon="16.4408183"><ele>557.0</ele><time>2026-04-12T11:06:50.657Z</time></trkpt><trkpt lat="40.89298" lon="16.4409067"><ele>557.0</ele><time>2026-04-12T11:06:51.658Z</time></trkpt><trkpt lat="40.8931" lon="16.441035"><ele>557.0</ele><time>2026-04-12T11:06:52.657Z</time></trkpt><trkpt lat="40.8932167" lon="16.441185"><ele>557.0</ele><time>2026-04-12T11:06:53.658Z</time></trkpt><trkpt lat="40.8933283" lon="16.441335"><ele>557.0</ele><time>2026-04-12T11:06:54.658Z</time></trkpt><trkpt lat="40.8934567" lon="16.4414717"><ele>557.0</ele><time>2026-04-12T11:06:55.658Z</time></trkpt><trkpt lat="40.893595" lon="16.4416167"><ele>557.0</ele><time>2026-04-12T11:06:56.657Z</time></trkpt><trkpt lat="40.8937317" lon="16.4417583"><ele>557.0</ele><time>2026-04-12T11:06:57.657Z</time></trkpt><trkpt lat="40.8938767" lon="16.4419133"><ele>557.0</ele><time>2026-04-12T11:06:58.657Z</time></trkpt><trkpt lat="40.8940233" lon="16.442065"><ele>557.0</ele><time>2026-04-12T11:06:59.657Z</time></trkpt><trkpt lat="40.8941683" lon="16.4422183"><ele>556.6666666666666</ele><time>2026-04-12T11:07:00.657Z</time></trkpt><trkpt lat="40.8943217" lon="16.4423717"><ele>556.3333333333334</ele><time>2026-04-12T11:07:01.657Z</time></trkpt><trkpt lat="40.894485" lon="16.4425067"><ele>556.0</ele><time>2026-04-12T11:07:02.657Z</time></trkpt><trkpt lat="40.8946533" lon="16.4425983"><ele>556.0</ele><time>2026-04-12T11:07:03.658Z</time></trkpt><trkpt lat="40.8948283" lon="16.4426633"><ele>556.0</ele><time>2026-04-12T11:07:04.658Z</time></trkpt><trkpt lat="40.8950067" lon="16.4426867"><ele>556.0</ele><time>2026-04-12T11:07:05.657Z</time></trkpt><trkpt lat="40.8951867" lon="16.4426867"><ele>555.0</ele><time>2026-04-12T11:07:06.657Z</time></trkpt><trkpt lat="40.89535" lon="16.4426667"><ele>554.0</ele><time>2026-04-12T11:07:07.657Z</time></trkpt><trkpt lat="40.8955083" lon="16.4426133"><ele>553.0</ele><time>2026-04-12T11:07:08.657Z</time></trkpt><trkpt lat="40.895665" lon="16.4425367"><ele>553.0</ele><time>2026-04-12T11:07:09.657Z</time></trkpt><trkpt lat="40.8958067" lon="16.4424267"><ele>553.0</ele><time>2026-04-12T11:07:10.657Z</time></trkpt><trkpt lat="40.8959483" lon="16.4423033"><ele>553.0</ele><time>2026-04-12T11:07:11.657Z</time></trkpt><trkpt lat="40.896075" lon="16.4421617"><ele>551.3333333333334</ele><time>2026-04-12T11:07:12.658Z</time></trkpt><trkpt lat="40.896195" lon="16.442"><ele>549.6666666666666</ele><time>2026-04-12T11:07:13.657Z</time></trkpt><trkpt lat="40.8963033" lon="16.44182"><ele>548.0</ele><time>2026-04-12T11:07:14.658Z</time></trkpt><trkpt lat="40.8964017" lon="16.4416233"><ele>548.0</ele><time>2026-04-12T11:07:15.658Z</time></trkpt><trkpt lat="40.8965067" lon="16.44142"><ele>548.0</ele><time>2026-04-12T11:07:16.658Z</time></trkpt><trkpt lat="40.89662" lon="16.4412083"><ele>548.0</ele><time>2026-04-12T11:07:17.657Z</time></trkpt><trkpt lat="40.8967267" lon="16.4410017"><ele>548.3333333333333</ele><time>2026-04-12T11:07:18.657Z</time></trkpt><trkpt lat="40.8968333" lon="16.4408"><ele>548.6666666666666</ele><time>2026-04-12T11:07:19.658Z</time></trkpt><trkpt lat="40.8969467" lon="16.4406117"><ele>549.0</ele><time>2026-04-12T11:07:20.657Z</time></trkpt><trkpt lat="40.8970567" lon="16.4404117"><ele>550.0</ele><time>2026-04-12T11:07:21.657Z</time></trkpt><trkpt lat="40.897155" lon="16.4401933"><ele>551.0</ele><time>2026-04-12T11:07:22.657Z</time></trkpt><trkpt lat="40.89726" lon="16.439975"><ele>552.0</ele><time>2026-04-12T11:07:23.657Z</time></trkpt><trkpt lat="40.89736" lon="16.4397583"><ele>551.6666666666666</ele><time>2026-04-12T11:07:24.657Z</time></trkpt><trkpt lat="40.8974667" lon="16.43955"><ele>551.3333333333333</ele><time>2026-04-12T11:07:25.657Z</time></trkpt><trkpt lat="40.8975667" lon="16.4393383"><ele>551.0</ele><time>2026-04-12T11:07:26.658Z</time></trkpt><trkpt lat="40.89767" lon="16.4391333"><ele>551.0</ele><time>2026-04-12T11:07:27.657Z</time></trkpt><trkpt lat="40.8977767" lon="16.43893"><ele>551.0</ele><time>2026-04-12T11:07:28.657Z</time></trkpt><trkpt lat="40.89788" lon="16.4387183"><ele>551.0</ele><time>2026-04-12T11:07:29.657Z</time></trkpt><trkpt lat="40.8979783" lon="16.4385133"><ele>552.0</ele><time>2026-04-12T11:07:30.658Z</time></trkpt><trkpt lat="40.89808" lon="16.4383067"><ele>553.0</ele><time>2026-04-12T11:07:31.657Z</time></trkpt><trkpt lat="40.8981883" lon="16.4380967"><ele>554.0</ele><time>2026-04-12T11:07:32.658Z</time></trkpt><trkpt lat="40.8982933" lon="16.437885"><ele>553.6666666666666</ele><time>2026-04-12T11:07:33.657Z</time></trkpt><trkpt lat="40.8983983" lon="16.4376733"><ele>553.3333333333334</ele><time>2026-04-12T11:07:34.658Z</time></trkpt><trkpt lat="40.8984983" lon="16.43747"><ele>553.0</ele><time>2026-04-12T11:07:35.657Z</time></trkpt><trkpt lat="40.8986033" lon="16.437275"><ele>553.3333333333334</ele><time>2026-04-12T11:07:36.658Z</time></trkpt><trkpt lat="40.898705" lon="16.43708"><ele>553.6666666666666</ele><time>2026-04-12T11:07:37.657Z</time></trkpt><trkpt lat="40.8988083" lon="16.43688"><ele>554.0</ele><time>2026-04-12T11:07:38.657Z</time></trkpt><trkpt lat="40.8989033" lon="16.4366733"><ele>554.0</ele><time>2026-04-12T11:07:39.657Z</time></trkpt><trkpt lat="40.899" lon="16.4364767"><ele>554.0</ele><time>2026-04-12T11:07:40.657Z</time></trkpt><trkpt lat="40.8990917" lon="16.4362833"><ele>554.0</ele><time>2026-04-12T11:07:41.657Z</time></trkpt><trkpt lat="40.8991917" lon="16.436085"><ele>553.0</ele><time>2026-04-12T11:07:42.657Z</time></trkpt><trkpt lat="40.899285" lon="16.43588"><ele>552.0</ele><time>2026-04-12T11:07:43.658Z</time></trkpt><trkpt lat="40.8993783" lon="16.4356733"><ele>551.0</ele><time>2026-04-12T11:07:44.657Z</time></trkpt><trkpt lat="40.8994667" lon="16.4354533"><ele>551.0</ele><time>2026-04-12T11:07:45.658Z</time></trkpt><trkpt lat="40.8995567" lon="16.4352317"><ele>551.0</ele><time>2026-04-12T11:07:46.657Z</time></trkpt><trkpt lat="40.8996483" lon="16.4350167"><ele>551.0</ele><time>2026-04-12T11:07:47.657Z</time></trkpt><trkpt lat="40.8997383" lon="16.4347967"><ele>550.6666666666666</ele><time>2026-04-12T11:07:48.657Z</time></trkpt><trkpt lat="40.899835" lon="16.4345883"><ele>550.3333333333334</ele><time>2026-04-12T11:07:49.657Z</time></trkpt><trkpt lat="40.8999283" lon="16.43439"><ele>550.0</ele><time>2026-04-12T11:07:50.658Z</time></trkpt><trkpt lat="40.9000217" lon="16.4341833"><ele>549.0</ele><time>2026-04-12T11:07:51.657Z</time></trkpt><trkpt lat="40.9001117" lon="16.4339667"><ele>548.0</ele><time>2026-04-12T11:07:52.657Z</time></trkpt><trkpt lat="40.9002067" lon="16.433755"><ele>547.0</ele><time>2026-04-12T11:07:53.658Z</time></trkpt><trkpt lat="40.900295" lon="16.4335467"><ele>546.3333333333334</ele><time>2026-04-12T11:07:54.657Z</time></trkpt><trkpt lat="40.900385" lon="16.4333417"><ele>545.6666666666666</ele><time>2026-04-12T11:07:55.658Z</time></trkpt><trkpt lat="40.900475" lon="16.4331233"><ele>545.0</ele><time>2026-04-12T11:07:56.658Z</time></trkpt><trkpt lat="40.9005683" lon="16.4328967"><ele>544.3333333333333</ele><time>2026-04-12T11:07:57.658Z</time></trkpt><trkpt lat="40.9006533" lon="16.4326933"><ele>543.6666666666666</ele><time>2026-04-12T11:07:58.657Z</time></trkpt><trkpt lat="40.9007383" lon="16.432485"><ele>543.0</ele><time>2026-04-12T11:07:59.658Z</time></trkpt><trkpt lat="40.9008267" lon="16.432265"><ele>541.6666666666666</ele><time>2026-04-12T11:08:00.657Z</time></trkpt><trkpt lat="40.9009183" lon="16.4320383"><ele>540.3333333333333</ele><time>2026-04-12T11:08:01.658Z</time></trkpt><trkpt lat="40.9010233" lon="16.4318167"><ele>539.0</ele><time>2026-04-12T11:08:02.657Z</time></trkpt><trkpt lat="40.9011217" lon="16.4316067"><ele>539.0</ele><time>2026-04-12T11:08:03.658Z</time></trkpt><trkpt lat="40.9012217" lon="16.4313817"><ele>539.0</ele><time>2026-04-12T11:08:04.657Z</time></trkpt><trkpt lat="40.9013067" lon="16.4311783"><ele>539.0</ele><time>2026-04-12T11:08:05.657Z</time></trkpt><trkpt lat="40.9014033" lon="16.4309683"><ele>539.0</ele><time>2026-04-12T11:08:06.657Z</time></trkpt><trkpt lat="40.901485" lon="16.430765"><ele>539.0</ele><time>2026-04-12T11:08:07.658Z</time></trkpt><trkpt lat="40.901575" lon="16.4305617"><ele>539.0</ele><time>2026-04-12T11:08:08.658Z</time></trkpt><trkpt lat="40.901665" lon="16.430355"><ele>539.0</ele><time>2026-04-12T11:08:09.657Z</time></trkpt><trkpt lat="40.9017533" lon="16.4301533"><ele>539.0</ele><time>2026-04-12T11:08:10.657Z</time></trkpt><trkpt lat="40.9018383" lon="16.42995"><ele>539.0</ele><time>2026-04-12T11:08:11.657Z</time></trkpt><trkpt lat="40.9019283" lon="16.429745"><ele>539.6666666666666</ele><time>2026-04-12T11:08:12.657Z</time></trkpt><trkpt lat="40.9020133" lon="16.4295417"><ele>540.3333333333334</ele><time>2026-04-12T11:08:13.658Z</time></trkpt><trkpt lat="40.902105" lon="16.4293417"><ele>541.0</ele><time>2026-04-12T11:08:14.657Z</time></trkpt><trkpt lat="40.90219" lon="16.4291383"><ele>541.0</ele><time>2026-04-12T11:08:15.657Z</time></trkpt><trkpt lat="40.9022733" lon="16.4289317"><ele>541.0</ele><time>2026-04-12T11:08:16.658Z</time></trkpt><trkpt lat="40.9023583" lon="16.4287333"><ele>541.0</ele><time>2026-04-12T11:08:17.657Z</time></trkpt><trkpt lat="40.9024467" lon="16.42854"><ele>541.3333333333334</ele><time>2026-04-12T11:08:18.657Z</time></trkpt><trkpt lat="40.9025383" lon="16.42835"><ele>541.6666666666666</ele><time>2026-04-12T11:08:19.657Z</time></trkpt><trkpt lat="40.90264" lon="16.4281683"><ele>542.0</ele><time>2026-04-12T11:08:20.657Z</time></trkpt><trkpt lat="40.9027683" lon="16.42801"><ele>542.3333333333333</ele><time>2026-04-12T11:08:21.658Z</time></trkpt><trkpt lat="40.9029117" lon="16.4278717"><ele>542.6666666666666</ele><time>2026-04-12T11:08:22.657Z</time></trkpt><trkpt lat="40.9030683" lon="16.427765"><ele>543.0</ele><time>2026-04-12T11:08:23.657Z</time></trkpt><trkpt lat="40.90323" lon="16.4276683"><ele>543.0</ele><time>2026-04-12T11:08:24.658Z</time></trkpt><trkpt lat="40.9033967" lon="16.4275667"><ele>543.0</ele><time>2026-04-12T11:08:25.657Z</time></trkpt><trkpt lat="40.9035583" lon="16.427465"><ele>543.0</ele><time>2026-04-12T11:08:26.658Z</time></trkpt><trkpt lat="40.9037217" lon="16.4273567"><ele>542.6666666666666</ele><time>2026-04-12T11:08:27.657Z</time></trkpt><trkpt lat="40.9038883" lon="16.4272483"><ele>542.3333333333333</ele><time>2026-04-12T11:08:28.658Z</time></trkpt><trkpt lat="40.9040517" lon="16.427145"><ele>542.0</ele><time>2026-04-12T11:08:29.657Z</time></trkpt><trkpt lat="40.9042167" lon="16.4270433"><ele>544.0</ele><time>2026-04-12T11:08:30.658Z</time></trkpt><trkpt lat="40.9043833" lon="16.4269367"><ele>546.0</ele><time>2026-04-12T11:08:31.658Z</time></trkpt><trkpt lat="40.9045483" lon="16.42684"><ele>548.0</ele><time>2026-04-12T11:08:32.658Z</time></trkpt><trkpt lat="40.9047183" lon="16.4267433"><ele>548.0</ele><time>2026-04-12T11:08:33.658Z</time></trkpt><trkpt lat="40.90488" lon="16.4266433"><ele>548.0</ele><time>2026-04-12T11:08:34.657Z</time></trkpt><trkpt lat="40.905035" lon="16.4265317"><ele>548.0</ele><time>2026-04-12T11:08:35.657Z</time></trkpt><trkpt lat="40.9051767" lon="16.4264167"><ele>547.6666666666666</ele><time>2026-04-12T11:08:36.657Z</time></trkpt><trkpt lat="40.9053083" lon="16.4262683"><ele>547.3333333333334</ele><time>2026-04-12T11:08:37.658Z</time></trkpt><trkpt lat="40.9054217" lon="16.4260967"><ele>547.0</ele><time>2026-04-12T11:08:38.657Z</time></trkpt><trkpt lat="40.90552" lon="16.4259"><ele>547.0</ele><time>2026-04-12T11:08:39.657Z</time></trkpt><trkpt lat="40.9056133" lon="16.4257033"><ele>547.0</ele><time>2026-04-12T11:08:40.658Z</time></trkpt><trkpt lat="40.9057033" lon="16.4255017"><ele>547.0</ele><time>2026-04-12T11:08:41.657Z</time></trkpt><trkpt lat="40.905795" lon="16.4252917"><ele>548.6666666666667</ele><time>2026-04-12T11:08:42.658Z</time></trkpt><trkpt lat="40.905885" lon="16.425085"><ele>550.3333333333334</ele><time>2026-04-12T11:08:43.658Z</time></trkpt><trkpt lat="40.9059833" lon="16.42489"><ele>552.0</ele><time>2026-04-12T11:08:44.657Z</time></trkpt><trkpt lat="40.9060767" lon="16.4246817"><ele>548.3333333333334</ele><time>2026-04-12T11:08:45.657Z</time></trkpt><trkpt lat="40.9061667" lon="16.4244733"><ele>544.6666666666667</ele><time>2026-04-12T11:08:46.657Z</time></trkpt><trkpt lat="40.9062517" lon="16.4242683"><ele>541.0</ele><time>2026-04-12T11:08:47.658Z</time></trkpt><trkpt lat="40.9063267" lon="16.424065"><ele>541.0</ele><time>2026-04-12T11:08:48.657Z</time></trkpt><trkpt lat="40.906385" lon="16.423825"><ele>541.0</ele><time>2026-04-12T11:08:49.657Z</time></trkpt><trkpt lat="40.9064367" lon="16.42359"><ele>541.0</ele><time>2026-04-12T11:08:50.658Z</time></trkpt><trkpt lat="40.90651" lon="16.4233517"><ele>543.3333333333334</ele><time>2026-04-12T11:08:51.657Z</time></trkpt><trkpt lat="40.9065917" lon="16.4231483"><ele>545.6666666666666</ele><time>2026-04-12T11:08:52.657Z</time></trkpt><trkpt lat="40.9066817" lon="16.4229433"><ele>548.0</ele><time>2026-04-12T11:08:53.658Z</time></trkpt><trkpt lat="40.9067967" lon="16.4227433"><ele>548.3333333333333</ele><time>2026-04-12T11:08:54.658Z</time></trkpt><trkpt lat="40.9069067" lon="16.4225533"><ele>548.6666666666666</ele><time>2026-04-12T11:08:55.657Z</time></trkpt><trkpt lat="40.9070167" lon="16.42237"><ele>549.0</ele><time>2026-04-12T11:08:56.657Z</time></trkpt><trkpt lat="40.907125" lon="16.42218"><ele>550.3333333333334</ele><time>2026-04-12T11:08:57.657Z</time></trkpt><trkpt lat="40.9072317" lon="16.4219783"><ele>551.6666666666667</ele><time>2026-04-12T11:08:58.657Z</time></trkpt><trkpt lat="40.907335" lon="16.4217717"><ele>553.0</ele><time>2026-04-12T11:08:59.657Z</time></trkpt><trkpt lat="40.9074267" lon="16.4215517"><ele>553.0</ele><time>2026-04-12T11:09:00.657Z</time></trkpt><trkpt lat="40.907495" lon="16.421325"><ele>553.0</ele><time>2026-04-12T11:09:01.658Z</time></trkpt><trkpt lat="40.907525" lon="16.4211117"><ele>553.0</ele><time>2026-04-12T11:09:02.657Z</time></trkpt><trkpt lat="40.907545" lon="16.420875"><ele>553.0</ele><time>2026-04-12T11:09:03.658Z</time></trkpt><trkpt lat="40.9075433" lon="16.420635"><ele>553.0</ele><time>2026-04-12T11:09:04.658Z</time></trkpt><trkpt lat="40.9075467" lon="16.420395"><ele>553.0</ele><time>2026-04-12T11:09:05.657Z</time></trkpt><trkpt lat="40.90754" lon="16.42016"><ele>553.0</ele><time>2026-04-12T11:09:06.657Z</time></trkpt><trkpt lat="40.9075367" lon="16.4199233"><ele>553.0</ele><time>2026-04-12T11:09:07.657Z</time></trkpt><trkpt lat="40.90754" lon="16.4196833"><ele>553.0</ele><time>2026-04-12T11:09:08.657Z</time></trkpt><trkpt lat="40.9075367" lon="16.4194367"><ele>553.0</ele><time>2026-04-12T11:09:09.657Z</time></trkpt><trkpt lat="40.9075317" lon="16.41919"><ele>553.0</ele><time>2026-04-12T11:09:10.657Z</time></trkpt><trkpt lat="40.90753" lon="16.418945"><ele>553.0</ele><time>2026-04-12T11:09:11.657Z</time></trkpt><trkpt lat="40.9075283" lon="16.4186967"><ele>553.0</ele><time>2026-04-12T11:09:12.657Z</time></trkpt><trkpt lat="40.90752" lon="16.41846"><ele>553.0</ele><time>2026-04-12T11:09:13.657Z</time></trkpt><trkpt lat="40.9075167" lon="16.4182167"><ele>553.0</ele><time>2026-04-12T11:09:14.657Z</time></trkpt><trkpt lat="40.9075183" lon="16.4179667"><ele>553.3333333333334</ele><time>2026-04-12T11:09:15.657Z</time></trkpt><trkpt lat="40.90753" lon="16.4177267"><ele>553.6666666666666</ele><time>2026-04-12T11:09:16.658Z</time></trkpt><trkpt lat="40.9075583" lon="16.4174867"><ele>554.0</ele><time>2026-04-12T11:09:17.657Z</time></trkpt><trkpt lat="40.907605" lon="16.4172567"><ele>552.6666666666666</ele><time>2026-04-12T11:09:18.657Z</time></trkpt><trkpt lat="40.9076717" lon="16.4170317"><ele>551.3333333333334</ele><time>2026-04-12T11:09:19.657Z</time></trkpt><trkpt lat="40.9077367" lon="16.41681"><ele>550.0</ele><time>2026-04-12T11:09:20.657Z</time></trkpt><trkpt lat="40.907805" lon="16.4165767"><ele>550.0</ele><time>2026-04-12T11:09:21.657Z</time></trkpt><trkpt lat="40.9078717" lon="16.4163483"><ele>550.0</ele><time>2026-04-12T11:09:22.658Z</time></trkpt><trkpt lat="40.907935" lon="16.4161217"><ele>550.0</ele><time>2026-04-12T11:09:23.657Z</time></trkpt><trkpt lat="40.9079967" lon="16.4158933"><ele>550.3333333333334</ele><time>2026-04-12T11:09:24.657Z</time></trkpt><trkpt lat="40.9080567" lon="16.415665"><ele>550.6666666666666</ele><time>2026-04-12T11:09:25.657Z</time></trkpt><trkpt lat="40.9081183" lon="16.415435"><ele>551.0</ele><time>2026-04-12T11:09:26.657Z</time></trkpt><trkpt lat="40.908195" lon="16.4152183"><ele>551.6666666666666</ele><time>2026-04-12T11:09:27.658Z</time></trkpt><trkpt lat="40.908275" lon="16.4149933"><ele>552.3333333333334</ele><time>2026-04-12T11:09:28.657Z</time></trkpt><trkpt lat="40.9083617" lon="16.41479"><ele>553.0</ele><time>2026-04-12T11:09:29.657Z</time></trkpt><trkpt lat="40.908455" lon="16.4145883"><ele>553.0</ele><time>2026-04-12T11:09:30.657Z</time></trkpt><trkpt lat="40.9085667" lon="16.414405"><ele>553.0</ele><time>2026-04-12T11:09:31.658Z</time></trkpt><trkpt lat="40.908695" lon="16.4142317"><ele>553.0</ele><time>2026-04-12T11:09:32.657Z</time></trkpt><trkpt lat="40.9088317" lon="16.4140733"><ele>553.0</ele><time>2026-04-12T11:09:33.657Z</time></trkpt><trkpt lat="40.9089817" lon="16.4139267"><ele>553.0</ele><time>2026-04-12T11:09:34.658Z</time></trkpt><trkpt lat="40.9091317" lon="16.41378"><ele>553.0</ele><time>2026-04-12T11:09:35.657Z</time></trkpt><trkpt lat="40.9092817" lon="16.4136483"><ele>553.6666666666667</ele><time>2026-04-12T11:09:36.658Z</time></trkpt><trkpt lat="40.9094267" lon="16.4135133"><ele>554.3333333333334</ele><time>2026-04-12T11:09:37.658Z</time></trkpt><trkpt lat="40.9095733" lon="16.4133767"><ele>555.0</ele><time>2026-04-12T11:09:38.658Z</time></trkpt><trkpt lat="40.909715" lon="16.4132333"><ele>555.0</ele><time>2026-04-12T11:09:39.658Z</time></trkpt><trkpt lat="40.9098567" lon="16.413095"><ele>555.0</ele><time>2026-04-12T11:09:40.657Z</time></trkpt><trkpt lat="40.9099917" lon="16.412965"><ele>555.0</ele><time>2026-04-12T11:09:41.657Z</time></trkpt><trkpt lat="40.910135" lon="16.4128383"><ele>557.3333333333334</ele><time>2026-04-12T11:09:42.657Z</time></trkpt><trkpt lat="40.9102767" lon="16.4127133"><ele>559.6666666666667</ele><time>2026-04-12T11:09:43.657Z</time></trkpt><trkpt lat="40.9104367" lon="16.412595"><ele>562.0</ele><time>2026-04-12T11:09:44.657Z</time></trkpt><trkpt lat="40.910595" lon="16.4125017"><ele>562.0</ele><time>2026-04-12T11:09:45.657Z</time></trkpt><trkpt lat="40.91076" lon="16.41242"><ele>562.0</ele><time>2026-04-12T11:09:46.657Z</time></trkpt><trkpt lat="40.91093" lon="16.4123517"><ele>562.0</ele><time>2026-04-12T11:09:47.657Z</time></trkpt><trkpt lat="40.9110967" lon="16.41228"><ele>562.3333333333334</ele><time>2026-04-12T11:09:48.657Z</time></trkpt><trkpt lat="40.911265" lon="16.4122067"><ele>562.6666666666666</ele><time>2026-04-12T11:09:49.657Z</time></trkpt><trkpt lat="40.9114317" lon="16.4121267"><ele>563.0</ele><time>2026-04-12T11:09:50.657Z</time></trkpt><trkpt lat="40.9116" lon="16.412045"><ele>564.6666666666666</ele><time>2026-04-12T11:09:51.658Z</time></trkpt><trkpt lat="40.9117733" lon="16.4119733"><ele>566.3333333333334</ele><time>2026-04-12T11:09:52.657Z</time></trkpt><trkpt lat="40.9119417" lon="16.4118983"><ele>568.0</ele><time>2026-04-12T11:09:53.657Z</time></trkpt><trkpt lat="40.9121117" lon="16.4118133"><ele>568.0</ele><time>2026-04-12T11:09:54.657Z</time></trkpt><trkpt lat="40.9122883" lon="16.41173"><ele>568.0</ele><time>2026-04-12T11:09:55.657Z</time></trkpt><trkpt lat="40.9124617" lon="16.4116517"><ele>568.0</ele><time>2026-04-12T11:09:56.658Z</time></trkpt><trkpt lat="40.9126367" lon="16.411575"><ele>568.6666666666667</ele><time>2026-04-12T11:09:57.658Z</time></trkpt><trkpt lat="40.9128083" lon="16.4114867"><ele>569.3333333333334</ele><time>2026-04-12T11:09:58.657Z</time></trkpt><trkpt lat="40.9129783" lon="16.4114117"><ele>570.0</ele><time>2026-04-12T11:09:59.658Z</time></trkpt><trkpt lat="40.9131483" lon="16.4113317"><ele>570.0</ele><time>2026-04-12T11:10:00.657Z</time></trkpt><trkpt lat="40.91332" lon="16.4112567"><ele>570.0</ele><time>2026-04-12T11:10:01.657Z</time></trkpt><trkpt lat="40.9134883" lon="16.4111783"><ele>570.0</ele><time>2026-04-12T11:10:02.657Z</time></trkpt><trkpt lat="40.913665" lon="16.411095"><ele>570.6666666666666</ele><time>2026-04-12T11:10:03.657Z</time></trkpt><trkpt lat="40.9138383" lon="16.4110067"><ele>571.3333333333333</ele><time>2026-04-12T11:10:04.657Z</time></trkpt><trkpt lat="40.9140117" lon="16.4109267"><ele>572.0</ele><time>2026-04-12T11:10:05.658Z</time></trkpt><trkpt lat="40.9141833" lon="16.4108517"><ele>572.3333333333333</ele><time>2026-04-12T11:10:06.658Z</time></trkpt><trkpt lat="40.91436" lon="16.4107733"><ele>572.6666666666666</ele><time>2026-04-12T11:10:07.658Z</time></trkpt><trkpt lat="40.9145333" lon="16.41069"><ele>573.0</ele><time>2026-04-12T11:10:08.658Z</time></trkpt><trkpt lat="40.9147067" lon="16.4106217"><ele>573.0</ele><time>2026-04-12T11:10:09.659Z</time></trkpt><trkpt lat="40.9148833" lon="16.4105517"><ele>573.0</ele><time>2026-04-12T11:10:10.659Z</time></trkpt><trkpt lat="40.9150533" lon="16.4104667"><ele>573.0</ele><time>2026-04-12T11:10:11.658Z</time></trkpt><trkpt lat="40.915225" lon="16.4103917"><ele>574.3333333333334</ele><time>2026-04-12T11:10:12.658Z</time></trkpt><trkpt lat="40.9154017" lon="16.4103067"><ele>575.6666666666667</ele><time>2026-04-12T11:10:13.659Z</time></trkpt><trkpt lat="40.9155717" lon="16.4102217"><ele>577.0</ele><time>2026-04-12T11:10:14.659Z</time></trkpt><trkpt lat="40.9157433" lon="16.41014"><ele>578.6666666666667</ele><time>2026-04-12T11:10:15.658Z</time></trkpt><trkpt lat="40.9159117" lon="16.410055"><ele>580.3333333333334</ele><time>2026-04-12T11:10:16.658Z</time></trkpt><trkpt lat="40.9160867" lon="16.4099817"><ele>582.0</ele><time>2026-04-12T11:10:17.659Z</time></trkpt><trkpt lat="40.91626" lon="16.4099067"><ele>582.0</ele><time>2026-04-12T11:10:18.658Z</time></trkpt><trkpt lat="40.916435" lon="16.4098317"><ele>582.0</ele><time>2026-04-12T11:10:19.658Z</time></trkpt><trkpt lat="40.91661" lon="16.4097483"><ele>582.0</ele><time>2026-04-12T11:10:20.658Z</time></trkpt><trkpt lat="40.91678" lon="16.4096717"><ele>582.6666666666666</ele><time>2026-04-12T11:10:21.659Z</time></trkpt><trkpt lat="40.9169517" lon="16.4095883"><ele>583.3333333333333</ele><time>2026-04-12T11:10:22.658Z</time></trkpt><trkpt lat="40.917125" lon="16.4095067"><ele>584.0</ele><time>2026-04-12T11:10:23.658Z</time></trkpt><trkpt lat="40.9173033" lon="16.4094233"><ele>584.0</ele><time>2026-04-12T11:10:24.658Z</time></trkpt><trkpt lat="40.917475" lon="16.40933"><ele>584.0</ele><time>2026-04-12T11:10:25.658Z</time></trkpt><trkpt lat="40.917655" lon="16.4092567"><ele>584.0</ele><time>2026-04-12T11:10:26.658Z</time></trkpt><trkpt lat="40.9178367" lon="16.40918"><ele>583.6666666666666</ele><time>2026-04-12T11:10:27.658Z</time></trkpt><trkpt lat="40.9180217" lon="16.4091067"><ele>583.3333333333334</ele><time>2026-04-12T11:10:28.658Z</time></trkpt><trkpt lat="40.9182033" lon="16.4090517"><ele>583.0</ele><time>2026-04-12T11:10:29.658Z</time></trkpt><trkpt lat="40.9183917" lon="16.4090067"><ele>582.3333333333334</ele><time>2026-04-12T11:10:30.658Z</time></trkpt><trkpt lat="40.91858" lon="16.4089583"><ele>581.6666666666666</ele><time>2026-04-12T11:10:31.658Z</time></trkpt><trkpt lat="40.91877" lon="16.4089"><ele>581.0</ele><time>2026-04-12T11:10:32.659Z</time></trkpt><trkpt lat="40.9189533" lon="16.40885"><ele>583.0</ele><time>2026-04-12T11:10:33.658Z</time></trkpt><trkpt lat="40.91914" lon="16.4088017"><ele>585.0</ele><time>2026-04-12T11:10:34.658Z</time></trkpt><trkpt lat="40.919325" lon="16.408745"><ele>587.0</ele><time>2026-04-12T11:10:35.658Z</time></trkpt><trkpt lat="40.919515" lon="16.40869"><ele>587.0</ele><time>2026-04-12T11:10:36.658Z</time></trkpt><trkpt lat="40.9197017" lon="16.408635"><ele>587.0</ele><time>2026-04-12T11:10:37.658Z</time></trkpt><trkpt lat="40.91989" lon="16.40858"><ele>587.0</ele><time>2026-04-12T11:10:38.658Z</time></trkpt><trkpt lat="40.9200817" lon="16.4085183"><ele>587.0</ele><time>2026-04-12T11:10:39.658Z</time></trkpt><trkpt lat="40.9202683" lon="16.4084633"><ele>587.0</ele><time>2026-04-12T11:10:40.658Z</time></trkpt><trkpt lat="40.92046" lon="16.4084083"><ele>587.0</ele><time>2026-04-12T11:10:41.659Z</time></trkpt><trkpt lat="40.9206517" lon="16.4083567"><ele>587.0</ele><time>2026-04-12T11:10:42.658Z</time></trkpt><trkpt lat="40.9208383" lon="16.4083033"><ele>587.0</ele><time>2026-04-12T11:10:43.658Z</time></trkpt><trkpt lat="40.92102" lon="16.40824"><ele>587.0</ele><time>2026-04-12T11:10:44.659Z</time></trkpt><trkpt lat="40.921195" lon="16.408175"><ele>586.6666666666666</ele><time>2026-04-12T11:10:45.658Z</time></trkpt><trkpt lat="40.9213717" lon="16.40808"><ele>586.3333333333334</ele><time>2026-04-12T11:10:46.658Z</time></trkpt><trkpt lat="40.92153" lon="16.4079433"><ele>586.0</ele><time>2026-04-12T11:10:47.659Z</time></trkpt><trkpt lat="40.921675" lon="16.4077917"><ele>585.3333333333334</ele><time>2026-04-12T11:10:48.658Z</time></trkpt><trkpt lat="40.9218167" lon="16.4076167"><ele>584.6666666666666</ele><time>2026-04-12T11:10:49.658Z</time></trkpt><trkpt lat="40.9219533" lon="16.4074267"><ele>584.0</ele><time>2026-04-12T11:10:50.658Z</time></trkpt><trkpt lat="40.92209" lon="16.4072433"><ele>585.0</ele><time>2026-04-12T11:10:51.659Z</time></trkpt><trkpt lat="40.9222233" lon="16.4070617"><ele>586.0</ele><time>2026-04-12T11:10:52.658Z</time></trkpt><trkpt lat="40.9223583" lon="16.4068733"><ele>587.0</ele><time>2026-04-12T11:10:53.658Z</time></trkpt><trkpt lat="40.9225" lon="16.4066917"><ele>585.6666666666666</ele><time>2026-04-12T11:10:54.659Z</time></trkpt><trkpt lat="40.9226383" lon="16.4065083"><ele>584.3333333333334</ele><time>2026-04-12T11:10:55.658Z</time></trkpt><trkpt lat="40.922775" lon="16.40633"><ele>583.0</ele><time>2026-04-12T11:10:56.659Z</time></trkpt><trkpt lat="40.9229133" lon="16.4061467"><ele>583.0</ele><time>2026-04-12T11:10:57.658Z</time></trkpt><trkpt lat="40.9230483" lon="16.4059617"><ele>583.0</ele><time>2026-04-12T11:10:58.658Z</time></trkpt><trkpt lat="40.9231783" lon="16.4057617"><ele>583.0</ele><time>2026-04-12T11:10:59.658Z</time></trkpt><trkpt lat="40.9233117" lon="16.40556"><ele>582.3333333333334</ele><time>2026-04-12T11:11:00.659Z</time></trkpt><trkpt lat="40.923455" lon="16.4053783"><ele>581.6666666666666</ele><time>2026-04-12T11:11:01.659Z</time></trkpt><trkpt lat="40.9235867" lon="16.4051983"><ele>581.0</ele><time>2026-04-12T11:11:02.659Z</time></trkpt><trkpt lat="40.9237167" lon="16.4050133"><ele>581.0</ele><time>2026-04-12T11:11:03.658Z</time></trkpt><trkpt lat="40.9238533" lon="16.40484"><ele>581.0</ele><time>2026-04-12T11:11:04.658Z</time></trkpt><trkpt lat="40.9239817" lon="16.404655"><ele>581.0</ele><time>2026-04-12T11:11:05.658Z</time></trkpt><trkpt lat="40.9241" lon="16.4044433"><ele>580.6666666666666</ele><time>2026-04-12T11:11:06.659Z</time></trkpt><trkpt lat="40.9241967" lon="16.4042167"><ele>580.3333333333334</ele><time>2026-04-12T11:11:07.658Z</time></trkpt><trkpt lat="40.9242917" lon="16.4039917"><ele>580.0</ele><time>2026-04-12T11:11:08.658Z</time></trkpt><trkpt lat="40.92438" lon="16.4037617"><ele>580.0</ele><time>2026-04-12T11:11:09.658Z</time></trkpt><trkpt lat="40.9244633" lon="16.4035333"><ele>580.0</ele><time>2026-04-12T11:11:10.658Z</time></trkpt><trkpt lat="40.9245567" lon="16.4033133"><ele>580.0</ele><time>2026-04-12T11:11:11.658Z</time></trkpt><trkpt lat="40.9246433" lon="16.4031017"><ele>580.6666666666667</ele><time>2026-04-12T11:11:12.658Z</time></trkpt><trkpt lat="40.9247367" lon="16.402885"><ele>581.3333333333334</ele><time>2026-04-12T11:11:13.658Z</time></trkpt><trkpt lat="40.9248367" lon="16.4026683"><ele>582.0</ele><time>2026-04-12T11:11:14.658Z</time></trkpt><trkpt lat="40.9249383" lon="16.4024583"><ele>582.0</ele><time>2026-04-12T11:11:15.659Z</time></trkpt><trkpt lat="40.9250533" lon="16.40226"><ele>582.0</ele><time>2026-04-12T11:11:16.658Z</time></trkpt><trkpt lat="40.9251717" lon="16.402065"><ele>582.0</ele><time>2026-04-12T11:11:17.658Z</time></trkpt><trkpt lat="40.92529" lon="16.4018733"><ele>581.6666666666666</ele><time>2026-04-12T11:11:18.658Z</time></trkpt><trkpt lat="40.9254083" lon="16.401675"><ele>581.3333333333333</ele><time>2026-04-12T11:11:19.659Z</time></trkpt><trkpt lat="40.9255267" lon="16.4014767"><ele>581.0</ele><time>2026-04-12T11:11:20.658Z</time></trkpt><trkpt lat="40.9256417" lon="16.4012833"><ele>581.0</ele><time>2026-04-12T11:11:21.659Z</time></trkpt><trkpt lat="40.925755" lon="16.4010833"><ele>581.0</ele><time>2026-04-12T11:11:22.658Z</time></trkpt><trkpt lat="40.9258817" lon="16.4008967"><ele>581.0</ele><time>2026-04-12T11:11:23.659Z</time></trkpt><trkpt lat="40.9260133" lon="16.4007167"><ele>580.3333333333333</ele><time>2026-04-12T11:11:24.658Z</time></trkpt><trkpt lat="40.9261483" lon="16.40053"><ele>579.6666666666666</ele><time>2026-04-12T11:11:25.658Z</time></trkpt><trkpt lat="40.9262817" lon="16.40035"><ele>579.0</ele><time>2026-04-12T11:11:26.658Z</time></trkpt><trkpt lat="40.92641" lon="16.400155"><ele>579.0</ele><time>2026-04-12T11:11:27.659Z</time></trkpt><trkpt lat="40.9265417" lon="16.3999717"><ele>579.0</ele><time>2026-04-12T11:11:28.658Z</time></trkpt><trkpt lat="40.92668" lon="16.399795"><ele>579.0</ele><time>2026-04-12T11:11:29.659Z</time></trkpt><trkpt lat="40.9268117" lon="16.3996167"><ele>578.0</ele><time>2026-04-12T11:11:30.658Z</time></trkpt><trkpt lat="40.9269433" lon="16.39944"><ele>577.0</ele><time>2026-04-12T11:11:31.658Z</time></trkpt><trkpt lat="40.9270733" lon="16.3992517"><ele>576.0</ele><time>2026-04-12T11:11:32.658Z</time></trkpt><trkpt lat="40.9272167" lon="16.39907"><ele>576.0</ele><time>2026-04-12T11:11:33.658Z</time></trkpt><trkpt lat="40.92736" lon="16.3988967"><ele>576.0</ele><time>2026-04-12T11:11:34.659Z</time></trkpt><trkpt lat="40.9275" lon="16.398715"><ele>576.0</ele><time>2026-04-12T11:11:35.659Z</time></trkpt><trkpt lat="40.9276367" lon="16.3985367"><ele>576.0</ele><time>2026-04-12T11:11:36.658Z</time></trkpt><trkpt lat="40.9277667" lon="16.398355"><ele>576.0</ele><time>2026-04-12T11:11:37.659Z</time></trkpt><trkpt lat="40.927895" lon="16.39817"><ele>576.0</ele><time>2026-04-12T11:11:38.658Z</time></trkpt><trkpt lat="40.92803" lon="16.398"><ele>575.3333333333334</ele><time>2026-04-12T11:11:39.658Z</time></trkpt><trkpt lat="40.928165" lon="16.3978217"><ele>574.6666666666667</ele><time>2026-04-12T11:11:40.658Z</time></trkpt><trkpt lat="40.9283017" lon="16.397645"><ele>574.0</ele><time>2026-04-12T11:11:41.659Z</time></trkpt><trkpt lat="40.9284417" lon="16.3974633"><ele>574.0</ele><time>2026-04-12T11:11:42.658Z</time></trkpt><trkpt lat="40.928575" lon="16.39728"><ele>574.0</ele><time>2026-04-12T11:11:43.659Z</time></trkpt><trkpt lat="40.9287017" lon="16.3970917"><ele>574.0</ele><time>2026-04-12T11:11:44.658Z</time></trkpt><trkpt lat="40.9288217" lon="16.3969017"><ele>574.6666666666667</ele><time>2026-04-12T11:11:45.659Z</time></trkpt><trkpt lat="40.9289333" lon="16.3966933"><ele>575.3333333333334</ele><time>2026-04-12T11:11:46.659Z</time></trkpt><trkpt lat="40.929035" lon="16.3964767"><ele>576.0</ele><time>2026-04-12T11:11:47.659Z</time></trkpt><trkpt lat="40.9291367" lon="16.3962517"><ele>575.6666666666666</ele><time>2026-04-12T11:11:48.658Z</time></trkpt><trkpt lat="40.929235" lon="16.396035"><ele>575.3333333333333</ele><time>2026-04-12T11:11:49.659Z</time></trkpt><trkpt lat="40.9293267" lon="16.395815"><ele>575.0</ele><time>2026-04-12T11:11:50.658Z</time></trkpt><trkpt lat="40.9294267" lon="16.395595"><ele>575.0</ele><time>2026-04-12T11:11:51.658Z</time></trkpt><trkpt lat="40.929525" lon="16.395385"><ele>575.0</ele><time>2026-04-12T11:11:52.658Z</time></trkpt><trkpt lat="40.9296217" lon="16.3951733"><ele>575.0</ele><time>2026-04-12T11:11:53.659Z</time></trkpt><trkpt lat="40.929725" lon="16.3949633"><ele>575.0</ele><time>2026-04-12T11:11:54.658Z</time></trkpt><trkpt lat="40.9298317" lon="16.394755"><ele>575.0</ele><time>2026-04-12T11:11:55.659Z</time></trkpt><trkpt lat="40.929935" lon="16.3945417"><ele>575.0</ele><time>2026-04-12T11:11:56.659Z</time></trkpt><trkpt lat="40.9300483" lon="16.394345"><ele>574.6666666666666</ele><time>2026-04-12T11:11:57.658Z</time></trkpt><trkpt lat="40.93017" lon="16.39417"><ele>574.3333333333334</ele><time>2026-04-12T11:11:58.658Z</time></trkpt><trkpt lat="40.9302883" lon="16.3939783"><ele>574.0</ele><time>2026-04-12T11:11:59.658Z</time></trkpt><trkpt lat="40.9303933" lon="16.39378"><ele>575.0</ele><time>2026-04-12T11:12:00.658Z</time></trkpt><trkpt lat="40.93051" lon="16.3935917"><ele>576.0</ele><time>2026-04-12T11:12:01.659Z</time></trkpt><trkpt lat="40.9306183" lon="16.3933883"><ele>577.0</ele><time>2026-04-12T11:12:02.659Z</time></trkpt><trkpt lat="40.93073" lon="16.3931983"><ele>577.0</ele><time>2026-04-12T11:12:03.658Z</time></trkpt><trkpt lat="40.930855" lon="16.39302"><ele>577.0</ele><time>2026-04-12T11:12:04.658Z</time></trkpt><trkpt lat="40.9309967" lon="16.3928633"><ele>577.0</ele><time>2026-04-12T11:12:05.658Z</time></trkpt><trkpt lat="40.931145" lon="16.3927217"><ele>577.3333333333334</ele><time>2026-04-12T11:12:06.658Z</time></trkpt><trkpt lat="40.9313083" lon="16.3925983"><ele>577.6666666666666</ele><time>2026-04-12T11:12:07.659Z</time></trkpt><trkpt lat="40.9314783" lon="16.3925067"><ele>578.0</ele><time>2026-04-12T11:12:08.659Z</time></trkpt><trkpt lat="40.9316517" lon="16.392425"><ele>577.6666666666666</ele><time>2026-04-12T11:12:09.658Z</time></trkpt><trkpt lat="40.9318183" lon="16.3923533"><ele>577.3333333333334</ele><time>2026-04-12T11:12:10.658Z</time></trkpt><trkpt lat="40.9319833" lon="16.3922817"><ele>577.0</ele><time>2026-04-12T11:12:11.659Z</time></trkpt><trkpt lat="40.9321367" lon="16.3921783"><ele>579.0</ele><time>2026-04-12T11:12:12.658Z</time></trkpt><trkpt lat="40.932285" lon="16.3920433"><ele>581.0</ele><time>2026-04-12T11:12:13.659Z</time></trkpt><trkpt lat="40.9324283" lon="16.3919083"><ele>583.0</ele><time>2026-04-12T11:12:14.659Z</time></trkpt><trkpt lat="40.9325683" lon="16.3917583"><ele>583.3333333333334</ele><time>2026-04-12T11:12:15.658Z</time></trkpt><trkpt lat="40.9327033" lon="16.391585"><ele>583.6666666666666</ele><time>2026-04-12T11:12:16.658Z</time></trkpt><trkpt lat="40.9328317" lon="16.391405"><ele>584.0</ele><time>2026-04-12T11:12:17.658Z</time></trkpt><trkpt lat="40.9329617" lon="16.3912283"><ele>584.6666666666666</ele><time>2026-04-12T11:12:18.658Z</time></trkpt><trkpt lat="40.93309" lon="16.3910567"><ele>585.3333333333334</ele><time>2026-04-12T11:12:19.659Z</time></trkpt><trkpt lat="40.9332117" lon="16.3908833"><ele>586.0</ele><time>2026-04-12T11:12:20.658Z</time></trkpt><trkpt lat="40.933345" lon="16.390715"><ele>586.0</ele><time>2026-04-12T11:12:21.658Z</time></trkpt><trkpt lat="40.9334833" lon="16.3905617"><ele>586.0</ele><time>2026-04-12T11:12:22.658Z</time></trkpt><trkpt lat="40.9336317" lon="16.3904217"><ele>586.0</ele><time>2026-04-12T11:12:23.658Z</time></trkpt><trkpt lat="40.93379" lon="16.3902867"><ele>586.0</ele><time>2026-04-12T11:12:24.658Z</time></trkpt><trkpt lat="40.93395" lon="16.3901433"><ele>586.0</ele><time>2026-04-12T11:12:25.659Z</time></trkpt><trkpt lat="40.9341033" lon="16.390005"><ele>586.0</ele><time>2026-04-12T11:12:26.658Z</time></trkpt><trkpt lat="40.93426" lon="16.3898667"><ele>587.3333333333334</ele><time>2026-04-12T11:12:27.658Z</time></trkpt><trkpt lat="40.93441" lon="16.3897367"><ele>588.6666666666666</ele><time>2026-04-12T11:12:28.658Z</time></trkpt><trkpt lat="40.9345633" lon="16.3895917"><ele>590.0</ele><time>2026-04-12T11:12:29.658Z</time></trkpt><trkpt lat="40.9347183" lon="16.3894583"><ele>590.0</ele><time>2026-04-12T11:12:30.658Z</time></trkpt><trkpt lat="40.934865" lon="16.389325"><ele>590.0</ele><time>2026-04-12T11:12:31.658Z</time></trkpt><trkpt lat="40.9350033" lon="16.3892167"><ele>590.0</ele><time>2026-04-12T11:12:32.659Z</time></trkpt><trkpt lat="40.9351517" lon="16.3891167"><ele>590.3333333333333</ele><time>2026-04-12T11:12:33.658Z</time></trkpt><trkpt lat="40.9353083" lon="16.3890367"><ele>590.6666666666666</ele><time>2026-04-12T11:12:34.658Z</time></trkpt><trkpt lat="40.9354733" lon="16.388965"><ele>591.0</ele><time>2026-04-12T11:12:35.659Z</time></trkpt><trkpt lat="40.935645" lon="16.3889017"><ele>590.6666666666666</ele><time>2026-04-12T11:12:36.659Z</time></trkpt><trkpt lat="40.9358233" lon="16.3888367"><ele>590.3333333333333</ele><time>2026-04-12T11:12:37.658Z</time></trkpt><trkpt lat="40.9360033" lon="16.388775"><ele>590.0</ele><time>2026-04-12T11:12:38.658Z</time></trkpt><trkpt lat="40.9361817" lon="16.388715"><ele>590.0</ele><time>2026-04-12T11:12:39.658Z</time></trkpt><trkpt lat="40.9363583" lon="16.38866"><ele>590.0</ele><time>2026-04-12T11:12:40.658Z</time></trkpt><trkpt lat="40.936535" lon="16.3885967"><ele>590.0</ele><time>2026-04-12T11:12:41.658Z</time></trkpt><trkpt lat="40.9367083" lon="16.3885367"><ele>590.6666666666666</ele><time>2026-04-12T11:12:42.658Z</time></trkpt><trkpt lat="40.9368717" lon="16.388485"><ele>591.3333333333334</ele><time>2026-04-12T11:12:43.658Z</time></trkpt><trkpt lat="40.9370267" lon="16.388435"><ele>592.0</ele><time>2026-04-12T11:12:44.658Z</time></trkpt><trkpt lat="40.9372033" lon="16.388415"><ele>592.0</ele><time>2026-04-12T11:12:45.658Z</time></trkpt><trkpt lat="40.9373833" lon="16.3884333"><ele>592.0</ele><time>2026-04-12T11:12:46.658Z</time></trkpt><trkpt lat="40.937575" lon="16.3884767"><ele>592.0</ele><time>2026-04-12T11:12:47.658Z</time></trkpt><trkpt lat="40.9377533" lon="16.3885133"><ele>592.6666666666667</ele><time>2026-04-12T11:12:48.658Z</time></trkpt><trkpt lat="40.9379417" lon="16.388545"><ele>593.3333333333334</ele><time>2026-04-12T11:12:49.658Z</time></trkpt><trkpt lat="40.93813" lon="16.3885783"><ele>594.0</ele><time>2026-04-12T11:12:50.659Z</time></trkpt><trkpt lat="40.9383167" lon="16.388615"><ele>593.0</ele><time>2026-04-12T11:12:51.658Z</time></trkpt><trkpt lat="40.938505" lon="16.3886483"><ele>592.0</ele><time>2026-04-12T11:12:52.658Z</time></trkpt><trkpt lat="40.938695" lon="16.3886833"><ele>591.0</ele><time>2026-04-12T11:12:53.658Z</time></trkpt><trkpt lat="40.93889" lon="16.3887133"><ele>591.0</ele><time>2026-04-12T11:12:54.658Z</time></trkpt><trkpt lat="40.9390867" lon="16.38875"><ele>591.0</ele><time>2026-04-12T11:12:55.658Z</time></trkpt><trkpt lat="40.9392867" lon="16.3887883"><ele>591.0</ele><time>2026-04-12T11:12:56.659Z</time></trkpt><trkpt lat="40.9394817" lon="16.3888233"><ele>588.3333333333334</ele><time>2026-04-12T11:12:57.658Z</time></trkpt><trkpt lat="40.9396733" lon="16.3888617"><ele>585.6666666666667</ele><time>2026-04-12T11:12:58.658Z</time></trkpt><trkpt lat="40.9398617" lon="16.3888983"><ele>583.0</ele><time>2026-04-12T11:12:59.657Z</time></trkpt><trkpt lat="40.9400483" lon="16.3889433"><ele>582.0</ele><time>2026-04-12T11:13:00.659Z</time></trkpt><trkpt lat="40.9402267" lon="16.3889733"><ele>581.0</ele><time>2026-04-12T11:13:01.658Z</time></trkpt><trkpt lat="40.9404133" lon="16.389005"><ele>580.0</ele><time>2026-04-12T11:13:02.658Z</time></trkpt><trkpt lat="40.9406017" lon="16.3890383"><ele>580.0</ele><time>2026-04-12T11:13:03.658Z</time></trkpt><trkpt lat="40.9407817" lon="16.3890767"><ele>580.0</ele><time>2026-04-12T11:13:04.658Z</time></trkpt><trkpt lat="40.9409533" lon="16.3891067"><ele>580.0</ele><time>2026-04-12T11:13:05.658Z</time></trkpt><trkpt lat="40.9411033" lon="16.389115"><ele>581.25</ele><time>2026-04-12T11:13:06.658Z</time></trkpt><trkpt lat="40.94125" lon="16.3890983"><ele>582.5</ele><time>2026-04-12T11:13:07.658Z</time></trkpt><trkpt lat="40.9413867" lon="16.3890467"><ele>583.75</ele><time>2026-04-12T11:13:08.658Z</time></trkpt><trkpt lat="40.941515" lon="16.388955"><ele>585.0</ele><time>2026-04-12T11:13:09.659Z</time></trkpt><trkpt lat="40.9416517" lon="16.38885"><ele>585.3333333333334</ele><time>2026-04-12T11:13:10.658Z</time></trkpt><trkpt lat="40.9417917" lon="16.3887517"><ele>585.6666666666667</ele><time>2026-04-12T11:13:11.659Z</time></trkpt><trkpt lat="40.9419367" lon="16.388675"><ele>586.0</ele><time>2026-04-12T11:13:12.658Z</time></trkpt><trkpt lat="40.9421" lon="16.38864"><ele>586.0</ele><time>2026-04-12T11:13:13.658Z</time></trkpt><trkpt lat="40.9422767" lon="16.3886217"><ele>586.0</ele><time>2026-04-12T11:13:14.658Z</time></trkpt><trkpt lat="40.94246" lon="16.388605"><ele>586.0</ele><time>2026-04-12T11:13:15.659Z</time></trkpt><trkpt lat="40.9426417" lon="16.3885883"><ele>586.6666666666667</ele><time>2026-04-12T11:13:16.658Z</time></trkpt><trkpt lat="40.9428267" lon="16.3885717"><ele>587.3333333333334</ele><time>2026-04-12T11:13:17.659Z</time></trkpt><trkpt lat="40.943015" lon="16.388555"><ele>588.0</ele><time>2026-04-12T11:13:18.658Z</time></trkpt><trkpt lat="40.9432017" lon="16.388535"><ele>588.3333333333334</ele><time>2026-04-12T11:13:19.658Z</time></trkpt><trkpt lat="40.9433917" lon="16.3885183"><ele>588.6666666666667</ele><time>2026-04-12T11:13:20.658Z</time></trkpt><trkpt lat="40.94358" lon="16.3885"><ele>589.0</ele><time>2026-04-12T11:13:21.658Z</time></trkpt><trkpt lat="40.9437667" lon="16.38848"><ele>589.0</ele><time>2026-04-12T11:13:22.658Z</time></trkpt><trkpt lat="40.9439567" lon="16.3884533"><ele>589.0</ele><time>2026-04-12T11:13:23.658Z</time></trkpt><trkpt lat="40.944145" lon="16.3884367"><ele>589.0</ele><time>2026-04-12T11:13:24.659Z</time></trkpt><trkpt lat="40.944335" lon="16.3884183"><ele>589.6666666666667</ele><time>2026-04-12T11:13:25.658Z</time></trkpt><trkpt lat="40.9445233" lon="16.3883967"><ele>590.3333333333334</ele><time>2026-04-12T11:13:26.658Z</time></trkpt><trkpt lat="40.94471" lon="16.3883783"><ele>591.0</ele><time>2026-04-12T11:13:27.659Z</time></trkpt><trkpt lat="40.9448967" lon="16.3883583"><ele>591.6666666666666</ele><time>2026-04-12T11:13:28.658Z</time></trkpt><trkpt lat="40.9450817" lon="16.3883383"><ele>592.3333333333333</ele><time>2026-04-12T11:13:29.658Z</time></trkpt><trkpt lat="40.9452667" lon="16.3883183"><ele>593.0</ele><time>2026-04-12T11:13:30.658Z</time></trkpt><trkpt lat="40.945455" lon="16.3883"><ele>593.0</ele><time>2026-04-12T11:13:31.658Z</time></trkpt><trkpt lat="40.945645" lon="16.3882783"><ele>593.0</ele><time>2026-04-12T11:13:32.659Z</time></trkpt><trkpt lat="40.9458333" lon="16.3882617"><ele>593.0</ele><time>2026-04-12T11:13:33.658Z</time></trkpt><trkpt lat="40.9460183" lon="16.3882467"><ele>593.6666666666666</ele><time>2026-04-12T11:13:34.658Z</time></trkpt><trkpt lat="40.9462083" lon="16.3882317"><ele>594.3333333333334</ele><time>2026-04-12T11:13:35.658Z</time></trkpt><trkpt lat="40.9463967" lon="16.38821"><ele>595.0</ele><time>2026-04-12T11:13:36.658Z</time></trkpt><trkpt lat="40.946585" lon="16.3881883"><ele>596.6666666666667</ele><time>2026-04-12T11:13:37.659Z</time></trkpt><trkpt lat="40.9467667" lon="16.3881617"><ele>598.3333333333334</ele><time>2026-04-12T11:13:38.658Z</time></trkpt><trkpt lat="40.9469533" lon="16.3881383"><ele>600.0</ele><time>2026-04-12T11:13:39.659Z</time></trkpt><trkpt lat="40.9471333" lon="16.388125"><ele>600.0</ele><time>2026-04-12T11:13:40.658Z</time></trkpt><trkpt lat="40.9473183" lon="16.3881"><ele>600.0</ele><time>2026-04-12T11:13:41.658Z</time></trkpt><trkpt lat="40.947505" lon="16.388075"><ele>600.0</ele><time>2026-04-12T11:13:42.658Z</time></trkpt><trkpt lat="40.9476883" lon="16.3880567"><ele>601.3333333333334</ele><time>2026-04-12T11:13:43.658Z</time></trkpt><trkpt lat="40.9478717" lon="16.38804"><ele>602.6666666666667</ele><time>2026-04-12T11:13:44.658Z</time></trkpt><trkpt lat="40.948055" lon="16.38802"><ele>604.0</ele><time>2026-04-12T11:13:45.658Z</time></trkpt><trkpt lat="40.9482433" lon="16.388"><ele>605.0</ele><time>2026-04-12T11:13:46.658Z</time></trkpt><trkpt lat="40.9484283" lon="16.3879817"><ele>606.0</ele><time>2026-04-12T11:13:47.658Z</time></trkpt><trkpt lat="40.9486117" lon="16.3879667"><ele>607.0</ele><time>2026-04-12T11:13:48.658Z</time></trkpt><trkpt lat="40.9487933" lon="16.38795"><ele>607.0</ele><time>2026-04-12T11:13:49.659Z</time></trkpt><trkpt lat="40.94897" lon="16.3879283"><ele>607.0</ele><time>2026-04-12T11:13:50.658Z</time></trkpt><trkpt lat="40.949145" lon="16.3879033"><ele>607.0</ele><time>2026-04-12T11:13:51.658Z</time></trkpt><trkpt lat="40.9493267" lon="16.3878783"><ele>608.0</ele><time>2026-04-12T11:13:52.659Z</time></trkpt><trkpt lat="40.94951" lon="16.3878633"><ele>609.0</ele><time>2026-04-12T11:13:53.659Z</time></trkpt><trkpt lat="40.9496883" lon="16.3878467"><ele>610.0</ele><time>2026-04-12T11:13:54.659Z</time></trkpt><trkpt lat="40.9498683" lon="16.3878283"><ele>610.0</ele><time>2026-04-12T11:13:55.659Z</time></trkpt><trkpt lat="40.9500383" lon="16.3878083"><ele>610.0</ele><time>2026-04-12T11:13:56.658Z</time></trkpt><trkpt lat="40.9502033" lon="16.3877883"><ele>610.0</ele><time>2026-04-12T11:13:57.658Z</time></trkpt><trkpt lat="40.95036" lon="16.3877733"><ele>610.3333333333334</ele><time>2026-04-12T11:13:58.658Z</time></trkpt><trkpt lat="40.9505183" lon="16.3877567"><ele>610.6666666666666</ele><time>2026-04-12T11:13:59.659Z</time></trkpt><trkpt lat="40.9506817" lon="16.387745"><ele>611.0</ele><time>2026-04-12T11:14:00.659Z</time></trkpt><trkpt lat="40.9508517" lon="16.387735"><ele>611.0</ele><time>2026-04-12T11:14:01.659Z</time></trkpt><trkpt lat="40.9510217" lon="16.387715"><ele>611.0</ele><time>2026-04-12T11:14:02.659Z</time></trkpt><trkpt lat="40.9512033" lon="16.387695"><ele>611.0</ele><time>2026-04-12T11:14:03.658Z</time></trkpt><trkpt lat="40.951375" lon="16.387675"><ele>611.0</ele><time>2026-04-12T11:14:04.659Z</time></trkpt><trkpt lat="40.951555" lon="16.387655"><ele>611.0</ele><time>2026-04-12T11:14:05.659Z</time></trkpt><trkpt lat="40.9517417" lon="16.3876333"><ele>611.0</ele><time>2026-04-12T11:14:06.659Z</time></trkpt><trkpt lat="40.95193" lon="16.3876167"><ele>610.6666666666666</ele><time>2026-04-12T11:14:07.658Z</time></trkpt><trkpt lat="40.952115" lon="16.38759"><ele>610.3333333333334</ele><time>2026-04-12T11:14:08.658Z</time></trkpt><trkpt lat="40.9523017" lon="16.3875717"><ele>610.0</ele><time>2026-04-12T11:14:09.658Z</time></trkpt><trkpt lat="40.9524883" lon="16.3875483"><ele>609.3333333333334</ele><time>2026-04-12T11:14:10.659Z</time></trkpt><trkpt lat="40.952675" lon="16.3875283"><ele>608.6666666666666</ele><time>2026-04-12T11:14:11.658Z</time></trkpt><trkpt lat="40.9528683" lon="16.38751"><ele>608.0</ele><time>2026-04-12T11:14:12.658Z</time></trkpt><trkpt lat="40.9530633" lon="16.3874917"><ele>608.0</ele><time>2026-04-12T11:14:13.658Z</time></trkpt><trkpt lat="40.9532583" lon="16.3874733"><ele>608.0</ele><time>2026-04-12T11:14:14.658Z</time></trkpt><trkpt lat="40.9534533" lon="16.3874483"><ele>608.0</ele><time>2026-04-12T11:14:15.658Z</time></trkpt><trkpt lat="40.953645" lon="16.3874267"><ele>607.6666666666666</ele><time>2026-04-12T11:14:16.658Z</time></trkpt><trkpt lat="40.9538367" lon="16.3874067"><ele>607.3333333333334</ele><time>2026-04-12T11:14:17.659Z</time></trkpt><trkpt lat="40.9540367" lon="16.3873867"><ele>607.0</ele><time>2026-04-12T11:14:18.658Z</time></trkpt><trkpt lat="40.9542317" lon="16.3873667"><ele>607.0</ele><time>2026-04-12T11:14:19.659Z</time></trkpt><trkpt lat="40.954425" lon="16.3873433"><ele>607.0</ele><time>2026-04-12T11:14:20.658Z</time></trkpt><trkpt lat="40.954615" lon="16.3873233"><ele>607.0</ele><time>2026-04-12T11:14:21.658Z</time></trkpt><trkpt lat="40.9548033" lon="16.3873033"><ele>607.0</ele><time>2026-04-12T11:14:22.658Z</time></trkpt><trkpt lat="40.9549733" lon="16.3872883"><ele>607.0</ele><time>2026-04-12T11:14:23.658Z</time></trkpt><trkpt lat="40.955125" lon="16.387275"><ele>607.0</ele><time>2026-04-12T11:14:24.658Z</time></trkpt><trkpt lat="40.9552583" lon="16.3872583"><ele>607.0</ele><time>2026-04-12T11:14:25.658Z</time></trkpt><trkpt lat="40.9553617" lon="16.3872483"><ele>607.0</ele><time>2026-04-12T11:14:26.658Z</time></trkpt><trkpt lat="40.9554467" lon="16.387235"><ele>607.0</ele><time>2026-04-12T11:14:27.658Z</time></trkpt><trkpt lat="40.95551" lon="16.38722"><ele>607.0</ele><time>2026-04-12T11:14:28.659Z</time></trkpt><trkpt lat="40.955605" lon="16.3871583"><ele>607.0</ele><time>2026-04-12T11:14:30.658Z</time></trkpt><trkpt lat="40.9556317" lon="16.3870767"><ele>607.0</ele><time>2026-04-12T11:14:31.658Z</time></trkpt><trkpt lat="40.9556367" lon="16.3869717"><ele>607.2</ele><time>2026-04-12T11:14:32.658Z</time></trkpt><trkpt lat="40.95562" lon="16.3868367"><ele>607.4000000000001</ele><time>2026-04-12T11:14:33.659Z</time></trkpt><trkpt lat="40.9555933" lon="16.386695"><ele>607.5999999999999</ele><time>2026-04-12T11:14:34.659Z</time></trkpt><trkpt lat="40.95557" lon="16.38655"><ele>607.8</ele><time>2026-04-12T11:14:35.658Z</time></trkpt><trkpt lat="40.9555467" lon="16.3863967"><ele>608.0</ele><time>2026-04-12T11:14:36.659Z</time></trkpt><trkpt lat="40.9555317" lon="16.3862283"><ele>608.25</ele><time>2026-04-12T11:14:37.658Z</time></trkpt><trkpt lat="40.9555133" lon="16.3860517"><ele>608.5</ele><time>2026-04-12T11:14:38.658Z</time></trkpt><trkpt lat="40.9554967" lon="16.385875"><ele>608.75</ele><time>2026-04-12T11:14:39.659Z</time></trkpt><trkpt lat="40.9554783" lon="16.38569"><ele>609.0</ele><time>2026-04-12T11:14:40.658Z</time></trkpt><trkpt lat="40.9554517" lon="16.3854917"><ele>608.3333333333334</ele><time>2026-04-12T11:14:41.659Z</time></trkpt><trkpt lat="40.9554283" lon="16.38529"><ele>607.6666666666667</ele><time>2026-04-12T11:14:42.659Z</time></trkpt><trkpt lat="40.9554117" lon="16.3850817"><ele>607.0</ele><time>2026-04-12T11:14:43.658Z</time></trkpt><trkpt lat="40.9553967" lon="16.3848783"><ele>606.6666666666667</ele><time>2026-04-12T11:14:44.659Z</time></trkpt><trkpt lat="40.9553783" lon="16.384665"><ele>606.3333333333334</ele><time>2026-04-12T11:14:45.658Z</time></trkpt><trkpt lat="40.95535" lon="16.38445"><ele>606.0</ele><time>2026-04-12T11:14:46.658Z</time></trkpt><trkpt lat="40.955325" lon="16.3842317"><ele>606.0</ele><time>2026-04-12T11:14:47.658Z</time></trkpt><trkpt lat="40.9553" lon="16.3840067"><ele>606.0</ele><time>2026-04-12T11:14:48.658Z</time></trkpt><trkpt lat="40.9552883" lon="16.3837833"><ele>606.0</ele><time>2026-04-12T11:14:49.658Z</time></trkpt><trkpt lat="40.9552833" lon="16.3835683"><ele>606.0</ele><time>2026-04-12T11:14:50.658Z</time></trkpt><trkpt lat="40.9552917" lon="16.3833433"><ele>606.0</ele><time>2026-04-12T11:14:51.658Z</time></trkpt><trkpt lat="40.955305" lon="16.3831217"><ele>606.0</ele><time>2026-04-12T11:14:52.658Z</time></trkpt><trkpt lat="40.955315" lon="16.3828983"><ele>606.6666666666666</ele><time>2026-04-12T11:14:53.659Z</time></trkpt><trkpt lat="40.9553333" lon="16.3826567"><ele>607.3333333333333</ele><time>2026-04-12T11:14:54.658Z</time></trkpt><trkpt lat="40.9553483" lon="16.3824183"><ele>608.0</ele><time>2026-04-12T11:14:55.658Z</time></trkpt><trkpt lat="40.9553567" lon="16.3821783"><ele>608.3333333333333</ele><time>2026-04-12T11:14:56.659Z</time></trkpt><trkpt lat="40.955365" lon="16.3819433"><ele>608.6666666666666</ele><time>2026-04-12T11:14:57.658Z</time></trkpt><trkpt lat="40.955375" lon="16.3817133"><ele>609.0</ele><time>2026-04-12T11:14:58.658Z</time></trkpt><trkpt lat="40.9553783" lon="16.3814767"><ele>609.3333333333334</ele><time>2026-04-12T11:14:59.658Z</time></trkpt><trkpt lat="40.9553883" lon="16.381255"><ele>609.6666666666667</ele><time>2026-04-12T11:15:00.659Z</time></trkpt><trkpt lat="40.9553983" lon="16.3810233"><ele>610.0</ele><time>2026-04-12T11:15:01.659Z</time></trkpt><trkpt lat="40.9554033" lon="16.38079"><ele>610.0</ele><time>2026-04-12T11:15:02.658Z</time></trkpt><trkpt lat="40.9554" lon="16.38056"><ele>610.0</ele><time>2026-04-12T11:15:03.658Z</time></trkpt><trkpt lat="40.9553983" lon="16.3803183"><ele>610.0</ele><time>2026-04-12T11:15:04.658Z</time></trkpt><trkpt lat="40.95539" lon="16.3800783"><ele>609.0</ele><time>2026-04-12T11:15:05.658Z</time></trkpt><trkpt lat="40.9553783" lon="16.3798283"><ele>608.0</ele><time>2026-04-12T11:15:06.658Z</time></trkpt><trkpt lat="40.9553717" lon="16.3795933"><ele>607.0</ele><time>2026-04-12T11:15:07.659Z</time></trkpt><trkpt lat="40.955365" lon="16.37935"><ele>606.6666666666667</ele><time>2026-04-12T11:15:08.658Z</time></trkpt><trkpt lat="40.9553583" lon="16.3791"><ele>606.3333333333334</ele><time>2026-04-12T11:15:09.658Z</time></trkpt><trkpt lat="40.955355" lon="16.378855"><ele>606.0</ele><time>2026-04-12T11:15:10.659Z</time></trkpt><trkpt lat="40.9553483" lon="16.3786033"><ele>606.6666666666666</ele><time>2026-04-12T11:15:11.658Z</time></trkpt><trkpt lat="40.9553367" lon="16.3783633"><ele>607.3333333333333</ele><time>2026-04-12T11:15:12.658Z</time></trkpt><trkpt lat="40.9553283" lon="16.3781217"><ele>608.0</ele><time>2026-04-12T11:15:13.659Z</time></trkpt><trkpt lat="40.9553183" lon="16.3778817"><ele>609.0</ele><time>2026-04-12T11:15:14.659Z</time></trkpt><trkpt lat="40.9553117" lon="16.377645"><ele>610.0</ele><time>2026-04-12T11:15:15.658Z</time></trkpt><trkpt lat="40.9553067" lon="16.3774117"><ele>611.0</ele><time>2026-04-12T11:15:16.658Z</time></trkpt><trkpt lat="40.9553033" lon="16.3771983"><ele>612.3333333333333</ele><time>2026-04-12T11:15:17.658Z</time></trkpt><trkpt lat="40.9553017" lon="16.3769733"><ele>613.6666666666666</ele><time>2026-04-12T11:15:18.658Z</time></trkpt><trkpt lat="40.9553" lon="16.3767583"><ele>615.0</ele><time>2026-04-12T11:15:19.658Z</time></trkpt><trkpt lat="40.9552867" lon="16.376545"><ele>614.6666666666666</ele><time>2026-04-12T11:15:20.658Z</time></trkpt><trkpt lat="40.9552783" lon="16.3763283"><ele>614.3333333333333</ele><time>2026-04-12T11:15:21.659Z</time></trkpt><trkpt lat="40.9552717" lon="16.376105"><ele>614.0</ele><time>2026-04-12T11:15:22.659Z</time></trkpt><trkpt lat="40.9552567" lon="16.375875"><ele>614.0</ele><time>2026-04-12T11:15:23.658Z</time></trkpt><trkpt lat="40.9552517" lon="16.37563"><ele>614.0</ele><time>2026-04-12T11:15:24.659Z</time></trkpt><trkpt lat="40.9552417" lon="16.3753917"><ele>614.0</ele><time>2026-04-12T11:15:25.658Z</time></trkpt><trkpt lat="40.9552367" lon="16.375145"><ele>614.0</ele><time>2026-04-12T11:15:26.658Z</time></trkpt><trkpt lat="40.9552283" lon="16.3748983"><ele>614.0</ele><time>2026-04-12T11:15:27.658Z</time></trkpt><trkpt lat="40.9552183" lon="16.3746617"><ele>614.0</ele><time>2026-04-12T11:15:28.658Z</time></trkpt><trkpt lat="40.95521" lon="16.3744217"><ele>614.0</ele><time>2026-04-12T11:15:29.658Z</time></trkpt><trkpt lat="40.9552" lon="16.374175"><ele>614.0</ele><time>2026-04-12T11:15:30.658Z</time></trkpt><trkpt lat="40.9551883" lon="16.37394"><ele>614.0</ele><time>2026-04-12T11:15:31.658Z</time></trkpt><trkpt lat="40.95518" lon="16.3737083"><ele>614.6666666666666</ele><time>2026-04-12T11:15:32.659Z</time></trkpt><trkpt lat="40.95517" lon="16.373475"><ele>615.3333333333334</ele><time>2026-04-12T11:15:33.658Z</time></trkpt><trkpt lat="40.95516" lon="16.373235"><ele>616.0</ele><time>2026-04-12T11:15:34.658Z</time></trkpt><trkpt lat="40.9551533" lon="16.3730117"><ele>616.5</ele><time>2026-04-12T11:15:35.658Z</time></trkpt><trkpt lat="40.955145" lon="16.3728067"><ele>617.0</ele><time>2026-04-12T11:15:36.658Z</time></trkpt><trkpt lat="40.95512" lon="16.3726217"><ele>617.5</ele><time>2026-04-12T11:15:37.658Z</time></trkpt><trkpt lat="40.9550767" lon="16.3724433"><ele>618.0</ele><time>2026-04-12T11:15:38.658Z</time></trkpt><trkpt lat="40.95501" lon="16.372275"><ele>619.3333333333334</ele><time>2026-04-12T11:15:39.658Z</time></trkpt><trkpt lat="40.9549383" lon="16.3721017"><ele>620.6666666666667</ele><time>2026-04-12T11:15:40.658Z</time></trkpt><trkpt lat="40.9548717" lon="16.3719233"><ele>622.0</ele><time>2026-04-12T11:15:41.658Z</time></trkpt><trkpt lat="40.9547983" lon="16.371735"><ele>622.0</ele><time>2026-04-12T11:15:42.658Z</time></trkpt><trkpt lat="40.95473" lon="16.3715383"><ele>622.0</ele><time>2026-04-12T11:15:43.658Z</time></trkpt><trkpt lat="40.9546617" lon="16.3713433"><ele>622.0</ele><time>2026-04-12T11:15:44.658Z</time></trkpt><trkpt lat="40.9545867" lon="16.3711367"><ele>622.6666666666667</ele><time>2026-04-12T11:15:45.658Z</time></trkpt><trkpt lat="40.95452" lon="16.37093"><ele>623.3333333333334</ele><time>2026-04-12T11:15:46.658Z</time></trkpt><trkpt lat="40.95445" lon="16.3707233"><ele>624.0</ele><time>2026-04-12T11:15:47.659Z</time></trkpt><trkpt lat="40.954375" lon="16.3705167"><ele>624.0</ele><time>2026-04-12T11:15:48.659Z</time></trkpt><trkpt lat="40.9542967" lon="16.370315"><ele>624.0</ele><time>2026-04-12T11:15:49.658Z</time></trkpt><trkpt lat="40.9542183" lon="16.37012"><ele>624.0</ele><time>2026-04-12T11:15:50.659Z</time></trkpt><trkpt lat="40.9541533" lon="16.3699333"><ele>624.25</ele><time>2026-04-12T11:15:51.659Z</time></trkpt><trkpt lat="40.95409" lon="16.3697467"><ele>624.5</ele><time>2026-04-12T11:15:52.659Z</time></trkpt><trkpt lat="40.9540283" lon="16.3695683"><ele>624.75</ele><time>2026-04-12T11:15:53.659Z</time></trkpt><trkpt lat="40.9539733" lon="16.369395"><ele>625.0</ele><time>2026-04-12T11:15:54.658Z</time></trkpt><trkpt lat="40.9539233" lon="16.36925"><ele>625.2</ele><time>2026-04-12T11:15:55.659Z</time></trkpt><trkpt lat="40.9538783" lon="16.3691183"><ele>625.4</ele><time>2026-04-12T11:15:56.658Z</time></trkpt><trkpt lat="40.9538333" lon="16.36899"><ele>625.6</ele><time>2026-04-12T11:15:57.659Z</time></trkpt><trkpt lat="40.95379" lon="16.3688583"><ele>625.8</ele><time>2026-04-12T11:15:58.658Z</time></trkpt><trkpt lat="40.953745" lon="16.3687183"><ele>626.0</ele><time>2026-04-12T11:15:59.658Z</time></trkpt><trkpt lat="40.953695" lon="16.3685933"><ele>626.0</ele><time>2026-04-12T11:16:00.658Z</time></trkpt><trkpt lat="40.953635" lon="16.36848"><ele>626.0</ele><time>2026-04-12T11:16:01.658Z</time></trkpt><trkpt lat="40.9535683" lon="16.36837"><ele>626.0</ele><time>2026-04-12T11:16:02.658Z</time></trkpt><trkpt lat="40.9534917" lon="16.36827"><ele>626.0</ele><time>2026-04-12T11:16:03.658Z</time></trkpt><trkpt lat="40.9533983" lon="16.3681933"><ele>626.0</ele><time>2026-04-12T11:16:04.658Z</time></trkpt><trkpt lat="40.9533" lon="16.3681183"><ele>626.75</ele><time>2026-04-12T11:16:05.658Z</time></trkpt><trkpt lat="40.9531967" lon="16.3680217"><ele>627.5</ele><time>2026-04-12T11:16:06.658Z</time></trkpt><trkpt lat="40.9530817" lon="16.3679183"><ele>628.25</ele><time>2026-04-12T11:16:07.658Z</time></trkpt><trkpt lat="40.9529817" lon="16.3678017"><ele>629.0</ele><time>2026-04-12T11:16:08.658Z</time></trkpt><trkpt lat="40.95288" lon="16.367685"><ele>629.0</ele><time>2026-04-12T11:16:09.658Z</time></trkpt><trkpt lat="40.9527833" lon="16.3675617"><ele>629.0</ele><time>2026-04-12T11:16:10.658Z</time></trkpt><trkpt lat="40.9526833" lon="16.3674417"><ele>629.0</ele><time>2026-04-12T11:16:11.658Z</time></trkpt><trkpt lat="40.952585" lon="16.36732"><ele>629.0</ele><time>2026-04-12T11:16:12.658Z</time></trkpt><trkpt lat="40.9524783" lon="16.3671983"><ele>628.3333333333333</ele><time>2026-04-12T11:16:13.658Z</time></trkpt><trkpt lat="40.952375" lon="16.367085"><ele>627.6666666666666</ele><time>2026-04-12T11:16:14.658Z</time></trkpt><trkpt lat="40.9521817" lon="16.366855"><ele>627.0</ele><time>2026-04-12T11:16:16.658Z</time></trkpt><trkpt lat="40.9520983" lon="16.3667367"><ele>627.0</ele><time>2026-04-12T11:16:17.658Z</time></trkpt><trkpt lat="40.9520383" lon="16.36662"><ele>627.0</ele><time>2026-04-12T11:16:18.658Z</time></trkpt><trkpt lat="40.952005" lon="16.3664967"><ele>627.0</ele><time>2026-04-12T11:16:19.658Z</time></trkpt><trkpt lat="40.9519867" lon="16.3663667"><ele>627.0</ele><time>2026-04-12T11:16:20.659Z</time></trkpt><trkpt lat="40.9519483" lon="16.3662333"><ele>627.0</ele><time>2026-04-12T11:16:21.658Z</time></trkpt><trkpt lat="40.9518867" lon="16.366105"><ele>627.25</ele><time>2026-04-12T11:16:22.659Z</time></trkpt><trkpt lat="40.9518117" lon="16.3659733"><ele>627.5</ele><time>2026-04-12T11:16:23.659Z</time></trkpt><trkpt lat="40.9517333" lon="16.3658583"><ele>627.75</ele><time>2026-04-12T11:16:24.659Z</time></trkpt><trkpt lat="40.9516567" lon="16.3657267"><ele>628.0</ele><time>2026-04-12T11:16:25.658Z</time></trkpt><trkpt lat="40.951575" lon="16.3655717"><ele>629.0</ele><time>2026-04-12T11:16:26.659Z</time></trkpt><trkpt lat="40.9514733" lon="16.3654217"><ele>630.0</ele><time>2026-04-12T11:16:27.658Z</time></trkpt><trkpt lat="40.9513717" lon="16.3652683"><ele>631.0</ele><time>2026-04-12T11:16:28.659Z</time></trkpt><trkpt lat="40.951275" lon="16.36512"><ele>631.0</ele><time>2026-04-12T11:16:29.658Z</time></trkpt><trkpt lat="40.9511834" lon="16.3649696"><ele>631.0</ele><time>2026-04-12T11:16:30.658Z</time></trkpt><trkpt lat="40.9510988" lon="16.3648205"><ele>631.0</ele><time>2026-04-12T11:16:31.659Z</time></trkpt><trkpt lat="40.9510135" lon="16.3646682"><ele>631.0</ele><time>2026-04-12T11:16:32.658Z</time></trkpt><trkpt lat="40.9509243" lon="16.36451"><ele>631.6666666666667</ele><time>2026-04-12T11:16:33.658Z</time></trkpt><trkpt lat="40.9508283" lon="16.3643498"><ele>632.3333333333334</ele><time>2026-04-12T11:16:34.659Z</time></trkpt><trkpt lat="40.9507297" lon="16.364191"><ele>633.0</ele><time>2026-04-12T11:16:35.659Z</time></trkpt><trkpt lat="40.9506291" lon="16.364038"><ele>633.0</ele><time>2026-04-12T11:16:36.658Z</time></trkpt><trkpt lat="40.9505253" lon="16.3638987"><ele>633.0</ele><time>2026-04-12T11:16:37.659Z</time></trkpt><trkpt lat="40.9504288" lon="16.3637676"><ele>633.0</ele><time>2026-04-12T11:16:38.659Z</time></trkpt><trkpt lat="40.9503462" lon="16.3636352"><ele>633.0</ele><time>2026-04-12T11:16:39.658Z</time></trkpt><trkpt lat="40.9502673" lon="16.3634948"><ele>634.0</ele><time>2026-04-12T11:16:40.659Z</time></trkpt><trkpt lat="40.9501813" lon="16.3633442"><ele>635.0</ele><time>2026-04-12T11:16:41.658Z</time></trkpt><trkpt lat="40.9500887" lon="16.3631936"><ele>636.0</ele><time>2026-04-12T11:16:42.658Z</time></trkpt><trkpt lat="40.9499923" lon="16.3630376"><ele>637.0</ele><time>2026-04-12T11:16:43.658Z</time></trkpt><trkpt lat="40.9498936" lon="16.3628798"><ele>638.0</ele><time>2026-04-12T11:16:44.659Z</time></trkpt><trkpt lat="40.9497922" lon="16.3627133"><ele>639.0</ele><time>2026-04-12T11:16:45.658Z</time></trkpt><trkpt lat="40.9496917" lon="16.362544"><ele>640.0</ele><time>2026-04-12T11:16:46.659Z</time></trkpt><trkpt lat="40.9495967" lon="16.3623836"><ele>640.0</ele><time>2026-04-12T11:16:47.658Z</time></trkpt><trkpt lat="40.9494928" lon="16.3622285"><ele>640.0</ele><time>2026-04-12T11:16:48.658Z</time></trkpt><trkpt lat="40.9493834" lon="16.3620836"><ele>640.0</ele><time>2026-04-12T11:16:49.658Z</time></trkpt><trkpt lat="40.9492809" lon="16.3619362"><ele>641.3333333333334</ele><time>2026-04-12T11:16:50.658Z</time></trkpt><trkpt lat="40.9491832" lon="16.361775"><ele>642.6666666666666</ele><time>2026-04-12T11:16:51.658Z</time></trkpt><trkpt lat="40.9490923" lon="16.3616144"><ele>644.0</ele><time>2026-04-12T11:16:52.658Z</time></trkpt><trkpt lat="40.9489939" lon="16.3614462"><ele>644.3333333333333</ele><time>2026-04-12T11:16:53.658Z</time></trkpt><trkpt lat="40.9488989" lon="16.3612786"><ele>644.6666666666666</ele><time>2026-04-12T11:16:54.658Z</time></trkpt><trkpt lat="40.9487984" lon="16.3611092"><ele>645.0</ele><time>2026-04-12T11:16:55.659Z</time></trkpt><trkpt lat="40.9486909" lon="16.3609402"><ele>645.0</ele><time>2026-04-12T11:16:56.658Z</time></trkpt><trkpt lat="40.9485865" lon="16.3607745"><ele>645.0</ele><time>2026-04-12T11:16:57.658Z</time></trkpt><trkpt lat="40.9484783" lon="16.3606218"><ele>645.0</ele><time>2026-04-12T11:16:58.658Z</time></trkpt><trkpt lat="40.9483735" lon="16.3604731"><ele>645.25</ele><time>2026-04-12T11:16:59.658Z</time></trkpt><trkpt lat="40.948285" lon="16.3603239"><ele>645.5</ele><time>2026-04-12T11:17:00.658Z</time></trkpt><trkpt lat="40.9482028" lon="16.3601673"><ele>645.75</ele><time>2026-04-12T11:17:01.658Z</time></trkpt><trkpt lat="40.9481181" lon="16.3600057"><ele>646.0</ele><time>2026-04-12T11:17:02.659Z</time></trkpt><trkpt lat="40.9480283" lon="16.3598667"><ele>646.0</ele><time>2026-04-12T11:17:03.658Z</time></trkpt><trkpt lat="40.9479283" lon="16.3597167"><ele>646.0</ele><time>2026-04-12T11:17:04.658Z</time></trkpt><trkpt lat="40.9478267" lon="16.3595583"><ele>646.0</ele><time>2026-04-12T11:17:05.658Z</time></trkpt><trkpt lat="40.9477217" lon="16.3593983"><ele>645.6666666666667</ele><time>2026-04-12T11:17:06.658Z</time></trkpt><trkpt lat="40.9476117" lon="16.3592367"><ele>645.3333333333334</ele><time>2026-04-12T11:17:07.659Z</time></trkpt><trkpt lat="40.9475" lon="16.3590667"><ele>645.0</ele><time>2026-04-12T11:17:08.659Z</time></trkpt><trkpt lat="40.947385" lon="16.3588917"><ele>643.6666666666666</ele><time>2026-04-12T11:17:09.659Z</time></trkpt><trkpt lat="40.947265" lon="16.358705"><ele>642.3333333333333</ele><time>2026-04-12T11:17:10.658Z</time></trkpt><trkpt lat="40.94715" lon="16.3585383"><ele>641.0</ele><time>2026-04-12T11:17:11.658Z</time></trkpt><trkpt lat="40.947035" lon="16.35837"><ele>641.0</ele><time>2026-04-12T11:17:12.659Z</time></trkpt><trkpt lat="40.9469383" lon="16.3582167"><ele>641.0</ele><time>2026-04-12T11:17:13.658Z</time></trkpt><trkpt lat="40.9468533" lon="16.3580767"><ele>641.0</ele><time>2026-04-12T11:17:14.659Z</time></trkpt><trkpt lat="40.94678" lon="16.3579417"><ele>641.0</ele><time>2026-04-12T11:17:15.658Z</time></trkpt><trkpt lat="40.946695" lon="16.35782"><ele>640.0</ele><time>2026-04-12T11:17:16.658Z</time></trkpt><trkpt lat="40.946605" lon="16.357685"><ele>639.0</ele><time>2026-04-12T11:17:17.658Z</time></trkpt><trkpt lat="40.9465017" lon="16.3575467"><ele>638.0</ele><time>2026-04-12T11:17:18.659Z</time></trkpt><trkpt lat="40.9464033" lon="16.3573967"><ele>637.0</ele><time>2026-04-12T11:17:19.658Z</time></trkpt><trkpt lat="40.9462983" lon="16.3572317"><ele>635.6666666666667</ele><time>2026-04-12T11:17:20.658Z</time></trkpt><trkpt lat="40.946195" lon="16.3570733"><ele>634.3333333333334</ele><time>2026-04-12T11:17:21.659Z</time></trkpt><trkpt lat="40.9460967" lon="16.356915"><ele>633.0</ele><time>2026-04-12T11:17:22.658Z</time></trkpt><trkpt lat="40.946005" lon="16.3567717"><ele>633.0</ele><time>2026-04-12T11:17:23.658Z</time></trkpt><trkpt lat="40.945925" lon="16.35663"><ele>633.0</ele><time>2026-04-12T11:17:24.658Z</time></trkpt><trkpt lat="40.9458433" lon="16.3565"><ele>633.0</ele><time>2026-04-12T11:17:25.658Z</time></trkpt><trkpt lat="40.9457483" lon="16.3563767"><ele>633.0</ele><time>2026-04-12T11:17:26.659Z</time></trkpt><trkpt lat="40.9456533" lon="16.35626"><ele>633.4</ele><time>2026-04-12T11:17:27.658Z</time></trkpt><trkpt lat="40.945565" lon="16.3561917"><ele>633.8</ele><time>2026-04-12T11:17:28.658Z</time></trkpt><trkpt lat="40.945465" lon="16.356135"><ele>634.2</ele><time>2026-04-12T11:17:29.658Z</time></trkpt><trkpt lat="40.9453633" lon="16.35609"><ele>634.6</ele><time>2026-04-12T11:17:30.658Z</time></trkpt><trkpt lat="40.94526" lon="16.3560417"><ele>635.0</ele><time>2026-04-12T11:17:31.659Z</time></trkpt><trkpt lat="40.94515" lon="16.3559833"><ele>635.25</ele><time>2026-04-12T11:17:32.659Z</time></trkpt><trkpt lat="40.9450317" lon="16.3559117"><ele>635.5</ele><time>2026-04-12T11:17:33.659Z</time></trkpt><trkpt lat="40.94491" lon="16.3558333"><ele>635.75</ele><time>2026-04-12T11:17:34.658Z</time></trkpt><trkpt lat="40.944795" lon="16.3557667"><ele>636.0</ele><time>2026-04-12T11:17:35.659Z</time></trkpt><trkpt lat="40.94472" lon="16.3557117"><ele>636.0</ele><time>2026-04-12T11:17:36.658Z</time></trkpt><trkpt lat="40.9446583" lon="16.3556683"><ele>636.0</ele><time>2026-04-12T11:17:37.658Z</time></trkpt><trkpt lat="40.9445967" lon="16.3556283"><ele>636.0</ele><time>2026-04-12T11:17:39.659Z</time></trkpt></trkseg><trkseg><trkpt lat="40.92901" lon="16.339505"><ele>658.0</ele><time>2026-04-12T11:23:33.657Z</time></trkpt><trkpt lat="40.9289183" lon="16.3394067"><ele>658.0</ele><time>2026-04-12T11:23:35.657Z</time></trkpt><trkpt lat="40.9288667" lon="16.3393367"><ele>658.0</ele><time>2026-04-12T11:23:36.657Z</time></trkpt><trkpt lat="40.92879" lon="16.3392317"><ele>658.0</ele><time>2026-04-12T11:23:38.657Z</time></trkpt><trkpt lat="40.9287133" lon="16.3391217"><ele>658.0</ele><time>2026-04-12T11:23:58.657Z</time></trkpt><trkpt lat="40.9286617" lon="16.3390583"><ele>658.0</ele><time>2026-04-12T11:23:59.657Z</time></trkpt><trkpt lat="40.928605" lon="16.3389767"><ele>658.0</ele><time>2026-04-12T11:24:00.658Z</time></trkpt><trkpt lat="40.928535" lon="16.338885"><ele>658.0</ele><time>2026-04-12T11:24:01.657Z</time></trkpt><trkpt lat="40.92847" lon="16.3387883"><ele>658.0</ele><time>2026-04-12T11:24:02.657Z</time></trkpt><trkpt lat="40.9283917" lon="16.3386917"><ele>658.0</ele><time>2026-04-12T11:24:03.657Z</time></trkpt><trkpt lat="40.9283017" lon="16.3385983"><ele>658.4</ele><time>2026-04-12T11:24:04.657Z</time></trkpt><trkpt lat="40.9282133" lon="16.3385233"><ele>658.8</ele><time>2026-04-12T11:24:05.657Z</time></trkpt><trkpt lat="40.9281217" lon="16.3384417"><ele>659.2</ele><time>2026-04-12T11:24:06.657Z</time></trkpt><trkpt lat="40.92803" lon="16.33837"><ele>659.6</ele><time>2026-04-12T11:24:07.657Z</time></trkpt><trkpt lat="40.9279483" lon="16.338315"><ele>660.0</ele><time>2026-04-12T11:24:08.657Z</time></trkpt><trkpt lat="40.9278767" lon="16.33826"><ele>660.0</ele><time>2026-04-12T11:24:09.657Z</time></trkpt><trkpt lat="40.927815" lon="16.3382183"><ele>660.0</ele><time>2026-04-12T11:24:10.658Z</time></trkpt><trkpt lat="40.9277283" lon="16.3381383"><ele>660.0</ele><time>2026-04-12T11:24:12.657Z</time></trkpt><trkpt lat="40.9276883" lon="16.3380117"><ele>660.0</ele><time>2026-04-12T11:24:14.658Z</time></trkpt><trkpt lat="40.9276967" lon="16.337915"><ele>660.0</ele><time>2026-04-12T11:24:15.657Z</time></trkpt><trkpt lat="40.9277317" lon="16.3378067"><ele>660.0</ele><time>2026-04-12T11:24:16.657Z</time></trkpt><trkpt lat="40.9277883" lon="16.3376967"><ele>659.0</ele><time>2026-04-12T11:24:17.657Z</time></trkpt><trkpt lat="40.9278567" lon="16.33758"><ele>658.0</ele><time>2026-04-12T11:24:18.657Z</time></trkpt><trkpt lat="40.9279283" lon="16.337455"><ele>657.0</ele><time>2026-04-12T11:24:19.657Z</time></trkpt><trkpt lat="40.92801" lon="16.337325"><ele>656.0</ele><time>2026-04-12T11:24:20.657Z</time></trkpt><trkpt lat="40.928095" lon="16.3371817"><ele>655.75</ele><time>2026-04-12T11:24:21.658Z</time></trkpt><trkpt lat="40.9281817" lon="16.3370383"><ele>655.5</ele><time>2026-04-12T11:24:22.657Z</time></trkpt><trkpt lat="40.9282617" lon="16.336895"><ele>655.25</ele><time>2026-04-12T11:24:23.658Z</time></trkpt><trkpt lat="40.9283433" lon="16.3367517"><ele>655.0</ele><time>2026-04-12T11:24:24.657Z</time></trkpt><trkpt lat="40.9284317" lon="16.3366033"><ele>654.3333333333334</ele><time>2026-04-12T11:24:25.657Z</time></trkpt><trkpt lat="40.928525" lon="16.3364517"><ele>653.6666666666666</ele><time>2026-04-12T11:24:26.657Z</time></trkpt><trkpt lat="40.92862" lon="16.3363017"><ele>653.0</ele><time>2026-04-12T11:24:27.657Z</time></trkpt><trkpt lat="40.928715" lon="16.3361383"><ele>652.6666666666666</ele><time>2026-04-12T11:24:28.657Z</time></trkpt><trkpt lat="40.9288017" lon="16.3359733"><ele>652.3333333333334</ele><time>2026-04-12T11:24:29.657Z</time></trkpt><trkpt lat="40.9288917" lon="16.335795"><ele>652.0</ele><time>2026-04-12T11:24:30.657Z</time></trkpt><trkpt lat="40.9289983" lon="16.335635"><ele>651.75</ele><time>2026-04-12T11:24:31.657Z</time></trkpt><trkpt lat="40.9291017" lon="16.335485"><ele>651.5</ele><time>2026-04-12T11:24:32.657Z</time></trkpt><trkpt lat="40.929205" lon="16.33534"><ele>651.25</ele><time>2026-04-12T11:24:33.658Z</time></trkpt><trkpt lat="40.9292983" lon="16.3351933"><ele>651.0</ele><time>2026-04-12T11:24:34.658Z</time></trkpt><trkpt lat="40.92939" lon="16.3350417"><ele>650.6666666666666</ele><time>2026-04-12T11:24:35.657Z</time></trkpt><trkpt lat="40.92948" lon="16.3348817"><ele>650.3333333333333</ele><time>2026-04-12T11:24:36.658Z</time></trkpt><trkpt lat="40.9295783" lon="16.334715"><ele>650.0</ele><time>2026-04-12T11:24:37.657Z</time></trkpt><trkpt lat="40.9296767" lon="16.334555"><ele>649.3333333333333</ele><time>2026-04-12T11:24:38.657Z</time></trkpt><trkpt lat="40.9297783" lon="16.3343933"><ele>648.6666666666666</ele><time>2026-04-12T11:24:39.657Z</time></trkpt><trkpt lat="40.9298833" lon="16.33424"><ele>648.0</ele><time>2026-04-12T11:24:40.657Z</time></trkpt><trkpt lat="40.9299867" lon="16.3340917"><ele>648.0</ele><time>2026-04-12T11:24:41.657Z</time></trkpt><trkpt lat="40.9300883" lon="16.3339517"><ele>648.0</ele><time>2026-04-12T11:24:42.658Z</time></trkpt><trkpt lat="40.93019" lon="16.333815"><ele>648.0</ele><time>2026-04-12T11:24:43.657Z</time></trkpt><trkpt lat="40.9302833" lon="16.33367"><ele>648.0</ele><time>2026-04-12T11:24:44.657Z</time></trkpt><trkpt lat="40.93037" lon="16.33352"><ele>647.5</ele><time>2026-04-12T11:24:45.657Z</time></trkpt><trkpt lat="40.9304583" lon="16.3333683"><ele>647.0</ele><time>2026-04-12T11:24:46.658Z</time></trkpt><trkpt lat="40.9305567" lon="16.3332267"><ele>646.5</ele><time>2026-04-12T11:24:47.657Z</time></trkpt><trkpt lat="40.9306567" lon="16.3330883"><ele>646.0</ele><time>2026-04-12T11:24:48.657Z</time></trkpt><trkpt lat="40.9307533" lon="16.3329533"><ele>646.0</ele><time>2026-04-12T11:24:49.658Z</time></trkpt><trkpt lat="40.930845" lon="16.3328283"><ele>646.0</ele><time>2026-04-12T11:24:50.657Z</time></trkpt><trkpt lat="40.930945" lon="16.3327"><ele>646.0</ele><time>2026-04-12T11:24:51.657Z</time></trkpt><trkpt lat="40.93105" lon="16.3325767"><ele>646.0</ele><time>2026-04-12T11:24:52.657Z</time></trkpt><trkpt lat="40.9311617" lon="16.3324467"><ele>646.0</ele><time>2026-04-12T11:24:53.658Z</time></trkpt><trkpt lat="40.9312683" lon="16.3323067"><ele>646.0</ele><time>2026-04-12T11:24:54.657Z</time></trkpt><trkpt lat="40.9313817" lon="16.3321667"><ele>646.0</ele><time>2026-04-12T11:24:55.658Z</time></trkpt><trkpt lat="40.9315" lon="16.3320233"><ele>645.6666666666667</ele><time>2026-04-12T11:24:56.657Z</time></trkpt><trkpt lat="40.93162" lon="16.33188"><ele>645.3333333333334</ele><time>2026-04-12T11:24:57.657Z</time></trkpt><trkpt lat="40.9317383" lon="16.331745"><ele>645.0</ele><time>2026-04-12T11:24:58.657Z</time></trkpt><trkpt lat="40.9318717" lon="16.331615"><ele>645.0</ele><time>2026-04-12T11:24:59.657Z</time></trkpt><trkpt lat="40.93201" lon="16.3314933"><ele>645.0</ele><time>2026-04-12T11:25:00.658Z</time></trkpt><trkpt lat="40.9321367" lon="16.3313817"><ele>645.0</ele><time>2026-04-12T11:25:01.657Z</time></trkpt><trkpt lat="40.9322517" lon="16.3312767"><ele>645.0</ele><time>2026-04-12T11:25:02.658Z</time></trkpt><trkpt lat="40.9323567" lon="16.331155"><ele>645.0</ele><time>2026-04-12T11:25:03.657Z</time></trkpt><trkpt lat="40.93246" lon="16.3310317"><ele>645.0</ele><time>2026-04-12T11:25:04.657Z</time></trkpt><trkpt lat="40.9325767" lon="16.33093"><ele>645.0</ele><time>2026-04-12T11:25:05.657Z</time></trkpt><trkpt lat="40.9326983" lon="16.3308317"><ele>645.0</ele><time>2026-04-12T11:25:06.657Z</time></trkpt><trkpt lat="40.9328233" lon="16.3307317"><ele>645.0</ele><time>2026-04-12T11:25:07.657Z</time></trkpt><trkpt lat="40.9329367" lon="16.3306333"><ele>645.0</ele><time>2026-04-12T11:25:08.658Z</time></trkpt><trkpt lat="40.93305" lon="16.3305383"><ele>645.0</ele><time>2026-04-12T11:25:09.657Z</time></trkpt><trkpt lat="40.933155" lon="16.330455"><ele>644.8</ele><time>2026-04-12T11:25:10.657Z</time></trkpt><trkpt lat="40.93325" lon="16.3303817"><ele>644.6</ele><time>2026-04-12T11:25:11.657Z</time></trkpt><trkpt lat="40.9333267" lon="16.3303133"><ele>644.4000000000001</ele><time>2026-04-12T11:25:12.657Z</time></trkpt><trkpt lat="40.9333917" lon="16.330215"><ele>644.2</ele><time>2026-04-12T11:25:13.657Z</time></trkpt><trkpt lat="40.9334483" lon="16.33012"><ele>644.0</ele><time>2026-04-12T11:25:14.657Z</time></trkpt><trkpt lat="40.93349" lon="16.3300383"><ele>644.0</ele><time>2026-04-12T11:25:15.657Z</time></trkpt><trkpt lat="40.9335367" lon="16.329895"><ele>644.0</ele><time>2026-04-12T11:25:17.657Z</time></trkpt><trkpt lat="40.9335117" lon="16.329815"><ele>644.0</ele><time>2026-04-12T11:25:18.658Z</time></trkpt><trkpt lat="40.93347" lon="16.32973"><ele>644.0</ele><time>2026-04-12T11:25:19.658Z</time></trkpt><trkpt lat="40.9334067" lon="16.3296417"><ele>644.0</ele><time>2026-04-12T11:25:20.657Z</time></trkpt><trkpt lat="40.9333233" lon="16.329545"><ele>644.0</ele><time>2026-04-12T11:25:21.657Z</time></trkpt><trkpt lat="40.93324" lon="16.3294433"><ele>644.0</ele><time>2026-04-12T11:25:22.658Z</time></trkpt><trkpt lat="40.9331567" lon="16.32934"><ele>644.0</ele><time>2026-04-12T11:25:23.657Z</time></trkpt><trkpt lat="40.9330617" lon="16.32923"><ele>644.0</ele><time>2026-04-12T11:25:24.657Z</time></trkpt><trkpt lat="40.9329717" lon="16.3291067"><ele>644.0</ele><time>2026-04-12T11:25:25.657Z</time></trkpt><trkpt lat="40.93288" lon="16.32899"><ele>644.0</ele><time>2026-04-12T11:25:26.657Z</time></trkpt><trkpt lat="40.9327883" lon="16.32886"><ele>644.0</ele><time>2026-04-12T11:25:27.657Z</time></trkpt><trkpt lat="40.9326833" lon="16.3287283"><ele>644.0</ele><time>2026-04-12T11:25:28.657Z</time></trkpt><trkpt lat="40.9325633" lon="16.3286133"><ele>645.25</ele><time>2026-04-12T11:25:29.657Z</time></trkpt><trkpt lat="40.93245" lon="16.328505"><ele>646.5</ele><time>2026-04-12T11:25:30.657Z</time></trkpt><trkpt lat="40.9323367" lon="16.3283867"><ele>647.75</ele><time>2026-04-12T11:25:31.658Z</time></trkpt><trkpt lat="40.932215" lon="16.3282567"><ele>649.0</ele><time>2026-04-12T11:25:32.658Z</time></trkpt><trkpt lat="40.932095" lon="16.3281217"><ele>650.3333333333334</ele><time>2026-04-12T11:25:33.657Z</time></trkpt><trkpt lat="40.931975" lon="16.32798"><ele>651.6666666666666</ele><time>2026-04-12T11:25:34.658Z</time></trkpt><trkpt lat="40.9318533" lon="16.3278433"><ele>653.0</ele><time>2026-04-12T11:25:35.657Z</time></trkpt><trkpt lat="40.9317517" lon="16.3277167"><ele>652.5</ele><time>2026-04-12T11:25:36.657Z</time></trkpt><trkpt lat="40.9316533" lon="16.3276067"><ele>652.0</ele><time>2026-04-12T11:25:37.658Z</time></trkpt><trkpt lat="40.9315633" lon="16.3274983"><ele>651.5</ele><time>2026-04-12T11:25:38.657Z</time></trkpt><trkpt lat="40.9314783" lon="16.3273917"><ele>651.0</ele><time>2026-04-12T11:25:39.657Z</time></trkpt><trkpt lat="40.931405" lon="16.3272667"><ele>651.4</ele><time>2026-04-12T11:25:40.657Z</time></trkpt><trkpt lat="40.9313183" lon="16.327155"><ele>651.8</ele><time>2026-04-12T11:25:41.657Z</time></trkpt><trkpt lat="40.93125" lon="16.3270617"><ele>652.1999999999999</ele><time>2026-04-12T11:25:42.657Z</time></trkpt><trkpt lat="40.9311983" lon="16.3269817"><ele>652.5999999999999</ele><time>2026-04-12T11:25:43.657Z</time></trkpt><trkpt lat="40.93118" lon="16.3268983"><ele>653.0</ele><time>2026-04-12T11:25:44.658Z</time></trkpt><trkpt lat="40.9312383" lon="16.3267433"><ele>653.0</ele><time>2026-04-12T11:25:46.657Z</time></trkpt><trkpt lat="40.9313083" lon="16.32668"><ele>653.0</ele><time>2026-04-12T11:25:47.658Z</time></trkpt><trkpt lat="40.931395" lon="16.3266117"><ele>653.0</ele><time>2026-04-12T11:25:48.658Z</time></trkpt><trkpt lat="40.9314867" lon="16.3265317"><ele>653.0</ele><time>2026-04-12T11:25:49.657Z</time></trkpt><trkpt lat="40.931585" lon="16.3264483"><ele>653.0</ele><time>2026-04-12T11:25:50.658Z</time></trkpt><trkpt lat="40.9316917" lon="16.3263433"><ele>653.75</ele><time>2026-04-12T11:25:51.657Z</time></trkpt><trkpt lat="40.931795" lon="16.3262283"><ele>654.5</ele><time>2026-04-12T11:25:52.659Z</time></trkpt><trkpt lat="40.9319" lon="16.3260967"><ele>655.25</ele><time>2026-04-12T11:25:53.658Z</time></trkpt><trkpt lat="40.9320033" lon="16.3259817"><ele>656.0</ele><time>2026-04-12T11:25:54.659Z</time></trkpt><trkpt lat="40.932095" lon="16.3258683"><ele>656.0</ele><time>2026-04-12T11:25:55.659Z</time></trkpt><trkpt lat="40.93218" lon="16.325765"><ele>656.0</ele><time>2026-04-12T11:25:56.659Z</time></trkpt><trkpt lat="40.9322583" lon="16.3256467"><ele>656.0</ele><time>2026-04-12T11:25:57.658Z</time></trkpt><trkpt lat="40.93233" lon="16.3255217"><ele>656.0</ele><time>2026-04-12T11:25:58.658Z</time></trkpt><trkpt lat="40.9324083" lon="16.32541"><ele>655.75</ele><time>2026-04-12T11:25:59.659Z</time></trkpt><trkpt lat="40.9324983" lon="16.3252967"><ele>655.5</ele><time>2026-04-12T11:26:00.659Z</time></trkpt><trkpt lat="40.932595" lon="16.3251833"><ele>655.25</ele><time>2026-04-12T11:26:01.658Z</time></trkpt><trkpt lat="40.932695" lon="16.3250717"><ele>655.0</ele><time>2026-04-12T11:26:02.658Z</time></trkpt><trkpt lat="40.9327967" lon="16.3249583"><ele>654.75</ele><time>2026-04-12T11:26:03.658Z</time></trkpt><trkpt lat="40.932895" lon="16.32485"><ele>654.5</ele><time>2026-04-12T11:26:04.658Z</time></trkpt><trkpt lat="40.9329867" lon="16.324745"><ele>654.25</ele><time>2026-04-12T11:26:05.658Z</time></trkpt><trkpt lat="40.9330717" lon="16.3246483"><ele>654.0</ele><time>2026-04-12T11:26:06.658Z</time></trkpt><trkpt lat="40.9331617" lon="16.32455"><ele>654.0</ele><time>2026-04-12T11:26:07.658Z</time></trkpt><trkpt lat="40.9332583" lon="16.324455"><ele>654.0</ele><time>2026-04-12T11:26:08.658Z</time></trkpt><trkpt lat="40.9333583" lon="16.3243533"><ele>654.0</ele><time>2026-04-12T11:26:09.659Z</time></trkpt><trkpt lat="40.9334667" lon="16.32425"><ele>654.0</ele><time>2026-04-12T11:26:10.658Z</time></trkpt><trkpt lat="40.9335833" lon="16.324135"><ele>653.3333333333334</ele><time>2026-04-12T11:26:11.659Z</time></trkpt><trkpt lat="40.9337083" lon="16.3240133"><ele>652.6666666666667</ele><time>2026-04-12T11:26:12.659Z</time></trkpt><trkpt lat="40.9338433" lon="16.323885"><ele>652.0</ele><time>2026-04-12T11:26:13.659Z</time></trkpt><trkpt lat="40.9339767" lon="16.32376"><ele>652.0</ele><time>2026-04-12T11:26:14.658Z</time></trkpt><trkpt lat="40.934115" lon="16.323635"><ele>652.0</ele><time>2026-04-12T11:26:15.659Z</time></trkpt><trkpt lat="40.9342533" lon="16.323495"><ele>652.0</ele><time>2026-04-12T11:26:16.658Z</time></trkpt><trkpt lat="40.9343883" lon="16.3233583"><ele>651.3333333333334</ele><time>2026-04-12T11:26:17.658Z</time></trkpt><trkpt lat="40.93454" lon="16.3232233"><ele>650.6666666666666</ele><time>2026-04-12T11:26:18.659Z</time></trkpt><trkpt lat="40.9346883" lon="16.3230867"><ele>650.0</ele><time>2026-04-12T11:26:19.658Z</time></trkpt><trkpt lat="40.934845" lon="16.322955"><ele>649.6666666666666</ele><time>2026-04-12T11:26:20.658Z</time></trkpt><trkpt lat="40.9350033" lon="16.3228133"><ele>649.3333333333334</ele><time>2026-04-12T11:26:21.658Z</time></trkpt><trkpt lat="40.935165" lon="16.32267"><ele>649.0</ele><time>2026-04-12T11:26:22.658Z</time></trkpt><trkpt lat="40.9353167" lon="16.3225267"><ele>648.3333333333334</ele><time>2026-04-12T11:26:23.658Z</time></trkpt><trkpt lat="40.9354617" lon="16.322385"><ele>647.6666666666666</ele><time>2026-04-12T11:26:24.658Z</time></trkpt><trkpt lat="40.9356133" lon="16.3222433"><ele>647.0</ele><time>2026-04-12T11:26:25.658Z</time></trkpt><trkpt lat="40.9357667" lon="16.3221033"><ele>646.3333333333333</ele><time>2026-04-12T11:26:26.658Z</time></trkpt><trkpt lat="40.9359183" lon="16.3219533"><ele>645.6666666666666</ele><time>2026-04-12T11:26:27.658Z</time></trkpt><trkpt lat="40.9360717" lon="16.32181"><ele>645.0</ele><time>2026-04-12T11:26:28.658Z</time></trkpt><trkpt lat="40.9362183" lon="16.32167"><ele>645.0</ele><time>2026-04-12T11:26:29.659Z</time></trkpt><trkpt lat="40.9363633" lon="16.32154"><ele>645.0</ele><time>2026-04-12T11:26:30.658Z</time></trkpt><trkpt lat="40.9365" lon="16.3214117"><ele>645.0</ele><time>2026-04-12T11:26:31.659Z</time></trkpt><trkpt lat="40.9366333" lon="16.32129"><ele>645.25</ele><time>2026-04-12T11:26:32.658Z</time></trkpt><trkpt lat="40.9367567" lon="16.3211833"><ele>645.5</ele><time>2026-04-12T11:26:33.659Z</time></trkpt><trkpt lat="40.9368767" lon="16.321095"><ele>645.75</ele><time>2026-04-12T11:26:34.659Z</time></trkpt><trkpt lat="40.9369933" lon="16.320995"><ele>646.0</ele><time>2026-04-12T11:26:35.658Z</time></trkpt><trkpt lat="40.9370983" lon="16.3208867"><ele>646.0</ele><time>2026-04-12T11:26:36.659Z</time></trkpt><trkpt lat="40.9372" lon="16.32076"><ele>646.0</ele><time>2026-04-12T11:26:37.658Z</time></trkpt><trkpt lat="40.9373183" lon="16.3206217"><ele>646.0</ele><time>2026-04-12T11:26:38.658Z</time></trkpt><trkpt lat="40.9374383" lon="16.32049"><ele>645.6666666666667</ele><time>2026-04-12T11:26:39.658Z</time></trkpt><trkpt lat="40.9375667" lon="16.32035"><ele>645.3333333333334</ele><time>2026-04-12T11:26:40.659Z</time></trkpt><trkpt lat="40.9376883" lon="16.3202017"><ele>645.0</ele><time>2026-04-12T11:26:41.658Z</time></trkpt><trkpt lat="40.93782" lon="16.3200567"><ele>645.0</ele><time>2026-04-12T11:26:42.659Z</time></trkpt><trkpt lat="40.9379467" lon="16.319905"><ele>645.0</ele><time>2026-04-12T11:26:43.659Z</time></trkpt><trkpt lat="40.938075" lon="16.3197533"><ele>645.0</ele><time>2026-04-12T11:26:44.658Z</time></trkpt><trkpt lat="40.9382067" lon="16.3195983"><ele>645.3333333333334</ele><time>2026-04-12T11:26:45.659Z</time></trkpt><trkpt lat="40.9383333" lon="16.31944"><ele>645.6666666666667</ele><time>2026-04-12T11:26:46.659Z</time></trkpt><trkpt lat="40.9384483" lon="16.3192717"><ele>646.0</ele><time>2026-04-12T11:26:47.658Z</time></trkpt><trkpt lat="40.9385667" lon="16.3191033"><ele>646.6666666666667</ele><time>2026-04-12T11:26:48.659Z</time></trkpt><trkpt lat="40.9386817" lon="16.31893"><ele>647.3333333333334</ele><time>2026-04-12T11:26:49.659Z</time></trkpt><trkpt lat="40.9387883" lon="16.3187417"><ele>648.0</ele><time>2026-04-12T11:26:50.659Z</time></trkpt><trkpt lat="40.938885" lon="16.31855"><ele>648.6666666666666</ele><time>2026-04-12T11:26:51.659Z</time></trkpt><trkpt lat="40.9389817" lon="16.31836"><ele>649.3333333333333</ele><time>2026-04-12T11:26:52.659Z</time></trkpt><trkpt lat="40.9390667" lon="16.31819"><ele>650.0</ele><time>2026-04-12T11:26:53.658Z</time></trkpt><trkpt lat="40.93914" lon="16.31803"><ele>650.0</ele><time>2026-04-12T11:26:54.659Z</time></trkpt><trkpt lat="40.9392167" lon="16.3178917"><ele>650.0</ele><time>2026-04-12T11:26:55.658Z</time></trkpt><trkpt lat="40.9393133" lon="16.3177733"><ele>650.0</ele><time>2026-04-12T11:26:56.659Z</time></trkpt><trkpt lat="40.9394267" lon="16.3176733"><ele>650.0</ele><time>2026-04-12T11:26:57.659Z</time></trkpt><trkpt lat="40.939555" lon="16.3175933"><ele>650.3333333333333</ele><time>2026-04-12T11:26:58.658Z</time></trkpt><trkpt lat="40.9396967" lon="16.3175283"><ele>650.6666666666666</ele><time>2026-04-12T11:26:59.659Z</time></trkpt><trkpt lat="40.9398467" lon="16.3174683"><ele>651.0</ele><time>2026-04-12T11:27:00.658Z</time></trkpt><trkpt lat="40.9400033" lon="16.317405"><ele>650.6666666666666</ele><time>2026-04-12T11:27:01.658Z</time></trkpt><trkpt lat="40.9401567" lon="16.317335"><ele>650.3333333333333</ele><time>2026-04-12T11:27:02.658Z</time></trkpt><trkpt lat="40.940315" lon="16.3172633"><ele>650.0</ele><time>2026-04-12T11:27:03.659Z</time></trkpt><trkpt lat="40.9404783" lon="16.3171917"><ele>650.0</ele><time>2026-04-12T11:27:04.659Z</time></trkpt><trkpt lat="40.94064" lon="16.3171167"><ele>650.0</ele><time>2026-04-12T11:27:05.658Z</time></trkpt><trkpt lat="40.940815" lon="16.317035"><ele>650.0</ele><time>2026-04-12T11:27:06.658Z</time></trkpt><trkpt lat="40.9409833" lon="16.316955"><ele>650.0</ele><time>2026-04-12T11:27:07.658Z</time></trkpt><trkpt lat="40.9411483" lon="16.3168833"><ele>650.0</ele><time>2026-04-12T11:27:08.659Z</time></trkpt><trkpt lat="40.9413167" lon="16.3168167"><ele>650.0</ele><time>2026-04-12T11:27:09.659Z</time></trkpt><trkpt lat="40.9414833" lon="16.3167517"><ele>650.0</ele><time>2026-04-12T11:27:10.659Z</time></trkpt><trkpt lat="40.9416483" lon="16.31669"><ele>650.0</ele><time>2026-04-12T11:27:11.658Z</time></trkpt><trkpt lat="40.9418083" lon="16.3166267"><ele>650.0</ele><time>2026-04-12T11:27:12.658Z</time></trkpt><trkpt lat="40.9419583" lon="16.3165717"><ele>650.0</ele><time>2026-04-12T11:27:13.659Z</time></trkpt><trkpt lat="40.9420967" lon="16.3165183"><ele>650.0</ele><time>2026-04-12T11:27:14.659Z</time></trkpt><trkpt lat="40.9422183" lon="16.31647"><ele>650.0</ele><time>2026-04-12T11:27:15.658Z</time></trkpt><trkpt lat="40.9423333" lon="16.3164183"><ele>650.0</ele><time>2026-04-12T11:27:16.658Z</time></trkpt><trkpt lat="40.9424483" lon="16.316365"><ele>649.8</ele><time>2026-04-12T11:27:17.658Z</time></trkpt><trkpt lat="40.94255" lon="16.3162817"><ele>649.6</ele><time>2026-04-12T11:27:18.658Z</time></trkpt><trkpt lat="40.942625" lon="16.3161867"><ele>649.4000000000001</ele><time>2026-04-12T11:27:19.658Z</time></trkpt><trkpt lat="40.9426783" lon="16.316075"><ele>649.2</ele><time>2026-04-12T11:27:20.658Z</time></trkpt><trkpt lat="40.9427117" lon="16.3159567"><ele>649.0</ele><time>2026-04-12T11:27:21.658Z</time></trkpt><trkpt lat="40.94273" lon="16.3158217"><ele>649.0</ele><time>2026-04-12T11:27:22.659Z</time></trkpt><trkpt lat="40.9427333" lon="16.3156733"><ele>649.0</ele><time>2026-04-12T11:27:23.659Z</time></trkpt><trkpt lat="40.9427317" lon="16.315505"><ele>649.0</ele><time>2026-04-12T11:27:24.658Z</time></trkpt><trkpt lat="40.9427383" lon="16.31532"><ele>649.0</ele><time>2026-04-12T11:27:25.658Z</time></trkpt><trkpt lat="40.942745" lon="16.3151383"><ele>648.6666666666667</ele><time>2026-04-12T11:27:26.658Z</time></trkpt><trkpt lat="40.9427583" lon="16.3149467"><ele>648.3333333333334</ele><time>2026-04-12T11:27:27.659Z</time></trkpt><trkpt lat="40.9427667" lon="16.3147417"><ele>648.0</ele><time>2026-04-12T11:27:28.658Z</time></trkpt><trkpt lat="40.9427733" lon="16.314535"><ele>647.0</ele><time>2026-04-12T11:27:29.658Z</time></trkpt><trkpt lat="40.9427733" lon="16.3143083"><ele>646.0</ele><time>2026-04-12T11:27:30.659Z</time></trkpt><trkpt lat="40.9427717" lon="16.3140883"><ele>645.0</ele><time>2026-04-12T11:27:31.658Z</time></trkpt><trkpt lat="40.9427617" lon="16.31388"><ele>644.0</ele><time>2026-04-12T11:27:32.658Z</time></trkpt><trkpt lat="40.9427467" lon="16.31366"><ele>643.0</ele><time>2026-04-12T11:27:33.658Z</time></trkpt><trkpt lat="40.9427133" lon="16.31344"><ele>642.0</ele><time>2026-04-12T11:27:34.658Z</time></trkpt><trkpt lat="40.94267" lon="16.3132233"><ele>641.0</ele><time>2026-04-12T11:27:35.658Z</time></trkpt><trkpt lat="40.9426167" lon="16.3130167"><ele>640.0</ele><time>2026-04-12T11:27:36.658Z</time></trkpt><trkpt lat="40.94256" lon="16.31282"><ele>639.0</ele><time>2026-04-12T11:27:37.659Z</time></trkpt><trkpt lat="40.942505" lon="16.3126283"><ele>639.0</ele><time>2026-04-12T11:27:38.658Z</time></trkpt><trkpt lat="40.9424583" lon="16.3124483"><ele>639.0</ele><time>2026-04-12T11:27:39.658Z</time></trkpt><trkpt lat="40.9424133" lon="16.3122833"><ele>639.0</ele><time>2026-04-12T11:27:40.658Z</time></trkpt><trkpt lat="40.9423683" lon="16.31212"><ele>639.0</ele><time>2026-04-12T11:27:41.659Z</time></trkpt><trkpt lat="40.9423183" lon="16.3119467"><ele>638.0</ele><time>2026-04-12T11:27:42.658Z</time></trkpt><trkpt lat="40.9422683" lon="16.3117667"><ele>637.0</ele><time>2026-04-12T11:27:43.659Z</time></trkpt><trkpt lat="40.94222" lon="16.3115717"><ele>636.0</ele><time>2026-04-12T11:27:44.659Z</time></trkpt><trkpt lat="40.9421683" lon="16.3113783"><ele>634.6666666666666</ele><time>2026-04-12T11:27:45.659Z</time></trkpt><trkpt lat="40.942115" lon="16.3111767"><ele>633.3333333333333</ele><time>2026-04-12T11:27:46.659Z</time></trkpt><trkpt lat="40.942065" lon="16.31097"><ele>632.0</ele><time>2026-04-12T11:27:47.658Z</time></trkpt><trkpt lat="40.9420183" lon="16.310765"><ele>631.5</ele><time>2026-04-12T11:27:48.658Z</time></trkpt><trkpt lat="40.94197" lon="16.3105733"><ele>631.0</ele><time>2026-04-12T11:27:49.658Z</time></trkpt><trkpt lat="40.9419233" lon="16.310395"><ele>630.5</ele><time>2026-04-12T11:27:50.658Z</time></trkpt><trkpt lat="40.941875" lon="16.31022"><ele>630.0</ele><time>2026-04-12T11:27:51.659Z</time></trkpt><trkpt lat="40.9418217" lon="16.3100517"><ele>630.0</ele><time>2026-04-12T11:27:52.658Z</time></trkpt><trkpt lat="40.9417717" lon="16.3098783"><ele>630.0</ele><time>2026-04-12T11:27:53.658Z</time></trkpt><trkpt lat="40.9417267" lon="16.3097183"><ele>630.0</ele><time>2026-04-12T11:27:54.658Z</time></trkpt><trkpt lat="40.94168" lon="16.3095567"><ele>630.0</ele><time>2026-04-12T11:27:55.658Z</time></trkpt><trkpt lat="40.941635" lon="16.3094017"><ele>630.2</ele><time>2026-04-12T11:27:56.658Z</time></trkpt><trkpt lat="40.9415883" lon="16.3092467"><ele>630.4</ele><time>2026-04-12T11:27:57.659Z</time></trkpt><trkpt lat="40.9415483" lon="16.309095"><ele>630.6</ele><time>2026-04-12T11:27:58.658Z</time></trkpt><trkpt lat="40.9415183" lon="16.3089617"><ele>630.8</ele><time>2026-04-12T11:27:59.658Z</time></trkpt><trkpt lat="40.9414967" lon="16.30884"><ele>631.0</ele><time>2026-04-12T11:28:00.658Z</time></trkpt><trkpt lat="40.94148" lon="16.3087467"><ele>631.0</ele><time>2026-04-12T11:28:01.658Z</time></trkpt><trkpt lat="40.9414483" lon="16.3086717"><ele>631.0</ele><time>2026-04-12T11:28:02.659Z</time></trkpt><trkpt lat="40.9414017" lon="16.3086033"><ele>631.0</ele><time>2026-04-12T11:28:03.658Z</time></trkpt><trkpt lat="40.9413483" lon="16.3085483"><ele>631.0</ele><time>2026-04-12T11:28:04.658Z</time></trkpt><trkpt lat="40.941275" lon="16.3085017"><ele>631.0</ele><time>2026-04-12T11:28:05.658Z</time></trkpt><trkpt lat="40.9412033" lon="16.30846"><ele>631.0</ele><time>2026-04-12T11:28:06.659Z</time></trkpt><trkpt lat="40.9411317" lon="16.3084317"><ele>631.0</ele><time>2026-04-12T11:28:07.659Z</time></trkpt><trkpt lat="40.9410433" lon="16.308365"><ele>631.0</ele><time>2026-04-12T11:28:09.659Z</time></trkpt><trkpt lat="40.9411167" lon="16.3084433"><ele>631.0</ele><time>2026-04-12T11:28:18.658Z</time></trkpt><trkpt lat="40.941175" lon="16.3084783"><ele>631.0</ele><time>2026-04-12T11:28:19.659Z</time></trkpt><trkpt lat="40.9412517" lon="16.3085117"><ele>631.0</ele><time>2026-04-12T11:28:20.659Z</time></trkpt><trkpt lat="40.941325" lon="16.3085517"><ele>631.0</ele><time>2026-04-12T11:28:21.658Z</time></trkpt><trkpt lat="40.9413817" lon="16.3085917"><ele>631.0</ele><time>2026-04-12T11:28:22.658Z</time></trkpt><trkpt lat="40.941435" lon="16.3086583"><ele>631.0</ele><time>2026-04-12T11:28:23.658Z</time></trkpt><trkpt lat="40.9414683" lon="16.3087633"><ele>631.0</ele><time>2026-04-12T11:28:24.659Z</time></trkpt><trkpt lat="40.94149" lon="16.3088767"><ele>631.0</ele><time>2026-04-12T11:28:25.659Z</time></trkpt><trkpt lat="40.9415167" lon="16.3089783"><ele>631.0</ele><time>2026-04-12T11:28:26.659Z</time></trkpt><trkpt lat="40.9415383" lon="16.3090633"><ele>631.0</ele><time>2026-04-12T11:28:27.658Z</time></trkpt><trkpt lat="40.9415783" lon="16.3091917"><ele>631.0</ele><time>2026-04-12T11:28:29.658Z</time></trkpt><trkpt lat="40.9416233" lon="16.3093317"><ele>631.3333333333334</ele><time>2026-04-12T11:28:31.658Z</time></trkpt><trkpt lat="40.9417017" lon="16.30937"><ele>631.6666666666667</ele><time>2026-04-12T11:28:34.658Z</time></trkpt><trkpt lat="40.94174" lon="16.3092883"><ele>632.0</ele><time>2026-04-12T11:28:36.658Z</time></trkpt><trkpt lat="40.9417633" lon="16.3091717"><ele>632.3333333333334</ele><time>2026-04-12T11:28:39.658Z</time></trkpt><trkpt lat="40.9417883" lon="16.3090733"><ele>632.6666666666666</ele><time>2026-04-12T11:28:41.659Z</time></trkpt><trkpt lat="40.9418183" lon="16.308975"><ele>633.0</ele><time>2026-04-12T11:28:43.659Z</time></trkpt><trkpt lat="40.9418683" lon="16.3088267"><ele>632.0</ele><time>2026-04-12T11:33:53.658Z</time></trkpt><trkpt lat="40.9419367" lon="16.30869"><ele>631.0</ele><time>2026-04-12T11:33:55.658Z</time></trkpt><trkpt lat="40.9419817" lon="16.30862"><ele>630.0</ele><time>2026-04-12T11:33:56.658Z</time></trkpt><trkpt lat="40.9420567" lon="16.3085167"><ele>629.0</ele><time>2026-04-12T11:33:58.658Z</time></trkpt><trkpt lat="40.942125" lon="16.30844"><ele>628.0</ele><time>2026-04-12T11:34:00.658Z</time></trkpt><trkpt lat="40.9421717" lon="16.3083433"><ele>628.0</ele><time>2026-04-12T11:34:02.658Z</time></trkpt><trkpt lat="40.9421483" lon="16.308245"><ele>628.0</ele><time>2026-04-12T11:34:04.659Z</time></trkpt><trkpt lat="40.9420617" lon="16.3081317"><ele>628.0</ele><time>2026-04-12T11:34:06.659Z</time></trkpt><trkpt lat="40.9419917" lon="16.308065"><ele>628.0</ele><time>2026-04-12T11:34:07.658Z</time></trkpt><trkpt lat="40.94192" lon="16.3079833"><ele>628.0</ele><time>2026-04-12T11:34:08.658Z</time></trkpt><trkpt lat="40.9418467" lon="16.30789"><ele>628.0</ele><time>2026-04-12T11:34:09.658Z</time></trkpt><trkpt lat="40.9417767" lon="16.3077817"><ele>628.0</ele><time>2026-04-12T11:34:10.658Z</time></trkpt><trkpt lat="40.9417033" lon="16.3076717"><ele>628.0</ele><time>2026-04-12T11:34:11.658Z</time></trkpt><trkpt lat="40.94163" lon="16.307565"><ele>628.0</ele><time>2026-04-12T11:34:12.658Z</time></trkpt><trkpt lat="40.9415467" lon="16.3074567"><ele>628.0</ele><time>2026-04-12T11:34:13.659Z</time></trkpt><trkpt lat="40.941475" lon="16.3073517"><ele>628.0</ele><time>2026-04-12T11:34:14.658Z</time></trkpt><trkpt lat="40.9414083" lon="16.307255"><ele>628.0</ele><time>2026-04-12T11:34:15.658Z</time></trkpt><trkpt lat="40.9413533" lon="16.3071683"><ele>628.0</ele><time>2026-04-12T11:34:16.66Z</time></trkpt><trkpt lat="40.941305" lon="16.30706"><ele>628.0</ele><time>2026-04-12T11:34:17.659Z</time></trkpt><trkpt lat="40.9412783" lon="16.30693"><ele>628.0</ele><time>2026-04-12T11:34:18.659Z</time></trkpt><trkpt lat="40.9412583" lon="16.306785"><ele>627.0</ele><time>2026-04-12T11:34:19.659Z</time></trkpt><trkpt lat="40.94123" lon="16.30663"><ele>626.0</ele><time>2026-04-12T11:34:20.659Z</time></trkpt><trkpt lat="40.9412033" lon="16.3064667"><ele>625.0</ele><time>2026-04-12T11:34:21.659Z</time></trkpt><trkpt lat="40.9411717" lon="16.306315"><ele>624.0</ele><time>2026-04-12T11:34:22.659Z</time></trkpt><trkpt lat="40.941145" lon="16.3061583"><ele>623.0</ele><time>2026-04-12T11:34:23.659Z</time></trkpt><trkpt lat="40.9411133" lon="16.3059917"><ele>622.0</ele><time>2026-04-12T11:34:24.659Z</time></trkpt><trkpt lat="40.9410833" lon="16.3058333"><ele>621.0</ele><time>2026-04-12T11:34:25.659Z</time></trkpt><trkpt lat="40.9410583" lon="16.3056817"><ele>620.0</ele><time>2026-04-12T11:34:26.659Z</time></trkpt><trkpt lat="40.9410383" lon="16.305535"><ele>619.2</ele><time>2026-04-12T11:34:27.66Z</time></trkpt><trkpt lat="40.9410017" lon="16.30539"><ele>618.4</ele><time>2026-04-12T11:34:28.66Z</time></trkpt><trkpt lat="40.9409767" lon="16.3052517"><ele>617.6</ele><time>2026-04-12T11:34:29.66Z</time></trkpt><trkpt lat="40.940955" lon="16.3051233"><ele>616.8</ele><time>2026-04-12T11:34:30.66Z</time></trkpt><trkpt lat="40.9409333" lon="16.3049967"><ele>616.0</ele><time>2026-04-12T11:34:31.659Z</time></trkpt><trkpt lat="40.94092" lon="16.30488"><ele>616.0</ele><time>2026-04-12T11:34:32.659Z</time></trkpt><trkpt lat="40.9409183" lon="16.304775"><ele>616.0</ele><time>2026-04-12T11:34:33.659Z</time></trkpt><trkpt lat="40.94092" lon="16.3046733"><ele>616.0</ele><time>2026-04-12T11:34:34.659Z</time></trkpt><trkpt lat="40.9409133" lon="16.3045833"><ele>616.0</ele><time>2026-04-12T11:34:35.659Z</time></trkpt><trkpt lat="40.940885" lon="16.3045033"><ele>616.0</ele><time>2026-04-12T11:34:36.659Z</time></trkpt><trkpt lat="40.94085" lon="16.3044083"><ele>616.0</ele><time>2026-04-12T11:34:37.66Z</time></trkpt><trkpt lat="40.9408083" lon="16.3042983"><ele>616.8</ele><time>2026-04-12T11:34:38.659Z</time></trkpt><trkpt lat="40.9407817" lon="16.3041583"><ele>617.6</ele><time>2026-04-12T11:34:39.659Z</time></trkpt><trkpt lat="40.9407583" lon="16.3040183"><ele>618.4</ele><time>2026-04-12T11:34:40.66Z</time></trkpt><trkpt lat="40.9407333" lon="16.303875"><ele>619.2</ele><time>2026-04-12T11:34:41.659Z</time></trkpt><trkpt lat="40.9407083" lon="16.3037217"><ele>620.0</ele><time>2026-04-12T11:34:42.659Z</time></trkpt><trkpt lat="40.940685" lon="16.30357"><ele>620.0</ele><time>2026-04-12T11:34:43.659Z</time></trkpt><trkpt lat="40.9406633" lon="16.30344"><ele>620.0</ele><time>2026-04-12T11:34:44.659Z</time></trkpt><trkpt lat="40.940635" lon="16.303325"><ele>620.0</ele><time>2026-04-12T11:34:45.659Z</time></trkpt><trkpt lat="40.940605" lon="16.3032417"><ele>620.0</ele><time>2026-04-12T11:34:46.659Z</time></trkpt><trkpt lat="40.94052" lon="16.30314"><ele>620.0</ele><time>2026-04-12T11:34:48.659Z</time></trkpt><trkpt lat="40.940455" lon="16.30311"><ele>620.0</ele><time>2026-04-12T11:34:49.66Z</time></trkpt><trkpt lat="40.9403917" lon="16.3030833"><ele>620.0</ele><time>2026-04-12T11:34:50.66Z</time></trkpt><trkpt lat="40.9403167" lon="16.30308"><ele>620.0</ele><time>2026-04-12T11:34:51.659Z</time></trkpt><trkpt lat="40.94023" lon="16.3030883"><ele>620.0</ele><time>2026-04-12T11:34:52.659Z</time></trkpt><trkpt lat="40.9401517" lon="16.3031033"><ele>620.0</ele><time>2026-04-12T11:34:53.659Z</time></trkpt><trkpt lat="40.940025" lon="16.30312"><ele>620.0</ele><time>2026-04-12T11:34:55.659Z</time></trkpt><trkpt lat="40.9399133" lon="16.3030983"><ele>619.4</ele><time>2026-04-12T11:34:57.659Z</time></trkpt><trkpt lat="40.93981" lon="16.3030483"><ele>618.8</ele><time>2026-04-12T11:34:59.659Z</time></trkpt><trkpt lat="40.9397017" lon="16.3029567"><ele>618.2</ele><time>2026-04-12T11:35:01.659Z</time></trkpt><trkpt lat="40.9396533" lon="16.3028817"><ele>617.6</ele><time>2026-04-12T11:35:02.66Z</time></trkpt><trkpt lat="40.93961" lon="16.3028"><ele>617.0</ele><time>2026-04-12T11:35:03.659Z</time></trkpt><trkpt lat="40.9395633" lon="16.302715"><ele>617.0</ele><time>2026-04-12T11:35:04.659Z</time></trkpt><trkpt lat="40.9395117" lon="16.3026317"><ele>617.0</ele><time>2026-04-12T11:35:05.659Z</time></trkpt><trkpt lat="40.9394483" lon="16.30256"><ele>617.0</ele><time>2026-04-12T11:35:06.659Z</time></trkpt><trkpt lat="40.9393817" lon="16.3024867"><ele>617.0</ele><time>2026-04-12T11:35:07.659Z</time></trkpt><trkpt lat="40.939325" lon="16.30241"><ele>617.0</ele><time>2026-04-12T11:35:08.659Z</time></trkpt><trkpt lat="40.9392667" lon="16.3023167"><ele>617.0</ele><time>2026-04-12T11:35:09.659Z</time></trkpt><trkpt lat="40.939215" lon="16.3022367"><ele>615.0</ele><time>2026-04-12T11:35:10.659Z</time></trkpt><trkpt lat="40.939165" lon="16.3021517"><ele>613.0</ele><time>2026-04-12T11:35:11.659Z</time></trkpt><trkpt lat="40.9391233" lon="16.3020667"><ele>611.0</ele><time>2026-04-12T11:35:12.659Z</time></trkpt><trkpt lat="40.9390833" lon="16.3019867"><ele>609.0</ele><time>2026-04-12T11:35:13.66Z</time></trkpt><trkpt lat="40.939035" lon="16.3019"><ele>607.0</ele><time>2026-04-12T11:35:14.659Z</time></trkpt><trkpt lat="40.9389967" lon="16.3018183"><ele>605.0</ele><time>2026-04-12T11:35:15.659Z</time></trkpt><trkpt lat="40.9389567" lon="16.3017533"><ele>603.0</ele><time>2026-04-12T11:35:16.659Z</time></trkpt><trkpt lat="40.9388767" lon="16.30163"><ele>603.0</ele><time>2026-04-12T11:35:18.659Z</time></trkpt><trkpt lat="40.9388083" lon="16.301515"><ele>603.0</ele><time>2026-04-12T11:35:20.66Z</time></trkpt><trkpt lat="40.9387167" lon="16.3014433"><ele>603.0</ele><time>2026-04-12T11:35:22.659Z</time></trkpt><trkpt lat="40.9386133" lon="16.301385"><ele>603.0</ele><time>2026-04-12T11:35:24.66Z</time></trkpt><trkpt lat="40.9385483" lon="16.3013717"><ele>603.0</ele><time>2026-04-12T11:35:25.66Z</time></trkpt><trkpt lat="40.93848" lon="16.3013633"><ele>598.4</ele><time>2026-04-12T11:35:26.659Z</time></trkpt><trkpt lat="40.9383633" lon="16.301345"><ele>593.8</ele><time>2026-04-12T11:35:28.659Z</time></trkpt><trkpt lat="40.9382567" lon="16.3013433"><ele>589.2</ele><time>2026-04-12T11:35:30.659Z</time></trkpt><trkpt lat="40.9381467" lon="16.3013483"><ele>584.6</ele><time>2026-04-12T11:35:32.659Z</time></trkpt><trkpt lat="40.9380483" lon="16.3012917"><ele>580.0</ele><time>2026-04-12T11:35:34.66Z</time></trkpt><trkpt lat="40.9379767" lon="16.3011633"><ele>580.0</ele><time>2026-04-12T11:35:36.66Z</time></trkpt><trkpt lat="40.9379483" lon="16.30108"><ele>580.0</ele><time>2026-04-12T11:35:37.659Z</time></trkpt><trkpt lat="40.9379183" lon="16.3009933"><ele>580.0</ele><time>2026-04-12T11:35:38.659Z</time></trkpt><trkpt lat="40.9378817" lon="16.3009067"><ele>580.0</ele><time>2026-04-12T11:35:39.659Z</time></trkpt><trkpt lat="40.9378483" lon="16.30083"><ele>580.0</ele><time>2026-04-12T11:35:40.659Z</time></trkpt><trkpt lat="40.9378117" lon="16.30076"><ele>580.0</ele><time>2026-04-12T11:35:41.659Z</time></trkpt><trkpt lat="40.9377733" lon="16.30068"><ele>580.0</ele><time>2026-04-12T11:35:42.659Z</time></trkpt><trkpt lat="40.9377283" lon="16.300595"><ele>578.6666666666667</ele><time>2026-04-12T11:35:43.66Z</time></trkpt><trkpt lat="40.93768" lon="16.3005167"><ele>577.3333333333334</ele><time>2026-04-12T11:35:44.66Z</time></trkpt><trkpt lat="40.937625" lon="16.3004317"><ele>576.0</ele><time>2026-04-12T11:35:45.66Z</time></trkpt><trkpt lat="40.93758" lon="16.30036"><ele>574.6666666666666</ele><time>2026-04-12T11:35:46.659Z</time></trkpt><trkpt lat="40.9375267" lon="16.3002817"><ele>573.3333333333333</ele><time>2026-04-12T11:35:47.659Z</time></trkpt><trkpt lat="40.9374767" lon="16.3002033"><ele>572.0</ele><time>2026-04-12T11:35:48.659Z</time></trkpt><trkpt lat="40.9374267" lon="16.30012"><ele>571.1666666666666</ele><time>2026-04-12T11:35:49.66Z</time></trkpt><trkpt lat="40.937385" lon="16.3000417"><ele>570.3333333333333</ele><time>2026-04-12T11:35:50.659Z</time></trkpt><trkpt lat="40.9373383" lon="16.299955"><ele>569.5</ele><time>2026-04-12T11:35:51.66Z</time></trkpt><trkpt lat="40.937305" lon="16.29987"><ele>568.6666666666666</ele><time>2026-04-12T11:35:52.659Z</time></trkpt><trkpt lat="40.9372733" lon="16.29978"><ele>567.8333333333334</ele><time>2026-04-12T11:35:53.659Z</time></trkpt><trkpt lat="40.937245" lon="16.2996917"><ele>567.0</ele><time>2026-04-12T11:35:54.66Z</time></trkpt><trkpt lat="40.93723" lon="16.2995917"><ele>565.3333333333334</ele><time>2026-04-12T11:35:55.659Z</time></trkpt><trkpt lat="40.937225" lon="16.2995"><ele>563.6666666666666</ele><time>2026-04-12T11:35:56.659Z</time></trkpt><trkpt lat="40.9372283" lon="16.2994117"><ele>562.0</ele><time>2026-04-12T11:35:57.659Z</time></trkpt><trkpt lat="40.9372367" lon="16.2993283"><ele>560.3333333333333</ele><time>2026-04-12T11:35:58.659Z</time></trkpt><trkpt lat="40.937245" lon="16.299245"><ele>558.6666666666666</ele><time>2026-04-12T11:35:59.66Z</time></trkpt><trkpt lat="40.937235" lon="16.29908"><ele>557.0</ele><time>2026-04-12T11:36:01.659Z</time></trkpt><trkpt lat="40.937185" lon="16.2989583"><ele>556.5</ele><time>2026-04-12T11:36:03.66Z</time></trkpt><trkpt lat="40.9371433" lon="16.2988633"><ele>556.0</ele><time>2026-04-12T11:36:05.659Z</time></trkpt><trkpt lat="40.937165" lon="16.2987783"><ele>555.5</ele><time>2026-04-12T11:36:07.659Z</time></trkpt><trkpt lat="40.9372167" lon="16.298705"><ele>555.0</ele><time>2026-04-12T11:36:09.66Z</time></trkpt><trkpt lat="40.937285" lon="16.2986383"><ele>554.5</ele><time>2026-04-12T11:36:11.659Z</time></trkpt><trkpt lat="40.9373667" lon="16.298575"><ele>554.0</ele><time>2026-04-12T11:36:13.659Z</time></trkpt><trkpt lat="40.9374467" lon="16.2985317"><ele>554.0</ele><time>2026-04-12T11:36:15.659Z</time></trkpt><trkpt lat="40.937515" lon="16.298455"><ele>554.0</ele><time>2026-04-12T11:36:17.659Z</time></trkpt><trkpt lat="40.9375683" lon="16.298335"><ele>554.0</ele><time>2026-04-12T11:36:19.66Z</time></trkpt><trkpt lat="40.9375867" lon="16.29823"><ele>554.0</ele><time>2026-04-12T11:36:21.659Z</time></trkpt><trkpt lat="40.937615" lon="16.2981267"><ele>554.0</ele><time>2026-04-12T11:36:23.659Z</time></trkpt><trkpt lat="40.937645" lon="16.2980217"><ele>554.0</ele><time>2026-04-12T11:36:25.659Z</time></trkpt><trkpt lat="40.9376783" lon="16.2978883"><ele>554.6666666666666</ele><time>2026-04-12T11:36:27.659Z</time></trkpt><trkpt lat="40.9377183" lon="16.2977267"><ele>555.3333333333333</ele><time>2026-04-12T11:36:29.66Z</time></trkpt><trkpt lat="40.9377433" lon="16.2976317"><ele>556.0</ele><time>2026-04-12T11:36:30.659Z</time></trkpt><trkpt lat="40.9377783" lon="16.2975417"><ele>556.6666666666666</ele><time>2026-04-12T11:36:31.659Z</time></trkpt><trkpt lat="40.937815" lon="16.2974583"><ele>557.3333333333334</ele><time>2026-04-12T11:36:32.66Z</time></trkpt><trkpt lat="40.9378567" lon="16.2973783"><ele>558.0</ele><time>2026-04-12T11:36:33.659Z</time></trkpt><trkpt lat="40.9378983" lon="16.2972983"><ele>555.8333333333334</ele><time>2026-04-12T11:36:34.66Z</time></trkpt><trkpt lat="40.9379433" lon="16.2971867"><ele>553.6666666666666</ele><time>2026-04-12T11:36:35.659Z</time></trkpt><trkpt lat="40.9379833" lon="16.2970733"><ele>551.5</ele><time>2026-04-12T11:36:36.659Z</time></trkpt><trkpt lat="40.9380267" lon="16.2969733"><ele>549.3333333333333</ele><time>2026-04-12T11:36:37.659Z</time></trkpt><trkpt lat="40.9380667" lon="16.2968867"><ele>547.1666666666666</ele><time>2026-04-12T11:36:38.659Z</time></trkpt><trkpt lat="40.9381067" lon="16.29678"><ele>545.0</ele><time>2026-04-12T11:36:39.659Z</time></trkpt><trkpt lat="40.9381417" lon="16.2966783"><ele>545.0</ele><time>2026-04-12T11:36:40.659Z</time></trkpt><trkpt lat="40.93817" lon="16.2965683"><ele>545.0</ele><time>2026-04-12T11:36:41.659Z</time></trkpt><trkpt lat="40.9381983" lon="16.2964617"><ele>545.0</ele><time>2026-04-12T11:36:42.659Z</time></trkpt><trkpt lat="40.9382233" lon="16.2963683"><ele>545.0</ele><time>2026-04-12T11:36:43.659Z</time></trkpt><trkpt lat="40.938245" lon="16.2962633"><ele>545.0</ele><time>2026-04-12T11:36:44.659Z</time></trkpt><trkpt lat="40.9382733" lon="16.296145"><ele>545.0</ele><time>2026-04-12T11:36:45.659Z</time></trkpt><trkpt lat="40.9383183" lon="16.2960367"><ele>545.4</ele><time>2026-04-12T11:36:46.659Z</time></trkpt><trkpt lat="40.9383667" lon="16.295915"><ele>545.8</ele><time>2026-04-12T11:36:47.659Z</time></trkpt><trkpt lat="40.9384267" lon="16.2958"><ele>546.2</ele><time>2026-04-12T11:36:48.66Z</time></trkpt><trkpt lat="40.9384817" lon="16.2956733"><ele>546.6</ele><time>2026-04-12T11:36:49.659Z</time></trkpt><trkpt lat="40.9385283" lon="16.2955383"><ele>547.0</ele><time>2026-04-12T11:36:50.659Z</time></trkpt><trkpt lat="40.9385767" lon="16.2954017"><ele>544.75</ele><time>2026-04-12T11:36:51.659Z</time></trkpt><trkpt lat="40.9386317" lon="16.2952783"><ele>542.5</ele><time>2026-04-12T11:36:52.659Z</time></trkpt><trkpt lat="40.93868" lon="16.295145"><ele>540.25</ele><time>2026-04-12T11:36:53.66Z</time></trkpt><trkpt lat="40.9387267" lon="16.2950033"><ele>538.0</ele><time>2026-04-12T11:36:54.659Z</time></trkpt><trkpt lat="40.9387817" lon="16.29487"><ele>535.8</ele><time>2026-04-12T11:36:55.66Z</time></trkpt><trkpt lat="40.9388317" lon="16.2947283"><ele>533.5999999999999</ele><time>2026-04-12T11:36:56.66Z</time></trkpt><trkpt lat="40.938865" lon="16.294585"><ele>531.4000000000001</ele><time>2026-04-12T11:36:57.659Z</time></trkpt><trkpt lat="40.9388967" lon="16.2944533"><ele>529.2</ele><time>2026-04-12T11:36:58.659Z</time></trkpt><trkpt lat="40.938935" lon="16.294325"><ele>527.0</ele><time>2026-04-12T11:36:59.66Z</time></trkpt><trkpt lat="40.93899" lon="16.2942183"><ele>527.0</ele><time>2026-04-12T11:37:00.66Z</time></trkpt><trkpt lat="40.9390533" lon="16.294125"><ele>527.0</ele><time>2026-04-12T11:37:01.66Z</time></trkpt><trkpt lat="40.9391067" lon="16.2940417"><ele>527.0</ele><time>2026-04-12T11:37:02.66Z</time></trkpt><trkpt lat="40.9391583" lon="16.2939533"><ele>527.0</ele><time>2026-04-12T11:37:03.66Z</time></trkpt><trkpt lat="40.9392017" lon="16.29386"><ele>527.0</ele><time>2026-04-12T11:37:04.659Z</time></trkpt><trkpt lat="40.9392533" lon="16.2937983"><ele>527.0</ele><time>2026-04-12T11:37:05.66Z</time></trkpt><trkpt lat="40.9393033" lon="16.293735"><ele>525.8333333333333</ele><time>2026-04-12T11:37:06.659Z</time></trkpt><trkpt lat="40.9393533" lon="16.293625"><ele>524.6666666666666</ele><time>2026-04-12T11:37:08.659Z</time></trkpt><trkpt lat="40.9393817" lon="16.293475"><ele>523.5</ele><time>2026-04-12T11:37:10.659Z</time></trkpt><trkpt lat="40.93937" lon="16.2933917"><ele>522.3333333333334</ele><time>2026-04-12T11:37:11.659Z</time></trkpt><trkpt lat="40.9393417" lon="16.2933033"><ele>521.1666666666667</ele><time>2026-04-12T11:37:12.659Z</time></trkpt><trkpt lat="40.939305" lon="16.2932033"><ele>520.0</ele><time>2026-04-12T11:37:13.659Z</time></trkpt><trkpt lat="40.9392833" lon="16.2931067"><ele>519.4</ele><time>2026-04-12T11:37:14.66Z</time></trkpt><trkpt lat="40.9392917" lon="16.292985"><ele>518.8</ele><time>2026-04-12T11:37:15.66Z</time></trkpt><trkpt lat="40.939305" lon="16.2928567"><ele>518.2</ele><time>2026-04-12T11:37:16.66Z</time></trkpt><trkpt lat="40.9393183" lon="16.29272"><ele>517.6</ele><time>2026-04-12T11:37:17.659Z</time></trkpt><trkpt lat="40.93931" lon="16.2925733"><ele>517.0</ele><time>2026-04-12T11:37:18.659Z</time></trkpt><trkpt lat="40.9392983" lon="16.2924383"><ele>517.0</ele><time>2026-04-12T11:37:19.659Z</time></trkpt><trkpt lat="40.939275" lon="16.2922933"><ele>517.0</ele><time>2026-04-12T11:37:20.659Z</time></trkpt><trkpt lat="40.9392433" lon="16.2921483"><ele>517.0</ele><time>2026-04-12T11:37:21.659Z</time></trkpt><trkpt lat="40.939205" lon="16.29202"><ele>517.0</ele><time>2026-04-12T11:37:22.659Z</time></trkpt><trkpt lat="40.9391683" lon="16.2918817"><ele>517.0</ele><time>2026-04-12T11:37:23.659Z</time></trkpt><trkpt lat="40.9391383" lon="16.2917583"><ele>517.2</ele><time>2026-04-12T11:37:24.66Z</time></trkpt><trkpt lat="40.9391183" lon="16.29163"><ele>517.4000000000001</ele><time>2026-04-12T11:37:25.659Z</time></trkpt><trkpt lat="40.9391083" lon="16.2914833"><ele>517.5999999999999</ele><time>2026-04-12T11:37:26.66Z</time></trkpt><trkpt lat="40.9391067" lon="16.2913367"><ele>517.8</ele><time>2026-04-12T11:37:27.659Z</time></trkpt><trkpt lat="40.939115" lon="16.2911933"><ele>518.0</ele><time>2026-04-12T11:37:28.66Z</time></trkpt><trkpt lat="40.9391167" lon="16.2910383"><ele>516.25</ele><time>2026-04-12T11:37:29.66Z</time></trkpt><trkpt lat="40.9391167" lon="16.290875"><ele>514.5</ele><time>2026-04-12T11:37:30.659Z</time></trkpt><trkpt lat="40.9391167" lon="16.2907283"><ele>512.75</ele><time>2026-04-12T11:37:31.66Z</time></trkpt><trkpt lat="40.9391183" lon="16.2905783"><ele>511.0</ele><time>2026-04-12T11:37:32.659Z</time></trkpt><trkpt lat="40.93911" lon="16.2904433"><ele>510.1666666666667</ele><time>2026-04-12T11:37:33.659Z</time></trkpt><trkpt lat="40.939115" lon="16.2903133"><ele>509.33333333333337</ele><time>2026-04-12T11:37:34.659Z</time></trkpt><trkpt lat="40.9391183" lon="16.2901933"><ele>508.5</ele><time>2026-04-12T11:37:35.659Z</time></trkpt><trkpt lat="40.9391167" lon="16.2900917"><ele>507.66666666666663</ele><time>2026-04-12T11:37:36.66Z</time></trkpt><trkpt lat="40.9391217" lon="16.2899883"><ele>506.8333333333333</ele><time>2026-04-12T11:37:37.659Z</time></trkpt><trkpt lat="40.93913" lon="16.2898883"><ele>506.0</ele><time>2026-04-12T11:37:38.659Z</time></trkpt><trkpt lat="40.9391517" lon="16.2897817"><ele>505.4</ele><time>2026-04-12T11:37:39.66Z</time></trkpt><trkpt lat="40.9391717" lon="16.2896733"><ele>504.8</ele><time>2026-04-12T11:37:40.659Z</time></trkpt><trkpt lat="40.9391967" lon="16.289555"><ele>504.19999999999993</ele><time>2026-04-12T11:37:41.659Z</time></trkpt><trkpt lat="40.9392017" lon="16.2894217"><ele>503.59999999999997</ele><time>2026-04-12T11:37:42.659Z</time></trkpt><trkpt lat="40.939205" lon="16.2892817"><ele>503.0</ele><time>2026-04-12T11:37:43.659Z</time></trkpt><trkpt lat="40.9391967" lon="16.289135"><ele>502.99999999999994</ele><time>2026-04-12T11:37:44.66Z</time></trkpt><trkpt lat="40.939175" lon="16.2889917"><ele>503.0</ele><time>2026-04-12T11:37:45.66Z</time></trkpt><trkpt lat="40.9391517" lon="16.288855"><ele>503.0</ele><time>2026-04-12T11:37:46.659Z</time></trkpt><trkpt lat="40.9391217" lon="16.288745"><ele>503.0</ele><time>2026-04-12T11:37:47.659Z</time></trkpt><trkpt lat="40.93909" lon="16.2886617"><ele>502.99999999999994</ele><time>2026-04-12T11:37:48.659Z</time></trkpt><trkpt lat="40.939045" lon="16.2885917"><ele>503.0</ele><time>2026-04-12T11:37:49.659Z</time></trkpt><trkpt lat="40.938985" lon="16.2885583"><ele>503.59999999999997</ele><time>2026-04-12T11:37:50.659Z</time></trkpt><trkpt lat="40.9389083" lon="16.28853"><ele>504.19999999999993</ele><time>2026-04-12T11:37:51.659Z</time></trkpt><trkpt lat="40.9388183" lon="16.2885017"><ele>504.8</ele><time>2026-04-12T11:37:52.66Z</time></trkpt><trkpt lat="40.938715" lon="16.2884767"><ele>505.4</ele><time>2026-04-12T11:37:53.659Z</time></trkpt><trkpt lat="40.9386067" lon="16.2884517"><ele>506.0</ele><time>2026-04-12T11:37:54.659Z</time></trkpt><trkpt lat="40.9384967" lon="16.2884233"><ele>506.0</ele><time>2026-04-12T11:37:55.659Z</time></trkpt><trkpt lat="40.9383983" lon="16.28839"><ele>506.0</ele><time>2026-04-12T11:37:56.66Z</time></trkpt><trkpt lat="40.9383217" lon="16.2883683"><ele>506.0</ele><time>2026-04-12T11:37:57.66Z</time></trkpt><trkpt lat="40.9382617" lon="16.2883417"><ele>506.0</ele><time>2026-04-12T11:37:58.66Z</time></trkpt><trkpt lat="40.93816" lon="16.2882417"><ele>506.0</ele><time>2026-04-12T11:38:00.659Z</time></trkpt><trkpt lat="40.938095" lon="16.2881667"><ele>502.75</ele><time>2026-04-12T11:38:01.659Z</time></trkpt><trkpt lat="40.9380183" lon="16.2880883"><ele>499.5</ele><time>2026-04-12T11:38:02.66Z</time></trkpt><trkpt lat="40.937935" lon="16.2879983"><ele>496.25</ele><time>2026-04-12T11:38:03.66Z</time></trkpt><trkpt lat="40.9378367" lon="16.2879017"><ele>493.0</ele><time>2026-04-12T11:38:04.659Z</time></trkpt><trkpt lat="40.9377333" lon="16.2877883"><ele>493.0</ele><time>2026-04-12T11:38:05.66Z</time></trkpt><trkpt lat="40.9376183" lon="16.2876683"><ele>493.0</ele><time>2026-04-12T11:38:06.66Z</time></trkpt><trkpt lat="40.9374983" lon="16.2875383"><ele>493.0</ele><time>2026-04-12T11:38:07.659Z</time></trkpt><trkpt lat="40.9373717" lon="16.2874"><ele>492.33333333333337</ele><time>2026-04-12T11:38:08.66Z</time></trkpt><trkpt lat="40.9372483" lon="16.2872617"><ele>491.66666666666663</ele><time>2026-04-12T11:38:09.659Z</time></trkpt><trkpt lat="40.93712" lon="16.2871217"><ele>491.0</ele><time>2026-04-12T11:38:10.659Z</time></trkpt><trkpt lat="40.9369883" lon="16.2869783"><ele>490.3333333333333</ele><time>2026-04-12T11:38:11.659Z</time></trkpt><trkpt lat="40.9368533" lon="16.286835"><ele>489.66666666666663</ele><time>2026-04-12T11:38:12.659Z</time></trkpt><trkpt lat="40.9367267" lon="16.2866983"><ele>489.0</ele><time>2026-04-12T11:38:13.659Z</time></trkpt><trkpt lat="40.9366017" lon="16.2865717"><ele>488.0</ele><time>2026-04-12T11:38:14.659Z</time></trkpt><trkpt lat="40.9364833" lon="16.2864517"><ele>487.0</ele><time>2026-04-12T11:38:15.66Z</time></trkpt><trkpt lat="40.936375" lon="16.28634"><ele>486.0</ele><time>2026-04-12T11:38:16.659Z</time></trkpt><trkpt lat="40.9362717" lon="16.286235"><ele>485.0</ele><time>2026-04-12T11:38:17.659Z</time></trkpt><trkpt lat="40.936175" lon="16.28614"><ele>484.8</ele><time>2026-04-12T11:38:18.66Z</time></trkpt><trkpt lat="40.93609" lon="16.286055"><ele>484.6</ele><time>2026-04-12T11:38:19.659Z</time></trkpt><trkpt lat="40.936015" lon="16.2859783"><ele>484.4</ele><time>2026-04-12T11:38:20.66Z</time></trkpt><trkpt lat="40.9359483" lon="16.2859067"><ele>484.2</ele><time>2026-04-12T11:38:21.659Z</time></trkpt><trkpt lat="40.93589" lon="16.28585"><ele>484.0</ele><time>2026-04-12T11:38:22.66Z</time></trkpt><trkpt lat="40.935825" lon="16.2857483"><ele>483.83333333333337</ele><time>2026-04-12T11:38:24.659Z</time></trkpt><trkpt lat="40.93584" lon="16.28565"><ele>483.6666666666667</ele><time>2026-04-12T11:38:26.659Z</time></trkpt><trkpt lat="40.935915" lon="16.2855817"><ele>483.5</ele><time>2026-04-12T11:38:28.66Z</time></trkpt><trkpt lat="40.9359767" lon="16.285555"><ele>483.33333333333337</ele><time>2026-04-12T11:38:29.659Z</time></trkpt><trkpt lat="40.9360583" lon="16.28551"><ele>483.1666666666667</ele><time>2026-04-12T11:38:30.66Z</time></trkpt><trkpt lat="40.93615" lon="16.2854583"><ele>483.0</ele><time>2026-04-12T11:38:31.66Z</time></trkpt><trkpt lat="40.9362517" lon="16.2853983"><ele>483.0</ele><time>2026-04-12T11:38:32.659Z</time></trkpt><trkpt lat="40.9363567" lon="16.285335"><ele>483.0</ele><time>2026-04-12T11:38:33.659Z</time></trkpt><trkpt lat="40.9364683" lon="16.28527"><ele>483.0</ele><time>2026-04-12T11:38:34.66Z</time></trkpt><trkpt lat="40.9365833" lon="16.2851967"><ele>483.0</ele><time>2026-04-12T11:38:35.659Z</time></trkpt><trkpt lat="40.9367033" lon="16.2851133"><ele>483.5</ele><time>2026-04-12T11:38:36.659Z</time></trkpt><trkpt lat="40.9368267" lon="16.285035"><ele>484.0</ele><time>2026-04-12T11:38:37.659Z</time></trkpt><trkpt lat="40.93695" lon="16.2849733"><ele>484.5</ele><time>2026-04-12T11:38:38.659Z</time></trkpt><trkpt lat="40.9370717" lon="16.2849017"><ele>485.0</ele><time>2026-04-12T11:38:39.66Z</time></trkpt><trkpt lat="40.937195" lon="16.2848267"><ele>485.25</ele><time>2026-04-12T11:38:40.66Z</time></trkpt><trkpt lat="40.937315" lon="16.2847583"><ele>485.5</ele><time>2026-04-12T11:38:41.659Z</time></trkpt><trkpt lat="40.9374317" lon="16.28468"><ele>485.75</ele><time>2026-04-12T11:38:42.66Z</time></trkpt><trkpt lat="40.9375483" lon="16.2845833"><ele>486.0</ele><time>2026-04-12T11:38:43.659Z</time></trkpt><trkpt lat="40.9376667" lon="16.28447"><ele>486.0</ele><time>2026-04-12T11:38:44.659Z</time></trkpt><trkpt lat="40.9377767" lon="16.2843483"><ele>486.0</ele><time>2026-04-12T11:38:45.66Z</time></trkpt><trkpt lat="40.9378917" lon="16.2842117"><ele>486.0</ele><time>2026-04-12T11:38:46.659Z</time></trkpt><trkpt lat="40.9380183" lon="16.2840767"><ele>486.0</ele><time>2026-04-12T11:38:47.659Z</time></trkpt><trkpt lat="40.938155" lon="16.2839333"><ele>486.0</ele><time>2026-04-12T11:38:48.659Z</time></trkpt><trkpt lat="40.9382867" lon="16.2837983"><ele>486.0</ele><time>2026-04-12T11:38:49.659Z</time></trkpt><trkpt lat="40.938415" lon="16.28366"><ele>487.0</ele><time>2026-04-12T11:38:50.659Z</time></trkpt><trkpt lat="40.9385517" lon="16.2835117"><ele>488.0</ele><time>2026-04-12T11:38:51.659Z</time></trkpt><trkpt lat="40.93868" lon="16.2833767"><ele>489.0</ele><time>2026-04-12T11:38:52.659Z</time></trkpt><trkpt lat="40.9388083" lon="16.2832417"><ele>489.0</ele><time>2026-04-12T11:38:53.659Z</time></trkpt><trkpt lat="40.93892" lon="16.2831233"><ele>489.0</ele><time>2026-04-12T11:38:54.659Z</time></trkpt><trkpt lat="40.9390167" lon="16.2830233"><ele>489.0</ele><time>2026-04-12T11:38:55.659Z</time></trkpt><trkpt lat="40.9390983" lon="16.28291"><ele>489.0</ele><time>2026-04-12T11:38:56.66Z</time></trkpt><trkpt lat="40.9391717" lon="16.2827883"><ele>490.0</ele><time>2026-04-12T11:38:57.659Z</time></trkpt><trkpt lat="40.9392417" lon="16.2826483"><ele>491.0</ele><time>2026-04-12T11:38:58.659Z</time></trkpt><trkpt lat="40.9393083" lon="16.2824967"><ele>492.0</ele><time>2026-04-12T11:38:59.66Z</time></trkpt><trkpt lat="40.9393733" lon="16.282335"><ele>493.0</ele><time>2026-04-12T11:39:00.659Z</time></trkpt><trkpt lat="40.9394317" lon="16.2821717"><ele>493.0</ele><time>2026-04-12T11:39:01.659Z</time></trkpt><trkpt lat="40.939475" lon="16.2819883"><ele>493.0</ele><time>2026-04-12T11:39:02.659Z</time></trkpt><trkpt lat="40.9395" lon="16.2817983"><ele>493.0</ele><time>2026-04-12T11:39:03.659Z</time></trkpt><trkpt lat="40.9395283" lon="16.2816033"><ele>493.0</ele><time>2026-04-12T11:39:04.66Z</time></trkpt><trkpt lat="40.9395567" lon="16.2814017"><ele>492.25</ele><time>2026-04-12T11:39:05.66Z</time></trkpt><trkpt lat="40.93958" lon="16.2811983"><ele>491.5</ele><time>2026-04-12T11:39:06.659Z</time></trkpt><trkpt lat="40.9396" lon="16.2810167"><ele>490.75</ele><time>2026-04-12T11:39:07.659Z</time></trkpt><trkpt lat="40.939625" lon="16.2808517"><ele>490.0</ele><time>2026-04-12T11:39:08.66Z</time></trkpt><trkpt lat="40.93965" lon="16.2806917"><ele>489.4</ele><time>2026-04-12T11:39:09.66Z</time></trkpt><trkpt lat="40.9396883" lon="16.28055"><ele>488.8</ele><time>2026-04-12T11:39:10.66Z</time></trkpt><trkpt lat="40.939745" lon="16.2804483"><ele>488.20000000000005</ele><time>2026-04-12T11:39:11.659Z</time></trkpt><trkpt lat="40.9398083" lon="16.2803167"><ele>487.6</ele><time>2026-04-12T11:39:12.66Z</time></trkpt><trkpt lat="40.9398767" lon="16.2802017"><ele>487.0</ele><time>2026-04-12T11:39:13.659Z</time></trkpt><trkpt lat="40.93996" lon="16.2800633"><ele>487.0</ele><time>2026-04-12T11:39:14.659Z</time></trkpt><trkpt lat="40.9400417" lon="16.2799217"><ele>487.0</ele><time>2026-04-12T11:39:15.66Z</time></trkpt><trkpt lat="40.9401183" lon="16.279775"><ele>487.0</ele><time>2026-04-12T11:39:16.66Z</time></trkpt><trkpt lat="40.940185" lon="16.2796483"><ele>487.0</ele><time>2026-04-12T11:39:17.659Z</time></trkpt><trkpt lat="40.94024" lon="16.2795233"><ele>489.25</ele><time>2026-04-12T11:39:18.659Z</time></trkpt><trkpt lat="40.9402833" lon="16.2793867"><ele>491.5</ele><time>2026-04-12T11:39:19.66Z</time></trkpt><trkpt lat="40.940305" lon="16.279225"><ele>493.75</ele><time>2026-04-12T11:39:20.659Z</time></trkpt><trkpt lat="40.9403217" lon="16.2790533"><ele>496.0</ele><time>2026-04-12T11:39:21.659Z</time></trkpt><trkpt lat="40.94034" lon="16.278865"><ele>496.0</ele><time>2026-04-12T11:39:22.66Z</time></trkpt><trkpt lat="40.9403683" lon="16.278675"><ele>496.0</ele><time>2026-04-12T11:39:23.659Z</time></trkpt><trkpt lat="40.940395" lon="16.27848"><ele>496.0</ele><time>2026-04-12T11:39:24.659Z</time></trkpt><trkpt lat="40.94042" lon="16.2782833"><ele>496.0</ele><time>2026-04-12T11:39:25.659Z</time></trkpt><trkpt lat="40.9404467" lon="16.2780867"><ele>495.25</ele><time>2026-04-12T11:39:26.66Z</time></trkpt><trkpt lat="40.940475" lon="16.277905"><ele>494.5</ele><time>2026-04-12T11:39:27.659Z</time></trkpt><trkpt lat="40.9405" lon="16.2777383"><ele>493.75</ele><time>2026-04-12T11:39:28.66Z</time></trkpt><trkpt lat="40.9405333" lon="16.2775767"><ele>493.0</ele><time>2026-04-12T11:39:29.659Z</time></trkpt><trkpt lat="40.9405817" lon="16.2774167"><ele>493.0</ele><time>2026-04-12T11:39:30.659Z</time></trkpt><trkpt lat="40.9406267" lon="16.27728"><ele>492.99999999999994</ele><time>2026-04-12T11:39:31.66Z</time></trkpt><trkpt lat="40.9406767" lon="16.27714"><ele>492.99999999999994</ele><time>2026-04-12T11:39:32.659Z</time></trkpt><trkpt lat="40.9407167" lon="16.2770083"><ele>493.0</ele><time>2026-04-12T11:39:33.659Z</time></trkpt><trkpt lat="40.9407567" lon="16.276875"><ele>493.0</ele><time>2026-04-12T11:39:34.659Z</time></trkpt><trkpt lat="40.9407933" lon="16.2767533"><ele>492.59999999999997</ele><time>2026-04-12T11:39:35.659Z</time></trkpt><trkpt lat="40.9408317" lon="16.2766417"><ele>492.19999999999993</ele><time>2026-04-12T11:39:36.659Z</time></trkpt><trkpt lat="40.9408683" lon="16.2765283"><ele>491.8</ele><time>2026-04-12T11:39:37.659Z</time></trkpt><trkpt lat="40.94091" lon="16.2763983"><ele>491.4</ele><time>2026-04-12T11:39:38.659Z</time></trkpt><trkpt lat="40.9409517" lon="16.2762717"><ele>491.0</ele><time>2026-04-12T11:39:39.659Z</time></trkpt><trkpt lat="40.940995" lon="16.2761467"><ele>491.0</ele><time>2026-04-12T11:39:40.659Z</time></trkpt><trkpt lat="40.941045" lon="16.27603"><ele>491.0</ele><time>2026-04-12T11:39:41.66Z</time></trkpt><trkpt lat="40.9410933" lon="16.275935"><ele>491.0</ele><time>2026-04-12T11:39:42.659Z</time></trkpt><trkpt lat="40.9411333" lon="16.2758633"><ele>491.0</ele><time>2026-04-12T11:39:43.659Z</time></trkpt><trkpt lat="40.9412333" lon="16.275815"><ele>491.0</ele><time>2026-04-12T11:39:45.659Z</time></trkpt><trkpt lat="40.94136" lon="16.2758267"><ele>490.99999999999994</ele><time>2026-04-12T11:39:47.659Z</time></trkpt><trkpt lat="40.94143" lon="16.2758333"><ele>491.0</ele><time>2026-04-12T11:39:48.659Z</time></trkpt><trkpt lat="40.9415" lon="16.27582"><ele>491.0</ele><time>2026-04-12T11:39:49.659Z</time></trkpt><trkpt lat="40.9415667" lon="16.2757683"><ele>491.0</ele><time>2026-04-12T11:39:50.659Z</time></trkpt><trkpt lat="40.94163" lon="16.2756917"><ele>490.99999999999994</ele><time>2026-04-12T11:39:51.66Z</time></trkpt><trkpt lat="40.941695" lon="16.2755983"><ele>491.0</ele><time>2026-04-12T11:39:52.659Z</time></trkpt><trkpt lat="40.9417483" lon="16.2755017"><ele>493.16666666666663</ele><time>2026-04-12T11:39:53.659Z</time></trkpt><trkpt lat="40.9417933" lon="16.2754083"><ele>495.3333333333333</ele><time>2026-04-12T11:39:54.659Z</time></trkpt><trkpt lat="40.94182" lon="16.2753083"><ele>497.5</ele><time>2026-04-12T11:39:55.659Z</time></trkpt><trkpt lat="40.9418333" lon="16.27519"><ele>499.66666666666663</ele><time>2026-04-12T11:39:56.659Z</time></trkpt><trkpt lat="40.9418433" lon="16.2750733"><ele>501.8333333333333</ele><time>2026-04-12T11:39:57.659Z</time></trkpt><trkpt lat="40.9418467" lon="16.2749717"><ele>504.0</ele><time>2026-04-12T11:39:58.66Z</time></trkpt><trkpt lat="40.9418433" lon="16.27486"><ele>502.6666666666667</ele><time>2026-04-12T11:39:59.659Z</time></trkpt><trkpt lat="40.9418483" lon="16.2747483"><ele>501.33333333333337</ele><time>2026-04-12T11:40:00.66Z</time></trkpt><trkpt lat="40.9418683" lon="16.27465"><ele>500.0</ele><time>2026-04-12T11:40:01.66Z</time></trkpt><trkpt lat="40.9419033" lon="16.274565"><ele>498.6666666666667</ele><time>2026-04-12T11:40:02.659Z</time></trkpt><trkpt lat="40.941945" lon="16.2744817"><ele>497.33333333333337</ele><time>2026-04-12T11:40:03.659Z</time></trkpt><trkpt lat="40.941995" lon="16.27438"><ele>496.0</ele><time>2026-04-12T11:40:04.66Z</time></trkpt><trkpt lat="40.942035" lon="16.2742767"><ele>496.00000000000006</ele><time>2026-04-12T11:40:05.659Z</time></trkpt><trkpt lat="40.94208" lon="16.2741767"><ele>496.0</ele><time>2026-04-12T11:40:06.659Z</time></trkpt><trkpt lat="40.9421217" lon="16.2740917"><ele>496.0</ele><time>2026-04-12T11:40:07.66Z</time></trkpt><trkpt lat="40.9421567" lon="16.2739933"><ele>496.0</ele><time>2026-04-12T11:40:08.659Z</time></trkpt><trkpt lat="40.9421883" lon="16.2738833"><ele>496.00000000000006</ele><time>2026-04-12T11:40:09.659Z</time></trkpt><trkpt lat="40.9422183" lon="16.27377"><ele>496.0</ele><time>2026-04-12T11:40:10.659Z</time></trkpt><trkpt lat="40.9422483" lon="16.273655"><ele>494.6</ele><time>2026-04-12T11:40:11.659Z</time></trkpt><trkpt lat="40.9422833" lon="16.2735383"><ele>493.20000000000005</ele><time>2026-04-12T11:40:12.66Z</time></trkpt><trkpt lat="40.9423183" lon="16.2734167"><ele>491.79999999999995</ele><time>2026-04-12T11:40:13.659Z</time></trkpt><trkpt lat="40.9423567" lon="16.2732817"><ele>490.4</ele><time>2026-04-12T11:40:14.659Z</time></trkpt><trkpt lat="40.9423817" lon="16.273145"><ele>489.0</ele><time>2026-04-12T11:40:15.66Z</time></trkpt><trkpt lat="40.9423983" lon="16.2730117"><ele>487.79999999999995</ele><time>2026-04-12T11:40:16.659Z</time></trkpt><trkpt lat="40.9424167" lon="16.272875"><ele>486.59999999999997</ele><time>2026-04-12T11:40:17.66Z</time></trkpt><trkpt lat="40.9424433" lon="16.2727367"><ele>485.4</ele><time>2026-04-12T11:40:18.66Z</time></trkpt><trkpt lat="40.94247" lon="16.2726117"><ele>484.2</ele><time>2026-04-12T11:40:19.659Z</time></trkpt><trkpt lat="40.9425" lon="16.27249"><ele>483.0</ele><time>2026-04-12T11:40:20.659Z</time></trkpt><trkpt lat="40.9425283" lon="16.2723983"><ele>483.1666666666667</ele><time>2026-04-12T11:40:21.659Z</time></trkpt><trkpt lat="40.94255" lon="16.2723117"><ele>483.33333333333337</ele><time>2026-04-12T11:40:22.66Z</time></trkpt><trkpt lat="40.9425683" lon="16.2722267"><ele>483.5</ele><time>2026-04-12T11:40:23.659Z</time></trkpt><trkpt lat="40.9426233" lon="16.27209"><ele>483.6666666666667</ele><time>2026-04-12T11:40:25.659Z</time></trkpt><trkpt lat="40.9426467" lon="16.272005"><ele>483.83333333333337</ele><time>2026-04-12T11:40:26.66Z</time></trkpt><trkpt lat="40.94266" lon="16.2718583"><ele>484.0</ele><time>2026-04-12T11:40:28.659Z</time></trkpt><trkpt lat="40.9426517" lon="16.2717683"><ele>484.0</ele><time>2026-04-12T11:40:30.659Z</time></trkpt><trkpt lat="40.9425733" lon="16.2716717"><ele>484.0</ele><time>2026-04-12T11:40:33.66Z</time></trkpt><trkpt lat="40.9425083" lon="16.2716333"><ele>484.0</ele><time>2026-04-12T11:40:34.659Z</time></trkpt><trkpt lat="40.9424317" lon="16.2715983"><ele>484.0</ele><time>2026-04-12T11:40:35.66Z</time></trkpt><trkpt lat="40.9423317" lon="16.2715617"><ele>484.0</ele><time>2026-04-12T11:40:36.659Z</time></trkpt><trkpt lat="40.9422283" lon="16.271525"><ele>483.25</ele><time>2026-04-12T11:40:37.659Z</time></trkpt><trkpt lat="40.942105" lon="16.271485"><ele>482.5</ele><time>2026-04-12T11:40:38.66Z</time></trkpt><trkpt lat="40.9419817" lon="16.2714383"><ele>481.75</ele><time>2026-04-12T11:40:39.66Z</time></trkpt><trkpt lat="40.9418567" lon="16.2713867"><ele>481.0</ele><time>2026-04-12T11:40:40.66Z</time></trkpt><trkpt lat="40.9417267" lon="16.27133"><ele>480.0</ele><time>2026-04-12T11:40:41.659Z</time></trkpt><trkpt lat="40.941585" lon="16.2712767"><ele>479.0</ele><time>2026-04-12T11:40:42.66Z</time></trkpt><trkpt lat="40.94144" lon="16.2712183"><ele>478.0</ele><time>2026-04-12T11:40:43.659Z</time></trkpt><trkpt lat="40.9412817" lon="16.27116"><ele>478.0</ele><time>2026-04-12T11:40:44.659Z</time></trkpt><trkpt lat="40.9411267" lon="16.2710933"><ele>478.0</ele><time>2026-04-12T11:40:45.659Z</time></trkpt><trkpt lat="40.9409633" lon="16.2710217"><ele>478.0</ele><time>2026-04-12T11:40:46.66Z</time></trkpt><trkpt lat="40.940795" lon="16.2709483"><ele>477.33333333333337</ele><time>2026-04-12T11:40:47.66Z</time></trkpt><trkpt lat="40.940625" lon="16.27088"><ele>476.66666666666663</ele><time>2026-04-12T11:40:48.659Z</time></trkpt><trkpt lat="40.9404567" lon="16.270805"><ele>476.0</ele><time>2026-04-12T11:40:49.659Z</time></trkpt><trkpt lat="40.9402833" lon="16.2707283"><ele>476.0</ele><time>2026-04-12T11:40:50.659Z</time></trkpt><trkpt lat="40.9401117" lon="16.2706617"><ele>476.0</ele><time>2026-04-12T11:40:51.659Z</time></trkpt><trkpt lat="40.9399467" lon="16.27059"><ele>476.0</ele><time>2026-04-12T11:40:52.659Z</time></trkpt><trkpt lat="40.9397733" lon="16.27052"><ele>474.66666666666663</ele><time>2026-04-12T11:40:53.66Z</time></trkpt><trkpt lat="40.9396067" lon="16.2704433"><ele>473.33333333333337</ele><time>2026-04-12T11:40:54.659Z</time></trkpt><trkpt lat="40.93944" lon="16.2703783"><ele>472.0</ele><time>2026-04-12T11:40:55.659Z</time></trkpt><trkpt lat="40.9392717" lon="16.27031"><ele>470.6666666666667</ele><time>2026-04-12T11:40:56.66Z</time></trkpt><trkpt lat="40.9391017" lon="16.2702367"><ele>469.33333333333337</ele><time>2026-04-12T11:40:57.66Z</time></trkpt><trkpt lat="40.9389317" lon="16.2701683"><ele>468.0</ele><time>2026-04-12T11:40:58.659Z</time></trkpt><trkpt lat="40.9387617" lon="16.27009"><ele>468.0</ele><time>2026-04-12T11:40:59.66Z</time></trkpt><trkpt lat="40.9385917" lon="16.2700183"><ele>468.0</ele><time>2026-04-12T11:41:00.659Z</time></trkpt><trkpt lat="40.9384183" lon="16.2699417"><ele>468.0</ele><time>2026-04-12T11:41:01.659Z</time></trkpt><trkpt lat="40.93824" lon="16.269875"><ele>467.66666666666663</ele><time>2026-04-12T11:41:02.659Z</time></trkpt><trkpt lat="40.9380617" lon="16.2698033"><ele>467.3333333333333</ele><time>2026-04-12T11:41:03.66Z</time></trkpt><trkpt lat="40.937875" lon="16.2697233"><ele>467.0</ele><time>2026-04-12T11:41:04.66Z</time></trkpt><trkpt lat="40.9376933" lon="16.2696483"><ele>466.0</ele><time>2026-04-12T11:41:05.659Z</time></trkpt><trkpt lat="40.9375167" lon="16.2695783"><ele>465.0</ele><time>2026-04-12T11:41:06.66Z</time></trkpt><trkpt lat="40.937335" lon="16.269505"><ele>464.0</ele><time>2026-04-12T11:41:07.66Z</time></trkpt><trkpt lat="40.937155" lon="16.2694383"><ele>464.0</ele><time>2026-04-12T11:41:08.66Z</time></trkpt><trkpt lat="40.9369783" lon="16.269365"><ele>464.0</ele><time>2026-04-12T11:41:09.66Z</time></trkpt><trkpt lat="40.9367983" lon="16.269285"><ele>464.0</ele><time>2026-04-12T11:41:10.66Z</time></trkpt><trkpt lat="40.9366117" lon="16.26921"><ele>463.3333333333333</ele><time>2026-04-12T11:41:11.66Z</time></trkpt><trkpt lat="40.9364417" lon="16.2691367"><ele>462.66666666666663</ele><time>2026-04-12T11:41:12.659Z</time></trkpt><trkpt lat="40.9362767" lon="16.269065"><ele>462.0</ele><time>2026-04-12T11:41:13.659Z</time></trkpt><trkpt lat="40.9361133" lon="16.269"><ele>461.33333333333337</ele><time>2026-04-12T11:41:14.66Z</time></trkpt><trkpt lat="40.9359467" lon="16.2689367"><ele>460.6666666666667</ele><time>2026-04-12T11:41:15.66Z</time></trkpt><trkpt lat="40.9357717" lon="16.2688867"><ele>460.0</ele><time>2026-04-12T11:41:16.659Z</time></trkpt><trkpt lat="40.935595" lon="16.2688533"><ele>459.0</ele><time>2026-04-12T11:41:17.66Z</time></trkpt><trkpt lat="40.9354133" lon="16.268845"><ele>458.0</ele><time>2026-04-12T11:41:18.66Z</time></trkpt><trkpt lat="40.93524" lon="16.2688283"><ele>457.0</ele><time>2026-04-12T11:41:19.66Z</time></trkpt><trkpt lat="40.9350817" lon="16.268795"><ele>456.5</ele><time>2026-04-12T11:41:20.659Z</time></trkpt><trkpt lat="40.934935" lon="16.268735"><ele>456.0</ele><time>2026-04-12T11:41:21.659Z</time></trkpt><trkpt lat="40.93481" lon="16.268665"><ele>455.5</ele><time>2026-04-12T11:41:22.66Z</time></trkpt><trkpt lat="40.9347083" lon="16.2685867"><ele>455.0</ele><time>2026-04-12T11:41:23.66Z</time></trkpt><trkpt lat="40.93462" lon="16.2685183"><ele>454.99999999999994</ele><time>2026-04-12T11:41:24.659Z</time></trkpt><trkpt lat="40.934535" lon="16.2684633"><ele>455.0</ele><time>2026-04-12T11:41:25.659Z</time></trkpt><trkpt lat="40.9344517" lon="16.2684117"><ele>455.0</ele><time>2026-04-12T11:41:26.659Z</time></trkpt><trkpt lat="40.9343767" lon="16.2683617"><ele>455.0</ele><time>2026-04-12T11:41:27.659Z</time></trkpt><trkpt lat="40.9343" lon="16.2683067"><ele>454.99999999999994</ele><time>2026-04-12T11:41:28.659Z</time></trkpt><trkpt lat="40.9342283" lon="16.26825"><ele>455.0</ele><time>2026-04-12T11:41:29.66Z</time></trkpt><trkpt lat="40.93415" lon="16.2681967"><ele>454.99999999999994</ele><time>2026-04-12T11:41:30.659Z</time></trkpt><trkpt lat="40.93408" lon="16.2681433"><ele>455.0</ele><time>2026-04-12T11:41:31.659Z</time></trkpt><trkpt lat="40.9340133" lon="16.2680867"><ele>455.0</ele><time>2026-04-12T11:41:32.659Z</time></trkpt><trkpt lat="40.93396" lon="16.2680417"><ele>455.0</ele><time>2026-04-12T11:41:33.659Z</time></trkpt><trkpt lat="40.9338967" lon="16.2679033"><ele>454.99999999999994</ele><time>2026-04-12T11:41:35.659Z</time></trkpt><trkpt lat="40.9338967" lon="16.2678083"><ele>455.0</ele><time>2026-04-12T11:41:36.66Z</time></trkpt><trkpt lat="40.9339267" lon="16.2677067"><ele>455.0</ele><time>2026-04-12T11:41:37.659Z</time></trkpt><trkpt lat="40.9339783" lon="16.2676033"><ele>455.0</ele><time>2026-04-12T11:41:38.659Z</time></trkpt><trkpt lat="40.93403" lon="16.2674967"><ele>455.0</ele><time>2026-04-12T11:41:39.659Z</time></trkpt><trkpt lat="40.9340917" lon="16.2674033"><ele>455.0</ele><time>2026-04-12T11:41:40.659Z</time></trkpt><trkpt lat="40.9340917" lon="16.2674033"><ele>455.0</ele><time>2026-04-12T11:41:40.659Z</time></trkpt><trkpt lat="40.934595" lon="16.266695"><ele>455.16666666666663</ele><time>2026-04-12T11:42:09.659Z</time></trkpt><trkpt lat="40.9346283" lon="16.2666067"><ele>455.3333333333333</ele><time>2026-04-12T11:42:16.659Z</time></trkpt><trkpt lat="40.93465" lon="16.2664783"><ele>455.5</ele><time>2026-04-12T11:42:18.66Z</time></trkpt><trkpt lat="40.9346133" lon="16.2663383"><ele>455.66666666666663</ele><time>2026-04-12T11:42:20.66Z</time></trkpt><trkpt lat="40.9345567" lon="16.2662883"><ele>455.8333333333333</ele><time>2026-04-12T11:42:21.66Z</time></trkpt><trkpt lat="40.9344717" lon="16.26627"><ele>456.0</ele><time>2026-04-12T11:42:22.66Z</time></trkpt><trkpt lat="40.9343867" lon="16.2662583"><ele>456.0</ele><time>2026-04-12T11:42:23.66Z</time></trkpt><trkpt lat="40.9342817" lon="16.2662217"><ele>456.0</ele><time>2026-04-12T11:42:24.659Z</time></trkpt><trkpt lat="40.9341767" lon="16.26617"><ele>456.0</ele><time>2026-04-12T11:42:25.659Z</time></trkpt><trkpt lat="40.93408" lon="16.2661033"><ele>456.0</ele><time>2026-04-12T11:42:26.659Z</time></trkpt><trkpt lat="40.9339717" lon="16.2660267"><ele>455.0</ele><time>2026-04-12T11:42:27.659Z</time></trkpt><trkpt lat="40.9338583" lon="16.26594"><ele>454.0</ele><time>2026-04-12T11:42:28.659Z</time></trkpt><trkpt lat="40.93374" lon="16.2658567"><ele>453.0</ele><time>2026-04-12T11:42:29.659Z</time></trkpt><trkpt lat="40.933615" lon="16.2657717"><ele>452.0</ele><time>2026-04-12T11:42:30.659Z</time></trkpt><trkpt lat="40.9334767" lon="16.265675"><ele>451.0</ele><time>2026-04-12T11:42:31.659Z</time></trkpt><trkpt lat="40.9333383" lon="16.2655717"><ele>450.0</ele><time>2026-04-12T11:42:32.659Z</time></trkpt><trkpt lat="40.9331983" lon="16.2654667"><ele>449.0</ele><time>2026-04-12T11:42:33.66Z</time></trkpt><trkpt lat="40.933055" lon="16.2653717"><ele>449.0</ele><time>2026-04-12T11:42:34.659Z</time></trkpt><trkpt lat="40.9329117" lon="16.26527"><ele>449.0</ele><time>2026-04-12T11:42:35.659Z</time></trkpt><trkpt lat="40.9327733" lon="16.265165"><ele>449.0</ele><time>2026-04-12T11:42:36.659Z</time></trkpt><trkpt lat="40.93263" lon="16.26507"><ele>448.66666666666663</ele><time>2026-04-12T11:42:37.659Z</time></trkpt><trkpt lat="40.9324833" lon="16.264965"><ele>448.33333333333337</ele><time>2026-04-12T11:42:38.659Z</time></trkpt><trkpt lat="40.9323267" lon="16.26486"><ele>448.0</ele><time>2026-04-12T11:42:39.659Z</time></trkpt><trkpt lat="40.9321683" lon="16.2647517"><ele>447.6666666666667</ele><time>2026-04-12T11:42:40.659Z</time></trkpt><trkpt lat="40.9320083" lon="16.2646333"><ele>447.33333333333337</ele><time>2026-04-12T11:42:41.659Z</time></trkpt><trkpt lat="40.9318517" lon="16.2645167"><ele>447.0</ele><time>2026-04-12T11:42:42.659Z</time></trkpt><trkpt lat="40.9316967" lon="16.2644017"><ele>446.66666666666663</ele><time>2026-04-12T11:42:43.66Z</time></trkpt><trkpt lat="40.9315367" lon="16.26429"><ele>446.3333333333333</ele><time>2026-04-12T11:42:44.659Z</time></trkpt><trkpt lat="40.931375" lon="16.264175"><ele>446.0</ele><time>2026-04-12T11:42:45.659Z</time></trkpt><trkpt lat="40.93121" lon="16.26406"><ele>446.0</ele><time>2026-04-12T11:42:46.659Z</time></trkpt><trkpt lat="40.9310433" lon="16.263955"><ele>446.0</ele><time>2026-04-12T11:42:47.659Z</time></trkpt><trkpt lat="40.930875" lon="16.26385"><ele>446.0</ele><time>2026-04-12T11:42:48.659Z</time></trkpt><trkpt lat="40.9307083" lon="16.263735"><ele>445.66666666666663</ele><time>2026-04-12T11:42:49.66Z</time></trkpt><trkpt lat="40.93054" lon="16.2636183"><ele>445.33333333333337</ele><time>2026-04-12T11:42:50.659Z</time></trkpt><trkpt lat="40.930375" lon="16.2635"><ele>445.0</ele><time>2026-04-12T11:42:51.659Z</time></trkpt><trkpt lat="40.9302067" lon="16.2633833"><ele>444.6666666666667</ele><time>2026-04-12T11:42:52.659Z</time></trkpt><trkpt lat="40.9300367" lon="16.2632667"><ele>444.33333333333337</ele><time>2026-04-12T11:42:53.659Z</time></trkpt><trkpt lat="40.9298683" lon="16.2631517"><ele>444.0</ele><time>2026-04-12T11:42:54.659Z</time></trkpt><trkpt lat="40.9296967" lon="16.263035"><ele>444.0</ele><time>2026-04-12T11:42:55.659Z</time></trkpt><trkpt lat="40.9295183" lon="16.2629117"><ele>444.0</ele><time>2026-04-12T11:42:56.659Z</time></trkpt><trkpt lat="40.929345" lon="16.2627967"><ele>444.0</ele><time>2026-04-12T11:42:57.66Z</time></trkpt><trkpt lat="40.9291717" lon="16.262675"><ele>442.66666666666663</ele><time>2026-04-12T11:42:58.659Z</time></trkpt><trkpt lat="40.9289983" lon="16.26255"><ele>441.3333333333333</ele><time>2026-04-12T11:42:59.659Z</time></trkpt><trkpt lat="40.9288217" lon="16.2624233"><ele>440.0</ele><time>2026-04-12T11:43:00.659Z</time></trkpt><trkpt lat="40.928645" lon="16.262305"><ele>439.3333333333333</ele><time>2026-04-12T11:43:01.659Z</time></trkpt><trkpt lat="40.9284667" lon="16.26219"><ele>438.66666666666663</ele><time>2026-04-12T11:43:02.659Z</time></trkpt><trkpt lat="40.928295" lon="16.2620717"><ele>438.0</ele><time>2026-04-12T11:43:03.659Z</time></trkpt><trkpt lat="40.928125" lon="16.2619483"><ele>436.66666666666663</ele><time>2026-04-12T11:43:04.659Z</time></trkpt><trkpt lat="40.9279483" lon="16.2618317"><ele>435.3333333333333</ele><time>2026-04-12T11:43:05.659Z</time></trkpt><trkpt lat="40.9277833" lon="16.261715"><ele>434.0</ele><time>2026-04-12T11:43:06.66Z</time></trkpt><trkpt lat="40.927615" lon="16.261595"><ele>432.66666666666663</ele><time>2026-04-12T11:43:07.659Z</time></trkpt><trkpt lat="40.9274467" lon="16.2614733"><ele>431.33333333333337</ele><time>2026-04-12T11:43:08.659Z</time></trkpt><trkpt lat="40.9272833" lon="16.261355"><ele>430.0</ele><time>2026-04-12T11:43:09.659Z</time></trkpt><trkpt lat="40.9271233" lon="16.2612367"><ele>430.0</ele><time>2026-04-12T11:43:10.659Z</time></trkpt><trkpt lat="40.92695" lon="16.2611217"><ele>430.0</ele><time>2026-04-12T11:43:11.659Z</time></trkpt><trkpt lat="40.9267817" lon="16.2610133"><ele>430.0</ele><time>2026-04-12T11:43:12.659Z</time></trkpt><trkpt lat="40.9266217" lon="16.2609"><ele>431.33333333333337</ele><time>2026-04-12T11:43:13.659Z</time></trkpt><trkpt lat="40.92646" lon="16.2607933"><ele>432.66666666666663</ele><time>2026-04-12T11:43:14.66Z</time></trkpt><trkpt lat="40.9262967" lon="16.2606867"><ele>434.0</ele><time>2026-04-12T11:43:15.659Z</time></trkpt><trkpt lat="40.9261317" lon="16.2605717"><ele>436.0</ele><time>2026-04-12T11:43:16.659Z</time></trkpt><trkpt lat="40.9259717" lon="16.2604667"><ele>438.0</ele><time>2026-04-12T11:43:17.66Z</time></trkpt><trkpt lat="40.92582" lon="16.2603567"><ele>440.0</ele><time>2026-04-12T11:43:18.66Z</time></trkpt><trkpt lat="40.9256767" lon="16.26026"><ele>441.0</ele><time>2026-04-12T11:43:19.659Z</time></trkpt><trkpt lat="40.925535" lon="16.2601633"><ele>442.0</ele><time>2026-04-12T11:43:20.659Z</time></trkpt><trkpt lat="40.9253883" lon="16.260065"><ele>443.0</ele><time>2026-04-12T11:43:21.66Z</time></trkpt><trkpt lat="40.9252483" lon="16.2599617"><ele>443.0</ele><time>2026-04-12T11:43:22.659Z</time></trkpt><trkpt lat="40.9251017" lon="16.2598633"><ele>443.0</ele><time>2026-04-12T11:43:23.659Z</time></trkpt><trkpt lat="40.9249483" lon="16.2597467"><ele>443.0</ele><time>2026-04-12T11:43:24.659Z</time></trkpt><trkpt lat="40.9248" lon="16.2596367"><ele>444.3333333333333</ele><time>2026-04-12T11:43:25.659Z</time></trkpt><trkpt lat="40.9246483" lon="16.259525"><ele>445.66666666666663</ele><time>2026-04-12T11:43:26.659Z</time></trkpt><trkpt lat="40.92449" lon="16.259415"><ele>447.0</ele><time>2026-04-12T11:43:27.66Z</time></trkpt><trkpt lat="40.9243333" lon="16.2593017"><ele>446.66666666666663</ele><time>2026-04-12T11:43:28.66Z</time></trkpt><trkpt lat="40.9241733" lon="16.2591883"><ele>446.3333333333333</ele><time>2026-04-12T11:43:29.66Z</time></trkpt><trkpt lat="40.92401" lon="16.2590733"><ele>446.0</ele><time>2026-04-12T11:43:30.66Z</time></trkpt><trkpt lat="40.92385" lon="16.2589617"><ele>447.0</ele><time>2026-04-12T11:43:31.66Z</time></trkpt><trkpt lat="40.923685" lon="16.2588567"><ele>448.0</ele><time>2026-04-12T11:43:32.661Z</time></trkpt><trkpt lat="40.9235167" lon="16.2587433"><ele>449.0</ele><time>2026-04-12T11:43:33.66Z</time></trkpt><trkpt lat="40.92335" lon="16.2586283"><ele>449.0</ele><time>2026-04-12T11:43:34.66Z</time></trkpt><trkpt lat="40.923185" lon="16.25852"><ele>449.0</ele><time>2026-04-12T11:43:35.66Z</time></trkpt><trkpt lat="40.9230217" lon="16.2584017"><ele>449.0</ele><time>2026-04-12T11:43:36.661Z</time></trkpt><trkpt lat="40.92286" lon="16.25829"><ele>449.0</ele><time>2026-04-12T11:43:37.66Z</time></trkpt><trkpt lat="40.9227017" lon="16.2581733"><ele>449.0</ele><time>2026-04-12T11:43:38.66Z</time></trkpt><trkpt lat="40.9225433" lon="16.25806"><ele>449.0</ele><time>2026-04-12T11:43:39.66Z</time></trkpt><trkpt lat="40.9223867" lon="16.25794"><ele>450.66666666666663</ele><time>2026-04-12T11:43:40.661Z</time></trkpt><trkpt lat="40.9222233" lon="16.2578267"><ele>452.33333333333337</ele><time>2026-04-12T11:43:41.66Z</time></trkpt><trkpt lat="40.922065" lon="16.2577167"><ele>454.0</ele><time>2026-04-12T11:43:42.66Z</time></trkpt><trkpt lat="40.9219033" lon="16.25761"><ele>454.0</ele><time>2026-04-12T11:43:43.66Z</time></trkpt><trkpt lat="40.921745" lon="16.257495"><ele>454.0</ele><time>2026-04-12T11:43:44.66Z</time></trkpt><trkpt lat="40.921585" lon="16.2573867"><ele>454.0</ele><time>2026-04-12T11:43:45.66Z</time></trkpt><trkpt lat="40.9214283" lon="16.25728"><ele>453.6666666666667</ele><time>2026-04-12T11:43:46.66Z</time></trkpt><trkpt lat="40.9212683" lon="16.2571683"><ele>453.33333333333337</ele><time>2026-04-12T11:43:47.661Z</time></trkpt><trkpt lat="40.9211083" lon="16.2570533"><ele>453.0</ele><time>2026-04-12T11:43:48.66Z</time></trkpt><trkpt lat="40.920945" lon="16.2569467"><ele>453.66666666666663</ele><time>2026-04-12T11:43:49.661Z</time></trkpt><trkpt lat="40.9207817" lon="16.25684"><ele>454.3333333333333</ele><time>2026-04-12T11:43:50.66Z</time></trkpt><trkpt lat="40.9206283" lon="16.25674"><ele>455.0</ele><time>2026-04-12T11:43:51.66Z</time></trkpt><trkpt lat="40.920495" lon="16.2566383"><ele>455.0</ele><time>2026-04-12T11:43:52.66Z</time></trkpt><trkpt lat="40.9203633" lon="16.25655"><ele>455.0</ele><time>2026-04-12T11:43:53.66Z</time></trkpt><trkpt lat="40.9202483" lon="16.2564733"><ele>455.0</ele><time>2026-04-12T11:43:54.66Z</time></trkpt><trkpt lat="40.920135" lon="16.25641"><ele>455.0</ele><time>2026-04-12T11:43:55.66Z</time></trkpt><trkpt lat="40.9200367" lon="16.256345"><ele>455.49999999999994</ele><time>2026-04-12T11:43:56.66Z</time></trkpt><trkpt lat="40.9199467" lon="16.2562883"><ele>456.0</ele><time>2026-04-12T11:43:57.66Z</time></trkpt><trkpt lat="40.919875" lon="16.2562367"><ele>456.5</ele><time>2026-04-12T11:43:58.661Z</time></trkpt><trkpt lat="40.9198083" lon="16.2561867"><ele>457.0</ele><time>2026-04-12T11:43:59.661Z</time></trkpt><trkpt lat="40.9197417" lon="16.25612"><ele>457.49999999999994</ele><time>2026-04-12T11:44:00.661Z</time></trkpt><trkpt lat="40.9196617" lon="16.256055"><ele>458.0</ele><time>2026-04-12T11:44:01.66Z</time></trkpt><trkpt lat="40.919575" lon="16.255985"><ele>458.0</ele><time>2026-04-12T11:44:02.661Z</time></trkpt><trkpt lat="40.91948" lon="16.255915"><ele>458.0</ele><time>2026-04-12T11:44:03.661Z</time></trkpt><trkpt lat="40.9193783" lon="16.2558467"><ele>458.0</ele><time>2026-04-12T11:44:04.66Z</time></trkpt><trkpt lat="40.9192717" lon="16.25577"><ele>458.0</ele><time>2026-04-12T11:44:05.66Z</time></trkpt><trkpt lat="40.919165" lon="16.2556883"><ele>458.4</ele><time>2026-04-12T11:44:06.661Z</time></trkpt><trkpt lat="40.91906" lon="16.2556183"><ele>458.79999999999995</ele><time>2026-04-12T11:44:07.66Z</time></trkpt><trkpt lat="40.91896" lon="16.25555"><ele>459.2</ele><time>2026-04-12T11:44:08.66Z</time></trkpt><trkpt lat="40.9188683" lon="16.2554717"><ele>459.6</ele><time>2026-04-12T11:44:09.661Z</time></trkpt><trkpt lat="40.91878" lon="16.2554017"><ele>460.0</ele><time>2026-04-12T11:44:10.661Z</time></trkpt><trkpt lat="40.918695" lon="16.25535"><ele>460.0</ele><time>2026-04-12T11:44:11.66Z</time></trkpt><trkpt lat="40.918605" lon="16.2553067"><ele>460.0</ele><time>2026-04-12T11:44:12.66Z</time></trkpt><trkpt lat="40.9185233" lon="16.25525"><ele>460.0</ele><time>2026-04-12T11:44:13.66Z</time></trkpt><trkpt lat="40.9184267" lon="16.2552"><ele>460.0</ele><time>2026-04-12T11:44:14.66Z</time></trkpt><trkpt lat="40.91833" lon="16.255135"><ele>460.0</ele><time>2026-04-12T11:44:15.66Z</time></trkpt><trkpt lat="40.918225" lon="16.2550667"><ele>460.25</ele><time>2026-04-12T11:44:16.661Z</time></trkpt><trkpt lat="40.9181267" lon="16.2549883"><ele>460.5</ele><time>2026-04-12T11:44:17.66Z</time></trkpt><trkpt lat="40.9180267" lon="16.2549133"><ele>460.75</ele><time>2026-04-12T11:44:18.66Z</time></trkpt><trkpt lat="40.9179233" lon="16.2548383"><ele>461.0</ele><time>2026-04-12T11:44:19.661Z</time></trkpt><trkpt lat="40.91782" lon="16.2547667"><ele>461.0</ele><time>2026-04-12T11:44:20.66Z</time></trkpt><trkpt lat="40.917715" lon="16.254695"><ele>461.0</ele><time>2026-04-12T11:44:21.66Z</time></trkpt><trkpt lat="40.9176117" lon="16.2546333"><ele>461.0</ele><time>2026-04-12T11:44:22.66Z</time></trkpt><trkpt lat="40.917515" lon="16.25458"><ele>461.0</ele><time>2026-04-12T11:44:23.66Z</time></trkpt><trkpt lat="40.9174367" lon="16.2545217"><ele>461.0</ele><time>2026-04-12T11:44:24.66Z</time></trkpt><trkpt lat="40.917365" lon="16.25447"><ele>461.14285714285717</ele><time>2026-04-12T11:44:25.661Z</time></trkpt><trkpt lat="40.9173017" lon="16.2544283"><ele>461.28571428571433</ele><time>2026-04-12T11:44:26.66Z</time></trkpt><trkpt lat="40.9172483" lon="16.2543817"><ele>461.42857142857144</ele><time>2026-04-12T11:44:27.66Z</time></trkpt><trkpt lat="40.9171917" lon="16.2543433"><ele>461.57142857142856</ele><time>2026-04-12T11:44:28.661Z</time></trkpt><trkpt lat="40.917135" lon="16.2543017"><ele>461.7142857142857</ele><time>2026-04-12T11:44:29.66Z</time></trkpt><trkpt lat="40.9170667" lon="16.25425"><ele>461.8571428571429</ele><time>2026-04-12T11:44:31.661Z</time></trkpt><trkpt lat="40.91698" lon="16.2542517"><ele>462.0</ele><time>2026-04-12T11:44:42.66Z</time></trkpt><trkpt lat="40.91691" lon="16.2543933"><ele>462.0</ele><time>2026-04-12T11:44:44.661Z</time></trkpt><trkpt lat="40.916865" lon="16.2544783"><ele>462.0</ele><time>2026-04-12T11:44:45.66Z</time></trkpt><trkpt lat="40.9168317" lon="16.2545733"><ele>462.0</ele><time>2026-04-12T11:44:46.66Z</time></trkpt><trkpt lat="40.9168" lon="16.25466"><ele>462.0</ele><time>2026-04-12T11:44:47.661Z</time></trkpt><trkpt lat="40.9167783" lon="16.2547483"><ele>462.0</ele><time>2026-04-12T11:44:48.66Z</time></trkpt><trkpt lat="40.9167383" lon="16.2548683"><ele>462.0</ele><time>2026-04-12T11:44:50.66Z</time></trkpt><trkpt lat="40.916705" lon="16.254975"><ele>461.8333333333333</ele><time>2026-04-12T11:44:52.66Z</time></trkpt><trkpt lat="40.9166733" lon="16.2550483"><ele>461.66666666666663</ele><time>2026-04-12T11:44:53.66Z</time></trkpt><trkpt lat="40.9166433" lon="16.2551233"><ele>461.5</ele><time>2026-04-12T11:44:54.661Z</time></trkpt><trkpt lat="40.9166067" lon="16.2552117"><ele>461.3333333333333</ele><time>2026-04-12T11:44:55.66Z</time></trkpt><trkpt lat="40.9165783" lon="16.2552933"><ele>461.16666666666663</ele><time>2026-04-12T11:44:56.66Z</time></trkpt><trkpt lat="40.9165217" lon="16.25545"><ele>461.0</ele><time>2026-04-12T11:44:58.66Z</time></trkpt><trkpt lat="40.9164583" lon="16.2555933"><ele>460.8333333333333</ele><time>2026-04-12T11:45:00.66Z</time></trkpt><trkpt lat="40.9164217" lon="16.255685"><ele>460.66666666666663</ele><time>2026-04-12T11:45:01.66Z</time></trkpt><trkpt lat="40.91638" lon="16.25578"><ele>460.5</ele><time>2026-04-12T11:45:02.661Z</time></trkpt><trkpt lat="40.91634" lon="16.2558883"><ele>460.33333333333337</ele><time>2026-04-12T11:45:03.66Z</time></trkpt><trkpt lat="40.9162867" lon="16.25599"><ele>460.1666666666667</ele><time>2026-04-12T11:45:04.66Z</time></trkpt><trkpt lat="40.91624" lon="16.2560933"><ele>460.0</ele><time>2026-04-12T11:45:05.66Z</time></trkpt><trkpt lat="40.916205" lon="16.25619"><ele>460.00000000000006</ele><time>2026-04-12T11:45:06.66Z</time></trkpt><trkpt lat="40.9161617" lon="16.256295"><ele>460.0</ele><time>2026-04-12T11:45:08.661Z</time></trkpt><trkpt lat="40.9160967" lon="16.2562917"><ele>460.0</ele><time>2026-04-12T11:45:11.66Z</time></trkpt><trkpt lat="40.91615" lon="16.256235"><ele>460.0</ele><time>2026-04-12T11:45:17.66Z</time></trkpt><trkpt lat="40.9162167" lon="16.256115"><ele>460.00000000000006</ele><time>2026-04-12T11:45:20.661Z</time></trkpt><trkpt lat="40.91625" lon="16.2560367"><ele>460.0</ele><time>2026-04-12T11:45:21.661Z</time></trkpt><trkpt lat="40.9162833" lon="16.2559533"><ele>460.00000000000006</ele><time>2026-04-12T11:45:22.661Z</time></trkpt><trkpt lat="40.916325" lon="16.2558883"><ele>460.0</ele><time>2026-04-12T11:45:23.661Z</time></trkpt><trkpt lat="40.916385" lon="16.2557767"><ele>460.0</ele><time>2026-04-12T11:45:25.66Z</time></trkpt><trkpt lat="40.9164233" lon="16.2556767"><ele>460.0</ele><time>2026-04-12T11:45:27.66Z</time></trkpt><trkpt lat="40.9164583" lon="16.2556"><ele>460.00000000000006</ele><time>2026-04-12T11:45:29.66Z</time></trkpt><trkpt lat="40.916435" lon="16.255495"><ele>460.0</ele><time>2026-04-12T11:45:40.661Z</time></trkpt><trkpt lat="40.916365" lon="16.2554433"><ele>460.1666666666667</ele><time>2026-04-12T11:45:42.66Z</time></trkpt><trkpt lat="40.916275" lon="16.255385"><ele>460.33333333333337</ele><time>2026-04-12T11:45:44.66Z</time></trkpt><trkpt lat="40.916175" lon="16.2553183"><ele>460.5</ele><time>2026-04-12T11:45:46.66Z</time></trkpt><trkpt lat="40.916115" lon="16.25528"><ele>460.66666666666663</ele><time>2026-04-12T11:45:47.66Z</time></trkpt><trkpt lat="40.91605" lon="16.2552333"><ele>460.8333333333333</ele><time>2026-04-12T11:45:48.66Z</time></trkpt><trkpt lat="40.91599" lon="16.2551733"><ele>461.0</ele><time>2026-04-12T11:45:49.66Z</time></trkpt><trkpt lat="40.9159283" lon="16.255115"><ele>460.8571428571429</ele><time>2026-04-12T11:45:50.66Z</time></trkpt><trkpt lat="40.915865" lon="16.2550733"><ele>460.7142857142858</ele><time>2026-04-12T11:45:51.66Z</time></trkpt><trkpt lat="40.9158" lon="16.2550317"><ele>460.57142857142856</ele><time>2026-04-12T11:45:52.661Z</time></trkpt><trkpt lat="40.9157283" lon="16.254985"><ele>460.42857142857144</ele><time>2026-04-12T11:45:53.66Z</time></trkpt><trkpt lat="40.91567" lon="16.2549417"><ele>460.2857142857143</ele><time>2026-04-12T11:45:54.661Z</time></trkpt><trkpt lat="40.9156117" lon="16.254895"><ele>460.1428571428571</ele><time>2026-04-12T11:45:55.66Z</time></trkpt><trkpt lat="40.9155517" lon="16.2548433"><ele>459.99999999999994</ele><time>2026-04-12T11:45:56.66Z</time></trkpt><trkpt lat="40.9154883" lon="16.2547883"><ele>460.1666666666667</ele><time>2026-04-12T11:45:57.66Z</time></trkpt><trkpt lat="40.91542" lon="16.254745"><ele>460.33333333333337</ele><time>2026-04-12T11:45:58.66Z</time></trkpt><trkpt lat="40.915345" lon="16.254695"><ele>460.5</ele><time>2026-04-12T11:45:59.66Z</time></trkpt><trkpt lat="40.915275" lon="16.2546367"><ele>460.66666666666663</ele><time>2026-04-12T11:46:00.66Z</time></trkpt><trkpt lat="40.9152033" lon="16.2545717"><ele>460.8333333333333</ele><time>2026-04-12T11:46:01.661Z</time></trkpt><trkpt lat="40.9151283" lon="16.2545133"><ele>461.0</ele><time>2026-04-12T11:46:02.66Z</time></trkpt><trkpt lat="40.9150583" lon="16.2544533"><ele>460.99999999999994</ele><time>2026-04-12T11:46:03.66Z</time></trkpt><trkpt lat="40.91498" lon="16.25441"><ele>461.0</ele><time>2026-04-12T11:46:04.66Z</time></trkpt><trkpt lat="40.91491" lon="16.2543567"><ele>461.0</ele><time>2026-04-12T11:46:05.661Z</time></trkpt><trkpt lat="40.91484" lon="16.254305"><ele>461.0</ele><time>2026-04-12T11:46:06.66Z</time></trkpt><trkpt lat="40.9147817" lon="16.2542617"><ele>460.99999999999994</ele><time>2026-04-12T11:46:07.66Z</time></trkpt><trkpt lat="40.9147233" lon="16.254215"><ele>461.0</ele><time>2026-04-12T11:46:08.66Z</time></trkpt><trkpt lat="40.91463" lon="16.2541417"><ele>460.99999999999994</ele><time>2026-04-12T11:46:10.661Z</time></trkpt><trkpt lat="40.914535" lon="16.25405"><ele>461.0</ele><time>2026-04-12T11:46:12.66Z</time></trkpt><trkpt lat="40.9144783" lon="16.254"><ele>461.0</ele><time>2026-04-12T11:46:13.66Z</time></trkpt><trkpt lat="40.914415" lon="16.2539533"><ele>461.0</ele><time>2026-04-12T11:46:14.66Z</time></trkpt><trkpt lat="40.91435" lon="16.2539033"><ele>460.99999999999994</ele><time>2026-04-12T11:46:15.661Z</time></trkpt><trkpt lat="40.9142733" lon="16.2538467"><ele>461.0</ele><time>2026-04-12T11:46:16.66Z</time></trkpt><trkpt lat="40.9142033" lon="16.253795"><ele>460.49999999999994</ele><time>2026-04-12T11:46:17.66Z</time></trkpt><trkpt lat="40.9141367" lon="16.253745"><ele>460.0</ele><time>2026-04-12T11:46:18.661Z</time></trkpt><trkpt lat="40.9140667" lon="16.2536883"><ele>459.5</ele><time>2026-04-12T11:46:19.66Z</time></trkpt><trkpt lat="40.913995" lon="16.2536483"><ele>459.0</ele><time>2026-04-12T11:46:20.661Z</time></trkpt><trkpt lat="40.9138917" lon="16.2535717"><ele>458.49999999999994</ele><time>2026-04-12T11:46:22.66Z</time></trkpt><trkpt lat="40.9138483" lon="16.2535067"><ele>458.0</ele><time>2026-04-12T11:46:23.66Z</time></trkpt><trkpt lat="40.9138233" lon="16.253425"><ele>458.0</ele><time>2026-04-12T11:46:24.66Z</time></trkpt><trkpt lat="40.9138317" lon="16.25331"><ele>457.99999999999994</ele><time>2026-04-12T11:46:25.66Z</time></trkpt><trkpt lat="40.9138583" lon="16.25319"><ele>457.99999999999994</ele><time>2026-04-12T11:46:26.661Z</time></trkpt><trkpt lat="40.9138967" lon="16.25308"><ele>458.0</ele><time>2026-04-12T11:46:27.661Z</time></trkpt><trkpt lat="40.9139433" lon="16.252965"><ele>458.0</ele><time>2026-04-12T11:46:28.661Z</time></trkpt><trkpt lat="40.9139883" lon="16.2528533"><ele>455.79999999999995</ele><time>2026-04-12T11:46:29.66Z</time></trkpt><trkpt lat="40.9140433" lon="16.2527317"><ele>453.59999999999997</ele><time>2026-04-12T11:46:30.66Z</time></trkpt><trkpt lat="40.9140667" lon="16.2525783"><ele>451.40000000000003</ele><time>2026-04-12T11:46:31.66Z</time></trkpt><trkpt lat="40.9140867" lon="16.2524383"><ele>449.20000000000005</ele><time>2026-04-12T11:46:32.66Z</time></trkpt><trkpt lat="40.9141133" lon="16.2522967"><ele>447.0</ele><time>2026-04-12T11:46:33.66Z</time></trkpt><trkpt lat="40.9141483" lon="16.2521567"><ele>446.25</ele><time>2026-04-12T11:46:34.66Z</time></trkpt><trkpt lat="40.9142" lon="16.252025"><ele>445.5</ele><time>2026-04-12T11:46:35.661Z</time></trkpt><trkpt lat="40.9142667" lon="16.2519067"><ele>444.75</ele><time>2026-04-12T11:46:36.66Z</time></trkpt><trkpt lat="40.914335" lon="16.2517817"><ele>444.0</ele><time>2026-04-12T11:46:37.66Z</time></trkpt><trkpt lat="40.9144133" lon="16.2516767"><ele>444.0</ele><time>2026-04-12T11:46:38.66Z</time></trkpt><trkpt lat="40.9144967" lon="16.2515683"><ele>444.0</ele><time>2026-04-12T11:46:39.661Z</time></trkpt><trkpt lat="40.9145867" lon="16.2514783"><ele>444.0</ele><time>2026-04-12T11:46:40.66Z</time></trkpt><trkpt lat="40.9146817" lon="16.2513917"><ele>444.0</ele><time>2026-04-12T11:46:41.66Z</time></trkpt><trkpt lat="40.91477" lon="16.2513233"><ele>444.0</ele><time>2026-04-12T11:46:42.66Z</time></trkpt><trkpt lat="40.914855" lon="16.2512583"><ele>442.2</ele><time>2026-04-12T11:46:43.661Z</time></trkpt><trkpt lat="40.9149317" lon="16.2511767"><ele>440.4</ele><time>2026-04-12T11:46:44.66Z</time></trkpt><trkpt lat="40.914995" lon="16.25107"><ele>438.6</ele><time>2026-04-12T11:46:45.66Z</time></trkpt><trkpt lat="40.915055" lon="16.250975"><ele>436.8</ele><time>2026-04-12T11:46:46.66Z</time></trkpt><trkpt lat="40.9151183" lon="16.2508783"><ele>435.0</ele><time>2026-04-12T11:46:47.661Z</time></trkpt><trkpt lat="40.9151817" lon="16.250775"><ele>435.0</ele><time>2026-04-12T11:46:48.661Z</time></trkpt><trkpt lat="40.9152417" lon="16.250665"><ele>435.0</ele><time>2026-04-12T11:46:49.66Z</time></trkpt><trkpt lat="40.915305" lon="16.2505533"><ele>435.0</ele><time>2026-04-12T11:46:50.66Z</time></trkpt><trkpt lat="40.9153633" lon="16.25045"><ele>435.0</ele><time>2026-04-12T11:46:51.66Z</time></trkpt><trkpt lat="40.9154183" lon="16.2503483"><ele>435.0</ele><time>2026-04-12T11:46:52.66Z</time></trkpt><trkpt lat="40.9154683" lon="16.2502633"><ele>433.1666666666667</ele><time>2026-04-12T11:46:53.66Z</time></trkpt><trkpt lat="40.91551" lon="16.2501617"><ele>431.33333333333337</ele><time>2026-04-12T11:46:54.661Z</time></trkpt><trkpt lat="40.91555" lon="16.250055"><ele>429.5</ele><time>2026-04-12T11:46:55.66Z</time></trkpt><trkpt lat="40.91558" lon="16.2499433"><ele>427.6666666666667</ele><time>2026-04-12T11:46:56.66Z</time></trkpt><trkpt lat="40.9156067" lon="16.2498367"><ele>425.83333333333337</ele><time>2026-04-12T11:46:57.66Z</time></trkpt><trkpt lat="40.91563" lon="16.2497483"><ele>424.0</ele><time>2026-04-12T11:46:58.661Z</time></trkpt><trkpt lat="40.9156783" lon="16.2496133"><ele>422.00000000000006</ele><time>2026-04-12T11:47:00.66Z</time></trkpt><trkpt lat="40.9157017" lon="16.249525"><ele>420.0</ele><time>2026-04-12T11:47:02.66Z</time></trkpt><trkpt lat="40.9156933" lon="16.2494167"><ele>418.0</ele><time>2026-04-12T11:47:05.66Z</time></trkpt><trkpt lat="40.9156783" lon="16.2493083"><ele>416.0</ele><time>2026-04-12T11:47:07.66Z</time></trkpt><trkpt lat="40.915665" lon="16.24919"><ele>414.00000000000006</ele><time>2026-04-12T11:47:09.66Z</time></trkpt><trkpt lat="40.9156367" lon="16.24905"><ele>412.0</ele><time>2026-04-12T11:47:11.661Z</time></trkpt><trkpt lat="40.9156183" lon="16.24897"><ele>409.83333333333337</ele><time>2026-04-12T11:47:12.66Z</time></trkpt><trkpt lat="40.915605" lon="16.24888"><ele>407.6666666666667</ele><time>2026-04-12T11:47:13.66Z</time></trkpt><trkpt lat="40.9155967" lon="16.24879"><ele>405.5</ele><time>2026-04-12T11:47:14.66Z</time></trkpt><trkpt lat="40.9155833" lon="16.2486933"><ele>403.33333333333337</ele><time>2026-04-12T11:47:15.66Z</time></trkpt><trkpt lat="40.9155633" lon="16.2486"><ele>401.1666666666667</ele><time>2026-04-12T11:47:16.66Z</time></trkpt><trkpt lat="40.9155467" lon="16.248495"><ele>399.0</ele><time>2026-04-12T11:47:17.661Z</time></trkpt><trkpt lat="40.9155267" lon="16.2483833"><ele>399.0</ele><time>2026-04-12T11:47:18.66Z</time></trkpt><trkpt lat="40.9155083" lon="16.248275"><ele>399.0</ele><time>2026-04-12T11:47:19.661Z</time></trkpt><trkpt lat="40.9154867" lon="16.24817"><ele>399.0</ele><time>2026-04-12T11:47:20.66Z</time></trkpt><trkpt lat="40.9154617" lon="16.2480717"><ele>399.0</ele><time>2026-04-12T11:47:21.66Z</time></trkpt><trkpt lat="40.9154283" lon="16.2479283"><ele>399.0</ele><time>2026-04-12T11:47:23.66Z</time></trkpt><trkpt lat="40.91539" lon="16.2478183"><ele>399.0</ele><time>2026-04-12T11:47:25.661Z</time></trkpt><trkpt lat="40.9153467" lon="16.2476983"><ele>396.6</ele><time>2026-04-12T11:47:27.66Z</time></trkpt><trkpt lat="40.9152933" lon="16.2475767"><ele>394.2</ele><time>2026-04-12T11:47:29.66Z</time></trkpt><trkpt lat="40.915245" lon="16.2474383"><ele>391.8</ele><time>2026-04-12T11:47:31.66Z</time></trkpt><trkpt lat="40.9151917" lon="16.247305"><ele>389.40000000000003</ele><time>2026-04-12T11:47:33.66Z</time></trkpt><trkpt lat="40.915145" lon="16.2472"><ele>387.0</ele><time>2026-04-12T11:47:35.661Z</time></trkpt><trkpt lat="40.9151017" lon="16.247105"><ele>384.40000000000003</ele><time>2026-04-12T11:47:37.661Z</time></trkpt><trkpt lat="40.9150633" lon="16.2470067"><ele>381.8</ele><time>2026-04-12T11:47:39.661Z</time></trkpt><trkpt lat="40.915025" lon="16.2469283"><ele>379.2</ele><time>2026-04-12T11:47:41.66Z</time></trkpt><trkpt lat="40.9149833" lon="16.2468417"><ele>376.6</ele><time>2026-04-12T11:47:43.661Z</time></trkpt><trkpt lat="40.9149167" lon="16.2467283"><ele>374.0</ele><time>2026-04-12T11:47:45.661Z</time></trkpt><trkpt lat="40.9148567" lon="16.246605"><ele>374.0</ele><time>2026-04-12T11:47:47.66Z</time></trkpt><trkpt lat="40.9148" lon="16.2464917"><ele>374.0</ele><time>2026-04-12T11:47:49.66Z</time></trkpt><trkpt lat="40.91474" lon="16.2463833"><ele>374.0</ele><time>2026-04-12T11:47:51.661Z</time></trkpt><trkpt lat="40.9146917" lon="16.2462917"><ele>374.0</ele><time>2026-04-12T11:47:53.66Z</time></trkpt><trkpt lat="40.9146317" lon="16.24621"><ele>374.0</ele><time>2026-04-12T11:47:55.66Z</time></trkpt><trkpt lat="40.9145717" lon="16.246115"><ele>372.2</ele><time>2026-04-12T11:47:57.66Z</time></trkpt><trkpt lat="40.9145333" lon="16.2460017"><ele>370.4</ele><time>2026-04-12T11:47:59.66Z</time></trkpt><trkpt lat="40.9144933" lon="16.24589"><ele>368.6</ele><time>2026-04-12T11:48:01.66Z</time></trkpt><trkpt lat="40.91443" lon="16.245745"><ele>366.8</ele><time>2026-04-12T11:48:03.661Z</time></trkpt><trkpt lat="40.9144" lon="16.245665"><ele>365.0</ele><time>2026-04-12T11:48:04.66Z</time></trkpt><trkpt lat="40.9143633" lon="16.24558"><ele>363.8571428571429</ele><time>2026-04-12T11:48:05.66Z</time></trkpt><trkpt lat="40.9143283" lon="16.2454967"><ele>362.7142857142857</ele><time>2026-04-12T11:48:06.66Z</time></trkpt><trkpt lat="40.9143" lon="16.24541"><ele>361.57142857142856</ele><time>2026-04-12T11:48:07.661Z</time></trkpt><trkpt lat="40.914265" lon="16.24533"><ele>360.42857142857144</ele><time>2026-04-12T11:48:08.66Z</time></trkpt><trkpt lat="40.9142233" lon="16.2452433"><ele>359.2857142857143</ele><time>2026-04-12T11:48:09.66Z</time></trkpt><trkpt lat="40.914185" lon="16.2451633"><ele>358.14285714285717</ele><time>2026-04-12T11:48:10.66Z</time></trkpt><trkpt lat="40.91415" lon="16.24508"><ele>357.0</ele><time>2026-04-12T11:48:11.66Z</time></trkpt><trkpt lat="40.9140817" lon="16.2449517"><ele>357.0</ele><time>2026-04-12T11:48:13.66Z</time></trkpt><trkpt lat="40.914" lon="16.2448317"><ele>357.0</ele><time>2026-04-12T11:48:15.66Z</time></trkpt><trkpt lat="40.9139467" lon="16.2447467"><ele>357.0</ele><time>2026-04-12T11:48:16.66Z</time></trkpt><trkpt lat="40.9138883" lon="16.2446633"><ele>357.0</ele><time>2026-04-12T11:48:17.66Z</time></trkpt><trkpt lat="40.913835" lon="16.24457"><ele>357.0</ele><time>2026-04-12T11:48:18.66Z</time></trkpt><trkpt lat="40.913775" lon="16.2444883"><ele>355.40000000000003</ele><time>2026-04-12T11:48:19.661Z</time></trkpt><trkpt lat="40.913705" lon="16.24441"><ele>353.8</ele><time>2026-04-12T11:48:20.66Z</time></trkpt><trkpt lat="40.9136283" lon="16.2443317"><ele>352.2</ele><time>2026-04-12T11:48:21.661Z</time></trkpt><trkpt lat="40.9135667" lon="16.2442467"><ele>350.6</ele><time>2026-04-12T11:48:22.66Z</time></trkpt><trkpt lat="40.9135" lon="16.244165"><ele>349.0</ele><time>2026-04-12T11:48:23.66Z</time></trkpt><trkpt lat="40.9134333" lon="16.2440767"><ele>348.5</ele><time>2026-04-12T11:48:24.66Z</time></trkpt><trkpt lat="40.913365" lon="16.2439933"><ele>348.0</ele><time>2026-04-12T11:48:25.66Z</time></trkpt><trkpt lat="40.9132967" lon="16.2439183"><ele>347.5</ele><time>2026-04-12T11:48:26.66Z</time></trkpt><trkpt lat="40.91323" lon="16.2438417"><ele>347.0</ele><time>2026-04-12T11:48:27.66Z</time></trkpt><trkpt lat="40.9131633" lon="16.2437767"><ele>346.5</ele><time>2026-04-12T11:48:28.66Z</time></trkpt><trkpt lat="40.9130983" lon="16.2437117"><ele>346.0</ele><time>2026-04-12T11:48:29.661Z</time></trkpt><trkpt lat="40.913035" lon="16.2436483"><ele>345.20000000000005</ele><time>2026-04-12T11:48:30.661Z</time></trkpt><trkpt lat="40.91297" lon="16.2435833"><ele>344.40000000000003</ele><time>2026-04-12T11:48:31.66Z</time></trkpt><trkpt lat="40.91291" lon="16.2435283"><ele>343.6</ele><time>2026-04-12T11:48:32.66Z</time></trkpt><trkpt lat="40.9128033" lon="16.2434533"><ele>342.8</ele><time>2026-04-12T11:48:34.661Z</time></trkpt><trkpt lat="40.9126883" lon="16.2433833"><ele>342.0</ele><time>2026-04-12T11:48:36.66Z</time></trkpt><trkpt lat="40.9126167" lon="16.2433483"><ele>341.5</ele><time>2026-04-12T11:48:37.66Z</time></trkpt><trkpt lat="40.91255" lon="16.24331"><ele>341.0</ele><time>2026-04-12T11:48:38.66Z</time></trkpt><trkpt lat="40.912495" lon="16.2432683"><ele>340.5</ele><time>2026-04-12T11:48:39.66Z</time></trkpt><trkpt lat="40.9123767" lon="16.2431883"><ele>340.0</ele><time>2026-04-12T11:48:41.661Z</time></trkpt><trkpt lat="40.91232" lon="16.243135"><ele>339.5</ele><time>2026-04-12T11:48:42.66Z</time></trkpt><trkpt lat="40.91227" lon="16.2430783"><ele>339.0</ele><time>2026-04-12T11:48:43.661Z</time></trkpt><trkpt lat="40.912175" lon="16.2429667"><ele>338.4</ele><time>2026-04-12T11:48:45.661Z</time></trkpt><trkpt lat="40.9121267" lon="16.2428933"><ele>337.79999999999995</ele><time>2026-04-12T11:48:46.66Z</time></trkpt><trkpt lat="40.9120733" lon="16.242795"><ele>337.20000000000005</ele><time>2026-04-12T11:48:47.66Z</time></trkpt><trkpt lat="40.9120133" lon="16.2426883"><ele>336.6</ele><time>2026-04-12T11:48:48.66Z</time></trkpt><trkpt lat="40.9119533" lon="16.2425983"><ele>336.0</ele><time>2026-04-12T11:48:49.66Z</time></trkpt><trkpt lat="40.9118833" lon="16.2425"><ele>336.0</ele><time>2026-04-12T11:48:50.661Z</time></trkpt><trkpt lat="40.91181" lon="16.242405"><ele>336.0</ele><time>2026-04-12T11:48:51.661Z</time></trkpt><trkpt lat="40.9117283" lon="16.2423283"><ele>336.0</ele><time>2026-04-12T11:48:52.66Z</time></trkpt><trkpt lat="40.9116383" lon="16.2422467"><ele>336.0</ele><time>2026-04-12T11:48:53.66Z</time></trkpt><trkpt lat="40.9115483" lon="16.2421717"><ele>336.0</ele><time>2026-04-12T11:48:54.66Z</time></trkpt><trkpt lat="40.9114733" lon="16.24209"><ele>335.0</ele><time>2026-04-12T11:48:55.661Z</time></trkpt><trkpt lat="40.911395" lon="16.242005"><ele>334.0</ele><time>2026-04-12T11:48:56.661Z</time></trkpt><trkpt lat="40.9113133" lon="16.2419267"><ele>333.0</ele><time>2026-04-12T11:48:57.66Z</time></trkpt><trkpt lat="40.9112283" lon="16.2418433"><ele>332.0</ele><time>2026-04-12T11:48:58.66Z</time></trkpt><trkpt lat="40.91115" lon="16.2417667"><ele>331.0</ele><time>2026-04-12T11:48:59.66Z</time></trkpt><trkpt lat="40.911075" lon="16.2416833"><ele>331.0</ele><time>2026-04-12T11:49:00.66Z</time></trkpt><trkpt lat="40.9110167" lon="16.2416117"><ele>331.0</ele><time>2026-04-12T11:49:01.661Z</time></trkpt><trkpt lat="40.9109583" lon="16.24156"><ele>331.0</ele><time>2026-04-12T11:49:02.66Z</time></trkpt><trkpt lat="40.9109033" lon="16.2415117"><ele>331.0</ele><time>2026-04-12T11:49:03.66Z</time></trkpt><trkpt lat="40.9108383" lon="16.24145"><ele>331.0</ele><time>2026-04-12T11:49:04.66Z</time></trkpt><trkpt lat="40.91077" lon="16.2413883"><ele>331.0</ele><time>2026-04-12T11:49:05.661Z</time></trkpt><trkpt lat="40.9107083" lon="16.2413283"><ele>330.16666666666663</ele><time>2026-04-12T11:49:06.66Z</time></trkpt><trkpt lat="40.9106433" lon="16.2412683"><ele>329.3333333333333</ele><time>2026-04-12T11:49:07.66Z</time></trkpt><trkpt lat="40.91058" lon="16.241205"><ele>328.5</ele><time>2026-04-12T11:49:08.661Z</time></trkpt><trkpt lat="40.91052" lon="16.2411467"><ele>327.6666666666667</ele><time>2026-04-12T11:49:09.661Z</time></trkpt><trkpt lat="40.9104583" lon="16.24109"><ele>326.83333333333337</ele><time>2026-04-12T11:49:10.66Z</time></trkpt><trkpt lat="40.9103883" lon="16.2410383"><ele>326.0</ele><time>2026-04-12T11:49:11.661Z</time></trkpt><trkpt lat="40.910325" lon="16.2409883"><ele>326.0</ele><time>2026-04-12T11:49:12.66Z</time></trkpt><trkpt lat="40.910255" lon="16.24094"><ele>326.0</ele><time>2026-04-12T11:49:13.66Z</time></trkpt><trkpt lat="40.91018" lon="16.240885"><ele>326.0</ele><time>2026-04-12T11:49:14.66Z</time></trkpt><trkpt lat="40.9100967" lon="16.240835"><ele>326.0</ele><time>2026-04-12T11:49:15.66Z</time></trkpt><trkpt lat="40.9100217" lon="16.2407933"><ele>326.0</ele><time>2026-04-12T11:49:16.66Z</time></trkpt><trkpt lat="40.9099483" lon="16.2407517"><ele>326.0</ele><time>2026-04-12T11:49:17.66Z</time></trkpt><trkpt lat="40.9098767" lon="16.2407083"><ele>325.4</ele><time>2026-04-12T11:49:18.66Z</time></trkpt><trkpt lat="40.9097967" lon="16.240665"><ele>324.8</ele><time>2026-04-12T11:49:19.66Z</time></trkpt><trkpt lat="40.9097217" lon="16.2406017"><ele>324.2</ele><time>2026-04-12T11:49:20.66Z</time></trkpt><trkpt lat="40.909645" lon="16.2405233"><ele>323.59999999999997</ele><time>2026-04-12T11:49:21.66Z</time></trkpt><trkpt lat="40.90957" lon="16.2404367"><ele>323.0</ele><time>2026-04-12T11:49:22.66Z</time></trkpt><trkpt lat="40.9095033" lon="16.2403633"><ele>322.5</ele><time>2026-04-12T11:49:23.661Z</time></trkpt><trkpt lat="40.9094433" lon="16.240295"><ele>322.0</ele><time>2026-04-12T11:49:24.66Z</time></trkpt><trkpt lat="40.90938" lon="16.2402217"><ele>321.5</ele><time>2026-04-12T11:49:25.661Z</time></trkpt><trkpt lat="40.909315" lon="16.2401483"><ele>321.0</ele><time>2026-04-12T11:49:26.661Z</time></trkpt><trkpt lat="40.9092533" lon="16.2400817"><ele>320.5</ele><time>2026-04-12T11:49:27.66Z</time></trkpt><trkpt lat="40.9091967" lon="16.24003"><ele>320.0</ele><time>2026-04-12T11:49:28.66Z</time></trkpt><trkpt lat="40.9091383" lon="16.2399833"><ele>319.6666666666667</ele><time>2026-04-12T11:49:29.66Z</time></trkpt><trkpt lat="40.9090833" lon="16.23994"><ele>319.33333333333337</ele><time>2026-04-12T11:49:30.661Z</time></trkpt><trkpt lat="40.9090317" lon="16.2398917"><ele>319.0</ele><time>2026-04-12T11:49:31.661Z</time></trkpt><trkpt lat="40.908985" lon="16.2398267"><ele>318.6666666666667</ele><time>2026-04-12T11:49:32.66Z</time></trkpt><trkpt lat="40.9089317" lon="16.23978"><ele>318.3333333333333</ele><time>2026-04-12T11:49:33.66Z</time></trkpt><trkpt lat="40.9088183" lon="16.2397083"><ele>318.0</ele><time>2026-04-12T11:49:35.66Z</time></trkpt><trkpt lat="40.9087483" lon="16.2396617"><ele>318.0</ele><time>2026-04-12T11:49:36.66Z</time></trkpt><trkpt lat="40.9086683" lon="16.2396017"><ele>318.0</ele><time>2026-04-12T11:49:37.66Z</time></trkpt><trkpt lat="40.9085917" lon="16.2395233"><ele>318.0</ele><time>2026-04-12T11:49:38.66Z</time></trkpt><trkpt lat="40.9085117" lon="16.2394183"><ele>318.0</ele><time>2026-04-12T11:49:39.661Z</time></trkpt><trkpt lat="40.9084233" lon="16.2393167"><ele>318.0</ele><time>2026-04-12T11:49:40.66Z</time></trkpt><trkpt lat="40.9083333" lon="16.239235"><ele>317.75</ele><time>2026-04-12T11:49:41.661Z</time></trkpt><trkpt lat="40.9082367" lon="16.2391633"><ele>317.5</ele><time>2026-04-12T11:49:42.66Z</time></trkpt><trkpt lat="40.9081267" lon="16.23909"><ele>317.25</ele><time>2026-04-12T11:49:43.66Z</time></trkpt><trkpt lat="40.9080217" lon="16.2390267"><ele>317.0</ele><time>2026-04-12T11:49:44.66Z</time></trkpt><trkpt lat="40.9079233" lon="16.2389833"><ele>316.6666666666667</ele><time>2026-04-12T11:49:45.66Z</time></trkpt><trkpt lat="40.907835" lon="16.2389467"><ele>316.33333333333337</ele><time>2026-04-12T11:49:46.66Z</time></trkpt><trkpt lat="40.9077533" lon="16.2389283"><ele>316.0</ele><time>2026-04-12T11:49:47.661Z</time></trkpt><trkpt lat="40.9076817" lon="16.2389217"><ele>315.6666666666667</ele><time>2026-04-12T11:49:48.66Z</time></trkpt><trkpt lat="40.907615" lon="16.238935"><ele>315.3333333333333</ele><time>2026-04-12T11:49:49.661Z</time></trkpt><trkpt lat="40.9075467" lon="16.238955"><ele>315.0</ele><time>2026-04-12T11:49:50.66Z</time></trkpt><trkpt lat="40.907475" lon="16.2389767"><ele>314.8333333333333</ele><time>2026-04-12T11:49:51.66Z</time></trkpt><trkpt lat="40.9073967" lon="16.2390167"><ele>314.6666666666667</ele><time>2026-04-12T11:49:52.66Z</time></trkpt><trkpt lat="40.907285" lon="16.2390517"><ele>314.5</ele><time>2026-04-12T11:49:54.661Z</time></trkpt><trkpt lat="40.9072267" lon="16.23899"><ele>314.33333333333337</ele><time>2026-04-12T11:49:56.661Z</time></trkpt><trkpt lat="40.9071867" lon="16.2389133"><ele>314.1666666666667</ele><time>2026-04-12T11:49:57.66Z</time></trkpt><trkpt lat="40.9071433" lon="16.2388167"><ele>314.0</ele><time>2026-04-12T11:49:58.66Z</time></trkpt><trkpt lat="40.9070833" lon="16.23871"><ele>313.5</ele><time>2026-04-12T11:49:59.661Z</time></trkpt><trkpt lat="40.907015" lon="16.2385917"><ele>313.0</ele><time>2026-04-12T11:50:00.661Z</time></trkpt><trkpt lat="40.9069383" lon="16.2384667"><ele>312.5</ele><time>2026-04-12T11:50:01.66Z</time></trkpt><trkpt lat="40.9068517" lon="16.2383417"><ele>312.0</ele><time>2026-04-12T11:50:02.661Z</time></trkpt><trkpt lat="40.9067567" lon="16.238215"><ele>312.25</ele><time>2026-04-12T11:50:03.66Z</time></trkpt><trkpt lat="40.9066433" lon="16.2380917"><ele>312.5</ele><time>2026-04-12T11:50:04.661Z</time></trkpt><trkpt lat="40.9065183" lon="16.2379817"><ele>312.75</ele><time>2026-04-12T11:50:05.66Z</time></trkpt><trkpt lat="40.90639" lon="16.23788"><ele>313.0</ele><time>2026-04-12T11:50:06.66Z</time></trkpt><trkpt lat="40.9062433" lon="16.2378"><ele>313.0</ele><time>2026-04-12T11:50:07.66Z</time></trkpt><trkpt lat="40.906095" lon="16.2377283"><ele>313.0</ele><time>2026-04-12T11:50:08.66Z</time></trkpt><trkpt lat="40.9059367" lon="16.2376617"><ele>313.0</ele><time>2026-04-12T11:50:09.66Z</time></trkpt><trkpt lat="40.9057817" lon="16.237605"><ele>312.66666666666663</ele><time>2026-04-12T11:50:10.661Z</time></trkpt><trkpt lat="40.905625" lon="16.2375567"><ele>312.3333333333333</ele><time>2026-04-12T11:50:11.66Z</time></trkpt><trkpt lat="40.9054667" lon="16.2375133"><ele>312.0</ele><time>2026-04-12T11:50:12.66Z</time></trkpt><trkpt lat="40.9053167" lon="16.2374817"><ele>312.0</ele><time>2026-04-12T11:50:13.66Z</time></trkpt><trkpt lat="40.905175" lon="16.2374417"><ele>312.0</ele><time>2026-04-12T11:50:14.661Z</time></trkpt><trkpt lat="40.9050217" lon="16.237395"><ele>312.0</ele><time>2026-04-12T11:50:15.66Z</time></trkpt><trkpt lat="40.904875" lon="16.23734"><ele>313.3333333333333</ele><time>2026-04-12T11:50:16.66Z</time></trkpt><trkpt lat="40.904725" lon="16.2372783"><ele>314.66666666666663</ele><time>2026-04-12T11:50:17.66Z</time></trkpt><trkpt lat="40.9045733" lon="16.2371933"><ele>316.0</ele><time>2026-04-12T11:50:18.66Z</time></trkpt><trkpt lat="40.9044133" lon="16.2371267"><ele>313.66666666666663</ele><time>2026-04-12T11:50:19.661Z</time></trkpt><trkpt lat="40.904245" lon="16.23705"><ele>311.3333333333333</ele><time>2026-04-12T11:50:20.66Z</time></trkpt><trkpt lat="40.9040833" lon="16.23696"><ele>309.0</ele><time>2026-04-12T11:50:21.66Z</time></trkpt><trkpt lat="40.90393" lon="16.2368533"><ele>309.0</ele><time>2026-04-12T11:50:22.66Z</time></trkpt><trkpt lat="40.903775" lon="16.236745"><ele>309.0</ele><time>2026-04-12T11:50:23.66Z</time></trkpt><trkpt lat="40.9036233" lon="16.2366317"><ele>309.0</ele><time>2026-04-12T11:50:24.66Z</time></trkpt><trkpt lat="40.9034767" lon="16.2365167"><ele>309.6666666666667</ele><time>2026-04-12T11:50:25.661Z</time></trkpt><trkpt lat="40.90332" lon="16.2363933"><ele>310.33333333333337</ele><time>2026-04-12T11:50:26.66Z</time></trkpt><trkpt lat="40.9031717" lon="16.236265"><ele>311.0</ele><time>2026-04-12T11:50:27.66Z</time></trkpt><trkpt lat="40.9030233" lon="16.2361317"><ele>311.0</ele><time>2026-04-12T11:50:28.66Z</time></trkpt><trkpt lat="40.9028667" lon="16.2360083"><ele>311.0</ele><time>2026-04-12T11:50:29.66Z</time></trkpt><trkpt lat="40.9027183" lon="16.23589"><ele>311.0</ele><time>2026-04-12T11:50:30.66Z</time></trkpt><trkpt lat="40.9025667" lon="16.23576"><ele>310.0</ele><time>2026-04-12T11:50:31.66Z</time></trkpt><trkpt lat="40.902415" lon="16.2356333"><ele>309.0</ele><time>2026-04-12T11:50:32.661Z</time></trkpt><trkpt lat="40.9022683" lon="16.235525"><ele>308.0</ele><time>2026-04-12T11:50:33.661Z</time></trkpt><trkpt lat="40.9021367" lon="16.2354167"><ele>308.0</ele><time>2026-04-12T11:50:34.66Z</time></trkpt><trkpt lat="40.9020017" lon="16.2353167"><ele>308.0</ele><time>2026-04-12T11:50:35.66Z</time></trkpt><trkpt lat="40.901875" lon="16.235225"><ele>308.0</ele><time>2026-04-12T11:50:36.661Z</time></trkpt><trkpt lat="40.9017683" lon="16.2351433"><ele>308.0</ele><time>2026-04-12T11:50:37.66Z</time></trkpt><trkpt lat="40.90167" lon="16.2350633"><ele>307.6</ele><time>2026-04-12T11:50:38.661Z</time></trkpt><trkpt lat="40.9015733" lon="16.2349917"><ele>307.20000000000005</ele><time>2026-04-12T11:50:39.661Z</time></trkpt><trkpt lat="40.90149" lon="16.234915"><ele>306.8</ele><time>2026-04-12T11:50:40.66Z</time></trkpt><trkpt lat="40.9014333" lon="16.234835"><ele>306.40000000000003</ele><time>2026-04-12T11:50:41.66Z</time></trkpt><trkpt lat="40.9013917" lon="16.2347533"><ele>306.0</ele><time>2026-04-12T11:50:42.66Z</time></trkpt><trkpt lat="40.9013667" lon="16.2346433"><ele>306.0</ele><time>2026-04-12T11:50:43.66Z</time></trkpt><trkpt lat="40.90136" lon="16.234535"><ele>306.0</ele><time>2026-04-12T11:50:44.661Z</time></trkpt><trkpt lat="40.9013867" lon="16.23442"><ele>306.0</ele><time>2026-04-12T11:50:45.66Z</time></trkpt><trkpt lat="40.9014267" lon="16.234295"><ele>306.0</ele><time>2026-04-12T11:50:46.661Z</time></trkpt><trkpt lat="40.9014633" lon="16.2341417"><ele>306.0</ele><time>2026-04-12T11:50:47.661Z</time></trkpt><trkpt lat="40.9014983" lon="16.2339783"><ele>306.25</ele><time>2026-04-12T11:50:48.66Z</time></trkpt><trkpt lat="40.901535" lon="16.2338067"><ele>306.5</ele><time>2026-04-12T11:50:49.661Z</time></trkpt><trkpt lat="40.9015733" lon="16.2336267"><ele>306.75</ele><time>2026-04-12T11:50:50.661Z</time></trkpt><trkpt lat="40.9016167" lon="16.2334467"><ele>307.0</ele><time>2026-04-12T11:50:51.66Z</time></trkpt><trkpt lat="40.9016833" lon="16.2332683"><ele>308.0</ele><time>2026-04-12T11:50:52.661Z</time></trkpt><trkpt lat="40.901765" lon="16.2330983"><ele>309.0</ele><time>2026-04-12T11:50:53.66Z</time></trkpt><trkpt lat="40.9018583" lon="16.2329383"><ele>310.0</ele><time>2026-04-12T11:50:54.66Z</time></trkpt><trkpt lat="40.901955" lon="16.2327717"><ele>310.0</ele><time>2026-04-12T11:50:55.66Z</time></trkpt><trkpt lat="40.9020533" lon="16.2326033"><ele>310.0</ele><time>2026-04-12T11:50:56.66Z</time></trkpt><trkpt lat="40.9021483" lon="16.2324367"><ele>310.0</ele><time>2026-04-12T11:50:57.66Z</time></trkpt><trkpt lat="40.902255" lon="16.2322683"><ele>309.0</ele><time>2026-04-12T11:50:58.661Z</time></trkpt><trkpt lat="40.9023483" lon="16.2321"><ele>308.0</ele><time>2026-04-12T11:50:59.66Z</time></trkpt><trkpt lat="40.9024317" lon="16.231925"><ele>307.0</ele><time>2026-04-12T11:51:00.66Z</time></trkpt><trkpt lat="40.9025067" lon="16.23173"><ele>307.0</ele><time>2026-04-12T11:51:01.66Z</time></trkpt><trkpt lat="40.9025717" lon="16.231515"><ele>307.0</ele><time>2026-04-12T11:51:02.66Z</time></trkpt><trkpt lat="40.9026233" lon="16.2312983"><ele>307.0</ele><time>2026-04-12T11:51:03.661Z</time></trkpt><trkpt lat="40.9026633" lon="16.2310617"><ele>305.66666666666663</ele><time>2026-04-12T11:51:04.661Z</time></trkpt><trkpt lat="40.90271" lon="16.2308267"><ele>304.3333333333333</ele><time>2026-04-12T11:51:05.66Z</time></trkpt><trkpt lat="40.90276" lon="16.2305933"><ele>303.0</ele><time>2026-04-12T11:51:06.661Z</time></trkpt><trkpt lat="40.9028133" lon="16.2303583"><ele>301.6666666666667</ele><time>2026-04-12T11:51:07.661Z</time></trkpt><trkpt lat="40.9028667" lon="16.23012"><ele>300.33333333333337</ele><time>2026-04-12T11:51:08.66Z</time></trkpt><trkpt lat="40.9029133" lon="16.22988"><ele>299.0</ele><time>2026-04-12T11:51:09.66Z</time></trkpt><trkpt lat="40.9029583" lon="16.22964"><ele>298.6666666666667</ele><time>2026-04-12T11:51:10.66Z</time></trkpt><trkpt lat="40.9030083" lon="16.2293983"><ele>298.3333333333333</ele><time>2026-04-12T11:51:11.661Z</time></trkpt><trkpt lat="40.9030567" lon="16.229155"><ele>298.0</ele><time>2026-04-12T11:51:12.66Z</time></trkpt><trkpt lat="40.9031" lon="16.2289083"><ele>297.66666666666663</ele><time>2026-04-12T11:51:13.661Z</time></trkpt><trkpt lat="40.9031583" lon="16.22866"><ele>297.3333333333333</ele><time>2026-04-12T11:51:14.66Z</time></trkpt><trkpt lat="40.9032133" lon="16.2284117"><ele>297.0</ele><time>2026-04-12T11:51:15.66Z</time></trkpt><trkpt lat="40.903275" lon="16.2281633"><ele>297.3333333333333</ele><time>2026-04-12T11:51:16.66Z</time></trkpt><trkpt lat="40.90333" lon="16.2279167"><ele>297.66666666666663</ele><time>2026-04-12T11:51:17.66Z</time></trkpt><trkpt lat="40.903385" lon="16.227675"><ele>298.0</ele><time>2026-04-12T11:51:18.66Z</time></trkpt><trkpt lat="40.903435" lon="16.227435"><ele>299.3333333333333</ele><time>2026-04-12T11:51:19.66Z</time></trkpt><trkpt lat="40.9034867" lon="16.2271983"><ele>300.6666666666667</ele><time>2026-04-12T11:51:20.66Z</time></trkpt><trkpt lat="40.9035367" lon="16.2269617"><ele>302.0</ele><time>2026-04-12T11:51:21.66Z</time></trkpt><trkpt lat="40.903585" lon="16.2267383"><ele>302.0</ele><time>2026-04-12T11:51:22.66Z</time></trkpt><trkpt lat="40.9036317" lon="16.2265017"><ele>302.0</ele><time>2026-04-12T11:51:23.66Z</time></trkpt><trkpt lat="40.903685" lon="16.2262717"><ele>302.0</ele><time>2026-04-12T11:51:24.66Z</time></trkpt><trkpt lat="40.90374" lon="16.2260483"><ele>303.0</ele><time>2026-04-12T11:51:25.66Z</time></trkpt><trkpt lat="40.9037983" lon="16.225815"><ele>304.0</ele><time>2026-04-12T11:51:26.661Z</time></trkpt><trkpt lat="40.903865" lon="16.2256017"><ele>305.0</ele><time>2026-04-12T11:51:27.66Z</time></trkpt><trkpt lat="40.9039283" lon="16.2254133"><ele>305.0</ele><time>2026-04-12T11:51:28.66Z</time></trkpt><trkpt lat="40.9039867" lon="16.22523"><ele>305.0</ele><time>2026-04-12T11:51:29.66Z</time></trkpt><trkpt lat="40.904035" lon="16.22506"><ele>305.0</ele><time>2026-04-12T11:51:30.66Z</time></trkpt><trkpt lat="40.9040833" lon="16.2249033"><ele>305.0</ele><time>2026-04-12T11:51:31.66Z</time></trkpt><trkpt lat="40.904135" lon="16.224765"><ele>305.0</ele><time>2026-04-12T11:51:32.66Z</time></trkpt><trkpt lat="40.904185" lon="16.2246283"><ele>305.0</ele><time>2026-04-12T11:51:33.661Z</time></trkpt><trkpt lat="40.904235" lon="16.224495"><ele>305.0</ele><time>2026-04-12T11:51:34.66Z</time></trkpt><trkpt lat="40.9042783" lon="16.224365"><ele>305.0</ele><time>2026-04-12T11:51:35.661Z</time></trkpt><trkpt lat="40.904325" lon="16.2242433"><ele>305.0</ele><time>2026-04-12T11:51:36.66Z</time></trkpt><trkpt lat="40.904365" lon="16.2241283"><ele>304.4</ele><time>2026-04-12T11:51:37.661Z</time></trkpt><trkpt lat="40.9044017" lon="16.2240117"><ele>303.8</ele><time>2026-04-12T11:51:38.66Z</time></trkpt><trkpt lat="40.9044433" lon="16.2238883"><ele>303.2</ele><time>2026-04-12T11:51:39.66Z</time></trkpt><trkpt lat="40.9044867" lon="16.22377"><ele>302.6</ele><time>2026-04-12T11:51:40.66Z</time></trkpt><trkpt lat="40.9045383" lon="16.2236533"><ele>302.0</ele><time>2026-04-12T11:51:41.661Z</time></trkpt><trkpt lat="40.9045817" lon="16.2235383"><ele>302.0</ele><time>2026-04-12T11:51:42.661Z</time></trkpt><trkpt lat="40.9046267" lon="16.2234233"><ele>302.0</ele><time>2026-04-12T11:51:43.66Z</time></trkpt><trkpt lat="40.9046717" lon="16.2233083"><ele>302.0</ele><time>2026-04-12T11:51:44.66Z</time></trkpt><trkpt lat="40.90472" lon="16.2231883"><ele>302.0</ele><time>2026-04-12T11:51:45.66Z</time></trkpt><trkpt lat="40.9047683" lon="16.2230633"><ele>302.0</ele><time>2026-04-12T11:51:46.661Z</time></trkpt><trkpt lat="40.9048167" lon="16.22293"><ele>301.75</ele><time>2026-04-12T11:51:47.66Z</time></trkpt><trkpt lat="40.9048733" lon="16.22278"><ele>301.5</ele><time>2026-04-12T11:51:48.66Z</time></trkpt><trkpt lat="40.90494" lon="16.22262"><ele>301.25</ele><time>2026-04-12T11:51:49.661Z</time></trkpt><trkpt lat="40.9050117" lon="16.2224617"><ele>301.0</ele><time>2026-04-12T11:51:50.66Z</time></trkpt><trkpt lat="40.9050883" lon="16.222305"><ele>301.0</ele><time>2026-04-12T11:51:51.66Z</time></trkpt><trkpt lat="40.905165" lon="16.2221417"><ele>301.0</ele><time>2026-04-12T11:51:52.66Z</time></trkpt><trkpt lat="40.9052367" lon="16.2219733"><ele>301.0</ele><time>2026-04-12T11:51:53.66Z</time></trkpt><trkpt lat="40.9053117" lon="16.2218033"><ele>301.0</ele><time>2026-04-12T11:51:54.66Z</time></trkpt><trkpt lat="40.9053917" lon="16.22164"><ele>300.25</ele><time>2026-04-12T11:51:55.66Z</time></trkpt><trkpt lat="40.9054683" lon="16.22147"><ele>299.5</ele><time>2026-04-12T11:51:56.66Z</time></trkpt><trkpt lat="40.9055417" lon="16.2212933"><ele>298.75</ele><time>2026-04-12T11:51:57.66Z</time></trkpt><trkpt lat="40.9056083" lon="16.2211367"><ele>298.0</ele><time>2026-04-12T11:51:58.66Z</time></trkpt><trkpt lat="40.9056783" lon="16.220985"><ele>298.0</ele><time>2026-04-12T11:51:59.66Z</time></trkpt><trkpt lat="40.9057367" lon="16.2208433"><ele>298.0</ele><time>2026-04-12T11:52:00.66Z</time></trkpt><trkpt lat="40.9057933" lon="16.2207133"><ele>298.0</ele><time>2026-04-12T11:52:01.661Z</time></trkpt><trkpt lat="40.90584" lon="16.2206"><ele>298.0</ele><time>2026-04-12T11:52:02.661Z</time></trkpt><trkpt lat="40.9058833" lon="16.2205083"><ele>298.0</ele><time>2026-04-12T11:52:03.661Z</time></trkpt><trkpt lat="40.90592" lon="16.2203683"><ele>298.0</ele><time>2026-04-12T11:52:05.66Z</time></trkpt><trkpt lat="40.90587" lon="16.2202283"><ele>298.0</ele><time>2026-04-12T11:52:07.661Z</time></trkpt><trkpt lat="40.905805" lon="16.2201717"><ele>298.0</ele><time>2026-04-12T11:52:08.661Z</time></trkpt><trkpt lat="40.9057133" lon="16.2201433"><ele>298.0</ele><time>2026-04-12T11:52:09.66Z</time></trkpt><trkpt lat="40.9056017" lon="16.2201367"><ele>298.0</ele><time>2026-04-12T11:52:10.66Z</time></trkpt><trkpt lat="40.9054867" lon="16.2201283"><ele>298.0</ele><time>2026-04-12T11:52:11.661Z</time></trkpt><trkpt lat="40.9053533" lon="16.2201267"><ele>298.0</ele><time>2026-04-12T11:52:12.66Z</time></trkpt><trkpt lat="40.90522" lon="16.2201217"><ele>298.0</ele><time>2026-04-12T11:52:13.661Z</time></trkpt><trkpt lat="40.905075" lon="16.2201233"><ele>298.0</ele><time>2026-04-12T11:52:14.66Z</time></trkpt><trkpt lat="40.904925" lon="16.22013"><ele>297.66666666666663</ele><time>2026-04-12T11:52:15.66Z</time></trkpt><trkpt lat="40.9047733" lon="16.22014"><ele>297.3333333333333</ele><time>2026-04-12T11:52:16.66Z</time></trkpt><trkpt lat="40.904615" lon="16.220145"><ele>297.0</ele><time>2026-04-12T11:52:17.66Z</time></trkpt><trkpt lat="40.90446" lon="16.2201417"><ele>297.0</ele><time>2026-04-12T11:52:18.66Z</time></trkpt><trkpt lat="40.9042967" lon="16.220135"><ele>297.0</ele><time>2026-04-12T11:52:19.66Z</time></trkpt><trkpt lat="40.90413" lon="16.22014"><ele>297.0</ele><time>2026-04-12T11:52:20.661Z</time></trkpt><trkpt lat="40.9039667" lon="16.22013"><ele>296.0</ele><time>2026-04-12T11:52:21.66Z</time></trkpt><trkpt lat="40.9037867" lon="16.2201383"><ele>295.0</ele><time>2026-04-12T11:52:22.66Z</time></trkpt><trkpt lat="40.9036117" lon="16.2201467"><ele>294.0</ele><time>2026-04-12T11:52:23.66Z</time></trkpt><trkpt lat="40.9034467" lon="16.2201517"><ele>293.0</ele><time>2026-04-12T11:52:24.66Z</time></trkpt><trkpt lat="40.903275" lon="16.2201567"><ele>292.0</ele><time>2026-04-12T11:52:25.66Z</time></trkpt><trkpt lat="40.9030983" lon="16.220155"><ele>291.0</ele><time>2026-04-12T11:52:26.66Z</time></trkpt><trkpt lat="40.9029233" lon="16.2201533"><ele>291.0</ele><time>2026-04-12T11:52:27.66Z</time></trkpt><trkpt lat="40.9027467" lon="16.2201567"><ele>291.0</ele><time>2026-04-12T11:52:28.66Z</time></trkpt><trkpt lat="40.9025633" lon="16.22016"><ele>291.0</ele><time>2026-04-12T11:52:29.66Z</time></trkpt><trkpt lat="40.9023783" lon="16.2201667"><ele>290.6666666666667</ele><time>2026-04-12T11:52:30.66Z</time></trkpt><trkpt lat="40.9021967" lon="16.2201633"><ele>290.33333333333337</ele><time>2026-04-12T11:52:31.66Z</time></trkpt><trkpt lat="40.9020117" lon="16.2201617"><ele>290.0</ele><time>2026-04-12T11:52:32.66Z</time></trkpt><trkpt lat="40.9018217" lon="16.2201667"><ele>290.6666666666667</ele><time>2026-04-12T11:52:33.66Z</time></trkpt><trkpt lat="40.9016383" lon="16.220165"><ele>291.3333333333333</ele><time>2026-04-12T11:52:34.66Z</time></trkpt><trkpt lat="40.901445" lon="16.2201667"><ele>292.0</ele><time>2026-04-12T11:52:35.66Z</time></trkpt><trkpt lat="40.9012683" lon="16.2201683"><ele>292.0</ele><time>2026-04-12T11:52:36.66Z</time></trkpt><trkpt lat="40.9010867" lon="16.2201667"><ele>292.0</ele><time>2026-04-12T11:52:37.66Z</time></trkpt><trkpt lat="40.9009117" lon="16.2201717"><ele>292.0</ele><time>2026-04-12T11:52:38.661Z</time></trkpt><trkpt lat="40.9007383" lon="16.220175"><ele>292.3333333333333</ele><time>2026-04-12T11:52:39.661Z</time></trkpt><trkpt lat="40.9005617" lon="16.2201817"><ele>292.6666666666667</ele><time>2026-04-12T11:52:40.661Z</time></trkpt><trkpt lat="40.90038" lon="16.22021"><ele>293.0</ele><time>2026-04-12T11:52:41.661Z</time></trkpt><trkpt lat="40.9002067" lon="16.2202733"><ele>294.6666666666667</ele><time>2026-04-12T11:52:42.66Z</time></trkpt><trkpt lat="40.9000383" lon="16.2203467"><ele>296.3333333333333</ele><time>2026-04-12T11:52:43.66Z</time></trkpt><trkpt lat="40.8998717" lon="16.2204283"><ele>298.0</ele><time>2026-04-12T11:52:44.661Z</time></trkpt><trkpt lat="40.8997067" lon="16.2205067"><ele>298.0</ele><time>2026-04-12T11:52:45.661Z</time></trkpt><trkpt lat="40.89954" lon="16.2205883"><ele>298.0</ele><time>2026-04-12T11:52:46.661Z</time></trkpt><trkpt lat="40.8993717" lon="16.220665"><ele>298.0</ele><time>2026-04-12T11:52:47.66Z</time></trkpt><trkpt lat="40.8991967" lon="16.2207233"><ele>299.3333333333333</ele><time>2026-04-12T11:52:48.66Z</time></trkpt><trkpt lat="40.8990217" lon="16.2207583"><ele>300.6666666666667</ele><time>2026-04-12T11:52:49.661Z</time></trkpt><trkpt lat="40.8988467" lon="16.2207867"><ele>302.0</ele><time>2026-04-12T11:52:50.661Z</time></trkpt><trkpt lat="40.8986733" lon="16.2207767"><ele>302.0</ele><time>2026-04-12T11:52:51.66Z</time></trkpt><trkpt lat="40.8984917" lon="16.2207517"><ele>302.0</ele><time>2026-04-12T11:52:52.661Z</time></trkpt><trkpt lat="40.8983083" lon="16.2207033"><ele>302.0</ele><time>2026-04-12T11:52:53.66Z</time></trkpt><trkpt lat="40.8981167" lon="16.2206467"><ele>300.0</ele><time>2026-04-12T11:52:54.66Z</time></trkpt><trkpt lat="40.8979267" lon="16.22059"><ele>298.0</ele><time>2026-04-12T11:52:55.661Z</time></trkpt><trkpt lat="40.89774" lon="16.2205333"><ele>296.0</ele><time>2026-04-12T11:52:56.66Z</time></trkpt><trkpt lat="40.8975483" lon="16.2204683"><ele>293.33333333333337</ele><time>2026-04-12T11:52:57.66Z</time></trkpt><trkpt lat="40.89736" lon="16.2204133"><ele>290.6666666666667</ele><time>2026-04-12T11:52:58.66Z</time></trkpt><trkpt lat="40.8971717" lon="16.2203517"><ele>288.0</ele><time>2026-04-12T11:52:59.66Z</time></trkpt><trkpt lat="40.89696" lon="16.2203183"><ele>288.0</ele><time>2026-04-12T11:53:00.66Z</time></trkpt><trkpt lat="40.8967833" lon="16.220245"><ele>288.0</ele><time>2026-04-12T11:53:01.66Z</time></trkpt><trkpt lat="40.8965967" lon="16.2201783"><ele>288.0</ele><time>2026-04-12T11:53:02.66Z</time></trkpt><trkpt lat="40.8964017" lon="16.220125"><ele>286.6666666666667</ele><time>2026-04-12T11:53:03.66Z</time></trkpt><trkpt lat="40.89621" lon="16.2200683"><ele>285.33333333333337</ele><time>2026-04-12T11:53:04.661Z</time></trkpt><trkpt lat="40.8960217" lon="16.2199933"><ele>284.0</ele><time>2026-04-12T11:53:05.66Z</time></trkpt><trkpt lat="40.8958317" lon="16.2199333"><ele>283.33333333333337</ele><time>2026-04-12T11:53:06.66Z</time></trkpt><trkpt lat="40.8956433" lon="16.2198717"><ele>282.6666666666667</ele><time>2026-04-12T11:53:07.66Z</time></trkpt><trkpt lat="40.8954633" lon="16.2198183"><ele>282.0</ele><time>2026-04-12T11:53:08.661Z</time></trkpt><trkpt lat="40.8952967" lon="16.2197667"><ele>281.3333333333333</ele><time>2026-04-12T11:53:09.661Z</time></trkpt><trkpt lat="40.895135" lon="16.219715"><ele>280.66666666666663</ele><time>2026-04-12T11:53:10.66Z</time></trkpt><trkpt lat="40.8949683" lon="16.2196733"><ele>280.0</ele><time>2026-04-12T11:53:11.66Z</time></trkpt><trkpt lat="40.8947967" lon="16.2196383"><ele>279.66666666666663</ele><time>2026-04-12T11:53:12.66Z</time></trkpt><trkpt lat="40.894625" lon="16.2196233"><ele>279.3333333333333</ele><time>2026-04-12T11:53:13.66Z</time></trkpt><trkpt lat="40.894445" lon="16.2196317"><ele>279.0</ele><time>2026-04-12T11:53:14.66Z</time></trkpt><trkpt lat="40.894255" lon="16.21967"><ele>278.6666666666667</ele><time>2026-04-12T11:53:15.66Z</time></trkpt><trkpt lat="40.89408" lon="16.219735"><ele>278.33333333333337</ele><time>2026-04-12T11:53:16.66Z</time></trkpt><trkpt lat="40.89391" lon="16.2198283"><ele>278.0</ele><time>2026-04-12T11:53:17.66Z</time></trkpt><trkpt lat="40.8937367" lon="16.21993"><ele>278.0</ele><time>2026-04-12T11:53:18.66Z</time></trkpt><trkpt lat="40.8935667" lon="16.22004"><ele>278.0</ele><time>2026-04-12T11:53:19.661Z</time></trkpt><trkpt lat="40.89339" lon="16.2201433"><ele>278.0</ele><time>2026-04-12T11:53:20.661Z</time></trkpt><trkpt lat="40.893215" lon="16.2202433"><ele>278.0</ele><time>2026-04-12T11:53:21.66Z</time></trkpt><trkpt lat="40.8930333" lon="16.220345"><ele>278.0</ele><time>2026-04-12T11:53:22.66Z</time></trkpt><trkpt lat="40.8928517" lon="16.220455"><ele>278.0</ele><time>2026-04-12T11:53:23.66Z</time></trkpt><trkpt lat="40.8926717" lon="16.2205533"><ele>278.33333333333337</ele><time>2026-04-12T11:53:24.661Z</time></trkpt><trkpt lat="40.892495" lon="16.2206583"><ele>278.6666666666667</ele><time>2026-04-12T11:53:25.66Z</time></trkpt><trkpt lat="40.8923183" lon="16.22077"><ele>279.0</ele><time>2026-04-12T11:53:26.66Z</time></trkpt><trkpt lat="40.8921433" lon="16.2208833"><ele>279.0</ele><time>2026-04-12T11:53:27.661Z</time></trkpt><trkpt lat="40.891975" lon="16.2209917"><ele>279.0</ele><time>2026-04-12T11:53:28.66Z</time></trkpt><trkpt lat="40.8918033" lon="16.2210933"><ele>279.0</ele><time>2026-04-12T11:53:29.66Z</time></trkpt><trkpt lat="40.8916333" lon="16.2211983"><ele>279.3333333333333</ele><time>2026-04-12T11:53:30.66Z</time></trkpt><trkpt lat="40.8914567" lon="16.2213067"><ele>279.66666666666663</ele><time>2026-04-12T11:53:31.66Z</time></trkpt><trkpt lat="40.89128" lon="16.221415"><ele>280.0</ele><time>2026-04-12T11:53:32.66Z</time></trkpt><trkpt lat="40.8911133" lon="16.2215267"><ele>280.0</ele><time>2026-04-12T11:53:33.661Z</time></trkpt><trkpt lat="40.890945" lon="16.2216483"><ele>280.0</ele><time>2026-04-12T11:53:34.661Z</time></trkpt><trkpt lat="40.8907733" lon="16.2217733"><ele>280.0</ele><time>2026-04-12T11:53:35.661Z</time></trkpt><trkpt lat="40.8906067" lon="16.2218967"><ele>279.0</ele><time>2026-04-12T11:53:36.66Z</time></trkpt><trkpt lat="40.8904367" lon="16.22202"><ele>278.0</ele><time>2026-04-12T11:53:37.66Z</time></trkpt><trkpt lat="40.8902717" lon="16.2221483"><ele>277.0</ele><time>2026-04-12T11:53:38.66Z</time></trkpt><trkpt lat="40.8901067" lon="16.2222667"><ele>276.66666666666663</ele><time>2026-04-12T11:53:39.66Z</time></trkpt><trkpt lat="40.889935" lon="16.222385"><ele>276.3333333333333</ele><time>2026-04-12T11:53:40.661Z</time></trkpt><trkpt lat="40.889765" lon="16.2225"><ele>276.0</ele><time>2026-04-12T11:53:41.661Z</time></trkpt><trkpt lat="40.8896" lon="16.2226283"><ele>276.0</ele><time>2026-04-12T11:53:42.66Z</time></trkpt><trkpt lat="40.8894267" lon="16.22275"><ele>276.0</ele><time>2026-04-12T11:53:43.66Z</time></trkpt><trkpt lat="40.88926" lon="16.222865"><ele>276.0</ele><time>2026-04-12T11:53:44.661Z</time></trkpt><trkpt lat="40.889095" lon="16.2229983"><ele>275.6666666666667</ele><time>2026-04-12T11:53:45.66Z</time></trkpt><trkpt lat="40.8889333" lon="16.2231233"><ele>275.33333333333337</ele><time>2026-04-12T11:53:46.661Z</time></trkpt><trkpt lat="40.8887667" lon="16.22325"><ele>275.0</ele><time>2026-04-12T11:53:47.661Z</time></trkpt><trkpt lat="40.8885967" lon="16.2233683"><ele>275.0</ele><time>2026-04-12T11:53:48.661Z</time></trkpt><trkpt lat="40.888435" lon="16.2234867"><ele>275.0</ele><time>2026-04-12T11:53:49.66Z</time></trkpt><trkpt lat="40.888275" lon="16.2236033"><ele>275.0</ele><time>2026-04-12T11:53:50.66Z</time></trkpt><trkpt lat="40.8881133" lon="16.2237133"><ele>274.6666666666667</ele><time>2026-04-12T11:53:51.661Z</time></trkpt><trkpt lat="40.887955" lon="16.22383"><ele>274.3333333333333</ele><time>2026-04-12T11:53:52.661Z</time></trkpt><trkpt lat="40.8877983" lon="16.2239433"><ele>274.0</ele><time>2026-04-12T11:53:53.66Z</time></trkpt><trkpt lat="40.887635" lon="16.2240567"><ele>275.0</ele><time>2026-04-12T11:53:54.66Z</time></trkpt><trkpt lat="40.8874733" lon="16.2241717"><ele>276.0</ele><time>2026-04-12T11:53:55.66Z</time></trkpt><trkpt lat="40.8873167" lon="16.224285"><ele>277.0</ele><time>2026-04-12T11:53:56.66Z</time></trkpt><trkpt lat="40.8871617" lon="16.2244"><ele>277.0</ele><time>2026-04-12T11:53:57.66Z</time></trkpt><trkpt lat="40.8870067" lon="16.2245083"><ele>277.0</ele><time>2026-04-12T11:53:58.66Z</time></trkpt><trkpt lat="40.8868467" lon="16.2246017"><ele>277.0</ele><time>2026-04-12T11:53:59.661Z</time></trkpt><trkpt lat="40.8866733" lon="16.2246817"><ele>277.0</ele><time>2026-04-12T11:54:00.661Z</time></trkpt><trkpt lat="40.886495" lon="16.2247417"><ele>277.0</ele><time>2026-04-12T11:54:01.661Z</time></trkpt><trkpt lat="40.8863183" lon="16.2247883"><ele>277.0</ele><time>2026-04-12T11:54:02.661Z</time></trkpt><trkpt lat="40.8861283" lon="16.224845"><ele>277.0</ele><time>2026-04-12T11:54:03.661Z</time></trkpt><trkpt lat="40.8859383" lon="16.224915"><ele>277.0</ele><time>2026-04-12T11:54:04.661Z</time></trkpt><trkpt lat="40.885745" lon="16.2249767"><ele>277.0</ele><time>2026-04-12T11:54:05.662Z</time></trkpt><trkpt lat="40.8855517" lon="16.2250367"><ele>275.66666666666663</ele><time>2026-04-12T11:54:06.662Z</time></trkpt><trkpt lat="40.88536" lon="16.22509"><ele>274.3333333333333</ele><time>2026-04-12T11:54:07.661Z</time></trkpt><trkpt lat="40.885175" lon="16.2251433"><ele>273.0</ele><time>2026-04-12T11:54:08.662Z</time></trkpt><trkpt lat="40.8849833" lon="16.2251933"><ele>273.0</ele><time>2026-04-12T11:54:09.661Z</time></trkpt><trkpt lat="40.8847983" lon="16.2252483"><ele>273.0</ele><time>2026-04-12T11:54:10.661Z</time></trkpt><trkpt lat="40.8846133" lon="16.2253"><ele>273.0</ele><time>2026-04-12T11:54:11.662Z</time></trkpt><trkpt lat="40.8844333" lon="16.2253617"><ele>272.6666666666667</ele><time>2026-04-12T11:54:12.661Z</time></trkpt><trkpt lat="40.884255" lon="16.2254267"><ele>272.33333333333337</ele><time>2026-04-12T11:54:13.661Z</time></trkpt><trkpt lat="40.8840783" lon="16.2255133"><ele>272.0</ele><time>2026-04-12T11:54:14.662Z</time></trkpt><trkpt lat="40.8839117" lon="16.2256067"><ele>272.6666666666667</ele><time>2026-04-12T11:54:15.661Z</time></trkpt><trkpt lat="40.8837483" lon="16.2257167"><ele>273.3333333333333</ele><time>2026-04-12T11:54:16.661Z</time></trkpt><trkpt lat="40.8835917" lon="16.2258433"><ele>274.0</ele><time>2026-04-12T11:54:17.661Z</time></trkpt><trkpt lat="40.88344" lon="16.225985"><ele>273.3333333333333</ele><time>2026-04-12T11:54:18.661Z</time></trkpt><trkpt lat="40.8832917" lon="16.2261317"><ele>272.6666666666667</ele><time>2026-04-12T11:54:19.661Z</time></trkpt><trkpt lat="40.88315" lon="16.2262883"><ele>272.0</ele><time>2026-04-12T11:54:20.661Z</time></trkpt><trkpt lat="40.8830067" lon="16.2264567"><ele>272.33333333333337</ele><time>2026-04-12T11:54:21.661Z</time></trkpt><trkpt lat="40.8828583" lon="16.2266117"><ele>272.6666666666667</ele><time>2026-04-12T11:54:22.661Z</time></trkpt><trkpt lat="40.88271" lon="16.2267567"><ele>273.0</ele><time>2026-04-12T11:54:23.662Z</time></trkpt><trkpt lat="40.8825533" lon="16.2268983"><ele>273.0</ele><time>2026-04-12T11:54:24.661Z</time></trkpt><trkpt lat="40.882395" lon="16.2270333"><ele>273.0</ele><time>2026-04-12T11:54:25.661Z</time></trkpt><trkpt lat="40.8822417" lon="16.2271717"><ele>273.0</ele><time>2026-04-12T11:54:26.661Z</time></trkpt><trkpt lat="40.882085" lon="16.2272867"><ele>273.0</ele><time>2026-04-12T11:54:27.662Z</time></trkpt><trkpt lat="40.881915" lon="16.2274017"><ele>273.0</ele><time>2026-04-12T11:54:28.661Z</time></trkpt><trkpt lat="40.8817567" lon="16.2275233"><ele>273.0</ele><time>2026-04-12T11:54:29.661Z</time></trkpt><trkpt lat="40.881605" lon="16.227635"><ele>273.0</ele><time>2026-04-12T11:54:30.661Z</time></trkpt><trkpt lat="40.8814633" lon="16.2277433"><ele>273.0</ele><time>2026-04-12T11:54:31.661Z</time></trkpt><trkpt lat="40.88134" lon="16.2278383"><ele>273.0</ele><time>2026-04-12T11:54:32.661Z</time></trkpt><trkpt lat="40.88122" lon="16.2279333"><ele>273.0</ele><time>2026-04-12T11:54:33.661Z</time></trkpt><trkpt lat="40.8811183" lon="16.2280117"><ele>273.0</ele><time>2026-04-12T11:54:34.661Z</time></trkpt><trkpt lat="40.881025" lon="16.2280833"><ele>273.0</ele><time>2026-04-12T11:54:35.661Z</time></trkpt><trkpt lat="40.880925" lon="16.2281533"><ele>273.0</ele><time>2026-04-12T11:54:36.661Z</time></trkpt><trkpt lat="40.8808217" lon="16.2282283"><ele>273.0</ele><time>2026-04-12T11:54:37.661Z</time></trkpt><trkpt lat="40.88072" lon="16.2283067"><ele>273.25</ele><time>2026-04-12T11:54:38.661Z</time></trkpt><trkpt lat="40.8806117" lon="16.2283833"><ele>273.5</ele><time>2026-04-12T11:54:39.661Z</time></trkpt><trkpt lat="40.880505" lon="16.2284567"><ele>273.75</ele><time>2026-04-12T11:54:40.662Z</time></trkpt><trkpt lat="40.8804033" lon="16.228535"><ele>274.0</ele><time>2026-04-12T11:54:41.661Z</time></trkpt><trkpt lat="40.8803117" lon="16.2285917"><ele>274.0</ele><time>2026-04-12T11:54:42.661Z</time></trkpt><trkpt lat="40.8802367" lon="16.2286183"><ele>274.0</ele><time>2026-04-12T11:54:43.661Z</time></trkpt><trkpt lat="40.8801483" lon="16.2286183"><ele>274.0</ele><time>2026-04-12T11:54:45.662Z</time></trkpt><trkpt lat="40.8801033" lon="16.22849"><ele>274.0</ele><time>2026-04-12T11:54:47.661Z</time></trkpt><trkpt lat="40.880085" lon="16.2283767"><ele>274.0</ele><time>2026-04-12T11:54:49.662Z</time></trkpt><trkpt lat="40.8800283" lon="16.2282933"><ele>274.0</ele><time>2026-04-12T11:54:58.661Z</time></trkpt><trkpt lat="40.8799467" lon="16.2283333"><ele>273.3333333333333</ele><time>2026-04-12T11:55:05.661Z</time></trkpt><trkpt lat="40.8798667" lon="16.2283633"><ele>272.66666666666663</ele><time>2026-04-12T11:55:07.662Z</time></trkpt><trkpt lat="40.879765" lon="16.2284317"><ele>272.0</ele><time>2026-04-12T11:55:09.661Z</time></trkpt><trkpt lat="40.8797017" lon="16.2284667"><ele>271.3333333333333</ele><time>2026-04-12T11:55:10.661Z</time></trkpt><trkpt lat="40.87963" lon="16.2284883"><ele>270.6666666666667</ele><time>2026-04-12T11:55:11.661Z</time></trkpt><trkpt lat="40.8795483" lon="16.2284833"><ele>270.0</ele><time>2026-04-12T11:55:12.662Z</time></trkpt><trkpt lat="40.87946" lon="16.228475"><ele>270.0</ele><time>2026-04-12T11:55:13.661Z</time></trkpt><trkpt lat="40.8793733" lon="16.22846"><ele>270.0</ele><time>2026-04-12T11:55:14.661Z</time></trkpt><trkpt lat="40.8792783" lon="16.2284567"><ele>270.0</ele><time>2026-04-12T11:55:15.661Z</time></trkpt><trkpt lat="40.8791867" lon="16.2284533"><ele>270.0</ele><time>2026-04-12T11:55:16.662Z</time></trkpt><trkpt lat="40.87909" lon="16.2284483"><ele>270.0</ele><time>2026-04-12T11:55:17.661Z</time></trkpt><trkpt lat="40.8790067" lon="16.228425"><ele>270.2</ele><time>2026-04-12T11:55:18.661Z</time></trkpt><trkpt lat="40.8789217" lon="16.2283833"><ele>270.4</ele><time>2026-04-12T11:55:19.661Z</time></trkpt><trkpt lat="40.87883" lon="16.2283467"><ele>270.6</ele><time>2026-04-12T11:55:20.661Z</time></trkpt><trkpt lat="40.87873" lon="16.2283133"><ele>270.8</ele><time>2026-04-12T11:55:21.661Z</time></trkpt><trkpt lat="40.8786267" lon="16.2282833"><ele>271.0</ele><time>2026-04-12T11:55:22.661Z</time></trkpt><trkpt lat="40.8785267" lon="16.2282683"><ele>271.0</ele><time>2026-04-12T11:55:23.662Z</time></trkpt><trkpt lat="40.8784333" lon="16.2282483"><ele>271.0</ele><time>2026-04-12T11:55:24.661Z</time></trkpt><trkpt lat="40.87834" lon="16.228235"><ele>271.0</ele><time>2026-04-12T11:55:25.661Z</time></trkpt><trkpt lat="40.8782517" lon="16.22824"><ele>271.0</ele><time>2026-04-12T11:55:26.662Z</time></trkpt><trkpt lat="40.8781683" lon="16.228245"><ele>271.0</ele><time>2026-04-12T11:55:27.661Z</time></trkpt><trkpt lat="40.87809" lon="16.2282583"><ele>271.0</ele><time>2026-04-12T11:55:28.661Z</time></trkpt><trkpt lat="40.8780117" lon="16.22826"><ele>271.0</ele><time>2026-04-12T11:55:29.662Z</time></trkpt><trkpt lat="40.877935" lon="16.2282483"><ele>271.0</ele><time>2026-04-12T11:55:30.661Z</time></trkpt><trkpt lat="40.8778617" lon="16.2282233"><ele>271.0</ele><time>2026-04-12T11:55:31.662Z</time></trkpt><trkpt lat="40.87779" lon="16.228195"><ele>271.0</ele><time>2026-04-12T11:55:32.662Z</time></trkpt><trkpt lat="40.8777017" lon="16.22815"><ele>271.0</ele><time>2026-04-12T11:55:33.661Z</time></trkpt><trkpt lat="40.8776167" lon="16.22811"><ele>271.0</ele><time>2026-04-12T11:55:34.662Z</time></trkpt><trkpt lat="40.8775283" lon="16.2280633"><ele>270.8333333333333</ele><time>2026-04-12T11:55:35.661Z</time></trkpt><trkpt lat="40.8774417" lon="16.22802"><ele>270.66666666666663</ele><time>2026-04-12T11:55:36.662Z</time></trkpt><trkpt lat="40.8773583" lon="16.2279983"><ele>270.5</ele><time>2026-04-12T11:55:37.661Z</time></trkpt><trkpt lat="40.8772783" lon="16.227975"><ele>270.3333333333333</ele><time>2026-04-12T11:55:38.661Z</time></trkpt><trkpt lat="40.8771917" lon="16.227975"><ele>270.1666666666667</ele><time>2026-04-12T11:55:39.662Z</time></trkpt><trkpt lat="40.8770967" lon="16.2279733"><ele>270.0</ele><time>2026-04-12T11:55:40.662Z</time></trkpt><trkpt lat="40.8770067" lon="16.2279767"><ele>270.0</ele><time>2026-04-12T11:55:41.661Z</time></trkpt><trkpt lat="40.8769167" lon="16.2279533"><ele>270.0</ele><time>2026-04-12T11:55:42.662Z</time></trkpt><trkpt lat="40.876835" lon="16.2279033"><ele>270.0</ele><time>2026-04-12T11:55:43.661Z</time></trkpt><trkpt lat="40.8767567" lon="16.2278467"><ele>270.0</ele><time>2026-04-12T11:55:44.661Z</time></trkpt><trkpt lat="40.8766817" lon="16.2278017"><ele>270.0</ele><time>2026-04-12T11:55:45.661Z</time></trkpt><trkpt lat="40.8766033" lon="16.2277483"><ele>270.0</ele><time>2026-04-12T11:55:46.661Z</time></trkpt><trkpt lat="40.8765083" lon="16.2277033"><ele>270.2</ele><time>2026-04-12T11:55:47.661Z</time></trkpt><trkpt lat="40.8764117" lon="16.22765"><ele>270.4</ele><time>2026-04-12T11:55:48.661Z</time></trkpt><trkpt lat="40.8763133" lon="16.2275983"><ele>270.6</ele><time>2026-04-12T11:55:49.661Z</time></trkpt><trkpt lat="40.8762167" lon="16.227535"><ele>270.8</ele><time>2026-04-12T11:55:50.661Z</time></trkpt><trkpt lat="40.8761267" lon="16.227485"><ele>271.0</ele><time>2026-04-12T11:55:51.662Z</time></trkpt><trkpt lat="40.8760433" lon="16.2274383"><ele>271.0</ele><time>2026-04-12T11:55:52.661Z</time></trkpt><trkpt lat="40.8759567" lon="16.2273933"><ele>271.0</ele><time>2026-04-12T11:55:53.661Z</time></trkpt><trkpt lat="40.87586" lon="16.227345"><ele>271.0</ele><time>2026-04-12T11:55:54.661Z</time></trkpt><trkpt lat="40.8757583" lon="16.2273083"><ele>271.0</ele><time>2026-04-12T11:55:55.661Z</time></trkpt><trkpt lat="40.87565" lon="16.2272833"><ele>271.0</ele><time>2026-04-12T11:55:56.661Z</time></trkpt><trkpt lat="40.8755417" lon="16.2272617"><ele>270.40000000000003</ele><time>2026-04-12T11:55:57.662Z</time></trkpt><trkpt lat="40.8754317" lon="16.227255"><ele>269.8</ele><time>2026-04-12T11:55:58.662Z</time></trkpt><trkpt lat="40.875325" lon="16.22724"><ele>269.20000000000005</ele><time>2026-04-12T11:55:59.661Z</time></trkpt><trkpt lat="40.8752217" lon="16.22724"><ele>268.6</ele><time>2026-04-12T11:56:00.661Z</time></trkpt><trkpt lat="40.8751133" lon="16.2272383"><ele>268.0</ele><time>2026-04-12T11:56:01.661Z</time></trkpt><trkpt lat="40.8750133" lon="16.227245"><ele>267.6</ele><time>2026-04-12T11:56:02.662Z</time></trkpt><trkpt lat="40.8749117" lon="16.2272567"><ele>267.20000000000005</ele><time>2026-04-12T11:56:03.661Z</time></trkpt><trkpt lat="40.874815" lon="16.22727"><ele>266.8</ele><time>2026-04-12T11:56:04.662Z</time></trkpt><trkpt lat="40.8747267" lon="16.2272783"><ele>266.40000000000003</ele><time>2026-04-12T11:56:05.661Z</time></trkpt><trkpt lat="40.87463" lon="16.2272767"><ele>266.0</ele><time>2026-04-12T11:56:06.662Z</time></trkpt><trkpt lat="40.8745317" lon="16.2272617"><ele>266.0</ele><time>2026-04-12T11:56:07.661Z</time></trkpt><trkpt lat="40.874425" lon="16.22724"><ele>266.0</ele><time>2026-04-12T11:56:08.661Z</time></trkpt><trkpt lat="40.8743083" lon="16.2272117"><ele>266.0</ele><time>2026-04-12T11:56:09.661Z</time></trkpt><trkpt lat="40.8742083" lon="16.2271783"><ele>266.0</ele><time>2026-04-12T11:56:10.661Z</time></trkpt><trkpt lat="40.8741067" lon="16.22717"><ele>266.0</ele><time>2026-04-12T11:56:11.661Z</time></trkpt><trkpt lat="40.874015" lon="16.227165"><ele>265.40000000000003</ele><time>2026-04-12T11:56:12.661Z</time></trkpt><trkpt lat="40.8739083" lon="16.22718"><ele>264.8</ele><time>2026-04-12T11:56:13.661Z</time></trkpt><trkpt lat="40.873805" lon="16.2272117"><ele>264.20000000000005</ele><time>2026-04-12T11:56:14.661Z</time></trkpt><trkpt lat="40.87371" lon="16.2272633"><ele>263.6</ele><time>2026-04-12T11:56:15.661Z</time></trkpt><trkpt lat="40.8736167" lon="16.227335"><ele>263.0</ele><time>2026-04-12T11:56:16.662Z</time></trkpt><trkpt lat="40.8735233" lon="16.2274233"><ele>263.0</ele><time>2026-04-12T11:56:17.661Z</time></trkpt><trkpt lat="40.87343" lon="16.2275083"><ele>263.0</ele><time>2026-04-12T11:56:18.662Z</time></trkpt><trkpt lat="40.8733333" lon="16.2275817"><ele>263.0</ele><time>2026-04-12T11:56:19.661Z</time></trkpt><trkpt lat="40.8732333" lon="16.22765"><ele>263.0</ele><time>2026-04-12T11:56:20.661Z</time></trkpt><trkpt lat="40.8731367" lon="16.227725"><ele>263.0</ele><time>2026-04-12T11:56:21.662Z</time></trkpt><trkpt lat="40.8730433" lon="16.2277817"><ele>263.0</ele><time>2026-04-12T11:56:22.661Z</time></trkpt><trkpt lat="40.87296" lon="16.2278217"><ele>263.0</ele><time>2026-04-12T11:56:23.661Z</time></trkpt><trkpt lat="40.8728683" lon="16.2278533"><ele>263.0</ele><time>2026-04-12T11:56:24.662Z</time></trkpt><trkpt lat="40.8727667" lon="16.2278833"><ele>263.0</ele><time>2026-04-12T11:56:25.661Z</time></trkpt><trkpt lat="40.8726667" lon="16.22791"><ele>263.0</ele><time>2026-04-12T11:56:26.661Z</time></trkpt><trkpt lat="40.872555" lon="16.22793"><ele>262.75</ele><time>2026-04-12T11:56:27.662Z</time></trkpt><trkpt lat="40.87244" lon="16.22795"><ele>262.5</ele><time>2026-04-12T11:56:28.662Z</time></trkpt><trkpt lat="40.8723167" lon="16.227965"><ele>262.25</ele><time>2026-04-12T11:56:29.661Z</time></trkpt><trkpt lat="40.8722" lon="16.22797"><ele>262.0</ele><time>2026-04-12T11:56:30.661Z</time></trkpt><trkpt lat="40.8720833" lon="16.2279717"><ele>262.0</ele><time>2026-04-12T11:56:31.661Z</time></trkpt><trkpt lat="40.87198" lon="16.2279717"><ele>262.0</ele><time>2026-04-12T11:56:32.661Z</time></trkpt><trkpt lat="40.87187" lon="16.2279767"><ele>262.0</ele><time>2026-04-12T11:56:33.661Z</time></trkpt><trkpt lat="40.87176" lon="16.2279933"><ele>262.0</ele><time>2026-04-12T11:56:34.661Z</time></trkpt><trkpt lat="40.871665" lon="16.2280133"><ele>262.0</ele><time>2026-04-12T11:56:35.661Z</time></trkpt><trkpt lat="40.871575" lon="16.2280333"><ele>262.0</ele><time>2026-04-12T11:56:36.662Z</time></trkpt><trkpt lat="40.8714817" lon="16.22805"><ele>262.0</ele><time>2026-04-12T11:56:37.661Z</time></trkpt><trkpt lat="40.871385" lon="16.228075"><ele>262.0</ele><time>2026-04-12T11:56:38.661Z</time></trkpt><trkpt lat="40.87128" lon="16.2280967"><ele>262.0</ele><time>2026-04-12T11:56:39.661Z</time></trkpt><trkpt lat="40.8711783" lon="16.2281083"><ele>262.0</ele><time>2026-04-12T11:56:40.662Z</time></trkpt><trkpt lat="40.87109" lon="16.2281117"><ele>262.0</ele><time>2026-04-12T11:56:41.662Z</time></trkpt><trkpt lat="40.8710167" lon="16.22812"><ele>262.0</ele><time>2026-04-12T11:56:42.662Z</time></trkpt><trkpt lat="40.8709083" lon="16.2281383"><ele>262.0</ele><time>2026-04-12T11:56:44.661Z</time></trkpt><trkpt lat="40.870845" lon="16.2281467"><ele>262.0</ele><time>2026-04-12T11:56:46.661Z</time></trkpt><trkpt lat="40.8707517" lon="16.228175"><ele>262.0</ele><time>2026-04-12T11:56:58.661Z</time></trkpt><trkpt lat="40.87068" lon="16.2282033"><ele>262.0</ele><time>2026-04-12T11:56:59.662Z</time></trkpt><trkpt lat="40.87061" lon="16.22823"><ele>262.6</ele><time>2026-04-12T11:57:00.661Z</time></trkpt><trkpt lat="40.8705217" lon="16.2282633"><ele>263.2</ele><time>2026-04-12T11:57:01.661Z</time></trkpt><trkpt lat="40.8704267" lon="16.2282917"><ele>263.8</ele><time>2026-04-12T11:57:02.661Z</time></trkpt><trkpt lat="40.87033" lon="16.228325"><ele>264.4</ele><time>2026-04-12T11:57:03.662Z</time></trkpt><trkpt lat="40.8702283" lon="16.2283583"><ele>265.0</ele><time>2026-04-12T11:57:04.661Z</time></trkpt><trkpt lat="40.8701267" lon="16.2284067"><ele>265.2</ele><time>2026-04-12T11:57:05.662Z</time></trkpt><trkpt lat="40.8700283" lon="16.2284417"><ele>265.4</ele><time>2026-04-12T11:57:06.661Z</time></trkpt><trkpt lat="40.8699333" lon="16.22847"><ele>265.6</ele><time>2026-04-12T11:57:07.662Z</time></trkpt><trkpt lat="40.8698467" lon="16.2285"><ele>265.8</ele><time>2026-04-12T11:57:08.662Z</time></trkpt><trkpt lat="40.869765" lon="16.228535"><ele>266.0</ele><time>2026-04-12T11:57:09.661Z</time></trkpt><trkpt lat="40.8696767" lon="16.2285633"><ele>266.0</ele><time>2026-04-12T11:57:10.661Z</time></trkpt><trkpt lat="40.869585" lon="16.2285983"><ele>266.0</ele><time>2026-04-12T11:57:11.661Z</time></trkpt><trkpt lat="40.869495" lon="16.2286317"><ele>266.0</ele><time>2026-04-12T11:57:12.662Z</time></trkpt><trkpt lat="40.8694067" lon="16.22866"><ele>266.0</ele><time>2026-04-12T11:57:13.661Z</time></trkpt><trkpt lat="40.86932" lon="16.2286967"><ele>266.0</ele><time>2026-04-12T11:57:14.661Z</time></trkpt><trkpt lat="40.86923" lon="16.2287467"><ele>265.33333333333337</ele><time>2026-04-12T11:57:15.661Z</time></trkpt><trkpt lat="40.8691433" lon="16.228795"><ele>264.6666666666667</ele><time>2026-04-12T11:57:16.661Z</time></trkpt><trkpt lat="40.8690717" lon="16.2288417"><ele>264.0</ele><time>2026-04-12T11:57:17.661Z</time></trkpt><trkpt lat="40.868995" lon="16.22889"><ele>263.3333333333333</ele><time>2026-04-12T11:57:18.662Z</time></trkpt><trkpt lat="40.8689117" lon="16.228935"><ele>262.66666666666663</ele><time>2026-04-12T11:57:19.661Z</time></trkpt><trkpt lat="40.868815" lon="16.22897"><ele>262.0</ele><time>2026-04-12T11:57:20.661Z</time></trkpt><trkpt lat="40.8687133" lon="16.2289933"><ele>262.6</ele><time>2026-04-12T11:57:21.661Z</time></trkpt><trkpt lat="40.868615" lon="16.2290067"><ele>263.2</ele><time>2026-04-12T11:57:22.661Z</time></trkpt><trkpt lat="40.8685183" lon="16.2290167"><ele>263.8</ele><time>2026-04-12T11:57:23.661Z</time></trkpt><trkpt lat="40.86842" lon="16.2290267"><ele>264.4</ele><time>2026-04-12T11:57:24.661Z</time></trkpt><trkpt lat="40.868335" lon="16.2290417"><ele>265.0</ele><time>2026-04-12T11:57:25.661Z</time></trkpt><trkpt lat="40.8682617" lon="16.2290683"><ele>265.0</ele><time>2026-04-12T11:57:26.661Z</time></trkpt><trkpt lat="40.8681833" lon="16.2291033"><ele>265.0</ele><time>2026-04-12T11:57:27.661Z</time></trkpt><trkpt lat="40.868105" lon="16.22915"><ele>265.0</ele><time>2026-04-12T11:57:28.661Z</time></trkpt><trkpt lat="40.86802" lon="16.2292117"><ele>265.0</ele><time>2026-04-12T11:57:29.662Z</time></trkpt><trkpt lat="40.8679483" lon="16.2292617"><ele>265.0</ele><time>2026-04-12T11:57:30.661Z</time></trkpt><trkpt lat="40.867885" lon="16.229325"><ele>265.0</ele><time>2026-04-12T11:57:31.662Z</time></trkpt><trkpt lat="40.8678283" lon="16.2294017"><ele>265.0</ele><time>2026-04-12T11:57:32.661Z</time></trkpt><trkpt lat="40.867775" lon="16.2294833"><ele>265.0</ele><time>2026-04-12T11:57:33.661Z</time></trkpt><trkpt lat="40.86772" lon="16.229575"><ele>265.0</ele><time>2026-04-12T11:57:34.661Z</time></trkpt><trkpt lat="40.86766" lon="16.2296883"><ele>265.0</ele><time>2026-04-12T11:57:35.661Z</time></trkpt><trkpt lat="40.8675933" lon="16.2298017"><ele>265.0</ele><time>2026-04-12T11:57:36.661Z</time></trkpt><trkpt lat="40.86753" lon="16.2299033"><ele>264.8333333333333</ele><time>2026-04-12T11:57:37.661Z</time></trkpt><trkpt lat="40.86747" lon="16.2300033"><ele>264.66666666666663</ele><time>2026-04-12T11:57:38.662Z</time></trkpt><trkpt lat="40.8674183" lon="16.23009"><ele>264.5</ele><time>2026-04-12T11:57:39.661Z</time></trkpt><trkpt lat="40.8673667" lon="16.2301683"><ele>264.3333333333333</ele><time>2026-04-12T11:57:40.662Z</time></trkpt><trkpt lat="40.8673217" lon="16.2302467"><ele>264.1666666666667</ele><time>2026-04-12T11:57:41.661Z</time></trkpt><trkpt lat="40.8672833" lon="16.23032"><ele>264.0</ele><time>2026-04-12T11:57:42.662Z</time></trkpt><trkpt lat="40.8672217" lon="16.2304333"><ele>264.0</ele><time>2026-04-12T11:57:44.661Z</time></trkpt><trkpt lat="40.8671383" lon="16.2305183"><ele>264.0</ele><time>2026-04-12T11:57:46.661Z</time></trkpt><trkpt lat="40.867025" lon="16.2305833"><ele>264.0</ele><time>2026-04-12T11:57:48.661Z</time></trkpt><trkpt lat="40.86692" lon="16.2306267"><ele>264.0</ele><time>2026-04-12T11:57:50.661Z</time></trkpt><trkpt lat="40.8668367" lon="16.230625"><ele>264.0</ele><time>2026-04-12T11:57:52.661Z</time></trkpt><trkpt lat="40.866755" lon="16.230585"><ele>263.59999999999997</ele><time>2026-04-12T11:57:54.661Z</time></trkpt><trkpt lat="40.8666767" lon="16.2305917"><ele>263.2</ele><time>2026-04-12T11:57:56.661Z</time></trkpt><trkpt lat="40.8665733" lon="16.230625"><ele>262.79999999999995</ele><time>2026-04-12T11:57:58.661Z</time></trkpt><trkpt lat="40.8664617" lon="16.23068"><ele>262.4</ele><time>2026-04-12T11:58:00.661Z</time></trkpt><trkpt lat="40.866355" lon="16.2307133"><ele>262.0</ele><time>2026-04-12T11:58:02.661Z</time></trkpt><trkpt lat="40.8662917" lon="16.2307417"><ele>262.3333333333333</ele><time>2026-04-12T11:58:03.662Z</time></trkpt><trkpt lat="40.8662217" lon="16.2307717"><ele>262.66666666666663</ele><time>2026-04-12T11:58:04.661Z</time></trkpt><trkpt lat="40.8661517" lon="16.230795"><ele>263.0</ele><time>2026-04-12T11:58:05.661Z</time></trkpt><trkpt lat="40.8660667" lon="16.2308383"><ele>263.3333333333333</ele><time>2026-04-12T11:58:07.661Z</time></trkpt><trkpt lat="40.8659783" lon="16.2308733"><ele>263.6666666666667</ele><time>2026-04-12T11:58:09.661Z</time></trkpt><trkpt lat="40.8658783" lon="16.2309"><ele>264.0</ele><time>2026-04-12T11:58:11.661Z</time></trkpt><trkpt lat="40.8657733" lon="16.2309267"><ele>264.0</ele><time>2026-04-12T11:58:13.661Z</time></trkpt><trkpt lat="40.8657133" lon="16.2309567"><ele>264.0</ele><time>2026-04-12T11:58:15.661Z</time></trkpt><trkpt lat="40.8656667" lon="16.2310167"><ele>264.0</ele><time>2026-04-12T11:58:17.662Z</time></trkpt><trkpt lat="40.86559" lon="16.2310983"><ele>264.0</ele><time>2026-04-12T11:58:19.662Z</time></trkpt><trkpt lat="40.8654833" lon="16.2311483"><ele>264.0</ele><time>2026-04-12T11:58:21.661Z</time></trkpt><trkpt lat="40.8653717" lon="16.2312033"><ele>264.0</ele><time>2026-04-12T11:58:23.661Z</time></trkpt><trkpt lat="40.8653067" lon="16.231245"><ele>264.0</ele><time>2026-04-12T11:58:24.662Z</time></trkpt><trkpt lat="40.86525" lon="16.231305"><ele>264.0</ele><time>2026-04-12T11:58:25.661Z</time></trkpt><trkpt lat="40.8651933" lon="16.2313667"><ele>264.0</ele><time>2026-04-12T11:58:26.661Z</time></trkpt><trkpt lat="40.8651417" lon="16.2314283"><ele>264.0</ele><time>2026-04-12T11:58:27.661Z</time></trkpt><trkpt lat="40.8650917" lon="16.2314967"><ele>264.0</ele><time>2026-04-12T11:58:28.661Z</time></trkpt><trkpt lat="40.865045" lon="16.2315683"><ele>264.0</ele><time>2026-04-12T11:58:29.661Z</time></trkpt><trkpt lat="40.8650017" lon="16.2316567"><ele>264.3333333333333</ele><time>2026-04-12T11:58:30.661Z</time></trkpt><trkpt lat="40.86495" lon="16.2317533"><ele>264.6666666666667</ele><time>2026-04-12T11:58:31.661Z</time></trkpt><trkpt lat="40.8649083" lon="16.2318383"><ele>265.0</ele><time>2026-04-12T11:58:32.661Z</time></trkpt><trkpt lat="40.86485" lon="16.231915"><ele>265.33333333333337</ele><time>2026-04-12T11:58:33.661Z</time></trkpt><trkpt lat="40.8647783" lon="16.23198"><ele>265.6666666666667</ele><time>2026-04-12T11:58:34.662Z</time></trkpt><trkpt lat="40.8646967" lon="16.2320333"><ele>266.0</ele><time>2026-04-12T11:58:35.661Z</time></trkpt><trkpt lat="40.8646133" lon="16.2320867"><ele>266.0</ele><time>2026-04-12T11:58:36.661Z</time></trkpt><trkpt lat="40.864525" lon="16.2321417"><ele>266.0</ele><time>2026-04-12T11:58:37.662Z</time></trkpt><trkpt lat="40.8644367" lon="16.232205"><ele>266.0</ele><time>2026-04-12T11:58:38.661Z</time></trkpt><trkpt lat="40.8643583" lon="16.23226"><ele>266.0</ele><time>2026-04-12T11:58:39.661Z</time></trkpt><trkpt lat="40.8642817" lon="16.2323267"><ele>266.0</ele><time>2026-04-12T11:58:40.661Z</time></trkpt><trkpt lat="40.8642167" lon="16.2323783"><ele>266.2</ele><time>2026-04-12T11:58:41.661Z</time></trkpt><trkpt lat="40.8641567" lon="16.2324283"><ele>266.40000000000003</ele><time>2026-04-12T11:58:42.661Z</time></trkpt><trkpt lat="40.864085" lon="16.2325"><ele>266.6</ele><time>2026-04-12T11:58:43.662Z</time></trkpt><trkpt lat="40.864015" lon="16.2325883"><ele>266.8</ele><time>2026-04-12T11:58:44.662Z</time></trkpt><trkpt lat="40.8639533" lon="16.2326917"><ele>267.0</ele><time>2026-04-12T11:58:45.661Z</time></trkpt><trkpt lat="40.863885" lon="16.232795"><ele>267.0</ele><time>2026-04-12T11:58:46.661Z</time></trkpt><trkpt lat="40.863805" lon="16.2329083"><ele>267.0</ele><time>2026-04-12T11:58:47.661Z</time></trkpt><trkpt lat="40.8637317" lon="16.2330183"><ele>267.0</ele><time>2026-04-12T11:58:48.661Z</time></trkpt><trkpt lat="40.86365" lon="16.2331317"><ele>267.0</ele><time>2026-04-12T11:58:49.662Z</time></trkpt><trkpt lat="40.86358" lon="16.2332283"><ele>267.0</ele><time>2026-04-12T11:58:50.661Z</time></trkpt><trkpt lat="40.8635183" lon="16.23332"><ele>267.6</ele><time>2026-04-12T11:58:51.661Z</time></trkpt><trkpt lat="40.86347" lon="16.2333967"><ele>268.2</ele><time>2026-04-12T11:58:52.661Z</time></trkpt><trkpt lat="40.8634067" lon="16.2335283"><ele>268.8</ele><time>2026-04-12T11:58:54.661Z</time></trkpt><trkpt lat="40.86337" lon="16.233655"><ele>269.4</ele><time>2026-04-12T11:58:56.662Z</time></trkpt><trkpt lat="40.86336" lon="16.2337383"><ele>270.0</ele><time>2026-04-12T11:58:57.661Z</time></trkpt><trkpt lat="40.8633367" lon="16.233895"><ele>270.0</ele><time>2026-04-12T11:58:59.661Z</time></trkpt><trkpt lat="40.863325" lon="16.2340283"><ele>270.0</ele><time>2026-04-12T11:59:01.662Z</time></trkpt><trkpt lat="40.863325" lon="16.23417"><ele>270.0</ele><time>2026-04-12T11:59:03.661Z</time></trkpt><trkpt lat="40.8633183" lon="16.2342583"><ele>270.0</ele><time>2026-04-12T11:59:04.661Z</time></trkpt><trkpt lat="40.86331" lon="16.2343583"><ele>270.0</ele><time>2026-04-12T11:59:05.662Z</time></trkpt><trkpt lat="40.8633033" lon="16.23446"><ele>270.0</ele><time>2026-04-12T11:59:06.662Z</time></trkpt><trkpt lat="40.863295" lon="16.2345683"><ele>270.0</ele><time>2026-04-12T11:59:07.661Z</time></trkpt><trkpt lat="40.8632883" lon="16.2346683"><ele>270.0</ele><time>2026-04-12T11:59:08.661Z</time></trkpt><trkpt lat="40.86327" lon="16.23476"><ele>270.0</ele><time>2026-04-12T11:59:09.662Z</time></trkpt><trkpt lat="40.8632617" lon="16.2348517"><ele>270.0</ele><time>2026-04-12T11:59:10.661Z</time></trkpt><trkpt lat="40.8632467" lon="16.23495"><ele>270.0</ele><time>2026-04-12T11:59:11.661Z</time></trkpt><trkpt lat="40.8632417" lon="16.2350433"><ele>270.0</ele><time>2026-04-12T11:59:12.662Z</time></trkpt><trkpt lat="40.86325" lon="16.2352017"><ele>270.3333333333333</ele><time>2026-04-12T11:59:14.661Z</time></trkpt><trkpt lat="40.86328" lon="16.2353283"><ele>270.6666666666667</ele><time>2026-04-12T11:59:16.661Z</time></trkpt><trkpt lat="40.86328" lon="16.235415"><ele>271.0</ele><time>2026-04-12T11:59:18.661Z</time></trkpt><trkpt lat="40.8632267" lon="16.2354817"><ele>271.33333333333337</ele><time>2026-04-12T11:59:20.661Z</time></trkpt><trkpt lat="40.86316" lon="16.23551"><ele>271.6666666666667</ele><time>2026-04-12T11:59:22.661Z</time></trkpt><trkpt lat="40.8630817" lon="16.2355"><ele>272.0</ele><time>2026-04-12T11:59:24.662Z</time></trkpt><trkpt lat="40.8629917" lon="16.23543"><ele>272.0</ele><time>2026-04-12T11:59:26.661Z</time></trkpt><trkpt lat="40.86292" lon="16.23536"><ele>272.0</ele><time>2026-04-12T11:59:28.661Z</time></trkpt><trkpt lat="40.8628617" lon="16.23527"><ele>272.0</ele><time>2026-04-12T11:59:30.661Z</time></trkpt><trkpt lat="40.8627917" lon="16.2352067"><ele>272.0</ele><time>2026-04-12T11:59:32.661Z</time></trkpt><trkpt lat="40.8627117" lon="16.2351383"><ele>272.0</ele><time>2026-04-12T11:59:35.661Z</time></trkpt><trkpt lat="40.862655" lon="16.2350483"><ele>272.0</ele><time>2026-04-12T11:59:37.662Z</time></trkpt><trkpt lat="40.8626117" lon="16.2349333"><ele>272.1666666666667</ele><time>2026-04-12T11:59:39.661Z</time></trkpt><trkpt lat="40.8625883" lon="16.2348517"><ele>272.33333333333337</ele><time>2026-04-12T11:59:40.661Z</time></trkpt><trkpt lat="40.8625633" lon="16.23475"><ele>272.5</ele><time>2026-04-12T11:59:41.661Z</time></trkpt><trkpt lat="40.8625467" lon="16.2346417"><ele>272.6666666666667</ele><time>2026-04-12T11:59:42.661Z</time></trkpt><trkpt lat="40.8625267" lon="16.2345367"><ele>272.8333333333333</ele><time>2026-04-12T11:59:43.662Z</time></trkpt><trkpt lat="40.8625067" lon="16.23444"><ele>273.0</ele><time>2026-04-12T11:59:44.661Z</time></trkpt><trkpt lat="40.8624833" lon="16.2343483"><ele>273.0</ele><time>2026-04-12T11:59:45.661Z</time></trkpt><trkpt lat="40.862455" lon="16.2342533"><ele>273.0</ele><time>2026-04-12T11:59:46.661Z</time></trkpt><trkpt lat="40.8624233" lon="16.234165"><ele>273.0</ele><time>2026-04-12T11:59:47.662Z</time></trkpt><trkpt lat="40.8623833" lon="16.2340867"><ele>273.0</ele><time>2026-04-12T11:59:48.661Z</time></trkpt><trkpt lat="40.862345" lon="16.2340117"><ele>273.0</ele><time>2026-04-12T11:59:49.661Z</time></trkpt><trkpt lat="40.862305" lon="16.2339467"><ele>273.0</ele><time>2026-04-12T11:59:50.661Z</time></trkpt><trkpt lat="40.8622317" lon="16.233835"><ele>272.3333333333333</ele><time>2026-04-12T11:59:52.661Z</time></trkpt><trkpt lat="40.8621567" lon="16.2337733"><ele>271.6666666666667</ele><time>2026-04-12T11:59:54.661Z</time></trkpt><trkpt lat="40.8620917" lon="16.23375"><ele>271.0</ele><time>2026-04-12T11:59:56.662Z</time></trkpt><trkpt lat="40.8620283" lon="16.2337083"><ele>270.33333333333337</ele><time>2026-04-12T11:59:58.662Z</time></trkpt><trkpt lat="40.8619417" lon="16.233675"><ele>269.6666666666667</ele><time>2026-04-12T12:00:00.661Z</time></trkpt><trkpt lat="40.8618783" lon="16.23365"><ele>269.0</ele><time>2026-04-12T12:00:02.661Z</time></trkpt><trkpt lat="40.8618017" lon="16.23362"><ele>269.8</ele><time>2026-04-12T12:00:04.661Z</time></trkpt><trkpt lat="40.8617083" lon="16.2335967"><ele>270.59999999999997</ele><time>2026-04-12T12:00:06.661Z</time></trkpt><trkpt lat="40.8616217" lon="16.2335217"><ele>271.4</ele><time>2026-04-12T12:00:08.661Z</time></trkpt><trkpt lat="40.8615983" lon="16.2334083"><ele>272.2</ele><time>2026-04-12T12:00:10.661Z</time></trkpt><trkpt lat="40.8616317" lon="16.233255"><ele>273.0</ele><time>2026-04-12T12:00:12.662Z</time></trkpt><trkpt lat="40.861645" lon="16.2331717"><ele>272.6666666666667</ele><time>2026-04-12T12:00:13.661Z</time></trkpt><trkpt lat="40.8616533" lon="16.2330883"><ele>272.3333333333333</ele><time>2026-04-12T12:00:14.661Z</time></trkpt><trkpt lat="40.861675" lon="16.23295"><ele>272.0</ele><time>2026-04-12T12:00:16.661Z</time></trkpt><trkpt lat="40.861685" lon="16.23283"><ele>271.66666666666663</ele><time>2026-04-12T12:00:18.661Z</time></trkpt><trkpt lat="40.8616533" lon="16.2327333"><ele>271.3333333333333</ele><time>2026-04-12T12:00:20.661Z</time></trkpt><trkpt lat="40.8616133" lon="16.23266"><ele>271.0</ele><time>2026-04-12T12:00:22.661Z</time></trkpt><trkpt lat="40.8615333" lon="16.2325983"><ele>271.0</ele><time>2026-04-12T12:00:25.661Z</time></trkpt><trkpt lat="40.8614667" lon="16.232565"><ele>271.0</ele><time>2026-04-12T12:00:27.661Z</time></trkpt><trkpt lat="40.8613817" lon="16.232555"><ele>271.0</ele><time>2026-04-12T12:00:30.661Z</time></trkpt><trkpt lat="40.8613133" lon="16.2325233"><ele>271.0</ele><time>2026-04-12T12:00:32.661Z</time></trkpt><trkpt lat="40.86122" lon="16.2324667"><ele>271.0</ele><time>2026-04-12T12:00:45.661Z</time></trkpt><trkpt lat="40.8611517" lon="16.232425"><ele>271.0</ele><time>2026-04-12T12:01:32.661Z</time></trkpt><trkpt lat="40.8611383" lon="16.23233"><ele>269.5</ele><time>2026-04-12T12:01:44.661Z</time></trkpt><trkpt lat="40.86108" lon="16.2322433"><ele>268.0</ele><time>2026-04-12T12:01:54.661Z</time></trkpt><trkpt lat="40.8610033" lon="16.2322167"><ele>266.5</ele><time>2026-04-12T12:01:56.661Z</time></trkpt><trkpt lat="40.860885" lon="16.2322083"><ele>265.0</ele><time>2026-04-12T12:01:58.661Z</time></trkpt><trkpt lat="40.8608183" lon="16.2322133"><ele>263.5</ele><time>2026-04-12T12:01:59.662Z</time></trkpt><trkpt lat="40.8607517" lon="16.2322267"><ele>262.0</ele><time>2026-04-12T12:02:00.661Z</time></trkpt><trkpt lat="40.8606833" lon="16.2322433"><ele>262.0</ele><time>2026-04-12T12:02:01.661Z</time></trkpt><trkpt lat="40.86062" lon="16.2322583"><ele>262.0</ele><time>2026-04-12T12:02:02.661Z</time></trkpt><trkpt lat="40.8605583" lon="16.23228"><ele>262.0</ele><time>2026-04-12T12:02:03.661Z</time></trkpt><trkpt lat="40.8604883" lon="16.2322933"><ele>262.0</ele><time>2026-04-12T12:02:04.661Z</time></trkpt><trkpt lat="40.860415" lon="16.2323067"><ele>262.0</ele><time>2026-04-12T12:02:05.662Z</time></trkpt><trkpt lat="40.8603417" lon="16.232335"><ele>262.0</ele><time>2026-04-12T12:02:06.661Z</time></trkpt><trkpt lat="40.86027" lon="16.2323517"><ele>262.0</ele><time>2026-04-12T12:02:07.662Z</time></trkpt><trkpt lat="40.8601933" lon="16.2323767"><ele>263.8333333333333</ele><time>2026-04-12T12:02:08.661Z</time></trkpt><trkpt lat="40.8601133" lon="16.2324"><ele>265.66666666666663</ele><time>2026-04-12T12:02:09.662Z</time></trkpt><trkpt lat="40.8600267" lon="16.2324217"><ele>267.5</ele><time>2026-04-12T12:02:10.661Z</time></trkpt><trkpt lat="40.8599483" lon="16.2324517"><ele>269.3333333333333</ele><time>2026-04-12T12:02:11.661Z</time></trkpt><trkpt lat="40.8598717" lon="16.23248"><ele>271.1666666666667</ele><time>2026-04-12T12:02:12.661Z</time></trkpt><trkpt lat="40.8598017" lon="16.2325167"><ele>273.0</ele><time>2026-04-12T12:02:13.661Z</time></trkpt><trkpt lat="40.8597317" lon="16.232555"><ele>273.0</ele><time>2026-04-12T12:02:14.662Z</time></trkpt><trkpt lat="40.859645" lon="16.23258"><ele>273.0</ele><time>2026-04-12T12:02:15.661Z</time></trkpt><trkpt lat="40.8595683" lon="16.23261"><ele>273.0</ele><time>2026-04-12T12:02:16.661Z</time></trkpt><trkpt lat="40.8595017" lon="16.2326517"><ele>273.0</ele><time>2026-04-12T12:02:17.661Z</time></trkpt><trkpt lat="40.8594367" lon="16.2326833"><ele>273.0</ele><time>2026-04-12T12:02:18.661Z</time></trkpt><trkpt lat="40.8593717" lon="16.232725"><ele>273.0</ele><time>2026-04-12T12:02:19.661Z</time></trkpt><trkpt lat="40.8593033" lon="16.23277"><ele>271.7142857142857</ele><time>2026-04-12T12:02:20.661Z</time></trkpt><trkpt lat="40.859235" lon="16.2328217"><ele>270.42857142857144</ele><time>2026-04-12T12:02:21.662Z</time></trkpt><trkpt lat="40.8591617" lon="16.2328733"><ele>269.1428571428571</ele><time>2026-04-12T12:02:22.662Z</time></trkpt><trkpt lat="40.8590933" lon="16.23292"><ele>267.8571428571429</ele><time>2026-04-12T12:02:23.661Z</time></trkpt><trkpt lat="40.859035" lon="16.2329617"><ele>266.57142857142856</ele><time>2026-04-12T12:02:24.661Z</time></trkpt><trkpt lat="40.85897" lon="16.2329933"><ele>265.2857142857143</ele><time>2026-04-12T12:02:25.662Z</time></trkpt><trkpt lat="40.8589033" lon="16.2330383"><ele>264.0</ele><time>2026-04-12T12:02:26.661Z</time></trkpt><trkpt lat="40.8588317" lon="16.233085"><ele>264.0</ele><time>2026-04-12T12:02:27.662Z</time></trkpt><trkpt lat="40.8587517" lon="16.233115"><ele>264.0</ele><time>2026-04-12T12:02:28.661Z</time></trkpt><trkpt lat="40.8586783" lon="16.2331583"><ele>264.0</ele><time>2026-04-12T12:02:29.661Z</time></trkpt><trkpt lat="40.8586117" lon="16.2332033"><ele>264.0</ele><time>2026-04-12T12:02:30.661Z</time></trkpt><trkpt lat="40.8585467" lon="16.2332383"><ele>264.0</ele><time>2026-04-12T12:02:31.661Z</time></trkpt><trkpt lat="40.8584883" lon="16.2332767"><ele>264.0</ele><time>2026-04-12T12:02:32.661Z</time></trkpt><trkpt lat="40.85842" lon="16.2333267"><ele>264.6666666666667</ele><time>2026-04-12T12:02:33.662Z</time></trkpt><trkpt lat="40.8583483" lon="16.2333767"><ele>265.3333333333333</ele><time>2026-04-12T12:02:34.661Z</time></trkpt><trkpt lat="40.8582667" lon="16.233425"><ele>266.0</ele><time>2026-04-12T12:02:35.661Z</time></trkpt><trkpt lat="40.8581883" lon="16.2334667"><ele>266.66666666666663</ele><time>2026-04-12T12:02:36.661Z</time></trkpt><trkpt lat="40.8581167" lon="16.2335017"><ele>267.3333333333333</ele><time>2026-04-12T12:02:37.661Z</time></trkpt><trkpt lat="40.8580567" lon="16.2335317"><ele>268.0</ele><time>2026-04-12T12:02:38.661Z</time></trkpt><trkpt lat="40.8579617" lon="16.2336083"><ele>268.0</ele><time>2026-04-12T12:02:40.661Z</time></trkpt><trkpt lat="40.8578767" lon="16.2336583"><ele>268.0</ele><time>2026-04-12T12:02:42.662Z</time></trkpt><trkpt lat="40.857805" lon="16.2337083"><ele>268.0</ele><time>2026-04-12T12:02:44.661Z</time></trkpt><trkpt lat="40.8577233" lon="16.2337067"><ele>268.0</ele><time>2026-04-12T12:02:47.661Z</time></trkpt><trkpt lat="40.8576467" lon="16.2336817"><ele>268.0</ele><time>2026-04-12T12:02:50.661Z</time></trkpt><trkpt lat="40.8575683" lon="16.233645"><ele>268.0</ele><time>2026-04-12T12:02:53.661Z</time></trkpt><trkpt lat="40.8575017" lon="16.2336183"><ele>267.16666666666663</ele><time>2026-04-12T12:02:55.661Z</time></trkpt><trkpt lat="40.8574283" lon="16.2335983"><ele>266.3333333333333</ele><time>2026-04-12T12:02:57.661Z</time></trkpt><trkpt lat="40.8573533" lon="16.2335633"><ele>265.5</ele><time>2026-04-12T12:03:00.662Z</time></trkpt><trkpt lat="40.8572817" lon="16.2335217"><ele>264.6666666666667</ele><time>2026-04-12T12:03:03.661Z</time></trkpt><trkpt lat="40.857205" lon="16.2334667"><ele>263.83333333333337</ele><time>2026-04-12T12:03:06.661Z</time></trkpt><trkpt lat="40.85713" lon="16.23346"><ele>263.0</ele><time>2026-04-12T12:03:08.662Z</time></trkpt><trkpt lat="40.8570317" lon="16.23348"><ele>263.0</ele><time>2026-04-12T12:03:10.661Z</time></trkpt><trkpt lat="40.8569433" lon="16.2335033"><ele>263.0</ele><time>2026-04-12T12:03:12.662Z</time></trkpt><trkpt lat="40.8568483" lon="16.23355"><ele>263.0</ele><time>2026-04-12T12:03:14.661Z</time></trkpt><trkpt lat="40.8567567" lon="16.2335867"><ele>263.0</ele><time>2026-04-12T12:03:16.661Z</time></trkpt><trkpt lat="40.8566717" lon="16.233625"><ele>263.0</ele><time>2026-04-12T12:03:18.662Z</time></trkpt><trkpt lat="40.8566117" lon="16.2336933"><ele>263.0</ele><time>2026-04-12T12:03:20.662Z</time></trkpt><trkpt lat="40.8565833" lon="16.233775"><ele>263.0</ele><time>2026-04-12T12:03:22.662Z</time></trkpt><trkpt lat="40.8566217" lon="16.2338683"><ele>263.0</ele><time>2026-04-12T12:03:24.662Z</time></trkpt><trkpt lat="40.8566883" lon="16.2339217"><ele>263.0</ele><time>2026-04-12T12:03:26.663Z</time></trkpt><trkpt lat="40.8567717" lon="16.23391"><ele>263.0</ele><time>2026-04-12T12:03:28.662Z</time></trkpt><trkpt lat="40.8568633" lon="16.2338767"><ele>263.0</ele><time>2026-04-12T12:03:30.663Z</time></trkpt><trkpt lat="40.8569633" lon="16.233895"><ele>263.6666666666667</ele><time>2026-04-12T12:03:32.663Z</time></trkpt><trkpt lat="40.857065" lon="16.2339733"><ele>264.33333333333337</ele><time>2026-04-12T12:03:34.662Z</time></trkpt><trkpt lat="40.8571383" lon="16.2340233"><ele>265.0</ele><time>2026-04-12T12:03:36.663Z</time></trkpt><trkpt lat="40.8572067" lon="16.2340583"><ele>265.6666666666667</ele><time>2026-04-12T12:03:39.663Z</time></trkpt><trkpt lat="40.857305" lon="16.23407"><ele>266.3333333333333</ele><time>2026-04-12T12:03:41.662Z</time></trkpt><trkpt lat="40.8573783" lon="16.2340717"><ele>267.0</ele><time>2026-04-12T12:03:42.662Z</time></trkpt><trkpt lat="40.85745" lon="16.234075"><ele>267.0</ele><time>2026-04-12T12:03:43.662Z</time></trkpt><trkpt lat="40.85752" lon="16.234075"><ele>267.0</ele><time>2026-04-12T12:03:44.663Z</time></trkpt><trkpt lat="40.8575867" lon="16.234055"><ele>267.0</ele><time>2026-04-12T12:03:45.662Z</time></trkpt><trkpt lat="40.8576467" lon="16.2340283"><ele>267.0</ele><time>2026-04-12T12:03:46.662Z</time></trkpt><trkpt lat="40.85776" lon="16.2339517"><ele>267.0</ele><time>2026-04-12T12:03:48.662Z</time></trkpt><trkpt lat="40.8578633" lon="16.2338883"><ele>267.0</ele><time>2026-04-12T12:03:50.662Z</time></trkpt><trkpt lat="40.857935" lon="16.2338983"><ele>268.6666666666667</ele><time>2026-04-12T12:03:52.662Z</time></trkpt><trkpt lat="40.857915" lon="16.2339817"><ele>270.3333333333333</ele><time>2026-04-12T12:03:59.662Z</time></trkpt><trkpt lat="40.8579317" lon="16.2341183"><ele>272.0</ele><time>2026-04-12T12:04:01.663Z</time></trkpt><trkpt lat="40.8579867" lon="16.2342783"><ele>273.66666666666663</ele><time>2026-04-12T12:04:03.663Z</time></trkpt><trkpt lat="40.8580183" lon="16.2343533"><ele>275.3333333333333</ele><time>2026-04-12T12:04:04.662Z</time></trkpt><trkpt lat="40.8580517" lon="16.23444"><ele>277.0</ele><time>2026-04-12T12:04:05.662Z</time></trkpt><trkpt lat="40.8580867" lon="16.2345333"><ele>277.0</ele><time>2026-04-12T12:04:06.662Z</time></trkpt><trkpt lat="40.8581183" lon="16.2346383"><ele>277.0</ele><time>2026-04-12T12:04:07.662Z</time></trkpt><trkpt lat="40.85814" lon="16.23473"><ele>277.0</ele><time>2026-04-12T12:04:08.663Z</time></trkpt><trkpt lat="40.8581667" lon="16.234815"><ele>277.0</ele><time>2026-04-12T12:04:09.662Z</time></trkpt><trkpt lat="40.858195" lon="16.2349083"><ele>277.0</ele><time>2026-04-12T12:04:10.663Z</time></trkpt><trkpt lat="40.8582217" lon="16.2349983"><ele>277.0</ele><time>2026-04-12T12:04:11.663Z</time></trkpt><trkpt lat="40.85825" lon="16.23509"><ele>277.0</ele><time>2026-04-12T12:04:12.663Z</time></trkpt><trkpt lat="40.8582833" lon="16.235185"><ele>277.0</ele><time>2026-04-12T12:04:13.662Z</time></trkpt><trkpt lat="40.858315" lon="16.2352767"><ele>277.0</ele><time>2026-04-12T12:04:14.663Z</time></trkpt><trkpt lat="40.8583433" lon="16.2353767"><ele>277.0</ele><time>2026-04-12T12:04:15.662Z</time></trkpt><trkpt lat="40.858365" lon="16.2354667"><ele>277.0</ele><time>2026-04-12T12:04:16.662Z</time></trkpt><trkpt lat="40.8583833" lon="16.2356267"><ele>277.0</ele><time>2026-04-12T12:04:18.663Z</time></trkpt><trkpt lat="40.8583867" lon="16.2357217"><ele>276.5</ele><time>2026-04-12T12:04:19.663Z</time></trkpt><trkpt lat="40.858385" lon="16.2358217"><ele>276.0</ele><time>2026-04-12T12:04:20.663Z</time></trkpt><trkpt lat="40.8583833" lon="16.2359283"><ele>275.5</ele><time>2026-04-12T12:04:21.662Z</time></trkpt><trkpt lat="40.8583867" lon="16.2360283"><ele>275.0</ele><time>2026-04-12T12:04:22.662Z</time></trkpt><trkpt lat="40.858405" lon="16.23613"><ele>274.5</ele><time>2026-04-12T12:04:23.662Z</time></trkpt><trkpt lat="40.8584317" lon="16.2362383"><ele>274.0</ele><time>2026-04-12T12:04:24.663Z</time></trkpt><trkpt lat="40.8584717" lon="16.2363333"><ele>275.0</ele><time>2026-04-12T12:04:25.662Z</time></trkpt><trkpt lat="40.8585217" lon="16.236435"><ele>276.0</ele><time>2026-04-12T12:04:26.662Z</time></trkpt><trkpt lat="40.85858" lon="16.2365267"><ele>277.0</ele><time>2026-04-12T12:04:27.662Z</time></trkpt><trkpt lat="40.85864" lon="16.236615"><ele>278.0</ele><time>2026-04-12T12:04:28.662Z</time></trkpt><trkpt lat="40.85869" lon="16.236695"><ele>279.0</ele><time>2026-04-12T12:04:29.663Z</time></trkpt><trkpt lat="40.8587283" lon="16.2367617"><ele>280.0</ele><time>2026-04-12T12:04:30.662Z</time></trkpt><trkpt lat="40.8587783" lon="16.236875"><ele>280.0</ele><time>2026-04-12T12:04:32.662Z</time></trkpt><trkpt lat="40.8588583" lon="16.2370183"><ele>280.0</ele><time>2026-04-12T12:04:34.663Z</time></trkpt><trkpt lat="40.8589033" lon="16.237105"><ele>280.0</ele><time>2026-04-12T12:04:35.663Z</time></trkpt><trkpt lat="40.85895" lon="16.237195"><ele>280.0</ele><time>2026-04-12T12:04:36.662Z</time></trkpt><trkpt lat="40.858995" lon="16.2372767"><ele>280.0</ele><time>2026-04-12T12:04:37.662Z</time></trkpt><trkpt lat="40.8590483" lon="16.2374067"><ele>279.0</ele><time>2026-04-12T12:04:39.663Z</time></trkpt><trkpt lat="40.859085" lon="16.2375317"><ele>278.0</ele><time>2026-04-12T12:04:41.662Z</time></trkpt><trkpt lat="40.8591433" lon="16.2376283"><ele>277.0</ele><time>2026-04-12T12:04:43.662Z</time></trkpt><trkpt lat="40.8592133" lon="16.237695"><ele>276.0</ele><time>2026-04-12T12:04:45.663Z</time></trkpt><trkpt lat="40.8593033" lon="16.2378"><ele>275.0</ele><time>2026-04-12T12:04:47.662Z</time></trkpt><trkpt lat="40.8593567" lon="16.2378517"><ele>275.33333333333337</ele><time>2026-04-12T12:04:48.662Z</time></trkpt><trkpt lat="40.8594183" lon="16.2379033"><ele>275.6666666666667</ele><time>2026-04-12T12:04:49.662Z</time></trkpt><trkpt lat="40.8594833" lon="16.2379567"><ele>276.0</ele><time>2026-04-12T12:04:50.663Z</time></trkpt><trkpt lat="40.8595433" lon="16.2380133"><ele>276.3333333333333</ele><time>2026-04-12T12:04:51.662Z</time></trkpt><trkpt lat="40.85963" lon="16.2381"><ele>276.66666666666663</ele><time>2026-04-12T12:04:53.662Z</time></trkpt><trkpt lat="40.8597" lon="16.2382033"><ele>277.0</ele><time>2026-04-12T12:04:55.663Z</time></trkpt><trkpt lat="40.8597667" lon="16.2383167"><ele>277.0</ele><time>2026-04-12T12:04:57.662Z</time></trkpt><trkpt lat="40.8598133" lon="16.2383817"><ele>277.0</ele><time>2026-04-12T12:04:58.662Z</time></trkpt><trkpt lat="40.8598683" lon="16.238455"><ele>277.0</ele><time>2026-04-12T12:04:59.662Z</time></trkpt><trkpt lat="40.8599283" lon="16.238535"><ele>277.0</ele><time>2026-04-12T12:05:00.662Z</time></trkpt><trkpt lat="40.859995" lon="16.238625"><ele>277.0</ele><time>2026-04-12T12:05:01.662Z</time></trkpt><trkpt lat="40.8600583" lon="16.238705"><ele>277.0</ele><time>2026-04-12T12:05:02.662Z</time></trkpt><trkpt lat="40.86011" lon="16.2387733"><ele>276.8333333333333</ele><time>2026-04-12T12:05:03.663Z</time></trkpt><trkpt lat="40.8601967" lon="16.2388633"><ele>276.66666666666663</ele><time>2026-04-12T12:05:05.662Z</time></trkpt><trkpt lat="40.8602517" lon="16.239"><ele>276.5</ele><time>2026-04-12T12:05:07.662Z</time></trkpt><trkpt lat="40.8602583" lon="16.2390917"><ele>276.3333333333333</ele><time>2026-04-12T12:05:09.662Z</time></trkpt><trkpt lat="40.8602067" lon="16.239155"><ele>276.1666666666667</ele><time>2026-04-12T12:05:11.662Z</time></trkpt><trkpt lat="40.8601433" lon="16.239195"><ele>276.0</ele><time>2026-04-12T12:05:12.662Z</time></trkpt><trkpt lat="40.86005" lon="16.2392233"><ele>276.0</ele><time>2026-04-12T12:05:13.662Z</time></trkpt><trkpt lat="40.8599533" lon="16.2392567"><ele>276.0</ele><time>2026-04-12T12:05:14.663Z</time></trkpt><trkpt lat="40.8598467" lon="16.2392967"><ele>276.0</ele><time>2026-04-12T12:05:15.662Z</time></trkpt><trkpt lat="40.85973" lon="16.2393517"><ele>276.0</ele><time>2026-04-12T12:05:16.662Z</time></trkpt><trkpt lat="40.8596133" lon="16.2394067"><ele>276.0</ele><time>2026-04-12T12:05:17.662Z</time></trkpt><trkpt lat="40.8594867" lon="16.2394467"><ele>276.0</ele><time>2026-04-12T12:05:18.662Z</time></trkpt><trkpt lat="40.8593567" lon="16.2394883"><ele>276.0</ele><time>2026-04-12T12:05:19.662Z</time></trkpt><trkpt lat="40.85922" lon="16.23953"><ele>276.0</ele><time>2026-04-12T12:05:20.662Z</time></trkpt><trkpt lat="40.8590833" lon="16.2395817"><ele>276.25</ele><time>2026-04-12T12:05:21.662Z</time></trkpt><trkpt lat="40.8589417" lon="16.23964"><ele>276.5</ele><time>2026-04-12T12:05:22.662Z</time></trkpt><trkpt lat="40.8588017" lon="16.2396933"><ele>276.75</ele><time>2026-04-12T12:05:23.662Z</time></trkpt><trkpt lat="40.85867" lon="16.239745"><ele>277.0</ele><time>2026-04-12T12:05:24.662Z</time></trkpt><trkpt lat="40.8585483" lon="16.2397967"><ele>278.4</ele><time>2026-04-12T12:05:25.663Z</time></trkpt><trkpt lat="40.858435" lon="16.2398433"><ele>279.79999999999995</ele><time>2026-04-12T12:05:26.663Z</time></trkpt><trkpt lat="40.8583267" lon="16.23988"><ele>281.2</ele><time>2026-04-12T12:05:27.662Z</time></trkpt><trkpt lat="40.858225" lon="16.23991"><ele>282.59999999999997</ele><time>2026-04-12T12:05:28.662Z</time></trkpt><trkpt lat="40.8581267" lon="16.239945"><ele>284.0</ele><time>2026-04-12T12:05:29.662Z</time></trkpt><trkpt lat="40.8580233" lon="16.2399783"><ele>284.0</ele><time>2026-04-12T12:05:30.662Z</time></trkpt><trkpt lat="40.85791" lon="16.2400167"><ele>284.0</ele><time>2026-04-12T12:05:31.663Z</time></trkpt><trkpt lat="40.8577967" lon="16.2400667"><ele>284.0</ele><time>2026-04-12T12:05:32.662Z</time></trkpt><trkpt lat="40.857675" lon="16.2401133"><ele>284.0</ele><time>2026-04-12T12:05:33.663Z</time></trkpt><trkpt lat="40.8575533" lon="16.2401583"><ele>284.75</ele><time>2026-04-12T12:05:34.663Z</time></trkpt><trkpt lat="40.8574317" lon="16.2402117"><ele>285.5</ele><time>2026-04-12T12:05:35.662Z</time></trkpt><trkpt lat="40.8573067" lon="16.2402867"><ele>286.25</ele><time>2026-04-12T12:05:36.663Z</time></trkpt><trkpt lat="40.85718" lon="16.2403683"><ele>287.0</ele><time>2026-04-12T12:05:37.662Z</time></trkpt><trkpt lat="40.8570633" lon="16.2404683"><ele>287.0</ele><time>2026-04-12T12:05:38.662Z</time></trkpt><trkpt lat="40.8569533" lon="16.2405867"><ele>287.0</ele><time>2026-04-12T12:05:39.662Z</time></trkpt><trkpt lat="40.8568467" lon="16.240725"><ele>287.0</ele><time>2026-04-12T12:05:40.662Z</time></trkpt><trkpt lat="40.856745" lon="16.240865"><ele>287.0</ele><time>2026-04-12T12:05:41.663Z</time></trkpt><trkpt lat="40.8566567" lon="16.240995"><ele>286.75</ele><time>2026-04-12T12:05:42.662Z</time></trkpt><trkpt lat="40.8565783" lon="16.2411117"><ele>286.5</ele><time>2026-04-12T12:05:43.662Z</time></trkpt><trkpt lat="40.856495" lon="16.2412217"><ele>286.25</ele><time>2026-04-12T12:05:44.662Z</time></trkpt><trkpt lat="40.8564067" lon="16.2413467"><ele>286.0</ele><time>2026-04-12T12:05:45.663Z</time></trkpt><trkpt lat="40.8563167" lon="16.2414683"><ele>285.75</ele><time>2026-04-12T12:05:46.662Z</time></trkpt><trkpt lat="40.85622" lon="16.2416017"><ele>285.5</ele><time>2026-04-12T12:05:47.662Z</time></trkpt><trkpt lat="40.8561233" lon="16.2417383"><ele>285.25</ele><time>2026-04-12T12:05:48.662Z</time></trkpt><trkpt lat="40.856025" lon="16.241885"><ele>285.0</ele><time>2026-04-12T12:05:49.662Z</time></trkpt><trkpt lat="40.8559317" lon="16.2420417"><ele>285.0</ele><time>2026-04-12T12:05:50.663Z</time></trkpt><trkpt lat="40.8558333" lon="16.2421917"><ele>285.0</ele><time>2026-04-12T12:05:51.662Z</time></trkpt><trkpt lat="40.8557233" lon="16.2423417"><ele>285.0</ele><time>2026-04-12T12:05:52.662Z</time></trkpt><trkpt lat="40.8556217" lon="16.2424767"><ele>284.0</ele><time>2026-04-12T12:05:53.662Z</time></trkpt><trkpt lat="40.85553" lon="16.2426133"><ele>283.0</ele><time>2026-04-12T12:05:54.662Z</time></trkpt><trkpt lat="40.8554467" lon="16.242735"><ele>282.0</ele><time>2026-04-12T12:05:55.663Z</time></trkpt><trkpt lat="40.8553567" lon="16.24285"><ele>281.0</ele><time>2026-04-12T12:05:56.662Z</time></trkpt><trkpt lat="40.8552733" lon="16.2429667"><ele>281.0</ele><time>2026-04-12T12:05:57.662Z</time></trkpt><trkpt lat="40.8551783" lon="16.2430583"><ele>281.0</ele><time>2026-04-12T12:05:58.662Z</time></trkpt><trkpt lat="40.8550817" lon="16.243145"><ele>281.0</ele><time>2026-04-12T12:05:59.662Z</time></trkpt><trkpt lat="40.8549833" lon="16.24323"><ele>281.0</ele><time>2026-04-12T12:06:00.663Z</time></trkpt><trkpt lat="40.8548733" lon="16.2433033"><ele>280.5</ele><time>2026-04-12T12:06:01.662Z</time></trkpt><trkpt lat="40.8547567" lon="16.2433733"><ele>280.0</ele><time>2026-04-12T12:06:02.662Z</time></trkpt><trkpt lat="40.8546317" lon="16.24344"><ele>279.5</ele><time>2026-04-12T12:06:03.662Z</time></trkpt><trkpt lat="40.8545" lon="16.2435033"><ele>279.0</ele><time>2026-04-12T12:06:04.662Z</time></trkpt><trkpt lat="40.85437" lon="16.2435733"><ele>279.75</ele><time>2026-04-12T12:06:05.662Z</time></trkpt><trkpt lat="40.8542317" lon="16.243645"><ele>280.5</ele><time>2026-04-12T12:06:06.662Z</time></trkpt><trkpt lat="40.854095" lon="16.24372"><ele>281.25</ele><time>2026-04-12T12:06:07.663Z</time></trkpt><trkpt lat="40.853955" lon="16.24379"><ele>282.0</ele><time>2026-04-12T12:06:08.663Z</time></trkpt><trkpt lat="40.85382" lon="16.2438667"><ele>282.0</ele><time>2026-04-12T12:06:09.662Z</time></trkpt><trkpt lat="40.8536817" lon="16.24393"><ele>282.0</ele><time>2026-04-12T12:06:10.662Z</time></trkpt><trkpt lat="40.8535383" lon="16.244005"><ele>282.0</ele><time>2026-04-12T12:06:11.662Z</time></trkpt><trkpt lat="40.8533883" lon="16.2440733"><ele>285.0</ele><time>2026-04-12T12:06:12.662Z</time></trkpt><trkpt lat="40.853235" lon="16.2441433"><ele>288.0</ele><time>2026-04-12T12:06:13.663Z</time></trkpt><trkpt lat="40.85308" lon="16.2442133"><ele>291.0</ele><time>2026-04-12T12:06:14.663Z</time></trkpt><trkpt lat="40.8529133" lon="16.2442883"><ele>291.0</ele><time>2026-04-12T12:06:15.662Z</time></trkpt><trkpt lat="40.8527533" lon="16.24436"><ele>291.0</ele><time>2026-04-12T12:06:16.662Z</time></trkpt><trkpt lat="40.8525983" lon="16.2444317"><ele>291.0</ele><time>2026-04-12T12:06:17.662Z</time></trkpt><trkpt lat="40.85245" lon="16.2444917"><ele>288.0</ele><time>2026-04-12T12:06:18.662Z</time></trkpt><trkpt lat="40.8523067" lon="16.2445533"><ele>285.0</ele><time>2026-04-12T12:06:19.662Z</time></trkpt><trkpt lat="40.85216" lon="16.2446"><ele>282.0</ele><time>2026-04-12T12:06:20.662Z</time></trkpt><trkpt lat="40.8520017" lon="16.2446367"><ele>282.0</ele><time>2026-04-12T12:06:21.662Z</time></trkpt><trkpt lat="40.8518367" lon="16.24468"><ele>282.0</ele><time>2026-04-12T12:06:22.662Z</time></trkpt><trkpt lat="40.8516633" lon="16.2447083"><ele>282.0</ele><time>2026-04-12T12:06:23.663Z</time></trkpt><trkpt lat="40.8514883" lon="16.244745"><ele>282.0</ele><time>2026-04-12T12:06:24.662Z</time></trkpt><trkpt lat="40.851305" lon="16.2447683"><ele>282.0</ele><time>2026-04-12T12:06:25.662Z</time></trkpt><trkpt lat="40.8511317" lon="16.2447983"><ele>282.0</ele><time>2026-04-12T12:06:26.663Z</time></trkpt><trkpt lat="40.85096" lon="16.24483"><ele>282.3333333333333</ele><time>2026-04-12T12:06:27.662Z</time></trkpt><trkpt lat="40.8507867" lon="16.244865"><ele>282.66666666666663</ele><time>2026-04-12T12:06:28.662Z</time></trkpt><trkpt lat="40.85061" lon="16.2448917"><ele>283.0</ele><time>2026-04-12T12:06:29.662Z</time></trkpt><trkpt lat="40.8504467" lon="16.24492"><ele>283.0</ele><time>2026-04-12T12:06:30.663Z</time></trkpt><trkpt lat="40.8502733" lon="16.2449567"><ele>283.0</ele><time>2026-04-12T12:06:31.663Z</time></trkpt><trkpt lat="40.8501" lon="16.2450017"><ele>283.0</ele><time>2026-04-12T12:06:32.662Z</time></trkpt><trkpt lat="40.8499333" lon="16.2450283"><ele>281.3333333333333</ele><time>2026-04-12T12:06:33.663Z</time></trkpt><trkpt lat="40.8497617" lon="16.24505"><ele>279.6666666666667</ele><time>2026-04-12T12:06:34.663Z</time></trkpt><trkpt lat="40.8496033" lon="16.245075"><ele>278.0</ele><time>2026-04-12T12:06:35.663Z</time></trkpt><trkpt lat="40.8494567" lon="16.2451033"><ele>278.0</ele><time>2026-04-12T12:06:36.662Z</time></trkpt><trkpt lat="40.8493133" lon="16.2451333"><ele>278.0</ele><time>2026-04-12T12:06:37.662Z</time></trkpt><trkpt lat="40.849165" lon="16.24517"><ele>278.0</ele><time>2026-04-12T12:06:38.662Z</time></trkpt><trkpt lat="40.8490217" lon="16.2452017"><ele>278.0</ele><time>2026-04-12T12:06:39.662Z</time></trkpt><trkpt lat="40.8488717" lon="16.2452283"><ele>275.6666666666667</ele><time>2026-04-12T12:06:40.662Z</time></trkpt><trkpt lat="40.8487233" lon="16.245255"><ele>273.3333333333333</ele><time>2026-04-12T12:06:41.662Z</time></trkpt><trkpt lat="40.84856" lon="16.2452833"><ele>271.0</ele><time>2026-04-12T12:06:42.662Z</time></trkpt><trkpt lat="40.8483933" lon="16.2453067"><ele>271.0</ele><time>2026-04-12T12:06:43.662Z</time></trkpt><trkpt lat="40.8482333" lon="16.2453417"><ele>271.0</ele><time>2026-04-12T12:06:44.662Z</time></trkpt><trkpt lat="40.8480817" lon="16.245375"><ele>271.0</ele><time>2026-04-12T12:06:45.662Z</time></trkpt><trkpt lat="40.84792" lon="16.2454167"><ele>271.0</ele><time>2026-04-12T12:06:46.662Z</time></trkpt><trkpt lat="40.8477533" lon="16.2454633"><ele>271.0</ele><time>2026-04-12T12:06:47.662Z</time></trkpt><trkpt lat="40.8475917" lon="16.245525"><ele>271.0</ele><time>2026-04-12T12:06:48.663Z</time></trkpt><trkpt lat="40.8474333" lon="16.24558"><ele>272.66666666666663</ele><time>2026-04-12T12:06:49.662Z</time></trkpt><trkpt lat="40.8472767" lon="16.2456517"><ele>274.3333333333333</ele><time>2026-04-12T12:06:50.662Z</time></trkpt><trkpt lat="40.8471217" lon="16.2457333"><ele>276.0</ele><time>2026-04-12T12:06:51.662Z</time></trkpt><trkpt lat="40.84697" lon="16.2458217"><ele>276.0</ele><time>2026-04-12T12:06:52.662Z</time></trkpt><trkpt lat="40.8468167" lon="16.2459067"><ele>276.0</ele><time>2026-04-12T12:06:53.663Z</time></trkpt><trkpt lat="40.8466667" lon="16.245995"><ele>276.0</ele><time>2026-04-12T12:06:54.662Z</time></trkpt><trkpt lat="40.8465267" lon="16.2460967"><ele>276.6666666666667</ele><time>2026-04-12T12:06:55.663Z</time></trkpt><trkpt lat="40.84638" lon="16.2462033"><ele>277.33333333333337</ele><time>2026-04-12T12:06:56.663Z</time></trkpt><trkpt lat="40.8462383" lon="16.2463067"><ele>278.0</ele><time>2026-04-12T12:06:57.662Z</time></trkpt><trkpt lat="40.846095" lon="16.2464"><ele>279.6666666666667</ele><time>2026-04-12T12:06:58.662Z</time></trkpt><trkpt lat="40.845955" lon="16.2464933"><ele>281.3333333333333</ele><time>2026-04-12T12:06:59.662Z</time></trkpt><trkpt lat="40.8458167" lon="16.24659"><ele>283.0</ele><time>2026-04-12T12:07:00.662Z</time></trkpt><trkpt lat="40.84568" lon="16.2466933"><ele>283.0</ele><time>2026-04-12T12:07:01.663Z</time></trkpt><trkpt lat="40.8455567" lon="16.2467883"><ele>283.0</ele><time>2026-04-12T12:07:02.662Z</time></trkpt><trkpt lat="40.84544" lon="16.24687"><ele>283.0</ele><time>2026-04-12T12:07:03.663Z</time></trkpt><trkpt lat="40.8453267" lon="16.2469567"><ele>283.0</ele><time>2026-04-12T12:07:04.662Z</time></trkpt><trkpt lat="40.8452233" lon="16.2470283"><ele>282.5</ele><time>2026-04-12T12:07:05.662Z</time></trkpt><trkpt lat="40.845125" lon="16.2471"><ele>282.0</ele><time>2026-04-12T12:07:06.662Z</time></trkpt><trkpt lat="40.8450283" lon="16.2471633"><ele>281.5</ele><time>2026-04-12T12:07:07.663Z</time></trkpt><trkpt lat="40.8449317" lon="16.2472317"><ele>281.0</ele><time>2026-04-12T12:07:08.662Z</time></trkpt><trkpt lat="40.8448217" lon="16.24731"><ele>281.0</ele><time>2026-04-12T12:07:09.662Z</time></trkpt><trkpt lat="40.84471" lon="16.2473933"><ele>281.0</ele><time>2026-04-12T12:07:10.663Z</time></trkpt><trkpt lat="40.8445967" lon="16.2474733"><ele>281.0</ele><time>2026-04-12T12:07:11.662Z</time></trkpt><trkpt lat="40.8444833" lon="16.247555"><ele>281.0</ele><time>2026-04-12T12:07:12.662Z</time></trkpt><trkpt lat="40.8443817" lon="16.2476233"><ele>279.8</ele><time>2026-04-12T12:07:13.662Z</time></trkpt><trkpt lat="40.8442867" lon="16.2476833"><ele>278.6</ele><time>2026-04-12T12:07:14.663Z</time></trkpt><trkpt lat="40.84419" lon="16.2477467"><ele>277.4</ele><time>2026-04-12T12:07:15.662Z</time></trkpt><trkpt lat="40.8441" lon="16.2478067"><ele>276.2</ele><time>2026-04-12T12:07:16.662Z</time></trkpt><trkpt lat="40.8439967" lon="16.2478483"><ele>275.0</ele><time>2026-04-12T12:07:17.663Z</time></trkpt><trkpt lat="40.8438817" lon="16.2478817"><ele>275.0</ele><time>2026-04-12T12:07:18.662Z</time></trkpt><trkpt lat="40.8437583" lon="16.2479133"><ele>275.0</ele><time>2026-04-12T12:07:19.662Z</time></trkpt><trkpt lat="40.8436383" lon="16.2479333"><ele>275.0</ele><time>2026-04-12T12:07:20.663Z</time></trkpt><trkpt lat="40.8435317" lon="16.2479483"><ele>275.0</ele><time>2026-04-12T12:07:21.662Z</time></trkpt><trkpt lat="40.8434467" lon="16.2479633"><ele>275.0</ele><time>2026-04-12T12:07:22.662Z</time></trkpt><trkpt lat="40.8433783" lon="16.2479733"><ele>274.8</ele><time>2026-04-12T12:07:23.662Z</time></trkpt><trkpt lat="40.843265" lon="16.24795"><ele>274.6</ele><time>2026-04-12T12:07:25.662Z</time></trkpt><trkpt lat="40.84318" lon="16.2478817"><ele>274.4</ele><time>2026-04-12T12:07:27.663Z</time></trkpt><trkpt lat="40.8431233" lon="16.2477767"><ele>274.2</ele><time>2026-04-12T12:07:29.662Z</time></trkpt><trkpt lat="40.8431067" lon="16.2476617"><ele>274.0</ele><time>2026-04-12T12:07:31.662Z</time></trkpt><trkpt lat="40.8431267" lon="16.2475383"><ele>274.0</ele><time>2026-04-12T12:07:33.663Z</time></trkpt><trkpt lat="40.8431783" lon="16.24743"><ele>274.0</ele><time>2026-04-12T12:07:35.662Z</time></trkpt><trkpt lat="40.8431983" lon="16.2473433"><ele>274.0</ele><time>2026-04-12T12:07:37.662Z</time></trkpt><trkpt lat="40.84322" lon="16.24726"><ele>274.0</ele><time>2026-04-12T12:07:39.662Z</time></trkpt><trkpt lat="40.8432683" lon="16.2471833"><ele>274.0</ele><time>2026-04-12T12:07:41.662Z</time></trkpt><trkpt lat="40.843345" lon="16.2470633"><ele>274.0</ele><time>2026-04-12T12:07:43.662Z</time></trkpt><trkpt lat="40.8433817" lon="16.2469833"><ele>273.66666666666663</ele><time>2026-04-12T12:07:44.662Z</time></trkpt><trkpt lat="40.8434033" lon="16.2468817"><ele>273.3333333333333</ele><time>2026-04-12T12:07:45.663Z</time></trkpt><trkpt lat="40.8434233" lon="16.246775"><ele>273.0</ele><time>2026-04-12T12:07:46.662Z</time></trkpt><trkpt lat="40.8434367" lon="16.2466617"><ele>272.6666666666667</ele><time>2026-04-12T12:07:47.663Z</time></trkpt><trkpt lat="40.8434533" lon="16.2465383"><ele>272.33333333333337</ele><time>2026-04-12T12:07:48.662Z</time></trkpt><trkpt lat="40.84346" lon="16.2464067"><ele>272.0</ele><time>2026-04-12T12:07:49.662Z</time></trkpt><trkpt lat="40.843445" lon="16.24628"><ele>271.2</ele><time>2026-04-12T12:07:50.663Z</time></trkpt><trkpt lat="40.8434233" lon="16.2461467"><ele>270.4</ele><time>2026-04-12T12:07:51.662Z</time></trkpt><trkpt lat="40.8433983" lon="16.2460033"><ele>269.6</ele><time>2026-04-12T12:07:52.662Z</time></trkpt><trkpt lat="40.8433667" lon="16.2458533"><ele>268.8</ele><time>2026-04-12T12:07:53.662Z</time></trkpt><trkpt lat="40.84334" lon="16.2457033"><ele>268.0</ele><time>2026-04-12T12:07:54.662Z</time></trkpt><trkpt lat="40.843315" lon="16.2455467"><ele>267.5</ele><time>2026-04-12T12:07:55.663Z</time></trkpt><trkpt lat="40.8432917" lon="16.2453933"><ele>267.0</ele><time>2026-04-12T12:07:56.662Z</time></trkpt><trkpt lat="40.84327" lon="16.24524"><ele>266.5</ele><time>2026-04-12T12:07:57.662Z</time></trkpt><trkpt lat="40.8432433" lon="16.245075"><ele>266.0</ele><time>2026-04-12T12:07:58.662Z</time></trkpt><trkpt lat="40.843215" lon="16.2449117"><ele>266.0</ele><time>2026-04-12T12:07:59.662Z</time></trkpt><trkpt lat="40.8431867" lon="16.2447433"><ele>266.0</ele><time>2026-04-12T12:08:00.662Z</time></trkpt><trkpt lat="40.84316" lon="16.2445817"><ele>266.0</ele><time>2026-04-12T12:08:01.662Z</time></trkpt><trkpt lat="40.84313" lon="16.2444233"><ele>266.0</ele><time>2026-04-12T12:08:02.662Z</time></trkpt><trkpt lat="40.8430983" lon="16.2442583"><ele>266.0</ele><time>2026-04-12T12:08:03.662Z</time></trkpt><trkpt lat="40.8430667" lon="16.2440883"><ele>266.0</ele><time>2026-04-12T12:08:04.663Z</time></trkpt><trkpt lat="40.8430367" lon="16.2439233"><ele>266.0</ele><time>2026-04-12T12:08:05.662Z</time></trkpt><trkpt lat="40.8430133" lon="16.2437383"><ele>266.0</ele><time>2026-04-12T12:08:06.662Z</time></trkpt><trkpt lat="40.8429817" lon="16.2435533"><ele>265.33333333333337</ele><time>2026-04-12T12:08:07.662Z</time></trkpt><trkpt lat="40.842945" lon="16.243365"><ele>264.6666666666667</ele><time>2026-04-12T12:08:08.663Z</time></trkpt><trkpt lat="40.8429183" lon="16.2431717"><ele>264.0</ele><time>2026-04-12T12:08:09.662Z</time></trkpt><trkpt lat="40.8428917" lon="16.2429633"><ele>263.3333333333333</ele><time>2026-04-12T12:08:10.663Z</time></trkpt><trkpt lat="40.84286" lon="16.242765"><ele>262.66666666666663</ele><time>2026-04-12T12:08:11.663Z</time></trkpt><trkpt lat="40.84283" lon="16.2425683"><ele>262.0</ele><time>2026-04-12T12:08:12.662Z</time></trkpt><trkpt lat="40.8427917" lon="16.2423683"><ele>262.0</ele><time>2026-04-12T12:08:13.662Z</time></trkpt><trkpt lat="40.8427567" lon="16.2421633"><ele>262.0</ele><time>2026-04-12T12:08:14.662Z</time></trkpt><trkpt lat="40.8427183" lon="16.2419533"><ele>262.0</ele><time>2026-04-12T12:08:15.662Z</time></trkpt><trkpt lat="40.8426767" lon="16.2417367"><ele>262.0</ele><time>2026-04-12T12:08:16.663Z</time></trkpt><trkpt lat="40.8426417" lon="16.2415183"><ele>262.0</ele><time>2026-04-12T12:08:17.662Z</time></trkpt><trkpt lat="40.8426067" lon="16.2413"><ele>262.0</ele><time>2026-04-12T12:08:18.663Z</time></trkpt><trkpt lat="40.8425667" lon="16.2410883"><ele>262.3333333333333</ele><time>2026-04-12T12:08:19.662Z</time></trkpt><trkpt lat="40.8425317" lon="16.2408817"><ele>262.6666666666667</ele><time>2026-04-12T12:08:20.662Z</time></trkpt><trkpt lat="40.8424967" lon="16.2406817"><ele>263.0</ele><time>2026-04-12T12:08:21.662Z</time></trkpt><trkpt lat="40.8424667" lon="16.240485"><ele>263.0</ele><time>2026-04-12T12:08:22.662Z</time></trkpt><trkpt lat="40.8424367" lon="16.24028"><ele>263.0</ele><time>2026-04-12T12:08:23.662Z</time></trkpt><trkpt lat="40.842405" lon="16.24007"><ele>263.0</ele><time>2026-04-12T12:08:24.663Z</time></trkpt><trkpt lat="40.84237" lon="16.2398583"><ele>263.0</ele><time>2026-04-12T12:08:25.662Z</time></trkpt><trkpt lat="40.8423383" lon="16.23965"><ele>263.0</ele><time>2026-04-12T12:08:26.662Z</time></trkpt><trkpt lat="40.8423067" lon="16.2394367"><ele>263.0</ele><time>2026-04-12T12:08:27.662Z</time></trkpt><trkpt lat="40.8422667" lon="16.2392317"><ele>263.0</ele><time>2026-04-12T12:08:28.662Z</time></trkpt><trkpt lat="40.842235" lon="16.2390317"><ele>263.0</ele><time>2026-04-12T12:08:29.662Z</time></trkpt><trkpt lat="40.842205" lon="16.2388283"><ele>263.0</ele><time>2026-04-12T12:08:30.663Z</time></trkpt><trkpt lat="40.8421717" lon="16.2386317"><ele>263.0</ele><time>2026-04-12T12:08:31.662Z</time></trkpt><trkpt lat="40.8421383" lon="16.2384333"><ele>263.0</ele><time>2026-04-12T12:08:32.663Z</time></trkpt><trkpt lat="40.8421067" lon="16.2382533"><ele>263.0</ele><time>2026-04-12T12:08:33.662Z</time></trkpt><trkpt lat="40.8420817" lon="16.2380717"><ele>263.0</ele><time>2026-04-12T12:08:34.662Z</time></trkpt><trkpt lat="40.8420517" lon="16.2378883"><ele>262.6666666666667</ele><time>2026-04-12T12:08:35.663Z</time></trkpt><trkpt lat="40.8420217" lon="16.2376983"><ele>262.3333333333333</ele><time>2026-04-12T12:08:36.662Z</time></trkpt><trkpt lat="40.8419867" lon="16.2375"><ele>262.0</ele><time>2026-04-12T12:08:37.662Z</time></trkpt><trkpt lat="40.8419517" lon="16.2373033"><ele>262.66666666666663</ele><time>2026-04-12T12:08:38.662Z</time></trkpt><trkpt lat="40.8419217" lon="16.2370917"><ele>263.3333333333333</ele><time>2026-04-12T12:08:39.662Z</time></trkpt><trkpt lat="40.8418867" lon="16.236885"><ele>264.0</ele><time>2026-04-12T12:08:40.663Z</time></trkpt><trkpt lat="40.84185" lon="16.2366833"><ele>264.0</ele><time>2026-04-12T12:08:41.662Z</time></trkpt><trkpt lat="40.8418133" lon="16.2364817"><ele>264.0</ele><time>2026-04-12T12:08:42.662Z</time></trkpt><trkpt lat="40.8417833" lon="16.23629"><ele>264.0</ele><time>2026-04-12T12:08:43.662Z</time></trkpt><trkpt lat="40.8417517" lon="16.2361117"><ele>264.0</ele><time>2026-04-12T12:08:44.662Z</time></trkpt><trkpt lat="40.8417217" lon="16.2359467"><ele>264.8</ele><time>2026-04-12T12:08:45.662Z</time></trkpt><trkpt lat="40.8416967" lon="16.2357917"><ele>265.59999999999997</ele><time>2026-04-12T12:08:46.662Z</time></trkpt><trkpt lat="40.841675" lon="16.2356517"><ele>266.4</ele><time>2026-04-12T12:08:47.663Z</time></trkpt><trkpt lat="40.8416567" lon="16.235525"><ele>267.2</ele><time>2026-04-12T12:08:48.663Z</time></trkpt><trkpt lat="40.8416367" lon="16.2354083"><ele>268.0</ele><time>2026-04-12T12:08:49.662Z</time></trkpt><trkpt lat="40.841615" lon="16.2353083"><ele>268.66666666666663</ele><time>2026-04-12T12:08:50.663Z</time></trkpt><trkpt lat="40.8416033" lon="16.23522"><ele>269.3333333333333</ele><time>2026-04-12T12:08:51.663Z</time></trkpt><trkpt lat="40.8415933" lon="16.235135"><ele>270.0</ele><time>2026-04-12T12:08:52.662Z</time></trkpt><trkpt lat="40.8415817" lon="16.2350083"><ele>270.6666666666667</ele><time>2026-04-12T12:08:54.662Z</time></trkpt><trkpt lat="40.8415883" lon="16.2348983"><ele>271.33333333333337</ele><time>2026-04-12T12:09:09.663Z</time></trkpt><trkpt lat="40.8416633" lon="16.23486"><ele>272.0</ele><time>2026-04-12T12:09:12.662Z</time></trkpt><trkpt lat="40.8417283" lon="16.234895"><ele>272.0</ele><time>2026-04-12T12:09:14.662Z</time></trkpt><trkpt lat="40.8418167" lon="16.234905"><ele>272.0</ele><time>2026-04-12T12:09:16.662Z</time></trkpt><trkpt lat="40.8419033" lon="16.2349033"><ele>272.0</ele><time>2026-04-12T12:09:18.663Z</time></trkpt><trkpt lat="40.8419933" lon="16.2349383"><ele>272.0</ele><time>2026-04-12T12:09:20.662Z</time></trkpt><trkpt lat="40.8420633" lon="16.234995"><ele>272.0</ele><time>2026-04-12T12:09:22.662Z</time></trkpt><trkpt lat="40.84216" lon="16.2350483"><ele>272.0</ele><time>2026-04-12T12:09:24.662Z</time></trkpt><trkpt lat="40.8422733" lon="16.2351383"><ele>272.0</ele><time>2026-04-12T12:09:26.662Z</time></trkpt><trkpt lat="40.8423367" lon="16.235205"><ele>272.0</ele><time>2026-04-12T12:09:27.662Z</time></trkpt><trkpt lat="40.842395" lon="16.2352783"><ele>272.0</ele><time>2026-04-12T12:09:28.662Z</time></trkpt><trkpt lat="40.8424633" lon="16.2353433"><ele>272.0</ele><time>2026-04-12T12:09:29.662Z</time></trkpt><trkpt lat="40.84253" lon="16.2353933"><ele>272.0</ele><time>2026-04-12T12:09:30.662Z</time></trkpt><trkpt lat="40.8425933" lon="16.23544"><ele>272.0</ele><time>2026-04-12T12:09:31.663Z</time></trkpt><trkpt lat="40.8426733" lon="16.2354883"><ele>272.0</ele><time>2026-04-12T12:09:32.663Z</time></trkpt><trkpt lat="40.8427383" lon="16.2355517"><ele>272.0</ele><time>2026-04-12T12:09:33.662Z</time></trkpt><trkpt lat="40.8427983" lon="16.235605"><ele>272.0</ele><time>2026-04-12T12:09:34.662Z</time></trkpt><trkpt lat="40.8428833" lon="16.235685"><ele>272.0</ele><time>2026-04-12T12:09:36.663Z</time></trkpt><trkpt lat="40.84296" lon="16.23577"><ele>270.4</ele><time>2026-04-12T12:09:38.662Z</time></trkpt><trkpt lat="40.843015" lon="16.235885"><ele>268.79999999999995</ele><time>2026-04-12T12:09:40.662Z</time></trkpt><trkpt lat="40.8430433" lon="16.2359933"><ele>267.2</ele><time>2026-04-12T12:09:42.663Z</time></trkpt><trkpt lat="40.8430933" lon="16.236095"><ele>265.59999999999997</ele><time>2026-04-12T12:09:44.663Z</time></trkpt><trkpt lat="40.84318" lon="16.2361917"><ele>264.0</ele><time>2026-04-12T12:09:46.663Z</time></trkpt><trkpt lat="40.843245" lon="16.236215"><ele>264.0</ele><time>2026-04-12T12:09:47.662Z</time></trkpt><trkpt lat="40.8433133" lon="16.236245"><ele>264.0</ele><time>2026-04-12T12:09:48.662Z</time></trkpt><trkpt lat="40.843395" lon="16.2362833"><ele>264.0</ele><time>2026-04-12T12:09:49.662Z</time></trkpt><trkpt lat="40.8434833" lon="16.2363183"><ele>264.0</ele><time>2026-04-12T12:09:50.662Z</time></trkpt><trkpt lat="40.843545" lon="16.2363633"><ele>264.0</ele><time>2026-04-12T12:09:51.662Z</time></trkpt><trkpt lat="40.8436" lon="16.2364167"><ele>264.0</ele><time>2026-04-12T12:09:52.662Z</time></trkpt><trkpt lat="40.8436983" lon="16.23652"><ele>263.6666666666667</ele><time>2026-04-12T12:09:54.662Z</time></trkpt><trkpt lat="40.8437533" lon="16.2365783"><ele>263.3333333333333</ele><time>2026-04-12T12:09:55.663Z</time></trkpt><trkpt lat="40.8438267" lon="16.2366283"><ele>263.0</ele><time>2026-04-12T12:09:56.662Z</time></trkpt><trkpt lat="40.8438983" lon="16.236655"><ele>262.66666666666663</ele><time>2026-04-12T12:09:57.662Z</time></trkpt><trkpt lat="40.84401" lon="16.2366583"><ele>262.3333333333333</ele><time>2026-04-12T12:09:59.663Z</time></trkpt><trkpt lat="40.8441033" lon="16.2366717"><ele>262.0</ele><time>2026-04-12T12:10:01.662Z</time></trkpt><trkpt lat="40.8441867" lon="16.236715"><ele>262.0</ele><time>2026-04-12T12:10:03.662Z</time></trkpt><trkpt lat="40.8442883" lon="16.2367783"><ele>262.0</ele><time>2026-04-12T12:10:05.662Z</time></trkpt><trkpt lat="40.8443667" lon="16.2368517"><ele>262.0</ele><time>2026-04-12T12:10:07.663Z</time></trkpt><trkpt lat="40.8444233" lon="16.23694"><ele>262.0</ele><time>2026-04-12T12:10:09.662Z</time></trkpt><trkpt lat="40.8444658" lon="16.2370239"><ele>262.0</ele><time>2026-04-12T12:10:12.662Z</time></trkpt></trkseg></trk></gpx>